<?xml version="1.0" encoding="UTF-8" standalone="no" ?>
<gpx xmlns="http://www.topografix.com/GPX/1/1" xmlns:xsi="http://www.w3.org/2001/XMLSchema-instance" xsi:schemaLocation="http://www.topografix.com/GPX/1/1 http://www.topografix.com/GPX/1/1/gpx.xsd" version="1.1" creator="VisuGPX - https://www.visugpx.com">
  <metadata>
    <name>Marche de la Gym de Marsannay du jeudi 23 Janvier 2020</name>
    <desc><![CDATA[de Brochon à Gevrey pour découvrir les déco de la St Vincent 2020
]]></desc>
  </metadata>
  <trk>
    <name><![CDATA[Track]]></name>
    <trkseg>
      <trkpt lat="47.24062" lon="4.96556">
        <ele>331.4221496582</ele>
        <time>2020-01-23T09:01:00 0100</time>
      </trkpt>
      <trkpt lat="47.24064" lon="4.96555">
        <ele>330.00228881836</ele>
        <time>2020-01-23T09:01:05 0100</time>
      </trkpt>
      <trkpt lat="47.24064" lon="4.96555">
        <ele>329.41586303711</ele>
        <time>2020-01-23T09:01:09 0100</time>
      </trkpt>
      <trkpt lat="47.24064" lon="4.96555">
        <ele>326.95590209961</ele>
        <time>2020-01-23T09:01:13 0100</time>
      </trkpt>
      <trkpt lat="47.24064" lon="4.96555">
        <ele>324.30902099609</ele>
        <time>2020-01-23T09:01:17 0100</time>
      </trkpt>
      <trkpt lat="47.24064" lon="4.96555">
        <ele>326.90411376953</ele>
        <time>2020-01-23T09:01:21 0100</time>
      </trkpt>
      <trkpt lat="47.24064" lon="4.96555">
        <ele>327.45007324219</ele>
        <time>2020-01-23T09:01:25 0100</time>
      </trkpt>
      <trkpt lat="47.24064" lon="4.96555">
        <ele>326.63415527344</ele>
        <time>2020-01-23T09:01:29 0100</time>
      </trkpt>
      <trkpt lat="47.24066" lon="4.96561">
        <ele>326.34915161133</ele>
        <time>2020-01-23T09:01:33 0100</time>
      </trkpt>
      <trkpt lat="47.24066" lon="4.96561">
        <ele>326.33938598633</ele>
        <time>2020-01-23T09:01:37 0100</time>
      </trkpt>
      <trkpt lat="47.24066" lon="4.96561">
        <ele>326.32028198242</ele>
        <time>2020-01-23T09:01:41 0100</time>
      </trkpt>
      <trkpt lat="47.24066" lon="4.96561">
        <ele>326.29635620117</ele>
        <time>2020-01-23T09:01:45 0100</time>
      </trkpt>
      <trkpt lat="47.24066" lon="4.96561">
        <ele>326.27096557617</ele>
        <time>2020-01-23T09:01:49 0100</time>
      </trkpt>
      <trkpt lat="47.24066" lon="4.96561">
        <ele>326.17922973633</ele>
        <time>2020-01-23T09:01:53 0100</time>
      </trkpt>
      <trkpt lat="47.24066" lon="4.96561">
        <ele>325.91448974609</ele>
        <time>2020-01-23T09:01:57 0100</time>
      </trkpt>
      <trkpt lat="47.24066" lon="4.96561">
        <ele>325.88870239258</ele>
        <time>2020-01-23T09:02:01 0100</time>
      </trkpt>
      <trkpt lat="47.24066" lon="4.96561">
        <ele>325.73345947266</ele>
        <time>2020-01-23T09:02:05 0100</time>
      </trkpt>
      <trkpt lat="47.24067" lon="4.96568">
        <ele>325.41177368164</ele>
        <time>2020-01-23T09:02:09 0100</time>
      </trkpt>
      <trkpt lat="47.24068" lon="4.96571">
        <ele>325.02740478516</ele>
        <time>2020-01-23T09:02:13 0100</time>
      </trkpt>
      <trkpt lat="47.2407" lon="4.96576">
        <ele>324.57620239258</ele>
        <time>2020-01-23T09:02:17 0100</time>
      </trkpt>
      <trkpt lat="47.24071" lon="4.96582">
        <ele>324.02758789062</ele>
        <time>2020-01-23T09:02:21 0100</time>
      </trkpt>
      <trkpt lat="47.2407" lon="4.96588">
        <ele>323.4147644043</ele>
        <time>2020-01-23T09:02:25 0100</time>
      </trkpt>
      <trkpt lat="47.24067" lon="4.96592">
        <ele>322.78594970703</ele>
        <time>2020-01-23T09:02:29 0100</time>
      </trkpt>
      <trkpt lat="47.24063" lon="4.96592">
        <ele>322.20077514648</ele>
        <time>2020-01-23T09:02:33 0100</time>
      </trkpt>
      <trkpt lat="47.24058" lon="4.96593">
        <ele>321.60696411133</ele>
        <time>2020-01-23T09:02:37 0100</time>
      </trkpt>
      <trkpt lat="47.24054" lon="4.96593">
        <ele>321.0673828125</ele>
        <time>2020-01-23T09:02:41 0100</time>
      </trkpt>
      <trkpt lat="47.24051" lon="4.96593">
        <ele>320.65802001953</ele>
        <time>2020-01-23T09:02:45 0100</time>
      </trkpt>
      <trkpt lat="47.24048" lon="4.96595">
        <ele>320.26290893555</ele>
        <time>2020-01-23T09:02:49 0100</time>
      </trkpt>
      <trkpt lat="47.24044" lon="4.96597">
        <ele>320.02490234375</ele>
        <time>2020-01-23T09:02:53 0100</time>
      </trkpt>
      <trkpt lat="47.24041" lon="4.966">
        <ele>319.89028930664</ele>
        <time>2020-01-23T09:02:57 0100</time>
      </trkpt>
      <trkpt lat="47.24037" lon="4.96604">
        <ele>319.83825683594</ele>
        <time>2020-01-23T09:03:01 0100</time>
      </trkpt>
      <trkpt lat="47.24032" lon="4.96607">
        <ele>319.73251342773</ele>
        <time>2020-01-23T09:03:05 0100</time>
      </trkpt>
      <trkpt lat="47.24027" lon="4.96611">
        <ele>319.60018920898</ele>
        <time>2020-01-23T09:03:09 0100</time>
      </trkpt>
      <trkpt lat="47.24024" lon="4.96614">
        <ele>319.45742797852</ele>
        <time>2020-01-23T09:03:13 0100</time>
      </trkpt>
      <trkpt lat="47.24021" lon="4.96617">
        <ele>319.25619506836</ele>
        <time>2020-01-23T09:03:17 0100</time>
      </trkpt>
      <trkpt lat="47.24019" lon="4.9662">
        <ele>319.0446472168</ele>
        <time>2020-01-23T09:03:21 0100</time>
      </trkpt>
      <trkpt lat="47.24016" lon="4.96625">
        <ele>318.81851196289</ele>
        <time>2020-01-23T09:03:25 0100</time>
      </trkpt>
      <trkpt lat="47.24013" lon="4.9663">
        <ele>318.54846191406</ele>
        <time>2020-01-23T09:03:29 0100</time>
      </trkpt>
      <trkpt lat="47.24009" lon="4.96636">
        <ele>318.35482788086</ele>
        <time>2020-01-23T09:03:33 0100</time>
      </trkpt>
      <trkpt lat="47.24004" lon="4.96639">
        <ele>318.20346069336</ele>
        <time>2020-01-23T09:03:37 0100</time>
      </trkpt>
      <trkpt lat="47.24" lon="4.96638">
        <ele>317.98440551758</ele>
        <time>2020-01-23T09:03:41 0100</time>
      </trkpt>
      <trkpt lat="47.23997" lon="4.96638">
        <ele>317.60314941406</ele>
        <time>2020-01-23T09:03:45 0100</time>
      </trkpt>
      <trkpt lat="47.23993" lon="4.96641">
        <ele>317.11590576172</ele>
        <time>2020-01-23T09:03:49 0100</time>
      </trkpt>
      <trkpt lat="47.23989" lon="4.96644">
        <ele>316.65145874023</ele>
        <time>2020-01-23T09:03:53 0100</time>
      </trkpt>
      <trkpt lat="47.23985" lon="4.96648">
        <ele>316.27587890625</ele>
        <time>2020-01-23T09:03:57 0100</time>
      </trkpt>
      <trkpt lat="47.23981" lon="4.96651">
        <ele>316.00485229492</ele>
        <time>2020-01-23T09:04:01 0100</time>
      </trkpt>
      <trkpt lat="47.23978" lon="4.96655">
        <ele>315.66696166992</ele>
        <time>2020-01-23T09:04:05 0100</time>
      </trkpt>
      <trkpt lat="47.23976" lon="4.9666">
        <ele>315.36950683594</ele>
        <time>2020-01-23T09:04:09 0100</time>
      </trkpt>
      <trkpt lat="47.23973" lon="4.96665">
        <ele>315.11297607422</ele>
        <time>2020-01-23T09:04:13 0100</time>
      </trkpt>
      <trkpt lat="47.23969" lon="4.96669">
        <ele>314.9065246582</ele>
        <time>2020-01-23T09:04:17 0100</time>
      </trkpt>
      <trkpt lat="47.23965" lon="4.96672">
        <ele>314.59094238281</ele>
        <time>2020-01-23T09:04:21 0100</time>
      </trkpt>
      <trkpt lat="47.2396" lon="4.96673">
        <ele>314.3076171875</ele>
        <time>2020-01-23T09:04:25 0100</time>
      </trkpt>
      <trkpt lat="47.23956" lon="4.96672">
        <ele>314.12399291992</ele>
        <time>2020-01-23T09:04:29 0100</time>
      </trkpt>
      <trkpt lat="47.23953" lon="4.96669">
        <ele>313.95620727539</ele>
        <time>2020-01-23T09:04:33 0100</time>
      </trkpt>
      <trkpt lat="47.2395" lon="4.96666">
        <ele>313.8092956543</ele>
        <time>2020-01-23T09:04:37 0100</time>
      </trkpt>
      <trkpt lat="47.23946" lon="4.96663">
        <ele>313.70318603516</ele>
        <time>2020-01-23T09:04:41 0100</time>
      </trkpt>
      <trkpt lat="47.23942" lon="4.96662">
        <ele>313.5783996582</ele>
        <time>2020-01-23T09:04:45 0100</time>
      </trkpt>
      <trkpt lat="47.23938" lon="4.9666">
        <ele>313.45364379883</ele>
        <time>2020-01-23T09:04:49 0100</time>
      </trkpt>
      <trkpt lat="47.23935" lon="4.96657">
        <ele>313.3796081543</ele>
        <time>2020-01-23T09:04:53 0100</time>
      </trkpt>
      <trkpt lat="47.23931" lon="4.96655">
        <ele>313.39611816406</ele>
        <time>2020-01-23T09:04:57 0100</time>
      </trkpt>
      <trkpt lat="47.23926" lon="4.96653">
        <ele>313.31237792969</ele>
        <time>2020-01-23T09:05:01 0100</time>
      </trkpt>
      <trkpt lat="47.23922" lon="4.96652">
        <ele>313.05017089844</ele>
        <time>2020-01-23T09:05:05 0100</time>
      </trkpt>
      <trkpt lat="47.23919" lon="4.9665">
        <ele>312.85235595703</ele>
        <time>2020-01-23T09:05:09 0100</time>
      </trkpt>
      <trkpt lat="47.23916" lon="4.96647">
        <ele>312.73736572266</ele>
        <time>2020-01-23T09:05:13 0100</time>
      </trkpt>
      <trkpt lat="47.23912" lon="4.96643">
        <ele>312.52651977539</ele>
        <time>2020-01-23T09:05:17 0100</time>
      </trkpt>
      <trkpt lat="47.2391" lon="4.96639">
        <ele>312.3005065918</ele>
        <time>2020-01-23T09:05:21 0100</time>
      </trkpt>
      <trkpt lat="47.23908" lon="4.96633">
        <ele>312.20379638672</ele>
        <time>2020-01-23T09:05:25 0100</time>
      </trkpt>
      <trkpt lat="47.23906" lon="4.96629">
        <ele>312.0895690918</ele>
        <time>2020-01-23T09:05:29 0100</time>
      </trkpt>
      <trkpt lat="47.23903" lon="4.96625">
        <ele>311.99243164062</ele>
        <time>2020-01-23T09:05:33 0100</time>
      </trkpt>
      <trkpt lat="47.23902" lon="4.96622">
        <ele>312.00411987305</ele>
        <time>2020-01-23T09:05:37 0100</time>
      </trkpt>
      <trkpt lat="47.239" lon="4.96619">
        <ele>312.15634155273</ele>
        <time>2020-01-23T09:05:41 0100</time>
      </trkpt>
      <trkpt lat="47.23898" lon="4.96615">
        <ele>312.37832641602</ele>
        <time>2020-01-23T09:05:45 0100</time>
      </trkpt>
      <trkpt lat="47.23896" lon="4.96609">
        <ele>312.67474365234</ele>
        <time>2020-01-23T09:05:49 0100</time>
      </trkpt>
      <trkpt lat="47.23895" lon="4.96604">
        <ele>312.94482421875</ele>
        <time>2020-01-23T09:05:53 0100</time>
      </trkpt>
      <trkpt lat="47.23893" lon="4.96599">
        <ele>313.16583251953</ele>
        <time>2020-01-23T09:05:57 0100</time>
      </trkpt>
      <trkpt lat="47.23891" lon="4.96595">
        <ele>313.39395141602</ele>
        <time>2020-01-23T09:06:01 0100</time>
      </trkpt>
      <trkpt lat="47.23889" lon="4.9659">
        <ele>313.63949584961</ele>
        <time>2020-01-23T09:06:05 0100</time>
      </trkpt>
      <trkpt lat="47.23887" lon="4.96585">
        <ele>313.88775634766</ele>
        <time>2020-01-23T09:06:09 0100</time>
      </trkpt>
      <trkpt lat="47.23886" lon="4.9658">
        <ele>314.12951660156</ele>
        <time>2020-01-23T09:06:13 0100</time>
      </trkpt>
      <trkpt lat="47.23884" lon="4.96576">
        <ele>314.33926391602</ele>
        <time>2020-01-23T09:06:17 0100</time>
      </trkpt>
      <trkpt lat="47.23882" lon="4.96572">
        <ele>314.53094482422</ele>
        <time>2020-01-23T09:06:21 0100</time>
      </trkpt>
      <trkpt lat="47.2388" lon="4.96567">
        <ele>314.76107788086</ele>
        <time>2020-01-23T09:06:25 0100</time>
      </trkpt>
      <trkpt lat="47.23878" lon="4.96563">
        <ele>315.0041809082</ele>
        <time>2020-01-23T09:06:29 0100</time>
      </trkpt>
      <trkpt lat="47.23876" lon="4.9656">
        <ele>315.31564331055</ele>
        <time>2020-01-23T09:06:33 0100</time>
      </trkpt>
      <trkpt lat="47.23874" lon="4.96556">
        <ele>315.65509033203</ele>
        <time>2020-01-23T09:06:37 0100</time>
      </trkpt>
      <trkpt lat="47.23872" lon="4.96554">
        <ele>316.01419067383</ele>
        <time>2020-01-23T09:06:41 0100</time>
      </trkpt>
      <trkpt lat="47.2387" lon="4.96549">
        <ele>316.43530273438</ele>
        <time>2020-01-23T09:06:45 0100</time>
      </trkpt>
      <trkpt lat="47.23868" lon="4.96547">
        <ele>316.89141845703</ele>
        <time>2020-01-23T09:06:49 0100</time>
      </trkpt>
      <trkpt lat="47.23866" lon="4.96542">
        <ele>317.34411621094</ele>
        <time>2020-01-23T09:06:53 0100</time>
      </trkpt>
      <trkpt lat="47.23865" lon="4.96537">
        <ele>317.72116088867</ele>
        <time>2020-01-23T09:06:57 0100</time>
      </trkpt>
      <trkpt lat="47.23864" lon="4.96533">
        <ele>318.06909179688</ele>
        <time>2020-01-23T09:07:01 0100</time>
      </trkpt>
      <trkpt lat="47.23863" lon="4.96528">
        <ele>318.38977050781</ele>
        <time>2020-01-23T09:07:05 0100</time>
      </trkpt>
      <trkpt lat="47.23862" lon="4.96523">
        <ele>318.72778320312</ele>
        <time>2020-01-23T09:07:09 0100</time>
      </trkpt>
      <trkpt lat="47.23861" lon="4.96519">
        <ele>319.13687133789</ele>
        <time>2020-01-23T09:07:13 0100</time>
      </trkpt>
      <trkpt lat="47.23861" lon="4.96515">
        <ele>319.59616088867</ele>
        <time>2020-01-23T09:07:17 0100</time>
      </trkpt>
      <trkpt lat="47.23861" lon="4.96511">
        <ele>320.05847167969</ele>
        <time>2020-01-23T09:07:21 0100</time>
      </trkpt>
      <trkpt lat="47.2386" lon="4.96507">
        <ele>320.48944091797</ele>
        <time>2020-01-23T09:07:25 0100</time>
      </trkpt>
      <trkpt lat="47.2386" lon="4.96505">
        <ele>320.92306518555</ele>
        <time>2020-01-23T09:07:29 0100</time>
      </trkpt>
      <trkpt lat="47.2386" lon="4.965">
        <ele>321.36810302734</ele>
        <time>2020-01-23T09:07:33 0100</time>
      </trkpt>
      <trkpt lat="47.23859" lon="4.96496">
        <ele>321.80743408203</ele>
        <time>2020-01-23T09:07:37 0100</time>
      </trkpt>
      <trkpt lat="47.23859" lon="4.96494">
        <ele>322.26736450195</ele>
        <time>2020-01-23T09:07:41 0100</time>
      </trkpt>
      <trkpt lat="47.23858" lon="4.9649">
        <ele>322.72698974609</ele>
        <time>2020-01-23T09:07:45 0100</time>
      </trkpt>
      <trkpt lat="47.23857" lon="4.96487">
        <ele>323.201171875</ele>
        <time>2020-01-23T09:07:49 0100</time>
      </trkpt>
      <trkpt lat="47.23856" lon="4.96484">
        <ele>323.7565612793</ele>
        <time>2020-01-23T09:07:53 0100</time>
      </trkpt>
      <trkpt lat="47.23856" lon="4.96481">
        <ele>324.37020874023</ele>
        <time>2020-01-23T09:07:57 0100</time>
      </trkpt>
      <trkpt lat="47.23856" lon="4.96478">
        <ele>325.03753662109</ele>
        <time>2020-01-23T09:08:01 0100</time>
      </trkpt>
      <trkpt lat="47.23855" lon="4.96474">
        <ele>325.69161987305</ele>
        <time>2020-01-23T09:08:05 0100</time>
      </trkpt>
      <trkpt lat="47.23856" lon="4.9647">
        <ele>326.26681518555</ele>
        <time>2020-01-23T09:08:09 0100</time>
      </trkpt>
      <trkpt lat="47.23856" lon="4.96465">
        <ele>326.7483215332</ele>
        <time>2020-01-23T09:08:13 0100</time>
      </trkpt>
      <trkpt lat="47.23857" lon="4.96461">
        <ele>327.20074462891</ele>
        <time>2020-01-23T09:08:17 0100</time>
      </trkpt>
      <trkpt lat="47.23856" lon="4.96458">
        <ele>327.56317138672</ele>
        <time>2020-01-23T09:08:21 0100</time>
      </trkpt>
      <trkpt lat="47.23855" lon="4.96455">
        <ele>327.90826416016</ele>
        <time>2020-01-23T09:08:25 0100</time>
      </trkpt>
      <trkpt lat="47.23854" lon="4.96451">
        <ele>328.24298095703</ele>
        <time>2020-01-23T09:08:29 0100</time>
      </trkpt>
      <trkpt lat="47.23853" lon="4.96448">
        <ele>328.54177856445</ele>
        <time>2020-01-23T09:08:33 0100</time>
      </trkpt>
      <trkpt lat="47.23852" lon="4.96444">
        <ele>328.83352661133</ele>
        <time>2020-01-23T09:08:37 0100</time>
      </trkpt>
      <trkpt lat="47.2385" lon="4.96441">
        <ele>329.17425537109</ele>
        <time>2020-01-23T09:08:41 0100</time>
      </trkpt>
      <trkpt lat="47.23848" lon="4.96438">
        <ele>329.53512573242</ele>
        <time>2020-01-23T09:08:45 0100</time>
      </trkpt>
      <trkpt lat="47.23846" lon="4.96435">
        <ele>329.84924316406</ele>
        <time>2020-01-23T09:08:48 0100</time>
      </trkpt>
      <trkpt lat="47.23844" lon="4.96432">
        <ele>330.18731689453</ele>
        <time>2020-01-23T09:08:52 0100</time>
      </trkpt>
      <trkpt lat="47.23843" lon="4.96429">
        <ele>330.52325439453</ele>
        <time>2020-01-23T09:08:56 0100</time>
      </trkpt>
      <trkpt lat="47.23842" lon="4.96424">
        <ele>330.88293457031</ele>
        <time>2020-01-23T09:09:00 0100</time>
      </trkpt>
      <trkpt lat="47.23841" lon="4.96421">
        <ele>331.30279541016</ele>
        <time>2020-01-23T09:09:04 0100</time>
      </trkpt>
      <trkpt lat="47.23839" lon="4.96418">
        <ele>331.74975585938</ele>
        <time>2020-01-23T09:09:08 0100</time>
      </trkpt>
      <trkpt lat="47.23837" lon="4.96416">
        <ele>332.13516235352</ele>
        <time>2020-01-23T09:09:12 0100</time>
      </trkpt>
      <trkpt lat="47.23834" lon="4.96413">
        <ele>332.41891479492</ele>
        <time>2020-01-23T09:09:16 0100</time>
      </trkpt>
      <trkpt lat="47.2383" lon="4.9641">
        <ele>332.72952270508</ele>
        <time>2020-01-23T09:09:20 0100</time>
      </trkpt>
      <trkpt lat="47.23828" lon="4.96407">
        <ele>333.07754516602</ele>
        <time>2020-01-23T09:09:24 0100</time>
      </trkpt>
      <trkpt lat="47.23826" lon="4.96406">
        <ele>333.50354003906</ele>
        <time>2020-01-23T09:09:28 0100</time>
      </trkpt>
      <trkpt lat="47.23823" lon="4.96404">
        <ele>334.00137329102</ele>
        <time>2020-01-23T09:09:32 0100</time>
      </trkpt>
      <trkpt lat="47.23822" lon="4.96402">
        <ele>334.54632568359</ele>
        <time>2020-01-23T09:09:36 0100</time>
      </trkpt>
      <trkpt lat="47.23822" lon="4.96402">
        <ele>335.04650878906</ele>
        <time>2020-01-23T09:09:40 0100</time>
      </trkpt>
      <trkpt lat="47.23821" lon="4.96399">
        <ele>335.69268798828</ele>
        <time>2020-01-23T09:09:44 0100</time>
      </trkpt>
      <trkpt lat="47.23819" lon="4.96396">
        <ele>336.25823974609</ele>
        <time>2020-01-23T09:09:48 0100</time>
      </trkpt>
      <trkpt lat="47.23817" lon="4.96394">
        <ele>336.74523925781</ele>
        <time>2020-01-23T09:09:52 0100</time>
      </trkpt>
      <trkpt lat="47.23815" lon="4.96391">
        <ele>337.14959716797</ele>
        <time>2020-01-23T09:09:56 0100</time>
      </trkpt>
      <trkpt lat="47.23812" lon="4.96388">
        <ele>337.59545898438</ele>
        <time>2020-01-23T09:10:00 0100</time>
      </trkpt>
      <trkpt lat="47.2381" lon="4.96385">
        <ele>338.02578735352</ele>
        <time>2020-01-23T09:10:04 0100</time>
      </trkpt>
      <trkpt lat="47.23808" lon="4.96382">
        <ele>338.4150390625</ele>
        <time>2020-01-23T09:10:08 0100</time>
      </trkpt>
      <trkpt lat="47.23807" lon="4.96378">
        <ele>338.80798339844</ele>
        <time>2020-01-23T09:10:12 0100</time>
      </trkpt>
      <trkpt lat="47.23805" lon="4.96376">
        <ele>339.19943237305</ele>
        <time>2020-01-23T09:10:16 0100</time>
      </trkpt>
      <trkpt lat="47.23803" lon="4.96372">
        <ele>339.53695678711</ele>
        <time>2020-01-23T09:10:20 0100</time>
      </trkpt>
      <trkpt lat="47.23802" lon="4.96368">
        <ele>339.91418457031</ele>
        <time>2020-01-23T09:10:24 0100</time>
      </trkpt>
      <trkpt lat="47.23801" lon="4.96366">
        <ele>340.21798706055</ele>
        <time>2020-01-23T09:10:28 0100</time>
      </trkpt>
      <trkpt lat="47.23801" lon="4.96366">
        <ele>340.25698852539</ele>
        <time>2020-01-23T09:10:32 0100</time>
      </trkpt>
      <trkpt lat="47.23801" lon="4.96366">
        <ele>340.29998779297</ele>
        <time>2020-01-23T09:10:36 0100</time>
      </trkpt>
      <trkpt lat="47.23801" lon="4.96366">
        <ele>340.34478759766</ele>
        <time>2020-01-23T09:10:40 0100</time>
      </trkpt>
      <trkpt lat="47.23801" lon="4.96366">
        <ele>340.38775634766</ele>
        <time>2020-01-23T09:10:44 0100</time>
      </trkpt>
      <trkpt lat="47.23801" lon="4.96366">
        <ele>340.4306640625</ele>
        <time>2020-01-23T09:10:48 0100</time>
      </trkpt>
      <trkpt lat="47.23801" lon="4.96366">
        <ele>340.47320556641</ele>
        <time>2020-01-23T09:10:52 0100</time>
      </trkpt>
      <trkpt lat="47.23801" lon="4.96366">
        <ele>340.51690673828</ele>
        <time>2020-01-23T09:10:56 0100</time>
      </trkpt>
      <trkpt lat="47.23801" lon="4.96366">
        <ele>340.56326293945</ele>
        <time>2020-01-23T09:11:00 0100</time>
      </trkpt>
      <trkpt lat="47.23801" lon="4.96366">
        <ele>340.61059570312</ele>
        <time>2020-01-23T09:11:04 0100</time>
      </trkpt>
      <trkpt lat="47.23801" lon="4.96366">
        <ele>340.65725708008</ele>
        <time>2020-01-23T09:11:08 0100</time>
      </trkpt>
      <trkpt lat="47.23801" lon="4.96365">
        <ele>340.70474243164</ele>
        <time>2020-01-23T09:11:12 0100</time>
      </trkpt>
      <trkpt lat="47.23801" lon="4.96365">
        <ele>340.75332641602</ele>
        <time>2020-01-23T09:11:16 0100</time>
      </trkpt>
      <trkpt lat="47.23801" lon="4.96365">
        <ele>340.80337524414</ele>
        <time>2020-01-23T09:11:20 0100</time>
      </trkpt>
      <trkpt lat="47.23801" lon="4.96365">
        <ele>340.85159301758</ele>
        <time>2020-01-23T09:11:24 0100</time>
      </trkpt>
      <trkpt lat="47.23801" lon="4.96364">
        <ele>341.29254150391</ele>
        <time>2020-01-23T09:11:28 0100</time>
      </trkpt>
      <trkpt lat="47.238" lon="4.9636">
        <ele>341.69250488281</ele>
        <time>2020-01-23T09:11:32 0100</time>
      </trkpt>
      <trkpt lat="47.23798" lon="4.96357">
        <ele>342.05795288086</ele>
        <time>2020-01-23T09:11:36 0100</time>
      </trkpt>
      <trkpt lat="47.23797" lon="4.96353">
        <ele>342.33740234375</ele>
        <time>2020-01-23T09:11:40 0100</time>
      </trkpt>
      <trkpt lat="47.23796" lon="4.9635">
        <ele>342.64990234375</ele>
        <time>2020-01-23T09:11:44 0100</time>
      </trkpt>
      <trkpt lat="47.23794" lon="4.96346">
        <ele>343.04867553711</ele>
        <time>2020-01-23T09:11:48 0100</time>
      </trkpt>
      <trkpt lat="47.23792" lon="4.96343">
        <ele>343.53018188477</ele>
        <time>2020-01-23T09:11:52 0100</time>
      </trkpt>
      <trkpt lat="47.2379" lon="4.9634">
        <ele>344.05255126953</ele>
        <time>2020-01-23T09:11:56 0100</time>
      </trkpt>
      <trkpt lat="47.23787" lon="4.96336">
        <ele>344.53704833984</ele>
        <time>2020-01-23T09:12:00 0100</time>
      </trkpt>
      <trkpt lat="47.23785" lon="4.96333">
        <ele>344.99575805664</ele>
        <time>2020-01-23T09:12:04 0100</time>
      </trkpt>
      <trkpt lat="47.23783" lon="4.9633">
        <ele>345.52886962891</ele>
        <time>2020-01-23T09:12:08 0100</time>
      </trkpt>
      <trkpt lat="47.23781" lon="4.96326">
        <ele>346.02520751953</ele>
        <time>2020-01-23T09:12:12 0100</time>
      </trkpt>
      <trkpt lat="47.23778" lon="4.96324">
        <ele>346.43194580078</ele>
        <time>2020-01-23T09:12:16 0100</time>
      </trkpt>
      <trkpt lat="47.23775" lon="4.96321">
        <ele>346.75259399414</ele>
        <time>2020-01-23T09:12:20 0100</time>
      </trkpt>
      <trkpt lat="47.23774" lon="4.96319">
        <ele>347.08343505859</ele>
        <time>2020-01-23T09:12:24 0100</time>
      </trkpt>
      <trkpt lat="47.23772" lon="4.96316">
        <ele>347.32360839844</ele>
        <time>2020-01-23T09:12:28 0100</time>
      </trkpt>
      <trkpt lat="47.23773" lon="4.96316">
        <ele>347.34255981445</ele>
        <time>2020-01-23T09:12:32 0100</time>
      </trkpt>
      <trkpt lat="47.23773" lon="4.96316">
        <ele>347.36465454102</ele>
        <time>2020-01-23T09:12:36 0100</time>
      </trkpt>
      <trkpt lat="47.23773" lon="4.96316">
        <ele>347.39599609375</ele>
        <time>2020-01-23T09:12:40 0100</time>
      </trkpt>
      <trkpt lat="47.23773" lon="4.96316">
        <ele>347.53634643555</ele>
        <time>2020-01-23T09:12:44 0100</time>
      </trkpt>
      <trkpt lat="47.23772" lon="4.96316">
        <ele>347.87622070312</ele>
        <time>2020-01-23T09:12:48 0100</time>
      </trkpt>
      <trkpt lat="47.2377" lon="4.96313">
        <ele>348.34201049805</ele>
        <time>2020-01-23T09:12:52 0100</time>
      </trkpt>
      <trkpt lat="47.23767" lon="4.9631">
        <ele>348.76669311523</ele>
        <time>2020-01-23T09:12:56 0100</time>
      </trkpt>
      <trkpt lat="47.23765" lon="4.96308">
        <ele>349.21221923828</ele>
        <time>2020-01-23T09:13:00 0100</time>
      </trkpt>
      <trkpt lat="47.23764" lon="4.96306">
        <ele>349.69232177734</ele>
        <time>2020-01-23T09:13:04 0100</time>
      </trkpt>
      <trkpt lat="47.23761" lon="4.96304">
        <ele>350.19241333008</ele>
        <time>2020-01-23T09:13:08 0100</time>
      </trkpt>
      <trkpt lat="47.23759" lon="4.96302">
        <ele>350.63165283203</ele>
        <time>2020-01-23T09:13:12 0100</time>
      </trkpt>
      <trkpt lat="47.23757" lon="4.96301">
        <ele>351.01690673828</ele>
        <time>2020-01-23T09:13:16 0100</time>
      </trkpt>
      <trkpt lat="47.23755" lon="4.96298">
        <ele>351.40270996094</ele>
        <time>2020-01-23T09:13:20 0100</time>
      </trkpt>
      <trkpt lat="47.23753" lon="4.96296">
        <ele>351.75497436523</ele>
        <time>2020-01-23T09:13:24 0100</time>
      </trkpt>
      <trkpt lat="47.2375" lon="4.96294">
        <ele>352.05804443359</ele>
        <time>2020-01-23T09:13:28 0100</time>
      </trkpt>
      <trkpt lat="47.23748" lon="4.96292">
        <ele>352.34622192383</ele>
        <time>2020-01-23T09:13:32 0100</time>
      </trkpt>
      <trkpt lat="47.23746" lon="4.96289">
        <ele>352.6731262207</ele>
        <time>2020-01-23T09:13:36 0100</time>
      </trkpt>
      <trkpt lat="47.23743" lon="4.96286">
        <ele>352.9753112793</ele>
        <time>2020-01-23T09:13:40 0100</time>
      </trkpt>
      <trkpt lat="47.23741" lon="4.96283">
        <ele>353.26278686523</ele>
        <time>2020-01-23T09:13:44 0100</time>
      </trkpt>
      <trkpt lat="47.23739" lon="4.9628">
        <ele>353.56332397461</ele>
        <time>2020-01-23T09:13:48 0100</time>
      </trkpt>
      <trkpt lat="47.23737" lon="4.96278">
        <ele>353.84622192383</ele>
        <time>2020-01-23T09:13:52 0100</time>
      </trkpt>
      <trkpt lat="47.23734" lon="4.96276">
        <ele>354.14242553711</ele>
        <time>2020-01-23T09:13:56 0100</time>
      </trkpt>
      <trkpt lat="47.23731" lon="4.96274">
        <ele>354.45449829102</ele>
        <time>2020-01-23T09:14:00 0100</time>
      </trkpt>
      <trkpt lat="47.23728" lon="4.96271">
        <ele>354.80657958984</ele>
        <time>2020-01-23T09:14:04 0100</time>
      </trkpt>
      <trkpt lat="47.23727" lon="4.9627">
        <ele>354.99606323242</ele>
        <time>2020-01-23T09:14:08 0100</time>
      </trkpt>
      <trkpt lat="47.23726" lon="4.96272">
        <ele>355.2375793457</ele>
        <time>2020-01-23T09:14:12 0100</time>
      </trkpt>
      <trkpt lat="47.23725" lon="4.96271">
        <ele>355.44860839844</ele>
        <time>2020-01-23T09:14:16 0100</time>
      </trkpt>
      <trkpt lat="47.23722" lon="4.96268">
        <ele>355.74377441406</ele>
        <time>2020-01-23T09:14:20 0100</time>
      </trkpt>
      <trkpt lat="47.23719" lon="4.96265">
        <ele>356.04742431641</ele>
        <time>2020-01-23T09:14:24 0100</time>
      </trkpt>
      <trkpt lat="47.23716" lon="4.96264">
        <ele>356.50796508789</ele>
        <time>2020-01-23T09:14:28 0100</time>
      </trkpt>
      <trkpt lat="47.23713" lon="4.96262">
        <ele>357.12158203125</ele>
        <time>2020-01-23T09:14:32 0100</time>
      </trkpt>
      <trkpt lat="47.2371" lon="4.9626">
        <ele>357.67706298828</ele>
        <time>2020-01-23T09:14:36 0100</time>
      </trkpt>
      <trkpt lat="47.23706" lon="4.96259">
        <ele>358.17538452148</ele>
        <time>2020-01-23T09:14:40 0100</time>
      </trkpt>
      <trkpt lat="47.23702" lon="4.96257">
        <ele>358.74133300781</ele>
        <time>2020-01-23T09:14:44 0100</time>
      </trkpt>
      <trkpt lat="47.23698" lon="4.96255">
        <ele>359.37652587891</ele>
        <time>2020-01-23T09:14:48 0100</time>
      </trkpt>
      <trkpt lat="47.23693" lon="4.96254">
        <ele>359.98068237305</ele>
        <time>2020-01-23T09:14:52 0100</time>
      </trkpt>
      <trkpt lat="47.23688" lon="4.96254">
        <ele>360.52514648438</ele>
        <time>2020-01-23T09:14:56 0100</time>
      </trkpt>
      <trkpt lat="47.23682" lon="4.96254">
        <ele>361.25717163086</ele>
        <time>2020-01-23T09:15:00 0100</time>
      </trkpt>
      <trkpt lat="47.23677" lon="4.96254">
        <ele>362.01550292969</ele>
        <time>2020-01-23T09:15:04 0100</time>
      </trkpt>
      <trkpt lat="47.23672" lon="4.96253">
        <ele>362.63006591797</ele>
        <time>2020-01-23T09:15:08 0100</time>
      </trkpt>
      <trkpt lat="47.23667" lon="4.96253">
        <ele>363.20053100586</ele>
        <time>2020-01-23T09:15:12 0100</time>
      </trkpt>
      <trkpt lat="47.23663" lon="4.96252">
        <ele>363.7165222168</ele>
        <time>2020-01-23T09:15:16 0100</time>
      </trkpt>
      <trkpt lat="47.23659" lon="4.96251">
        <ele>364.21426391602</ele>
        <time>2020-01-23T09:15:20 0100</time>
      </trkpt>
      <trkpt lat="47.23655" lon="4.9625">
        <ele>364.69036865234</ele>
        <time>2020-01-23T09:15:24 0100</time>
      </trkpt>
      <trkpt lat="47.23652" lon="4.96249">
        <ele>365.02752685547</ele>
        <time>2020-01-23T09:15:28 0100</time>
      </trkpt>
      <trkpt lat="47.23652" lon="4.96251">
        <ele>365.09823608398</ele>
        <time>2020-01-23T09:15:32 0100</time>
      </trkpt>
      <trkpt lat="47.23652" lon="4.96251">
        <ele>365.10211181641</ele>
        <time>2020-01-23T09:15:36 0100</time>
      </trkpt>
      <trkpt lat="47.23647" lon="4.96251">
        <ele>364.94708251953</ele>
        <time>2020-01-23T09:15:40 0100</time>
      </trkpt>
      <trkpt lat="47.23643" lon="4.96252">
        <ele>364.74877929688</ele>
        <time>2020-01-23T09:15:44 0100</time>
      </trkpt>
      <trkpt lat="47.2364" lon="4.96251">
        <ele>364.56323242188</ele>
        <time>2020-01-23T09:15:48 0100</time>
      </trkpt>
      <trkpt lat="47.23639" lon="4.96251">
        <ele>364.34201049805</ele>
        <time>2020-01-23T09:15:52 0100</time>
      </trkpt>
      <trkpt lat="47.23638" lon="4.96251">
        <ele>364.10098266602</ele>
        <time>2020-01-23T09:15:56 0100</time>
      </trkpt>
      <trkpt lat="47.23636" lon="4.96253">
        <ele>363.7165222168</ele>
        <time>2020-01-23T09:16:00 0100</time>
      </trkpt>
      <trkpt lat="47.23636" lon="4.96257">
        <ele>363.28845214844</ele>
        <time>2020-01-23T09:16:04 0100</time>
      </trkpt>
      <trkpt lat="47.23636" lon="4.96259">
        <ele>362.97943115234</ele>
        <time>2020-01-23T09:16:08 0100</time>
      </trkpt>
      <trkpt lat="47.23636" lon="4.96262">
        <ele>362.75183105469</ele>
        <time>2020-01-23T09:16:12 0100</time>
      </trkpt>
      <trkpt lat="47.23635" lon="4.96267">
        <ele>362.59100341797</ele>
        <time>2020-01-23T09:16:16 0100</time>
      </trkpt>
      <trkpt lat="47.23635" lon="4.96271">
        <ele>362.42962646484</ele>
        <time>2020-01-23T09:16:20 0100</time>
      </trkpt>
      <trkpt lat="47.23634" lon="4.96274">
        <ele>362.21325683594</ele>
        <time>2020-01-23T09:16:24 0100</time>
      </trkpt>
      <trkpt lat="47.23633" lon="4.96278">
        <ele>361.92236328125</ele>
        <time>2020-01-23T09:16:28 0100</time>
      </trkpt>
      <trkpt lat="47.23632" lon="4.96281">
        <ele>361.51849365234</ele>
        <time>2020-01-23T09:16:32 0100</time>
      </trkpt>
      <trkpt lat="47.23631" lon="4.96285">
        <ele>361.03277587891</ele>
        <time>2020-01-23T09:16:36 0100</time>
      </trkpt>
      <trkpt lat="47.2363" lon="4.96289">
        <ele>360.4778137207</ele>
        <time>2020-01-23T09:16:40 0100</time>
      </trkpt>
      <trkpt lat="47.23629" lon="4.96291">
        <ele>359.7971496582</ele>
        <time>2020-01-23T09:16:44 0100</time>
      </trkpt>
      <trkpt lat="47.23629" lon="4.96293">
        <ele>359.31185913086</ele>
        <time>2020-01-23T09:16:48 0100</time>
      </trkpt>
      <trkpt lat="47.23626" lon="4.96294">
        <ele>358.86791992188</ele>
        <time>2020-01-23T09:16:52 0100</time>
      </trkpt>
      <trkpt lat="47.23622" lon="4.96293">
        <ele>358.3671875</ele>
        <time>2020-01-23T09:16:56 0100</time>
      </trkpt>
      <trkpt lat="47.23618" lon="4.96291">
        <ele>357.77713012695</ele>
        <time>2020-01-23T09:17:00 0100</time>
      </trkpt>
      <trkpt lat="47.23614" lon="4.96289">
        <ele>357.13031005859</ele>
        <time>2020-01-23T09:17:04 0100</time>
      </trkpt>
      <trkpt lat="47.23609" lon="4.96286">
        <ele>356.41168212891</ele>
        <time>2020-01-23T09:17:08 0100</time>
      </trkpt>
      <trkpt lat="47.23606" lon="4.96284">
        <ele>355.58923339844</ele>
        <time>2020-01-23T09:17:12 0100</time>
      </trkpt>
      <trkpt lat="47.23604" lon="4.96281">
        <ele>354.86715698242</ele>
        <time>2020-01-23T09:17:16 0100</time>
      </trkpt>
      <trkpt lat="47.23603" lon="4.96278">
        <ele>354.30517578125</ele>
        <time>2020-01-23T09:17:20 0100</time>
      </trkpt>
      <trkpt lat="47.23602" lon="4.96274">
        <ele>353.93884277344</ele>
        <time>2020-01-23T09:17:24 0100</time>
      </trkpt>
      <trkpt lat="47.23602" lon="4.96269">
        <ele>353.74411010742</ele>
        <time>2020-01-23T09:17:28 0100</time>
      </trkpt>
      <trkpt lat="47.23602" lon="4.96265">
        <ele>353.53192138672</ele>
        <time>2020-01-23T09:17:32 0100</time>
      </trkpt>
      <trkpt lat="47.23603" lon="4.96259">
        <ele>353.45849609375</ele>
        <time>2020-01-23T09:17:36 0100</time>
      </trkpt>
      <trkpt lat="47.23603" lon="4.96255">
        <ele>353.51834106445</ele>
        <time>2020-01-23T09:17:40 0100</time>
      </trkpt>
      <trkpt lat="47.23603" lon="4.96253">
        <ele>353.60757446289</ele>
        <time>2020-01-23T09:17:44 0100</time>
      </trkpt>
      <trkpt lat="47.23603" lon="4.96247">
        <ele>353.65414428711</ele>
        <time>2020-01-23T09:17:48 0100</time>
      </trkpt>
      <trkpt lat="47.23602" lon="4.96244">
        <ele>353.62945556641</ele>
        <time>2020-01-23T09:17:52 0100</time>
      </trkpt>
      <trkpt lat="47.236" lon="4.96241">
        <ele>353.61273193359</ele>
        <time>2020-01-23T09:17:56 0100</time>
      </trkpt>
      <trkpt lat="47.23598" lon="4.96239">
        <ele>353.56713867188</ele>
        <time>2020-01-23T09:18:00 0100</time>
      </trkpt>
      <trkpt lat="47.23595" lon="4.96235">
        <ele>353.48947143555</ele>
        <time>2020-01-23T09:18:04 0100</time>
      </trkpt>
      <trkpt lat="47.23593" lon="4.96233">
        <ele>353.39892578125</ele>
        <time>2020-01-23T09:18:08 0100</time>
      </trkpt>
      <trkpt lat="47.2359" lon="4.9623">
        <ele>353.33264160156</ele>
        <time>2020-01-23T09:18:12 0100</time>
      </trkpt>
      <trkpt lat="47.23588" lon="4.96228">
        <ele>353.36315917969</ele>
        <time>2020-01-23T09:18:16 0100</time>
      </trkpt>
      <trkpt lat="47.23586" lon="4.96228">
        <ele>353.40670776367</ele>
        <time>2020-01-23T09:18:20 0100</time>
      </trkpt>
      <trkpt lat="47.23584" lon="4.96226">
        <ele>353.47045898438</ele>
        <time>2020-01-23T09:18:24 0100</time>
      </trkpt>
      <trkpt lat="47.23584" lon="4.96226">
        <ele>353.51879882812</ele>
        <time>2020-01-23T09:18:28 0100</time>
      </trkpt>
      <trkpt lat="47.23582" lon="4.96226">
        <ele>353.49761962891</ele>
        <time>2020-01-23T09:18:32 0100</time>
      </trkpt>
      <trkpt lat="47.23579" lon="4.96229">
        <ele>353.40054321289</ele>
        <time>2020-01-23T09:18:36 0100</time>
      </trkpt>
      <trkpt lat="47.23578" lon="4.9623">
        <ele>353.37945556641</ele>
        <time>2020-01-23T09:18:40 0100</time>
      </trkpt>
      <trkpt lat="47.23578" lon="4.9623">
        <ele>353.36846923828</ele>
        <time>2020-01-23T09:18:44 0100</time>
      </trkpt>
      <trkpt lat="47.23578" lon="4.9623">
        <ele>353.35501098633</ele>
        <time>2020-01-23T09:18:48 0100</time>
      </trkpt>
      <trkpt lat="47.23577" lon="4.96231">
        <ele>353.33825683594</ele>
        <time>2020-01-23T09:18:52 0100</time>
      </trkpt>
      <trkpt lat="47.23577" lon="4.96231">
        <ele>353.3310546875</ele>
        <time>2020-01-23T09:18:56 0100</time>
      </trkpt>
      <trkpt lat="47.23577" lon="4.96232">
        <ele>353.32833862305</ele>
        <time>2020-01-23T09:19:00 0100</time>
      </trkpt>
      <trkpt lat="47.23577" lon="4.96231">
        <ele>353.33737182617</ele>
        <time>2020-01-23T09:19:04 0100</time>
      </trkpt>
      <trkpt lat="47.23575" lon="4.96231">
        <ele>353.36932373047</ele>
        <time>2020-01-23T09:19:08 0100</time>
      </trkpt>
      <trkpt lat="47.23573" lon="4.96231">
        <ele>353.50805664062</ele>
        <time>2020-01-23T09:19:12 0100</time>
      </trkpt>
      <trkpt lat="47.23571" lon="4.96231">
        <ele>353.69320678711</ele>
        <time>2020-01-23T09:19:16 0100</time>
      </trkpt>
      <trkpt lat="47.2357" lon="4.96232">
        <ele>353.86700439453</ele>
        <time>2020-01-23T09:19:20 0100</time>
      </trkpt>
      <trkpt lat="47.23569" lon="4.96235">
        <ele>354.03405761719</ele>
        <time>2020-01-23T09:19:24 0100</time>
      </trkpt>
      <trkpt lat="47.2357" lon="4.96236">
        <ele>354.32217407227</ele>
        <time>2020-01-23T09:19:28 0100</time>
      </trkpt>
      <trkpt lat="47.23569" lon="4.96239">
        <ele>354.86145019531</ele>
        <time>2020-01-23T09:19:32 0100</time>
      </trkpt>
      <trkpt lat="47.23566" lon="4.96245">
        <ele>355.26870727539</ele>
        <time>2020-01-23T09:19:36 0100</time>
      </trkpt>
      <trkpt lat="47.23562" lon="4.96248">
        <ele>355.20877075195</ele>
        <time>2020-01-23T09:19:40 0100</time>
      </trkpt>
      <trkpt lat="47.23558" lon="4.96249">
        <ele>354.94076538086</ele>
        <time>2020-01-23T09:19:44 0100</time>
      </trkpt>
      <trkpt lat="47.23555" lon="4.96249">
        <ele>354.66897583008</ele>
        <time>2020-01-23T09:19:48 0100</time>
      </trkpt>
      <trkpt lat="47.23552" lon="4.96249">
        <ele>354.47714233398</ele>
        <time>2020-01-23T09:19:52 0100</time>
      </trkpt>
      <trkpt lat="47.2355" lon="4.96249">
        <ele>354.39599609375</ele>
        <time>2020-01-23T09:19:56 0100</time>
      </trkpt>
      <trkpt lat="47.23548" lon="4.96245">
        <ele>354.26904296875</ele>
        <time>2020-01-23T09:20:00 0100</time>
      </trkpt>
      <trkpt lat="47.23546" lon="4.96241">
        <ele>354.04644775391</ele>
        <time>2020-01-23T09:20:04 0100</time>
      </trkpt>
      <trkpt lat="47.23546" lon="4.96237">
        <ele>353.74838256836</ele>
        <time>2020-01-23T09:20:08 0100</time>
      </trkpt>
      <trkpt lat="47.23546" lon="4.96231">
        <ele>353.56927490234</ele>
        <time>2020-01-23T09:20:12 0100</time>
      </trkpt>
      <trkpt lat="47.23545" lon="4.96227">
        <ele>353.52484130859</ele>
        <time>2020-01-23T09:20:16 0100</time>
      </trkpt>
      <trkpt lat="47.23545" lon="4.96225">
        <ele>353.58666992188</ele>
        <time>2020-01-23T09:20:20 0100</time>
      </trkpt>
      <trkpt lat="47.23541" lon="4.96226">
        <ele>353.7268371582</ele>
        <time>2020-01-23T09:20:24 0100</time>
      </trkpt>
      <trkpt lat="47.23538" lon="4.96226">
        <ele>353.90267944336</ele>
        <time>2020-01-23T09:20:28 0100</time>
      </trkpt>
      <trkpt lat="47.23535" lon="4.96226">
        <ele>354.12481689453</ele>
        <time>2020-01-23T09:20:32 0100</time>
      </trkpt>
      <trkpt lat="47.2353" lon="4.96227">
        <ele>354.36557006836</ele>
        <time>2020-01-23T09:20:36 0100</time>
      </trkpt>
      <trkpt lat="47.23527" lon="4.96228">
        <ele>354.57345581055</ele>
        <time>2020-01-23T09:20:40 0100</time>
      </trkpt>
      <trkpt lat="47.23523" lon="4.96229">
        <ele>354.75811767578</ele>
        <time>2020-01-23T09:20:44 0100</time>
      </trkpt>
      <trkpt lat="47.23521" lon="4.9623">
        <ele>354.97662353516</ele>
        <time>2020-01-23T09:20:48 0100</time>
      </trkpt>
      <trkpt lat="47.23518" lon="4.96231">
        <ele>355.17874145508</ele>
        <time>2020-01-23T09:20:52 0100</time>
      </trkpt>
      <trkpt lat="47.23516" lon="4.96234">
        <ele>355.33804321289</ele>
        <time>2020-01-23T09:20:56 0100</time>
      </trkpt>
      <trkpt lat="47.23515" lon="4.96238">
        <ele>355.49267578125</ele>
        <time>2020-01-23T09:21:00 0100</time>
      </trkpt>
      <trkpt lat="47.23515" lon="4.96241">
        <ele>355.61032104492</ele>
        <time>2020-01-23T09:21:04 0100</time>
      </trkpt>
      <trkpt lat="47.23513" lon="4.96244">
        <ele>355.69552612305</ele>
        <time>2020-01-23T09:21:08 0100</time>
      </trkpt>
      <trkpt lat="47.23512" lon="4.96247">
        <ele>355.70352172852</ele>
        <time>2020-01-23T09:21:12 0100</time>
      </trkpt>
      <trkpt lat="47.2351" lon="4.96251">
        <ele>355.64920043945</ele>
        <time>2020-01-23T09:21:16 0100</time>
      </trkpt>
      <trkpt lat="47.23507" lon="4.96254">
        <ele>355.60003662109</ele>
        <time>2020-01-23T09:21:20 0100</time>
      </trkpt>
      <trkpt lat="47.23506" lon="4.96256">
        <ele>355.58148193359</ele>
        <time>2020-01-23T09:21:24 0100</time>
      </trkpt>
      <trkpt lat="47.23504" lon="4.96259">
        <ele>355.5556640625</ele>
        <time>2020-01-23T09:21:28 0100</time>
      </trkpt>
      <trkpt lat="47.23501" lon="4.96262">
        <ele>355.52102661133</ele>
        <time>2020-01-23T09:21:33 0100</time>
      </trkpt>
      <trkpt lat="47.23498" lon="4.96265">
        <ele>355.294921875</ele>
        <time>2020-01-23T09:21:37 0100</time>
      </trkpt>
      <trkpt lat="47.23495" lon="4.96268">
        <ele>355.06774902344</ele>
        <time>2020-01-23T09:21:41 0100</time>
      </trkpt>
      <trkpt lat="47.23494" lon="4.96268">
        <ele>354.94229125977</ele>
        <time>2020-01-23T09:21:45 0100</time>
      </trkpt>
      <trkpt lat="47.23492" lon="4.96271">
        <ele>354.84796142578</ele>
        <time>2020-01-23T09:21:49 0100</time>
      </trkpt>
      <trkpt lat="47.2349" lon="4.96274">
        <ele>354.60958862305</ele>
        <time>2020-01-23T09:21:53 0100</time>
      </trkpt>
      <trkpt lat="47.23486" lon="4.96277">
        <ele>354.44195556641</ele>
        <time>2020-01-23T09:21:57 0100</time>
      </trkpt>
      <trkpt lat="47.23483" lon="4.96279">
        <ele>354.22750854492</ele>
        <time>2020-01-23T09:22:01 0100</time>
      </trkpt>
      <trkpt lat="47.23481" lon="4.96279">
        <ele>353.94400024414</ele>
        <time>2020-01-23T09:22:05 0100</time>
      </trkpt>
      <trkpt lat="47.23477" lon="4.96281">
        <ele>353.75033569336</ele>
        <time>2020-01-23T09:22:09 0100</time>
      </trkpt>
      <trkpt lat="47.23475" lon="4.96282">
        <ele>353.34289550781</ele>
        <time>2020-01-23T09:22:13 0100</time>
      </trkpt>
      <trkpt lat="47.2347" lon="4.96283">
        <ele>352.84777832031</ele>
        <time>2020-01-23T09:22:17 0100</time>
      </trkpt>
      <trkpt lat="47.23466" lon="4.96284">
        <ele>352.36981201172</ele>
        <time>2020-01-23T09:22:21 0100</time>
      </trkpt>
      <trkpt lat="47.23462" lon="4.96285">
        <ele>351.97604370117</ele>
        <time>2020-01-23T09:22:25 0100</time>
      </trkpt>
      <trkpt lat="47.23458" lon="4.96286">
        <ele>351.60043334961</ele>
        <time>2020-01-23T09:22:29 0100</time>
      </trkpt>
      <trkpt lat="47.23454" lon="4.96286">
        <ele>351.25885009766</ele>
        <time>2020-01-23T09:22:33 0100</time>
      </trkpt>
      <trkpt lat="47.23451" lon="4.96286">
        <ele>350.88827514648</ele>
        <time>2020-01-23T09:22:37 0100</time>
      </trkpt>
      <trkpt lat="47.23448" lon="4.96287">
        <ele>350.5495300293</ele>
        <time>2020-01-23T09:22:41 0100</time>
      </trkpt>
      <trkpt lat="47.23444" lon="4.96287">
        <ele>350.21496582031</ele>
        <time>2020-01-23T09:22:45 0100</time>
      </trkpt>
      <trkpt lat="47.23439" lon="4.96286">
        <ele>349.83355712891</ele>
        <time>2020-01-23T09:22:49 0100</time>
      </trkpt>
      <trkpt lat="47.23436" lon="4.96285">
        <ele>349.45104980469</ele>
        <time>2020-01-23T09:22:53 0100</time>
      </trkpt>
      <trkpt lat="47.23433" lon="4.96286">
        <ele>349.12985229492</ele>
        <time>2020-01-23T09:22:57 0100</time>
      </trkpt>
      <trkpt lat="47.23429" lon="4.96286">
        <ele>348.86737060547</ele>
        <time>2020-01-23T09:23:01 0100</time>
      </trkpt>
      <trkpt lat="47.23424" lon="4.96287">
        <ele>348.56488037109</ele>
        <time>2020-01-23T09:23:05 0100</time>
      </trkpt>
      <trkpt lat="47.23419" lon="4.96287">
        <ele>348.18923950195</ele>
        <time>2020-01-23T09:23:09 0100</time>
      </trkpt>
      <trkpt lat="47.23416" lon="4.96287">
        <ele>347.73168945312</ele>
        <time>2020-01-23T09:23:13 0100</time>
      </trkpt>
      <trkpt lat="47.23411" lon="4.96288">
        <ele>347.27575683594</ele>
        <time>2020-01-23T09:23:17 0100</time>
      </trkpt>
      <trkpt lat="47.23408" lon="4.96289">
        <ele>346.86346435547</ele>
        <time>2020-01-23T09:23:21 0100</time>
      </trkpt>
      <trkpt lat="47.23405" lon="4.9629">
        <ele>346.48101806641</ele>
        <time>2020-01-23T09:23:25 0100</time>
      </trkpt>
      <trkpt lat="47.23402" lon="4.96291">
        <ele>346.08847045898</ele>
        <time>2020-01-23T09:23:29 0100</time>
      </trkpt>
      <trkpt lat="47.23398" lon="4.96292">
        <ele>345.67495727539</ele>
        <time>2020-01-23T09:23:33 0100</time>
      </trkpt>
      <trkpt lat="47.23395" lon="4.96293">
        <ele>345.2487487793</ele>
        <time>2020-01-23T09:23:37 0100</time>
      </trkpt>
      <trkpt lat="47.23392" lon="4.96295">
        <ele>344.91198730469</ele>
        <time>2020-01-23T09:23:41 0100</time>
      </trkpt>
      <trkpt lat="47.23388" lon="4.96296">
        <ele>344.65609741211</ele>
        <time>2020-01-23T09:23:45 0100</time>
      </trkpt>
      <trkpt lat="47.23386" lon="4.96297">
        <ele>344.39370727539</ele>
        <time>2020-01-23T09:23:49 0100</time>
      </trkpt>
      <trkpt lat="47.23383" lon="4.96298">
        <ele>344.14001464844</ele>
        <time>2020-01-23T09:23:53 0100</time>
      </trkpt>
      <trkpt lat="47.23379" lon="4.96299">
        <ele>343.93832397461</ele>
        <time>2020-01-23T09:23:57 0100</time>
      </trkpt>
      <trkpt lat="47.23374" lon="4.963">
        <ele>343.72384643555</ele>
        <time>2020-01-23T09:24:01 0100</time>
      </trkpt>
      <trkpt lat="47.23371" lon="4.963">
        <ele>343.50811767578</ele>
        <time>2020-01-23T09:24:05 0100</time>
      </trkpt>
      <trkpt lat="47.23367" lon="4.963">
        <ele>343.21405029297</ele>
        <time>2020-01-23T09:24:09 0100</time>
      </trkpt>
      <trkpt lat="47.23361" lon="4.96301">
        <ele>342.79730224609</ele>
        <time>2020-01-23T09:24:13 0100</time>
      </trkpt>
      <trkpt lat="47.23357" lon="4.96302">
        <ele>342.34924316406</ele>
        <time>2020-01-23T09:24:17 0100</time>
      </trkpt>
      <trkpt lat="47.23352" lon="4.96303">
        <ele>341.85763549805</ele>
        <time>2020-01-23T09:24:21 0100</time>
      </trkpt>
      <trkpt lat="47.23349" lon="4.96305">
        <ele>341.42791748047</ele>
        <time>2020-01-23T09:24:25 0100</time>
      </trkpt>
      <trkpt lat="47.23346" lon="4.96308">
        <ele>341.03979492188</ele>
        <time>2020-01-23T09:24:29 0100</time>
      </trkpt>
      <trkpt lat="47.23344" lon="4.96309">
        <ele>340.72372436523</ele>
        <time>2020-01-23T09:24:33 0100</time>
      </trkpt>
      <trkpt lat="47.2334" lon="4.96311">
        <ele>340.46716308594</ele>
        <time>2020-01-23T09:24:37 0100</time>
      </trkpt>
      <trkpt lat="47.23336" lon="4.96313">
        <ele>340.11343383789</ele>
        <time>2020-01-23T09:24:41 0100</time>
      </trkpt>
      <trkpt lat="47.23333" lon="4.96314">
        <ele>339.63955688477</ele>
        <time>2020-01-23T09:24:45 0100</time>
      </trkpt>
      <trkpt lat="47.2333" lon="4.96315">
        <ele>339.00653076172</ele>
        <time>2020-01-23T09:24:49 0100</time>
      </trkpt>
      <trkpt lat="47.23327" lon="4.96317">
        <ele>338.35754394531</ele>
        <time>2020-01-23T09:24:53 0100</time>
      </trkpt>
      <trkpt lat="47.23325" lon="4.96319">
        <ele>337.79046630859</ele>
        <time>2020-01-23T09:24:57 0100</time>
      </trkpt>
      <trkpt lat="47.23323" lon="4.96321">
        <ele>337.31582641602</ele>
        <time>2020-01-23T09:25:01 0100</time>
      </trkpt>
      <trkpt lat="47.23321" lon="4.96324">
        <ele>336.95635986328</ele>
        <time>2020-01-23T09:25:05 0100</time>
      </trkpt>
      <trkpt lat="47.23319" lon="4.96325">
        <ele>336.64294433594</ele>
        <time>2020-01-23T09:25:09 0100</time>
      </trkpt>
      <trkpt lat="47.23318" lon="4.96325">
        <ele>336.46377563477</ele>
        <time>2020-01-23T09:25:13 0100</time>
      </trkpt>
      <trkpt lat="47.23317" lon="4.96325">
        <ele>336.43063354492</ele>
        <time>2020-01-23T09:25:17 0100</time>
      </trkpt>
      <trkpt lat="47.23317" lon="4.96325">
        <ele>336.40267944336</ele>
        <time>2020-01-23T09:25:21 0100</time>
      </trkpt>
      <trkpt lat="47.23316" lon="4.96325">
        <ele>336.38217163086</ele>
        <time>2020-01-23T09:25:25 0100</time>
      </trkpt>
      <trkpt lat="47.23315" lon="4.96325">
        <ele>336.30047607422</ele>
        <time>2020-01-23T09:25:29 0100</time>
      </trkpt>
      <trkpt lat="47.23315" lon="4.96325">
        <ele>336.2702331543</ele>
        <time>2020-01-23T09:25:33 0100</time>
      </trkpt>
      <trkpt lat="47.23314" lon="4.96325">
        <ele>336.25695800781</ele>
        <time>2020-01-23T09:25:37 0100</time>
      </trkpt>
      <trkpt lat="47.23314" lon="4.96325">
        <ele>336.25076293945</ele>
        <time>2020-01-23T09:25:41 0100</time>
      </trkpt>
      <trkpt lat="47.23314" lon="4.96325">
        <ele>336.23208618164</ele>
        <time>2020-01-23T09:25:45 0100</time>
      </trkpt>
      <trkpt lat="47.23312" lon="4.96324">
        <ele>336.21929931641</ele>
        <time>2020-01-23T09:25:49 0100</time>
      </trkpt>
      <trkpt lat="47.23312" lon="4.96323">
        <ele>336.21392822266</ele>
        <time>2020-01-23T09:25:53 0100</time>
      </trkpt>
      <trkpt lat="47.23312" lon="4.96323">
        <ele>336.22528076172</ele>
        <time>2020-01-23T09:25:57 0100</time>
      </trkpt>
      <trkpt lat="47.23312" lon="4.96324">
        <ele>336.21716308594</ele>
        <time>2020-01-23T09:26:01 0100</time>
      </trkpt>
      <trkpt lat="47.23312" lon="4.96324">
        <ele>336.19830322266</ele>
        <time>2020-01-23T09:26:05 0100</time>
      </trkpt>
      <trkpt lat="47.23312" lon="4.96325">
        <ele>336.16955566406</ele>
        <time>2020-01-23T09:26:09 0100</time>
      </trkpt>
      <trkpt lat="47.23312" lon="4.96325">
        <ele>336.14529418945</ele>
        <time>2020-01-23T09:26:13 0100</time>
      </trkpt>
      <trkpt lat="47.23312" lon="4.96325">
        <ele>336.10873413086</ele>
        <time>2020-01-23T09:26:17 0100</time>
      </trkpt>
      <trkpt lat="47.23312" lon="4.96326">
        <ele>336.06893920898</ele>
        <time>2020-01-23T09:26:21 0100</time>
      </trkpt>
      <trkpt lat="47.23312" lon="4.96328">
        <ele>335.76089477539</ele>
        <time>2020-01-23T09:26:25 0100</time>
      </trkpt>
      <trkpt lat="47.2331" lon="4.96329">
        <ele>335.52560424805</ele>
        <time>2020-01-23T09:26:29 0100</time>
      </trkpt>
      <trkpt lat="47.2331" lon="4.96329">
        <ele>335.51327514648</ele>
        <time>2020-01-23T09:26:33 0100</time>
      </trkpt>
      <trkpt lat="47.2331" lon="4.96329">
        <ele>335.52017211914</ele>
        <time>2020-01-23T09:26:37 0100</time>
      </trkpt>
      <trkpt lat="47.2331" lon="4.96329">
        <ele>335.5397644043</ele>
        <time>2020-01-23T09:26:41 0100</time>
      </trkpt>
      <trkpt lat="47.2331" lon="4.96328">
        <ele>335.59515380859</ele>
        <time>2020-01-23T09:26:45 0100</time>
      </trkpt>
      <trkpt lat="47.2331" lon="4.96326">
        <ele>335.66445922852</ele>
        <time>2020-01-23T09:26:49 0100</time>
      </trkpt>
      <trkpt lat="47.2331" lon="4.96326">
        <ele>335.705078125</ele>
        <time>2020-01-23T09:26:53 0100</time>
      </trkpt>
      <trkpt lat="47.2331" lon="4.96326">
        <ele>335.71636962891</ele>
        <time>2020-01-23T09:26:57 0100</time>
      </trkpt>
      <trkpt lat="47.23309" lon="4.96326">
        <ele>335.70642089844</ele>
        <time>2020-01-23T09:27:01 0100</time>
      </trkpt>
      <trkpt lat="47.23309" lon="4.96326">
        <ele>335.71932983398</ele>
        <time>2020-01-23T09:27:05 0100</time>
      </trkpt>
      <trkpt lat="47.23309" lon="4.96326">
        <ele>335.74877929688</ele>
        <time>2020-01-23T09:27:09 0100</time>
      </trkpt>
      <trkpt lat="47.23309" lon="4.96326">
        <ele>335.76953125</ele>
        <time>2020-01-23T09:27:13 0100</time>
      </trkpt>
      <trkpt lat="47.23309" lon="4.96326">
        <ele>335.78173828125</ele>
        <time>2020-01-23T09:27:17 0100</time>
      </trkpt>
      <trkpt lat="47.23309" lon="4.96326">
        <ele>335.80078125</ele>
        <time>2020-01-23T09:27:21 0100</time>
      </trkpt>
      <trkpt lat="47.23309" lon="4.96325">
        <ele>335.81091308594</ele>
        <time>2020-01-23T09:27:25 0100</time>
      </trkpt>
      <trkpt lat="47.23309" lon="4.96325">
        <ele>335.84112548828</ele>
        <time>2020-01-23T09:27:29 0100</time>
      </trkpt>
      <trkpt lat="47.23309" lon="4.96326">
        <ele>335.87008666992</ele>
        <time>2020-01-23T09:27:33 0100</time>
      </trkpt>
      <trkpt lat="47.23309" lon="4.96326">
        <ele>335.89028930664</ele>
        <time>2020-01-23T09:27:37 0100</time>
      </trkpt>
      <trkpt lat="47.23309" lon="4.96326">
        <ele>335.91442871094</ele>
        <time>2020-01-23T09:27:41 0100</time>
      </trkpt>
      <trkpt lat="47.23309" lon="4.96326">
        <ele>335.94937133789</ele>
        <time>2020-01-23T09:27:45 0100</time>
      </trkpt>
      <trkpt lat="47.23309" lon="4.96326">
        <ele>335.99212646484</ele>
        <time>2020-01-23T09:27:49 0100</time>
      </trkpt>
      <trkpt lat="47.23309" lon="4.96325">
        <ele>336.03759765625</ele>
        <time>2020-01-23T09:27:53 0100</time>
      </trkpt>
      <trkpt lat="47.23309" lon="4.96325">
        <ele>336.0901184082</ele>
        <time>2020-01-23T09:27:57 0100</time>
      </trkpt>
      <trkpt lat="47.23309" lon="4.96325">
        <ele>336.15069580078</ele>
        <time>2020-01-23T09:28:01 0100</time>
      </trkpt>
      <trkpt lat="47.23309" lon="4.96325">
        <ele>336.212890625</ele>
        <time>2020-01-23T09:28:05 0100</time>
      </trkpt>
      <trkpt lat="47.23309" lon="4.96325">
        <ele>336.271484375</ele>
        <time>2020-01-23T09:28:09 0100</time>
      </trkpt>
      <trkpt lat="47.2331" lon="4.96325">
        <ele>336.32760620117</ele>
        <time>2020-01-23T09:28:13 0100</time>
      </trkpt>
      <trkpt lat="47.2331" lon="4.96325">
        <ele>336.3782043457</ele>
        <time>2020-01-23T09:28:17 0100</time>
      </trkpt>
      <trkpt lat="47.2331" lon="4.96325">
        <ele>336.42208862305</ele>
        <time>2020-01-23T09:28:21 0100</time>
      </trkpt>
      <trkpt lat="47.2331" lon="4.96325">
        <ele>336.46502685547</ele>
        <time>2020-01-23T09:28:25 0100</time>
      </trkpt>
      <trkpt lat="47.2331" lon="4.96326">
        <ele>336.49697875977</ele>
        <time>2020-01-23T09:28:29 0100</time>
      </trkpt>
      <trkpt lat="47.23311" lon="4.96327">
        <ele>336.51016235352</ele>
        <time>2020-01-23T09:28:33 0100</time>
      </trkpt>
      <trkpt lat="47.23311" lon="4.96327">
        <ele>336.50775146484</ele>
        <time>2020-01-23T09:28:37 0100</time>
      </trkpt>
      <trkpt lat="47.23311" lon="4.96328">
        <ele>336.48248291016</ele>
        <time>2020-01-23T09:28:41 0100</time>
      </trkpt>
      <trkpt lat="47.23311" lon="4.96328">
        <ele>336.4697265625</ele>
        <time>2020-01-23T09:28:45 0100</time>
      </trkpt>
      <trkpt lat="47.23312" lon="4.96328">
        <ele>336.46475219727</ele>
        <time>2020-01-23T09:28:49 0100</time>
      </trkpt>
      <trkpt lat="47.23312" lon="4.96327">
        <ele>336.48123168945</ele>
        <time>2020-01-23T09:28:53 0100</time>
      </trkpt>
      <trkpt lat="47.23312" lon="4.96327">
        <ele>336.51489257812</ele>
        <time>2020-01-23T09:28:57 0100</time>
      </trkpt>
      <trkpt lat="47.23311" lon="4.96327">
        <ele>336.57125854492</ele>
        <time>2020-01-23T09:29:01 0100</time>
      </trkpt>
      <trkpt lat="47.23311" lon="4.96327">
        <ele>336.63314819336</ele>
        <time>2020-01-23T09:29:05 0100</time>
      </trkpt>
      <trkpt lat="47.23311" lon="4.96326">
        <ele>336.68270874023</ele>
        <time>2020-01-23T09:29:09 0100</time>
      </trkpt>
      <trkpt lat="47.23312" lon="4.96326">
        <ele>336.74478149414</ele>
        <time>2020-01-23T09:29:13 0100</time>
      </trkpt>
      <trkpt lat="47.23312" lon="4.96325">
        <ele>336.82247924805</ele>
        <time>2020-01-23T09:29:17 0100</time>
      </trkpt>
      <trkpt lat="47.23312" lon="4.96326">
        <ele>336.90112304688</ele>
        <time>2020-01-23T09:29:21 0100</time>
      </trkpt>
      <trkpt lat="47.23312" lon="4.96327">
        <ele>336.9059753418</ele>
        <time>2020-01-23T09:29:25 0100</time>
      </trkpt>
      <trkpt lat="47.23311" lon="4.96328">
        <ele>336.90048217773</ele>
        <time>2020-01-23T09:29:29 0100</time>
      </trkpt>
      <trkpt lat="47.23311" lon="4.96328">
        <ele>336.92114257812</ele>
        <time>2020-01-23T09:29:33 0100</time>
      </trkpt>
      <trkpt lat="47.23311" lon="4.96329">
        <ele>336.93942260742</ele>
        <time>2020-01-23T09:29:37 0100</time>
      </trkpt>
      <trkpt lat="47.23311" lon="4.96329">
        <ele>336.94741821289</ele>
        <time>2020-01-23T09:29:41 0100</time>
      </trkpt>
      <trkpt lat="47.23311" lon="4.96329">
        <ele>336.94448852539</ele>
        <time>2020-01-23T09:29:45 0100</time>
      </trkpt>
      <trkpt lat="47.23311" lon="4.9633">
        <ele>336.93872070312</ele>
        <time>2020-01-23T09:29:49 0100</time>
      </trkpt>
      <trkpt lat="47.23311" lon="4.9633">
        <ele>336.94320678711</ele>
        <time>2020-01-23T09:29:53 0100</time>
      </trkpt>
      <trkpt lat="47.23311" lon="4.9633">
        <ele>336.94808959961</ele>
        <time>2020-01-23T09:29:57 0100</time>
      </trkpt>
      <trkpt lat="47.23311" lon="4.96331">
        <ele>336.96542358398</ele>
        <time>2020-01-23T09:30:01 0100</time>
      </trkpt>
      <trkpt lat="47.2331" lon="4.96331">
        <ele>336.98208618164</ele>
        <time>2020-01-23T09:30:05 0100</time>
      </trkpt>
      <trkpt lat="47.2331" lon="4.96331">
        <ele>336.99554443359</ele>
        <time>2020-01-23T09:30:09 0100</time>
      </trkpt>
      <trkpt lat="47.2331" lon="4.96331">
        <ele>337.01870727539</ele>
        <time>2020-01-23T09:30:13 0100</time>
      </trkpt>
      <trkpt lat="47.2331" lon="4.96331">
        <ele>337.04837036133</ele>
        <time>2020-01-23T09:30:17 0100</time>
      </trkpt>
      <trkpt lat="47.2331" lon="4.9633">
        <ele>337.08526611328</ele>
        <time>2020-01-23T09:30:21 0100</time>
      </trkpt>
      <trkpt lat="47.2331" lon="4.96331">
        <ele>337.11853027344</ele>
        <time>2020-01-23T09:30:25 0100</time>
      </trkpt>
      <trkpt lat="47.2331" lon="4.9633">
        <ele>337.20861816406</ele>
        <time>2020-01-23T09:30:29 0100</time>
      </trkpt>
      <trkpt lat="47.23311" lon="4.96331">
        <ele>337.16479492188</ele>
        <time>2020-01-23T09:30:33 0100</time>
      </trkpt>
      <trkpt lat="47.23311" lon="4.96329">
        <ele>337.00177001953</ele>
        <time>2020-01-23T09:30:37 0100</time>
      </trkpt>
      <trkpt lat="47.23311" lon="4.96328">
        <ele>337.00546264648</ele>
        <time>2020-01-23T09:30:41 0100</time>
      </trkpt>
      <trkpt lat="47.23311" lon="4.96328">
        <ele>337.17141723633</ele>
        <time>2020-01-23T09:30:45 0100</time>
      </trkpt>
      <trkpt lat="47.2331" lon="4.96329">
        <ele>337.58044433594</ele>
        <time>2020-01-23T09:30:49 0100</time>
      </trkpt>
      <trkpt lat="47.23308" lon="4.96333">
        <ele>337.82894897461</ele>
        <time>2020-01-23T09:30:53 0100</time>
      </trkpt>
      <trkpt lat="47.23307" lon="4.96335">
        <ele>337.79629516602</ele>
        <time>2020-01-23T09:30:57 0100</time>
      </trkpt>
      <trkpt lat="47.23305" lon="4.96338">
        <ele>337.62191772461</ele>
        <time>2020-01-23T09:31:01 0100</time>
      </trkpt>
      <trkpt lat="47.23303" lon="4.96339">
        <ele>337.32867431641</ele>
        <time>2020-01-23T09:31:05 0100</time>
      </trkpt>
      <trkpt lat="47.23298" lon="4.96342">
        <ele>336.98608398438</ele>
        <time>2020-01-23T09:31:09 0100</time>
      </trkpt>
      <trkpt lat="47.23296" lon="4.96343">
        <ele>336.58245849609</ele>
        <time>2020-01-23T09:31:13 0100</time>
      </trkpt>
      <trkpt lat="47.23293" lon="4.96342">
        <ele>336.21047973633</ele>
        <time>2020-01-23T09:31:17 0100</time>
      </trkpt>
      <trkpt lat="47.23288" lon="4.96345">
        <ele>335.7532043457</ele>
        <time>2020-01-23T09:31:21 0100</time>
      </trkpt>
      <trkpt lat="47.23287" lon="4.9635">
        <ele>335.3483581543</ele>
        <time>2020-01-23T09:31:25 0100</time>
      </trkpt>
      <trkpt lat="47.23286" lon="4.96351">
        <ele>334.96643066406</ele>
        <time>2020-01-23T09:31:29 0100</time>
      </trkpt>
      <trkpt lat="47.23285" lon="4.9635">
        <ele>334.72604370117</ele>
        <time>2020-01-23T09:31:33 0100</time>
      </trkpt>
      <trkpt lat="47.23282" lon="4.9635">
        <ele>334.41082763672</ele>
        <time>2020-01-23T09:31:37 0100</time>
      </trkpt>
      <trkpt lat="47.23278" lon="4.96351">
        <ele>334.15960693359</ele>
        <time>2020-01-23T09:31:41 0100</time>
      </trkpt>
      <trkpt lat="47.23275" lon="4.96354">
        <ele>333.77001953125</ele>
        <time>2020-01-23T09:31:45 0100</time>
      </trkpt>
      <trkpt lat="47.23273" lon="4.96355">
        <ele>333.41003417969</ele>
        <time>2020-01-23T09:31:49 0100</time>
      </trkpt>
      <trkpt lat="47.2327" lon="4.96358">
        <ele>333.03625488281</ele>
        <time>2020-01-23T09:31:53 0100</time>
      </trkpt>
      <trkpt lat="47.23267" lon="4.9636">
        <ele>332.70703125</ele>
        <time>2020-01-23T09:31:57 0100</time>
      </trkpt>
      <trkpt lat="47.23262" lon="4.96362">
        <ele>332.3610534668</ele>
        <time>2020-01-23T09:32:01 0100</time>
      </trkpt>
      <trkpt lat="47.23257" lon="4.96365">
        <ele>331.96612548828</ele>
        <time>2020-01-23T09:32:05 0100</time>
      </trkpt>
      <trkpt lat="47.23254" lon="4.96366">
        <ele>331.58578491211</ele>
        <time>2020-01-23T09:32:09 0100</time>
      </trkpt>
      <trkpt lat="47.23249" lon="4.96368">
        <ele>331.18817138672</ele>
        <time>2020-01-23T09:32:13 0100</time>
      </trkpt>
      <trkpt lat="47.23245" lon="4.96369">
        <ele>330.6930847168</ele>
        <time>2020-01-23T09:32:17 0100</time>
      </trkpt>
      <trkpt lat="47.23242" lon="4.96371">
        <ele>330.17630004883</ele>
        <time>2020-01-23T09:32:21 0100</time>
      </trkpt>
      <trkpt lat="47.23238" lon="4.96372">
        <ele>329.73999023438</ele>
        <time>2020-01-23T09:32:25 0100</time>
      </trkpt>
      <trkpt lat="47.23234" lon="4.96374">
        <ele>329.35327148438</ele>
        <time>2020-01-23T09:32:29 0100</time>
      </trkpt>
      <trkpt lat="47.2323" lon="4.96375">
        <ele>328.99053955078</ele>
        <time>2020-01-23T09:32:33 0100</time>
      </trkpt>
      <trkpt lat="47.23226" lon="4.96377">
        <ele>328.58850097656</ele>
        <time>2020-01-23T09:32:37 0100</time>
      </trkpt>
      <trkpt lat="47.23223" lon="4.96378">
        <ele>328.21176147461</ele>
        <time>2020-01-23T09:32:41 0100</time>
      </trkpt>
      <trkpt lat="47.2322" lon="4.9638">
        <ele>327.91748046875</ele>
        <time>2020-01-23T09:32:45 0100</time>
      </trkpt>
      <trkpt lat="47.23216" lon="4.96382">
        <ele>327.64587402344</ele>
        <time>2020-01-23T09:32:49 0100</time>
      </trkpt>
      <trkpt lat="47.23212" lon="4.96383">
        <ele>327.2477722168</ele>
        <time>2020-01-23T09:32:53 0100</time>
      </trkpt>
      <trkpt lat="47.23208" lon="4.96383">
        <ele>326.80389404297</ele>
        <time>2020-01-23T09:32:57 0100</time>
      </trkpt>
      <trkpt lat="47.23205" lon="4.96385">
        <ele>326.41848754883</ele>
        <time>2020-01-23T09:33:01 0100</time>
      </trkpt>
      <trkpt lat="47.23201" lon="4.96386">
        <ele>326.033203125</ele>
        <time>2020-01-23T09:33:05 0100</time>
      </trkpt>
      <trkpt lat="47.23197" lon="4.96389">
        <ele>325.62606811523</ele>
        <time>2020-01-23T09:33:09 0100</time>
      </trkpt>
      <trkpt lat="47.23194" lon="4.96391">
        <ele>325.2795715332</ele>
        <time>2020-01-23T09:33:13 0100</time>
      </trkpt>
      <trkpt lat="47.23188" lon="4.96392">
        <ele>324.88815307617</ele>
        <time>2020-01-23T09:33:17 0100</time>
      </trkpt>
      <trkpt lat="47.23185" lon="4.96394">
        <ele>324.43505859375</ele>
        <time>2020-01-23T09:33:21 0100</time>
      </trkpt>
      <trkpt lat="47.23181" lon="4.96396">
        <ele>323.91320800781</ele>
        <time>2020-01-23T09:33:25 0100</time>
      </trkpt>
      <trkpt lat="47.23178" lon="4.96398">
        <ele>323.39678955078</ele>
        <time>2020-01-23T09:33:29 0100</time>
      </trkpt>
      <trkpt lat="47.23174" lon="4.96399">
        <ele>322.92544555664</ele>
        <time>2020-01-23T09:33:33 0100</time>
      </trkpt>
      <trkpt lat="47.2317" lon="4.96401">
        <ele>322.41412353516</ele>
        <time>2020-01-23T09:33:37 0100</time>
      </trkpt>
      <trkpt lat="47.23167" lon="4.96403">
        <ele>321.96691894531</ele>
        <time>2020-01-23T09:33:41 0100</time>
      </trkpt>
      <trkpt lat="47.23168" lon="4.96403">
        <ele>321.74371337891</ele>
        <time>2020-01-23T09:33:45 0100</time>
      </trkpt>
      <trkpt lat="47.23164" lon="4.96404">
        <ele>321.05709838867</ele>
        <time>2020-01-23T09:33:49 0100</time>
      </trkpt>
      <trkpt lat="47.2316" lon="4.96406">
        <ele>320.39529418945</ele>
        <time>2020-01-23T09:33:53 0100</time>
      </trkpt>
      <trkpt lat="47.23157" lon="4.96408">
        <ele>319.82266235352</ele>
        <time>2020-01-23T09:33:57 0100</time>
      </trkpt>
      <trkpt lat="47.23152" lon="4.96411">
        <ele>319.36285400391</ele>
        <time>2020-01-23T09:34:01 0100</time>
      </trkpt>
      <trkpt lat="47.23149" lon="4.96414">
        <ele>318.93856811523</ele>
        <time>2020-01-23T09:34:05 0100</time>
      </trkpt>
      <trkpt lat="47.23147" lon="4.96416">
        <ele>318.57446289062</ele>
        <time>2020-01-23T09:34:09 0100</time>
      </trkpt>
      <trkpt lat="47.23143" lon="4.9642">
        <ele>318.31600952148</ele>
        <time>2020-01-23T09:34:13 0100</time>
      </trkpt>
      <trkpt lat="47.2314" lon="4.96424">
        <ele>317.97750854492</ele>
        <time>2020-01-23T09:34:17 0100</time>
      </trkpt>
      <trkpt lat="47.23139" lon="4.96429">
        <ele>317.65921020508</ele>
        <time>2020-01-23T09:34:21 0100</time>
      </trkpt>
      <trkpt lat="47.23137" lon="4.96434">
        <ele>317.50762939453</ele>
        <time>2020-01-23T09:34:25 0100</time>
      </trkpt>
      <trkpt lat="47.23135" lon="4.96439">
        <ele>317.46337890625</ele>
        <time>2020-01-23T09:34:29 0100</time>
      </trkpt>
      <trkpt lat="47.23134" lon="4.96444">
        <ele>317.51943969727</ele>
        <time>2020-01-23T09:34:32 0100</time>
      </trkpt>
      <trkpt lat="47.23133" lon="4.96449">
        <ele>317.63125610352</ele>
        <time>2020-01-23T09:34:36 0100</time>
      </trkpt>
      <trkpt lat="47.23131" lon="4.96455">
        <ele>317.61206054688</ele>
        <time>2020-01-23T09:34:40 0100</time>
      </trkpt>
      <trkpt lat="47.2313" lon="4.9646">
        <ele>317.41482543945</ele>
        <time>2020-01-23T09:34:44 0100</time>
      </trkpt>
      <trkpt lat="47.23127" lon="4.96465">
        <ele>317.14352416992</ele>
        <time>2020-01-23T09:34:48 0100</time>
      </trkpt>
      <trkpt lat="47.23125" lon="4.9647">
        <ele>316.79440307617</ele>
        <time>2020-01-23T09:34:52 0100</time>
      </trkpt>
      <trkpt lat="47.23121" lon="4.96475">
        <ele>316.38543701172</ele>
        <time>2020-01-23T09:34:56 0100</time>
      </trkpt>
      <trkpt lat="47.2312" lon="4.96481">
        <ele>315.89300537109</ele>
        <time>2020-01-23T09:35:00 0100</time>
      </trkpt>
      <trkpt lat="47.23118" lon="4.96486">
        <ele>315.42202758789</ele>
        <time>2020-01-23T09:35:04 0100</time>
      </trkpt>
      <trkpt lat="47.23117" lon="4.96491">
        <ele>314.97695922852</ele>
        <time>2020-01-23T09:35:08 0100</time>
      </trkpt>
      <trkpt lat="47.23115" lon="4.96498">
        <ele>314.55783081055</ele>
        <time>2020-01-23T09:35:12 0100</time>
      </trkpt>
      <trkpt lat="47.23112" lon="4.96502">
        <ele>314.12741088867</ele>
        <time>2020-01-23T09:35:16 0100</time>
      </trkpt>
      <trkpt lat="47.23109" lon="4.96506">
        <ele>313.63043212891</ele>
        <time>2020-01-23T09:35:20 0100</time>
      </trkpt>
      <trkpt lat="47.23104" lon="4.96508">
        <ele>313.06256103516</ele>
        <time>2020-01-23T09:35:24 0100</time>
      </trkpt>
      <trkpt lat="47.23099" lon="4.9651">
        <ele>312.46377563477</ele>
        <time>2020-01-23T09:35:28 0100</time>
      </trkpt>
      <trkpt lat="47.23096" lon="4.9651">
        <ele>311.90258789062</ele>
        <time>2020-01-23T09:35:32 0100</time>
      </trkpt>
      <trkpt lat="47.23092" lon="4.96512">
        <ele>311.48474121094</ele>
        <time>2020-01-23T09:35:36 0100</time>
      </trkpt>
      <trkpt lat="47.23089" lon="4.96513">
        <ele>311.25955200195</ele>
        <time>2020-01-23T09:35:40 0100</time>
      </trkpt>
      <trkpt lat="47.23086" lon="4.96515">
        <ele>311.3044128418</ele>
        <time>2020-01-23T09:35:44 0100</time>
      </trkpt>
      <trkpt lat="47.23083" lon="4.9652">
        <ele>311.29266357422</ele>
        <time>2020-01-23T09:35:48 0100</time>
      </trkpt>
      <trkpt lat="47.23079" lon="4.96523">
        <ele>311.14654541016</ele>
        <time>2020-01-23T09:35:52 0100</time>
      </trkpt>
      <trkpt lat="47.23075" lon="4.96526">
        <ele>310.89828491211</ele>
        <time>2020-01-23T09:35:56 0100</time>
      </trkpt>
      <trkpt lat="47.2307" lon="4.96527">
        <ele>310.49514770508</ele>
        <time>2020-01-23T09:36:00 0100</time>
      </trkpt>
      <trkpt lat="47.23065" lon="4.96526">
        <ele>310.0973815918</ele>
        <time>2020-01-23T09:36:04 0100</time>
      </trkpt>
      <trkpt lat="47.2306" lon="4.96523">
        <ele>309.6748046875</ele>
        <time>2020-01-23T09:36:08 0100</time>
      </trkpt>
      <trkpt lat="47.23058" lon="4.96522">
        <ele>309.31057739258</ele>
        <time>2020-01-23T09:36:12 0100</time>
      </trkpt>
      <trkpt lat="47.23057" lon="4.96523">
        <ele>309.14920043945</ele>
        <time>2020-01-23T09:36:16 0100</time>
      </trkpt>
      <trkpt lat="47.23057" lon="4.96524">
        <ele>309.13409423828</ele>
        <time>2020-01-23T09:36:20 0100</time>
      </trkpt>
      <trkpt lat="47.23056" lon="4.96524">
        <ele>309.06057739258</ele>
        <time>2020-01-23T09:36:24 0100</time>
      </trkpt>
      <trkpt lat="47.23052" lon="4.96525">
        <ele>309.02346801758</ele>
        <time>2020-01-23T09:36:28 0100</time>
      </trkpt>
      <trkpt lat="47.23052" lon="4.96525">
        <ele>308.97427368164</ele>
        <time>2020-01-23T09:36:32 0100</time>
      </trkpt>
      <trkpt lat="47.2305" lon="4.96524">
        <ele>308.85513305664</ele>
        <time>2020-01-23T09:36:36 0100</time>
      </trkpt>
      <trkpt lat="47.23047" lon="4.96525">
        <ele>308.79089355469</ele>
        <time>2020-01-23T09:36:40 0100</time>
      </trkpt>
      <trkpt lat="47.23046" lon="4.96526">
        <ele>308.76278686523</ele>
        <time>2020-01-23T09:36:44 0100</time>
      </trkpt>
      <trkpt lat="47.23046" lon="4.96525">
        <ele>308.73876953125</ele>
        <time>2020-01-23T09:36:48 0100</time>
      </trkpt>
      <trkpt lat="47.23046" lon="4.96521">
        <ele>308.49398803711</ele>
        <time>2020-01-23T09:36:52 0100</time>
      </trkpt>
      <trkpt lat="47.23042" lon="4.96518">
        <ele>308.47027587891</ele>
        <time>2020-01-23T09:36:56 0100</time>
      </trkpt>
      <trkpt lat="47.2304" lon="4.96516">
        <ele>308.47723388672</ele>
        <time>2020-01-23T09:37:00 0100</time>
      </trkpt>
      <trkpt lat="47.23039" lon="4.96515">
        <ele>308.5986328125</ele>
        <time>2020-01-23T09:37:04 0100</time>
      </trkpt>
      <trkpt lat="47.23035" lon="4.96514">
        <ele>309.00399780273</ele>
        <time>2020-01-23T09:37:08 0100</time>
      </trkpt>
      <trkpt lat="47.23033" lon="4.96512">
        <ele>309.51763916016</ele>
        <time>2020-01-23T09:37:12 0100</time>
      </trkpt>
      <trkpt lat="47.23031" lon="4.9651">
        <ele>309.91192626953</ele>
        <time>2020-01-23T09:37:16 0100</time>
      </trkpt>
      <trkpt lat="47.23027" lon="4.96509">
        <ele>310.22708129883</ele>
        <time>2020-01-23T09:37:20 0100</time>
      </trkpt>
      <trkpt lat="47.23023" lon="4.96508">
        <ele>310.451171875</ele>
        <time>2020-01-23T09:37:24 0100</time>
      </trkpt>
      <trkpt lat="47.23021" lon="4.96507">
        <ele>310.55993652344</ele>
        <time>2020-01-23T09:37:28 0100</time>
      </trkpt>
      <trkpt lat="47.23019" lon="4.96505">
        <ele>310.59121704102</ele>
        <time>2020-01-23T09:37:32 0100</time>
      </trkpt>
      <trkpt lat="47.23018" lon="4.96504">
        <ele>310.6247253418</ele>
        <time>2020-01-23T09:37:36 0100</time>
      </trkpt>
      <trkpt lat="47.23018" lon="4.96504">
        <ele>310.63385009766</ele>
        <time>2020-01-23T09:37:40 0100</time>
      </trkpt>
      <trkpt lat="47.23018" lon="4.96504">
        <ele>310.65789794922</ele>
        <time>2020-01-23T09:37:44 0100</time>
      </trkpt>
      <trkpt lat="47.23018" lon="4.96503">
        <ele>310.82327270508</ele>
        <time>2020-01-23T09:37:48 0100</time>
      </trkpt>
      <trkpt lat="47.23018" lon="4.96504">
        <ele>310.98648071289</ele>
        <time>2020-01-23T09:37:52 0100</time>
      </trkpt>
      <trkpt lat="47.23017" lon="4.96504">
        <ele>310.98223876953</ele>
        <time>2020-01-23T09:37:56 0100</time>
      </trkpt>
      <trkpt lat="47.23016" lon="4.96504">
        <ele>310.9006652832</ele>
        <time>2020-01-23T09:38:00 0100</time>
      </trkpt>
      <trkpt lat="47.23013" lon="4.96504">
        <ele>310.87585449219</ele>
        <time>2020-01-23T09:38:04 0100</time>
      </trkpt>
      <trkpt lat="47.23011" lon="4.96502">
        <ele>310.98168945312</ele>
        <time>2020-01-23T09:38:08 0100</time>
      </trkpt>
      <trkpt lat="47.2301" lon="4.965">
        <ele>311.05187988281</ele>
        <time>2020-01-23T09:38:12 0100</time>
      </trkpt>
      <trkpt lat="47.23008" lon="4.965">
        <ele>311.177734375</ele>
        <time>2020-01-23T09:38:16 0100</time>
      </trkpt>
      <trkpt lat="47.23003" lon="4.96497">
        <ele>311.38613891602</ele>
        <time>2020-01-23T09:38:20 0100</time>
      </trkpt>
      <trkpt lat="47.23002" lon="4.96495">
        <ele>311.12872314453</ele>
        <time>2020-01-23T09:38:24 0100</time>
      </trkpt>
      <trkpt lat="47.22998" lon="4.96494">
        <ele>310.75833129883</ele>
        <time>2020-01-23T09:38:28 0100</time>
      </trkpt>
      <trkpt lat="47.22994" lon="4.96494">
        <ele>310.42272949219</ele>
        <time>2020-01-23T09:38:32 0100</time>
      </trkpt>
      <trkpt lat="47.2299" lon="4.96494">
        <ele>310.19689941406</ele>
        <time>2020-01-23T09:38:36 0100</time>
      </trkpt>
      <trkpt lat="47.22989" lon="4.96492">
        <ele>309.98907470703</ele>
        <time>2020-01-23T09:38:40 0100</time>
      </trkpt>
      <trkpt lat="47.22986" lon="4.96492">
        <ele>309.90139770508</ele>
        <time>2020-01-23T09:38:44 0100</time>
      </trkpt>
      <trkpt lat="47.22983" lon="4.9649">
        <ele>309.78881835938</ele>
        <time>2020-01-23T09:38:48 0100</time>
      </trkpt>
      <trkpt lat="47.22982" lon="4.96488">
        <ele>309.62893676758</ele>
        <time>2020-01-23T09:38:52 0100</time>
      </trkpt>
      <trkpt lat="47.2298" lon="4.96486">
        <ele>309.52035522461</ele>
        <time>2020-01-23T09:38:56 0100</time>
      </trkpt>
      <trkpt lat="47.22976" lon="4.96484">
        <ele>309.41162109375</ele>
        <time>2020-01-23T09:39:00 0100</time>
      </trkpt>
      <trkpt lat="47.22974" lon="4.96483">
        <ele>309.33258056641</ele>
        <time>2020-01-23T09:39:04 0100</time>
      </trkpt>
      <trkpt lat="47.22971" lon="4.96484">
        <ele>309.28909301758</ele>
        <time>2020-01-23T09:39:08 0100</time>
      </trkpt>
      <trkpt lat="47.22971" lon="4.96484">
        <ele>309.11294555664</ele>
        <time>2020-01-23T09:39:12 0100</time>
      </trkpt>
      <trkpt lat="47.2297" lon="4.96486">
        <ele>308.60113525391</ele>
        <time>2020-01-23T09:39:16 0100</time>
      </trkpt>
      <trkpt lat="47.22969" lon="4.96487">
        <ele>308.5625</ele>
        <time>2020-01-23T09:39:20 0100</time>
      </trkpt>
      <trkpt lat="47.22969" lon="4.96487">
        <ele>308.54260253906</ele>
        <time>2020-01-23T09:39:24 0100</time>
      </trkpt>
      <trkpt lat="47.22969" lon="4.96487">
        <ele>308.52505493164</ele>
        <time>2020-01-23T09:39:28 0100</time>
      </trkpt>
      <trkpt lat="47.22969" lon="4.96486">
        <ele>308.50747680664</ele>
        <time>2020-01-23T09:39:32 0100</time>
      </trkpt>
      <trkpt lat="47.22969" lon="4.96486">
        <ele>308.44860839844</ele>
        <time>2020-01-23T09:39:36 0100</time>
      </trkpt>
      <trkpt lat="47.22969" lon="4.96486">
        <ele>308.43392944336</ele>
        <time>2020-01-23T09:39:40 0100</time>
      </trkpt>
      <trkpt lat="47.22968" lon="4.96485">
        <ele>308.40386962891</ele>
        <time>2020-01-23T09:39:44 0100</time>
      </trkpt>
      <trkpt lat="47.22968" lon="4.96486">
        <ele>308.32678222656</ele>
        <time>2020-01-23T09:39:48 0100</time>
      </trkpt>
      <trkpt lat="47.22967" lon="4.96485">
        <ele>308.26153564453</ele>
        <time>2020-01-23T09:39:52 0100</time>
      </trkpt>
      <trkpt lat="47.22966" lon="4.96485">
        <ele>308.21755981445</ele>
        <time>2020-01-23T09:39:56 0100</time>
      </trkpt>
      <trkpt lat="47.22966" lon="4.96485">
        <ele>308.18621826172</ele>
        <time>2020-01-23T09:40:00 0100</time>
      </trkpt>
      <trkpt lat="47.22964" lon="4.96485">
        <ele>307.99160766602</ele>
        <time>2020-01-23T09:40:04 0100</time>
      </trkpt>
      <trkpt lat="47.22962" lon="4.96484">
        <ele>307.90850830078</ele>
        <time>2020-01-23T09:40:08 0100</time>
      </trkpt>
      <trkpt lat="47.22961" lon="4.96485">
        <ele>307.8928527832</ele>
        <time>2020-01-23T09:40:12 0100</time>
      </trkpt>
      <trkpt lat="47.22958" lon="4.96485">
        <ele>307.806640625</ele>
        <time>2020-01-23T09:40:16 0100</time>
      </trkpt>
      <trkpt lat="47.22955" lon="4.96486">
        <ele>307.84896850586</ele>
        <time>2020-01-23T09:40:20 0100</time>
      </trkpt>
      <trkpt lat="47.22952" lon="4.96487">
        <ele>307.89996337891</ele>
        <time>2020-01-23T09:40:24 0100</time>
      </trkpt>
      <trkpt lat="47.22947" lon="4.96488">
        <ele>307.75653076172</ele>
        <time>2020-01-23T09:40:28 0100</time>
      </trkpt>
      <trkpt lat="47.22942" lon="4.96488">
        <ele>307.57852172852</ele>
        <time>2020-01-23T09:40:32 0100</time>
      </trkpt>
      <trkpt lat="47.22941" lon="4.96487">
        <ele>307.52569580078</ele>
        <time>2020-01-23T09:40:36 0100</time>
      </trkpt>
      <trkpt lat="47.22941" lon="4.96487">
        <ele>307.48477172852</ele>
        <time>2020-01-23T09:40:40 0100</time>
      </trkpt>
      <trkpt lat="47.2294" lon="4.96487">
        <ele>307.42071533203</ele>
        <time>2020-01-23T09:40:44 0100</time>
      </trkpt>
      <trkpt lat="47.2294" lon="4.96487">
        <ele>307.33895874023</ele>
        <time>2020-01-23T09:40:48 0100</time>
      </trkpt>
      <trkpt lat="47.2294" lon="4.96486">
        <ele>307.26235961914</ele>
        <time>2020-01-23T09:40:52 0100</time>
      </trkpt>
      <trkpt lat="47.22939" lon="4.96485">
        <ele>307.20556640625</ele>
        <time>2020-01-23T09:40:56 0100</time>
      </trkpt>
      <trkpt lat="47.22939" lon="4.96485">
        <ele>307.15502929688</ele>
        <time>2020-01-23T09:41:00 0100</time>
      </trkpt>
      <trkpt lat="47.22937" lon="4.96485">
        <ele>306.89270019531</ele>
        <time>2020-01-23T09:41:04 0100</time>
      </trkpt>
      <trkpt lat="47.22936" lon="4.96489">
        <ele>306.19085693359</ele>
        <time>2020-01-23T09:41:08 0100</time>
      </trkpt>
      <trkpt lat="47.22934" lon="4.9649">
        <ele>305.42599487305</ele>
        <time>2020-01-23T09:41:12 0100</time>
      </trkpt>
      <trkpt lat="47.22931" lon="4.96493">
        <ele>304.78546142578</ele>
        <time>2020-01-23T09:41:16 0100</time>
      </trkpt>
      <trkpt lat="47.22929" lon="4.96493">
        <ele>304.32012939453</ele>
        <time>2020-01-23T09:41:20 0100</time>
      </trkpt>
      <trkpt lat="47.22925" lon="4.96492">
        <ele>303.94149780273</ele>
        <time>2020-01-23T09:41:24 0100</time>
      </trkpt>
      <trkpt lat="47.22922" lon="4.96494">
        <ele>303.76495361328</ele>
        <time>2020-01-23T09:41:28 0100</time>
      </trkpt>
      <trkpt lat="47.22921" lon="4.96494">
        <ele>303.76849365234</ele>
        <time>2020-01-23T09:41:32 0100</time>
      </trkpt>
      <trkpt lat="47.22921" lon="4.96494">
        <ele>303.78692626953</ele>
        <time>2020-01-23T09:41:36 0100</time>
      </trkpt>
      <trkpt lat="47.22921" lon="4.96494">
        <ele>303.80828857422</ele>
        <time>2020-01-23T09:41:40 0100</time>
      </trkpt>
      <trkpt lat="47.22921" lon="4.96493">
        <ele>303.84356689453</ele>
        <time>2020-01-23T09:41:44 0100</time>
      </trkpt>
      <trkpt lat="47.22921" lon="4.96493">
        <ele>303.8828125</ele>
        <time>2020-01-23T09:41:48 0100</time>
      </trkpt>
      <trkpt lat="47.22921" lon="4.96493">
        <ele>303.92141723633</ele>
        <time>2020-01-23T09:41:52 0100</time>
      </trkpt>
      <trkpt lat="47.22921" lon="4.96494">
        <ele>303.95373535156</ele>
        <time>2020-01-23T09:41:56 0100</time>
      </trkpt>
      <trkpt lat="47.22921" lon="4.96494">
        <ele>303.96878051758</ele>
        <time>2020-01-23T09:42:00 0100</time>
      </trkpt>
      <trkpt lat="47.22921" lon="4.96494">
        <ele>303.97842407227</ele>
        <time>2020-01-23T09:42:04 0100</time>
      </trkpt>
      <trkpt lat="47.22921" lon="4.96495">
        <ele>303.98223876953</ele>
        <time>2020-01-23T09:42:08 0100</time>
      </trkpt>
      <trkpt lat="47.22921" lon="4.96495">
        <ele>303.97872924805</ele>
        <time>2020-01-23T09:42:12 0100</time>
      </trkpt>
      <trkpt lat="47.22921" lon="4.96495">
        <ele>303.97149658203</ele>
        <time>2020-01-23T09:42:16 0100</time>
      </trkpt>
      <trkpt lat="47.22922" lon="4.96495">
        <ele>303.93319702148</ele>
        <time>2020-01-23T09:42:20 0100</time>
      </trkpt>
      <trkpt lat="47.22924" lon="4.96494">
        <ele>303.88940429688</ele>
        <time>2020-01-23T09:42:24 0100</time>
      </trkpt>
      <trkpt lat="47.22924" lon="4.96494">
        <ele>303.87957763672</ele>
        <time>2020-01-23T09:42:28 0100</time>
      </trkpt>
      <trkpt lat="47.22924" lon="4.96494">
        <ele>303.86529541016</ele>
        <time>2020-01-23T09:42:32 0100</time>
      </trkpt>
      <trkpt lat="47.22924" lon="4.96494">
        <ele>303.82235717773</ele>
        <time>2020-01-23T09:42:36 0100</time>
      </trkpt>
      <trkpt lat="47.22922" lon="4.96492">
        <ele>303.36032104492</ele>
        <time>2020-01-23T09:42:40 0100</time>
      </trkpt>
      <trkpt lat="47.22922" lon="4.96491">
        <ele>303.33392333984</ele>
        <time>2020-01-23T09:42:44 0100</time>
      </trkpt>
      <trkpt lat="47.22923" lon="4.9649">
        <ele>303.32702636719</ele>
        <time>2020-01-23T09:42:48 0100</time>
      </trkpt>
      <trkpt lat="47.22923" lon="4.9649">
        <ele>303.33026123047</ele>
        <time>2020-01-23T09:42:52 0100</time>
      </trkpt>
      <trkpt lat="47.22923" lon="4.96489">
        <ele>303.34844970703</ele>
        <time>2020-01-23T09:42:56 0100</time>
      </trkpt>
      <trkpt lat="47.22923" lon="4.96488">
        <ele>303.3708190918</ele>
        <time>2020-01-23T09:43:00 0100</time>
      </trkpt>
      <trkpt lat="47.22923" lon="4.96487">
        <ele>303.40933227539</ele>
        <time>2020-01-23T09:43:04 0100</time>
      </trkpt>
      <trkpt lat="47.22923" lon="4.96487">
        <ele>303.47091674805</ele>
        <time>2020-01-23T09:43:08 0100</time>
      </trkpt>
      <trkpt lat="47.22922" lon="4.96486">
        <ele>303.55206298828</ele>
        <time>2020-01-23T09:43:12 0100</time>
      </trkpt>
      <trkpt lat="47.22922" lon="4.96485">
        <ele>303.63394165039</ele>
        <time>2020-01-23T09:43:16 0100</time>
      </trkpt>
      <trkpt lat="47.22922" lon="4.96485">
        <ele>303.70449829102</ele>
        <time>2020-01-23T09:43:20 0100</time>
      </trkpt>
      <trkpt lat="47.22922" lon="4.96487">
        <ele>303.73724365234</ele>
        <time>2020-01-23T09:43:24 0100</time>
      </trkpt>
      <trkpt lat="47.22922" lon="4.96487">
        <ele>303.76458740234</ele>
        <time>2020-01-23T09:43:28 0100</time>
      </trkpt>
      <trkpt lat="47.22922" lon="4.96488">
        <ele>303.97787475586</ele>
        <time>2020-01-23T09:43:32 0100</time>
      </trkpt>
      <trkpt lat="47.22925" lon="4.96494">
        <ele>304.22198486328</ele>
        <time>2020-01-23T09:43:36 0100</time>
      </trkpt>
      <trkpt lat="47.22927" lon="4.96499">
        <ele>304.21533203125</ele>
        <time>2020-01-23T09:43:40 0100</time>
      </trkpt>
      <trkpt lat="47.22929" lon="4.96502">
        <ele>303.94302368164</ele>
        <time>2020-01-23T09:43:44 0100</time>
      </trkpt>
      <trkpt lat="47.22935" lon="4.96503">
        <ele>303.51507568359</ele>
        <time>2020-01-23T09:43:48 0100</time>
      </trkpt>
      <trkpt lat="47.2294" lon="4.96503">
        <ele>303.23321533203</ele>
        <time>2020-01-23T09:43:52 0100</time>
      </trkpt>
      <trkpt lat="47.22943" lon="4.96503">
        <ele>303.1728515625</ele>
        <time>2020-01-23T09:43:56 0100</time>
      </trkpt>
      <trkpt lat="47.22944" lon="4.96503">
        <ele>303.19143676758</ele>
        <time>2020-01-23T09:44:00 0100</time>
      </trkpt>
      <trkpt lat="47.22944" lon="4.96503">
        <ele>303.20654296875</ele>
        <time>2020-01-23T09:44:04 0100</time>
      </trkpt>
      <trkpt lat="47.22944" lon="4.96504">
        <ele>303.22103881836</ele>
        <time>2020-01-23T09:44:08 0100</time>
      </trkpt>
      <trkpt lat="47.22944" lon="4.96504">
        <ele>303.23638916016</ele>
        <time>2020-01-23T09:44:12 0100</time>
      </trkpt>
      <trkpt lat="47.22944" lon="4.96504">
        <ele>303.25036621094</ele>
        <time>2020-01-23T09:44:16 0100</time>
      </trkpt>
      <trkpt lat="47.22944" lon="4.96504">
        <ele>303.26126098633</ele>
        <time>2020-01-23T09:44:20 0100</time>
      </trkpt>
      <trkpt lat="47.22944" lon="4.96504">
        <ele>303.26974487305</ele>
        <time>2020-01-23T09:44:24 0100</time>
      </trkpt>
      <trkpt lat="47.22944" lon="4.96504">
        <ele>303.27536010742</ele>
        <time>2020-01-23T09:44:28 0100</time>
      </trkpt>
      <trkpt lat="47.22944" lon="4.96505">
        <ele>303.27639770508</ele>
        <time>2020-01-23T09:44:32 0100</time>
      </trkpt>
      <trkpt lat="47.22943" lon="4.96505">
        <ele>303.35989379883</ele>
        <time>2020-01-23T09:44:36 0100</time>
      </trkpt>
      <trkpt lat="47.22942" lon="4.96507">
        <ele>303.51922607422</ele>
        <time>2020-01-23T09:44:40 0100</time>
      </trkpt>
      <trkpt lat="47.2294" lon="4.96508">
        <ele>303.62457275391</ele>
        <time>2020-01-23T09:44:44 0100</time>
      </trkpt>
      <trkpt lat="47.22935" lon="4.96507">
        <ele>304.01782226562</ele>
        <time>2020-01-23T09:44:48 0100</time>
      </trkpt>
      <trkpt lat="47.22925" lon="4.96501">
        <ele>304.35711669922</ele>
        <time>2020-01-23T09:44:52 0100</time>
      </trkpt>
      <trkpt lat="47.22921" lon="4.96499">
        <ele>304.34045410156</ele>
        <time>2020-01-23T09:44:56 0100</time>
      </trkpt>
      <trkpt lat="47.22922" lon="4.965">
        <ele>304.09332275391</ele>
        <time>2020-01-23T09:45:00 0100</time>
      </trkpt>
      <trkpt lat="47.22917" lon="4.965">
        <ele>303.88214111328</ele>
        <time>2020-01-23T09:45:04 0100</time>
      </trkpt>
      <trkpt lat="47.22914" lon="4.96499">
        <ele>303.67837524414</ele>
        <time>2020-01-23T09:45:08 0100</time>
      </trkpt>
      <trkpt lat="47.2291" lon="4.96499">
        <ele>303.4821472168</ele>
        <time>2020-01-23T09:45:12 0100</time>
      </trkpt>
      <trkpt lat="47.22906" lon="4.96498">
        <ele>303.35296630859</ele>
        <time>2020-01-23T09:45:16 0100</time>
      </trkpt>
      <trkpt lat="47.229" lon="4.96497">
        <ele>303.38082885742</ele>
        <time>2020-01-23T09:45:20 0100</time>
      </trkpt>
      <trkpt lat="47.22895" lon="4.96497">
        <ele>303.31311035156</ele>
        <time>2020-01-23T09:45:24 0100</time>
      </trkpt>
      <trkpt lat="47.22893" lon="4.96499">
        <ele>303.03805541992</ele>
        <time>2020-01-23T09:45:28 0100</time>
      </trkpt>
      <trkpt lat="47.22888" lon="4.96499">
        <ele>302.79028320312</ele>
        <time>2020-01-23T09:45:32 0100</time>
      </trkpt>
      <trkpt lat="47.22884" lon="4.96499">
        <ele>302.66903686523</ele>
        <time>2020-01-23T09:45:36 0100</time>
      </trkpt>
      <trkpt lat="47.22881" lon="4.96501">
        <ele>302.52416992188</ele>
        <time>2020-01-23T09:45:40 0100</time>
      </trkpt>
      <trkpt lat="47.22878" lon="4.96503">
        <ele>302.34103393555</ele>
        <time>2020-01-23T09:45:44 0100</time>
      </trkpt>
      <trkpt lat="47.22874" lon="4.96504">
        <ele>302.15875244141</ele>
        <time>2020-01-23T09:45:48 0100</time>
      </trkpt>
      <trkpt lat="47.22872" lon="4.96504">
        <ele>302.01065063477</ele>
        <time>2020-01-23T09:45:52 0100</time>
      </trkpt>
      <trkpt lat="47.22872" lon="4.96504">
        <ele>301.97430419922</ele>
        <time>2020-01-23T09:45:56 0100</time>
      </trkpt>
      <trkpt lat="47.22872" lon="4.96504">
        <ele>301.88143920898</ele>
        <time>2020-01-23T09:46:00 0100</time>
      </trkpt>
      <trkpt lat="47.2287" lon="4.96504">
        <ele>301.73742675781</ele>
        <time>2020-01-23T09:46:04 0100</time>
      </trkpt>
      <trkpt lat="47.2287" lon="4.96504">
        <ele>301.70040893555</ele>
        <time>2020-01-23T09:46:08 0100</time>
      </trkpt>
      <trkpt lat="47.2287" lon="4.96504">
        <ele>301.66653442383</ele>
        <time>2020-01-23T09:46:12 0100</time>
      </trkpt>
      <trkpt lat="47.2287" lon="4.96504">
        <ele>301.64364624023</ele>
        <time>2020-01-23T09:46:16 0100</time>
      </trkpt>
      <trkpt lat="47.22869" lon="4.96504">
        <ele>301.62457275391</ele>
        <time>2020-01-23T09:46:20 0100</time>
      </trkpt>
      <trkpt lat="47.22869" lon="4.96507">
        <ele>301.6047668457</ele>
        <time>2020-01-23T09:46:24 0100</time>
      </trkpt>
      <trkpt lat="47.22869" lon="4.96506">
        <ele>301.58032226562</ele>
        <time>2020-01-23T09:46:28 0100</time>
      </trkpt>
      <trkpt lat="47.22869" lon="4.96506">
        <ele>301.55218505859</ele>
        <time>2020-01-23T09:46:32 0100</time>
      </trkpt>
      <trkpt lat="47.22869" lon="4.96506">
        <ele>301.44772338867</ele>
        <time>2020-01-23T09:46:36 0100</time>
      </trkpt>
      <trkpt lat="47.22869" lon="4.96508">
        <ele>301.32363891602</ele>
        <time>2020-01-23T09:46:40 0100</time>
      </trkpt>
      <trkpt lat="47.22869" lon="4.96508">
        <ele>301.30648803711</ele>
        <time>2020-01-23T09:46:44 0100</time>
      </trkpt>
      <trkpt lat="47.22869" lon="4.96509">
        <ele>301.24801635742</ele>
        <time>2020-01-23T09:46:48 0100</time>
      </trkpt>
      <trkpt lat="47.2287" lon="4.96513">
        <ele>301.12915039062</ele>
        <time>2020-01-23T09:46:52 0100</time>
      </trkpt>
      <trkpt lat="47.2287" lon="4.96514">
        <ele>301.11633300781</ele>
        <time>2020-01-23T09:46:56 0100</time>
      </trkpt>
      <trkpt lat="47.2287" lon="4.96514">
        <ele>301.10794067383</ele>
        <time>2020-01-23T09:47:00 0100</time>
      </trkpt>
      <trkpt lat="47.2287" lon="4.96513">
        <ele>301.09875488281</ele>
        <time>2020-01-23T09:47:04 0100</time>
      </trkpt>
      <trkpt lat="47.22868" lon="4.96512">
        <ele>301.07748413086</ele>
        <time>2020-01-23T09:47:08 0100</time>
      </trkpt>
      <trkpt lat="47.22865" lon="4.96512">
        <ele>300.72036743164</ele>
        <time>2020-01-23T09:47:12 0100</time>
      </trkpt>
      <trkpt lat="47.22862" lon="4.96511">
        <ele>300.38793945312</ele>
        <time>2020-01-23T09:47:16 0100</time>
      </trkpt>
      <trkpt lat="47.22859" lon="4.96511">
        <ele>300.06204223633</ele>
        <time>2020-01-23T09:47:20 0100</time>
      </trkpt>
      <trkpt lat="47.22857" lon="4.96511">
        <ele>299.78884887695</ele>
        <time>2020-01-23T09:47:24 0100</time>
      </trkpt>
      <trkpt lat="47.22853" lon="4.96509">
        <ele>299.61322021484</ele>
        <time>2020-01-23T09:47:28 0100</time>
      </trkpt>
      <trkpt lat="47.22851" lon="4.96508">
        <ele>299.57461547852</ele>
        <time>2020-01-23T09:47:32 0100</time>
      </trkpt>
      <trkpt lat="47.2285" lon="4.96508">
        <ele>299.24392700195</ele>
        <time>2020-01-23T09:47:36 0100</time>
      </trkpt>
      <trkpt lat="47.2285" lon="4.96508">
        <ele>298.72210693359</ele>
        <time>2020-01-23T09:47:40 0100</time>
      </trkpt>
      <trkpt lat="47.22847" lon="4.96508">
        <ele>298.38595581055</ele>
        <time>2020-01-23T09:47:44 0100</time>
      </trkpt>
      <trkpt lat="47.22844" lon="4.96507">
        <ele>298.13757324219</ele>
        <time>2020-01-23T09:47:49 0100</time>
      </trkpt>
      <trkpt lat="47.22841" lon="4.96508">
        <ele>297.853515625</ele>
        <time>2020-01-23T09:47:53 0100</time>
      </trkpt>
      <trkpt lat="47.22839" lon="4.96507">
        <ele>297.61468505859</ele>
        <time>2020-01-23T09:47:57 0100</time>
      </trkpt>
      <trkpt lat="47.22838" lon="4.96506">
        <ele>297.37841796875</ele>
        <time>2020-01-23T09:48:01 0100</time>
      </trkpt>
      <trkpt lat="47.22836" lon="4.96507">
        <ele>297.16778564453</ele>
        <time>2020-01-23T09:48:05 0100</time>
      </trkpt>
      <trkpt lat="47.22834" lon="4.96507">
        <ele>297.04525756836</ele>
        <time>2020-01-23T09:48:09 0100</time>
      </trkpt>
      <trkpt lat="47.22832" lon="4.96507">
        <ele>296.90930175781</ele>
        <time>2020-01-23T09:48:13 0100</time>
      </trkpt>
      <trkpt lat="47.22829" lon="4.96507">
        <ele>296.74685668945</ele>
        <time>2020-01-23T09:48:17 0100</time>
      </trkpt>
      <trkpt lat="47.22826" lon="4.96507">
        <ele>296.55242919922</ele>
        <time>2020-01-23T09:48:21 0100</time>
      </trkpt>
      <trkpt lat="47.22825" lon="4.96506">
        <ele>296.5227355957</ele>
        <time>2020-01-23T09:48:25 0100</time>
      </trkpt>
      <trkpt lat="47.22825" lon="4.96506">
        <ele>296.48513793945</ele>
        <time>2020-01-23T09:48:29 0100</time>
      </trkpt>
      <trkpt lat="47.22825" lon="4.96507">
        <ele>296.45291137695</ele>
        <time>2020-01-23T09:48:33 0100</time>
      </trkpt>
      <trkpt lat="47.22825" lon="4.96507">
        <ele>296.41366577148</ele>
        <time>2020-01-23T09:48:37 0100</time>
      </trkpt>
      <trkpt lat="47.22825" lon="4.96506">
        <ele>296.37884521484</ele>
        <time>2020-01-23T09:48:41 0100</time>
      </trkpt>
      <trkpt lat="47.22826" lon="4.96504">
        <ele>296.251953125</ele>
        <time>2020-01-23T09:48:45 0100</time>
      </trkpt>
      <trkpt lat="47.22829" lon="4.96502">
        <ele>296.10632324219</ele>
        <time>2020-01-23T09:48:49 0100</time>
      </trkpt>
      <trkpt lat="47.22832" lon="4.96502">
        <ele>295.97894287109</ele>
        <time>2020-01-23T09:48:53 0100</time>
      </trkpt>
      <trkpt lat="47.22832" lon="4.96502">
        <ele>295.96917724609</ele>
        <time>2020-01-23T09:48:57 0100</time>
      </trkpt>
      <trkpt lat="47.22831" lon="4.96503">
        <ele>295.9616394043</ele>
        <time>2020-01-23T09:49:01 0100</time>
      </trkpt>
      <trkpt lat="47.22831" lon="4.96504">
        <ele>295.95199584961</ele>
        <time>2020-01-23T09:49:05 0100</time>
      </trkpt>
      <trkpt lat="47.22832" lon="4.96505">
        <ele>295.93832397461</ele>
        <time>2020-01-23T09:49:09 0100</time>
      </trkpt>
      <trkpt lat="47.22832" lon="4.96505">
        <ele>295.92477416992</ele>
        <time>2020-01-23T09:49:13 0100</time>
      </trkpt>
      <trkpt lat="47.22832" lon="4.96505">
        <ele>295.91696166992</ele>
        <time>2020-01-23T09:49:17 0100</time>
      </trkpt>
      <trkpt lat="47.22832" lon="4.96505">
        <ele>295.89627075195</ele>
        <time>2020-01-23T09:49:21 0100</time>
      </trkpt>
      <trkpt lat="47.22832" lon="4.96505">
        <ele>295.87161254883</ele>
        <time>2020-01-23T09:49:25 0100</time>
      </trkpt>
      <trkpt lat="47.22832" lon="4.96506">
        <ele>295.84936523438</ele>
        <time>2020-01-23T09:49:29 0100</time>
      </trkpt>
      <trkpt lat="47.22832" lon="4.96506">
        <ele>295.82623291016</ele>
        <time>2020-01-23T09:49:33 0100</time>
      </trkpt>
      <trkpt lat="47.22832" lon="4.96506">
        <ele>295.79846191406</ele>
        <time>2020-01-23T09:49:37 0100</time>
      </trkpt>
      <trkpt lat="47.22832" lon="4.96506">
        <ele>295.771484375</ele>
        <time>2020-01-23T09:49:41 0100</time>
      </trkpt>
      <trkpt lat="47.22832" lon="4.96506">
        <ele>295.74374389648</ele>
        <time>2020-01-23T09:49:45 0100</time>
      </trkpt>
      <trkpt lat="47.22833" lon="4.96506">
        <ele>295.71688842773</ele>
        <time>2020-01-23T09:49:49 0100</time>
      </trkpt>
      <trkpt lat="47.22833" lon="4.96506">
        <ele>295.6882019043</ele>
        <time>2020-01-23T09:49:53 0100</time>
      </trkpt>
      <trkpt lat="47.22833" lon="4.96506">
        <ele>295.66333007812</ele>
        <time>2020-01-23T09:49:57 0100</time>
      </trkpt>
      <trkpt lat="47.22833" lon="4.96506">
        <ele>295.64175415039</ele>
        <time>2020-01-23T09:50:01 0100</time>
      </trkpt>
      <trkpt lat="47.22833" lon="4.96507">
        <ele>295.62524414062</ele>
        <time>2020-01-23T09:50:05 0100</time>
      </trkpt>
      <trkpt lat="47.22832" lon="4.96507">
        <ele>295.61099243164</ele>
        <time>2020-01-23T09:50:09 0100</time>
      </trkpt>
      <trkpt lat="47.22832" lon="4.96507">
        <ele>295.59713745117</ele>
        <time>2020-01-23T09:50:13 0100</time>
      </trkpt>
      <trkpt lat="47.22832" lon="4.96508">
        <ele>295.53659057617</ele>
        <time>2020-01-23T09:50:17 0100</time>
      </trkpt>
      <trkpt lat="47.22832" lon="4.96508">
        <ele>295.51452636719</ele>
        <time>2020-01-23T09:50:21 0100</time>
      </trkpt>
      <trkpt lat="47.22831" lon="4.96508">
        <ele>295.49075317383</ele>
        <time>2020-01-23T09:50:25 0100</time>
      </trkpt>
      <trkpt lat="47.22832" lon="4.96508">
        <ele>295.47723388672</ele>
        <time>2020-01-23T09:50:29 0100</time>
      </trkpt>
      <trkpt lat="47.22832" lon="4.96507">
        <ele>295.45745849609</ele>
        <time>2020-01-23T09:50:33 0100</time>
      </trkpt>
      <trkpt lat="47.22833" lon="4.96507">
        <ele>295.43505859375</ele>
        <time>2020-01-23T09:50:37 0100</time>
      </trkpt>
      <trkpt lat="47.22833" lon="4.96506">
        <ele>295.421875</ele>
        <time>2020-01-23T09:50:41 0100</time>
      </trkpt>
      <trkpt lat="47.22833" lon="4.96506">
        <ele>295.41635131836</ele>
        <time>2020-01-23T09:50:45 0100</time>
      </trkpt>
      <trkpt lat="47.22833" lon="4.96505">
        <ele>295.40130615234</ele>
        <time>2020-01-23T09:50:49 0100</time>
      </trkpt>
      <trkpt lat="47.22833" lon="4.96505">
        <ele>295.39404296875</ele>
        <time>2020-01-23T09:50:53 0100</time>
      </trkpt>
      <trkpt lat="47.22833" lon="4.96504">
        <ele>295.40774536133</ele>
        <time>2020-01-23T09:50:57 0100</time>
      </trkpt>
      <trkpt lat="47.22833" lon="4.96504">
        <ele>295.43179321289</ele>
        <time>2020-01-23T09:51:01 0100</time>
      </trkpt>
      <trkpt lat="47.22833" lon="4.96504">
        <ele>295.4533996582</ele>
        <time>2020-01-23T09:51:05 0100</time>
      </trkpt>
      <trkpt lat="47.22833" lon="4.96504">
        <ele>295.47821044922</ele>
        <time>2020-01-23T09:51:09 0100</time>
      </trkpt>
      <trkpt lat="47.22833" lon="4.96504">
        <ele>295.53213500977</ele>
        <time>2020-01-23T09:51:13 0100</time>
      </trkpt>
      <trkpt lat="47.22833" lon="4.96503">
        <ele>295.58746337891</ele>
        <time>2020-01-23T09:51:17 0100</time>
      </trkpt>
      <trkpt lat="47.22833" lon="4.96503">
        <ele>295.62893676758</ele>
        <time>2020-01-23T09:51:21 0100</time>
      </trkpt>
      <trkpt lat="47.22833" lon="4.96503">
        <ele>295.64678955078</ele>
        <time>2020-01-23T09:51:25 0100</time>
      </trkpt>
      <trkpt lat="47.22833" lon="4.96503">
        <ele>295.64877319336</ele>
        <time>2020-01-23T09:51:29 0100</time>
      </trkpt>
      <trkpt lat="47.22833" lon="4.96504">
        <ele>295.7014465332</ele>
        <time>2020-01-23T09:51:33 0100</time>
      </trkpt>
      <trkpt lat="47.22833" lon="4.96505">
        <ele>295.81225585938</ele>
        <time>2020-01-23T09:51:37 0100</time>
      </trkpt>
      <trkpt lat="47.22832" lon="4.96505">
        <ele>295.79989624023</ele>
        <time>2020-01-23T09:51:41 0100</time>
      </trkpt>
      <trkpt lat="47.22832" lon="4.96505">
        <ele>295.76577758789</ele>
        <time>2020-01-23T09:51:45 0100</time>
      </trkpt>
      <trkpt lat="47.22831" lon="4.96506">
        <ele>295.63262939453</ele>
        <time>2020-01-23T09:51:49 0100</time>
      </trkpt>
      <trkpt lat="47.2283" lon="4.96508">
        <ele>295.6181640625</ele>
        <time>2020-01-23T09:51:53 0100</time>
      </trkpt>
      <trkpt lat="47.2283" lon="4.96508">
        <ele>295.61291503906</ele>
        <time>2020-01-23T09:51:57 0100</time>
      </trkpt>
      <trkpt lat="47.22829" lon="4.96509">
        <ele>295.61151123047</ele>
        <time>2020-01-23T09:52:01 0100</time>
      </trkpt>
      <trkpt lat="47.22829" lon="4.9651">
        <ele>295.60284423828</ele>
        <time>2020-01-23T09:52:05 0100</time>
      </trkpt>
      <trkpt lat="47.22828" lon="4.9651">
        <ele>295.58563232422</ele>
        <time>2020-01-23T09:52:09 0100</time>
      </trkpt>
      <trkpt lat="47.22828" lon="4.9651">
        <ele>295.57272338867</ele>
        <time>2020-01-23T09:52:13 0100</time>
      </trkpt>
      <trkpt lat="47.22827" lon="4.9651">
        <ele>295.56814575195</ele>
        <time>2020-01-23T09:52:17 0100</time>
      </trkpt>
      <trkpt lat="47.22827" lon="4.9651">
        <ele>295.56051635742</ele>
        <time>2020-01-23T09:52:21 0100</time>
      </trkpt>
      <trkpt lat="47.22827" lon="4.96511">
        <ele>295.54940795898</ele>
        <time>2020-01-23T09:52:25 0100</time>
      </trkpt>
      <trkpt lat="47.22826" lon="4.96511">
        <ele>295.54010009766</ele>
        <time>2020-01-23T09:52:29 0100</time>
      </trkpt>
      <trkpt lat="47.22826" lon="4.96511">
        <ele>295.52557373047</ele>
        <time>2020-01-23T09:52:33 0100</time>
      </trkpt>
      <trkpt lat="47.22826" lon="4.96511">
        <ele>295.51455688477</ele>
        <time>2020-01-23T09:52:37 0100</time>
      </trkpt>
      <trkpt lat="47.22826" lon="4.96511">
        <ele>295.50180053711</ele>
        <time>2020-01-23T09:52:41 0100</time>
      </trkpt>
      <trkpt lat="47.22826" lon="4.96511">
        <ele>295.48901367188</ele>
        <time>2020-01-23T09:52:45 0100</time>
      </trkpt>
      <trkpt lat="47.22826" lon="4.96511">
        <ele>295.46853637695</ele>
        <time>2020-01-23T09:52:49 0100</time>
      </trkpt>
      <trkpt lat="47.22826" lon="4.96511">
        <ele>295.44479370117</ele>
        <time>2020-01-23T09:52:53 0100</time>
      </trkpt>
      <trkpt lat="47.22827" lon="4.9651">
        <ele>295.41970825195</ele>
        <time>2020-01-23T09:52:57 0100</time>
      </trkpt>
      <trkpt lat="47.22827" lon="4.9651">
        <ele>295.40142822266</ele>
        <time>2020-01-23T09:53:01 0100</time>
      </trkpt>
      <trkpt lat="47.22827" lon="4.96511">
        <ele>295.39428710938</ele>
        <time>2020-01-23T09:53:05 0100</time>
      </trkpt>
      <trkpt lat="47.22827" lon="4.96511">
        <ele>295.38296508789</ele>
        <time>2020-01-23T09:53:09 0100</time>
      </trkpt>
      <trkpt lat="47.22827" lon="4.96511">
        <ele>295.3759765625</ele>
        <time>2020-01-23T09:53:13 0100</time>
      </trkpt>
      <trkpt lat="47.22828" lon="4.96511">
        <ele>295.36761474609</ele>
        <time>2020-01-23T09:53:17 0100</time>
      </trkpt>
      <trkpt lat="47.22828" lon="4.96511">
        <ele>295.35745239258</ele>
        <time>2020-01-23T09:53:21 0100</time>
      </trkpt>
      <trkpt lat="47.22828" lon="4.96511">
        <ele>295.34707641602</ele>
        <time>2020-01-23T09:53:25 0100</time>
      </trkpt>
      <trkpt lat="47.22829" lon="4.9651">
        <ele>295.2956237793</ele>
        <time>2020-01-23T09:53:29 0100</time>
      </trkpt>
      <trkpt lat="47.22827" lon="4.96508">
        <ele>295.21664428711</ele>
        <time>2020-01-23T09:53:33 0100</time>
      </trkpt>
      <trkpt lat="47.22826" lon="4.96509">
        <ele>295.18231201172</ele>
        <time>2020-01-23T09:53:37 0100</time>
      </trkpt>
      <trkpt lat="47.22824" lon="4.96509">
        <ele>295.1965637207</ele>
        <time>2020-01-23T09:53:41 0100</time>
      </trkpt>
      <trkpt lat="47.22819" lon="4.96509">
        <ele>295.16000366211</ele>
        <time>2020-01-23T09:53:45 0100</time>
      </trkpt>
      <trkpt lat="47.22816" lon="4.96508">
        <ele>295.1237487793</ele>
        <time>2020-01-23T09:53:49 0100</time>
      </trkpt>
      <trkpt lat="47.22811" lon="4.96507">
        <ele>295.0149230957</ele>
        <time>2020-01-23T09:53:53 0100</time>
      </trkpt>
      <trkpt lat="47.22809" lon="4.96507">
        <ele>294.87228393555</ele>
        <time>2020-01-23T09:53:57 0100</time>
      </trkpt>
      <trkpt lat="47.22807" lon="4.96508">
        <ele>294.7405090332</ele>
        <time>2020-01-23T09:54:01 0100</time>
      </trkpt>
      <trkpt lat="47.22804" lon="4.96509">
        <ele>294.68637084961</ele>
        <time>2020-01-23T09:54:05 0100</time>
      </trkpt>
      <trkpt lat="47.22802" lon="4.96508">
        <ele>294.66485595703</ele>
        <time>2020-01-23T09:54:09 0100</time>
      </trkpt>
      <trkpt lat="47.228" lon="4.96508">
        <ele>294.71142578125</ele>
        <time>2020-01-23T09:54:13 0100</time>
      </trkpt>
      <trkpt lat="47.22796" lon="4.96506">
        <ele>294.77661132812</ele>
        <time>2020-01-23T09:54:17 0100</time>
      </trkpt>
      <trkpt lat="47.22793" lon="4.96504">
        <ele>294.83432006836</ele>
        <time>2020-01-23T09:54:21 0100</time>
      </trkpt>
      <trkpt lat="47.2279" lon="4.96502">
        <ele>294.92050170898</ele>
        <time>2020-01-23T09:54:25 0100</time>
      </trkpt>
      <trkpt lat="47.22787" lon="4.96498">
        <ele>295.01235961914</ele>
        <time>2020-01-23T09:54:29 0100</time>
      </trkpt>
      <trkpt lat="47.22783" lon="4.96496">
        <ele>295.07690429688</ele>
        <time>2020-01-23T09:54:33 0100</time>
      </trkpt>
      <trkpt lat="47.2278" lon="4.96493">
        <ele>295.10232543945</ele>
        <time>2020-01-23T09:54:37 0100</time>
      </trkpt>
      <trkpt lat="47.22777" lon="4.96492">
        <ele>295.12023925781</ele>
        <time>2020-01-23T09:54:41 0100</time>
      </trkpt>
      <trkpt lat="47.22776" lon="4.96489">
        <ele>295.140625</ele>
        <time>2020-01-23T09:54:45 0100</time>
      </trkpt>
      <trkpt lat="47.22772" lon="4.96489">
        <ele>295.15026855469</ele>
        <time>2020-01-23T09:54:49 0100</time>
      </trkpt>
      <trkpt lat="47.22771" lon="4.9649">
        <ele>295.1628112793</ele>
        <time>2020-01-23T09:54:53 0100</time>
      </trkpt>
      <trkpt lat="47.22771" lon="4.9649">
        <ele>295.1696472168</ele>
        <time>2020-01-23T09:54:57 0100</time>
      </trkpt>
      <trkpt lat="47.22768" lon="4.9649">
        <ele>295.27297973633</ele>
        <time>2020-01-23T09:55:01 0100</time>
      </trkpt>
      <trkpt lat="47.22763" lon="4.96491">
        <ele>295.40734863281</ele>
        <time>2020-01-23T09:55:05 0100</time>
      </trkpt>
      <trkpt lat="47.2276" lon="4.96491">
        <ele>295.45126342773</ele>
        <time>2020-01-23T09:55:09 0100</time>
      </trkpt>
      <trkpt lat="47.22755" lon="4.96492">
        <ele>295.41815185547</ele>
        <time>2020-01-23T09:55:13 0100</time>
      </trkpt>
      <trkpt lat="47.22749" lon="4.96492">
        <ele>295.23767089844</ele>
        <time>2020-01-23T09:55:17 0100</time>
      </trkpt>
      <trkpt lat="47.22744" lon="4.96494">
        <ele>294.98153686523</ele>
        <time>2020-01-23T09:55:21 0100</time>
      </trkpt>
      <trkpt lat="47.22741" lon="4.96495">
        <ele>294.8515625</ele>
        <time>2020-01-23T09:55:25 0100</time>
      </trkpt>
      <trkpt lat="47.22737" lon="4.96495">
        <ele>294.85049438477</ele>
        <time>2020-01-23T09:55:29 0100</time>
      </trkpt>
      <trkpt lat="47.22735" lon="4.96496">
        <ele>294.87716674805</ele>
        <time>2020-01-23T09:55:33 0100</time>
      </trkpt>
      <trkpt lat="47.22733" lon="4.96494">
        <ele>294.81362915039</ele>
        <time>2020-01-23T09:55:37 0100</time>
      </trkpt>
      <trkpt lat="47.22732" lon="4.96491">
        <ele>294.72357177734</ele>
        <time>2020-01-23T09:55:41 0100</time>
      </trkpt>
      <trkpt lat="47.22734" lon="4.96491">
        <ele>294.70297241211</ele>
        <time>2020-01-23T09:55:45 0100</time>
      </trkpt>
      <trkpt lat="47.22734" lon="4.96487">
        <ele>294.87133789062</ele>
        <time>2020-01-23T09:55:49 0100</time>
      </trkpt>
      <trkpt lat="47.22736" lon="4.96477">
        <ele>295.1943359375</ele>
        <time>2020-01-23T09:55:53 0100</time>
      </trkpt>
      <trkpt lat="47.22737" lon="4.96469">
        <ele>295.36874389648</ele>
        <time>2020-01-23T09:55:57 0100</time>
      </trkpt>
      <trkpt lat="47.22739" lon="4.96461">
        <ele>295.3600769043</ele>
        <time>2020-01-23T09:56:01 0100</time>
      </trkpt>
      <trkpt lat="47.22741" lon="4.96454">
        <ele>295.5207824707</ele>
        <time>2020-01-23T09:56:05 0100</time>
      </trkpt>
      <trkpt lat="47.22742" lon="4.96447">
        <ele>295.8219909668</ele>
        <time>2020-01-23T09:56:09 0100</time>
      </trkpt>
      <trkpt lat="47.22742" lon="4.96443">
        <ele>296.05624389648</ele>
        <time>2020-01-23T09:56:13 0100</time>
      </trkpt>
      <trkpt lat="47.22741" lon="4.96437">
        <ele>296.14276123047</ele>
        <time>2020-01-23T09:56:17 0100</time>
      </trkpt>
      <trkpt lat="47.22742" lon="4.96436">
        <ele>296.11450195312</ele>
        <time>2020-01-23T09:56:21 0100</time>
      </trkpt>
      <trkpt lat="47.22743" lon="4.96434">
        <ele>296.12588500977</ele>
        <time>2020-01-23T09:56:25 0100</time>
      </trkpt>
      <trkpt lat="47.22741" lon="4.96432">
        <ele>296.17144775391</ele>
        <time>2020-01-23T09:56:29 0100</time>
      </trkpt>
      <trkpt lat="47.22739" lon="4.96429">
        <ele>296.2646484375</ele>
        <time>2020-01-23T09:56:33 0100</time>
      </trkpt>
      <trkpt lat="47.2274" lon="4.96429">
        <ele>296.31958007812</ele>
        <time>2020-01-23T09:56:37 0100</time>
      </trkpt>
      <trkpt lat="47.2274" lon="4.96428">
        <ele>296.32891845703</ele>
        <time>2020-01-23T09:56:41 0100</time>
      </trkpt>
      <trkpt lat="47.2274" lon="4.96427">
        <ele>296.3957824707</ele>
        <time>2020-01-23T09:56:45 0100</time>
      </trkpt>
      <trkpt lat="47.22739" lon="4.96426">
        <ele>296.49542236328</ele>
        <time>2020-01-23T09:56:49 0100</time>
      </trkpt>
      <trkpt lat="47.22737" lon="4.96422">
        <ele>296.5319519043</ele>
        <time>2020-01-23T09:56:53 0100</time>
      </trkpt>
      <trkpt lat="47.22736" lon="4.96422">
        <ele>296.5299987793</ele>
        <time>2020-01-23T09:56:57 0100</time>
      </trkpt>
      <trkpt lat="47.22736" lon="4.96422">
        <ele>296.52670288086</ele>
        <time>2020-01-23T09:57:01 0100</time>
      </trkpt>
      <trkpt lat="47.22737" lon="4.96424">
        <ele>296.53536987305</ele>
        <time>2020-01-23T09:57:05 0100</time>
      </trkpt>
      <trkpt lat="47.22736" lon="4.96424">
        <ele>296.52926635742</ele>
        <time>2020-01-23T09:57:09 0100</time>
      </trkpt>
      <trkpt lat="47.22736" lon="4.96424">
        <ele>296.51467895508</ele>
        <time>2020-01-23T09:57:13 0100</time>
      </trkpt>
      <trkpt lat="47.22737" lon="4.96425">
        <ele>296.47875976562</ele>
        <time>2020-01-23T09:57:17 0100</time>
      </trkpt>
      <trkpt lat="47.22738" lon="4.96426">
        <ele>296.42913818359</ele>
        <time>2020-01-23T09:57:21 0100</time>
      </trkpt>
      <trkpt lat="47.22737" lon="4.96424">
        <ele>296.23025512695</ele>
        <time>2020-01-23T09:57:25 0100</time>
      </trkpt>
      <trkpt lat="47.22733" lon="4.96425">
        <ele>296.25531005859</ele>
        <time>2020-01-23T09:57:29 0100</time>
      </trkpt>
      <trkpt lat="47.22732" lon="4.96425">
        <ele>296.27032470703</ele>
        <time>2020-01-23T09:57:33 0100</time>
      </trkpt>
      <trkpt lat="47.22732" lon="4.96425">
        <ele>296.28552246094</ele>
        <time>2020-01-23T09:57:37 0100</time>
      </trkpt>
      <trkpt lat="47.22729" lon="4.96425">
        <ele>296.30297851562</ele>
        <time>2020-01-23T09:57:41 0100</time>
      </trkpt>
      <trkpt lat="47.22728" lon="4.96426">
        <ele>296.29949951172</ele>
        <time>2020-01-23T09:57:45 0100</time>
      </trkpt>
      <trkpt lat="47.22728" lon="4.96427">
        <ele>296.27969360352</ele>
        <time>2020-01-23T09:57:49 0100</time>
      </trkpt>
      <trkpt lat="47.22728" lon="4.96427">
        <ele>296.25750732422</ele>
        <time>2020-01-23T09:57:53 0100</time>
      </trkpt>
      <trkpt lat="47.22728" lon="4.96428">
        <ele>296.22735595703</ele>
        <time>2020-01-23T09:57:57 0100</time>
      </trkpt>
      <trkpt lat="47.22728" lon="4.96429">
        <ele>296.19412231445</ele>
        <time>2020-01-23T09:58:01 0100</time>
      </trkpt>
      <trkpt lat="47.22727" lon="4.9643">
        <ele>296.16656494141</ele>
        <time>2020-01-23T09:58:05 0100</time>
      </trkpt>
      <trkpt lat="47.22726" lon="4.96432">
        <ele>296.10772705078</ele>
        <time>2020-01-23T09:58:09 0100</time>
      </trkpt>
      <trkpt lat="47.22726" lon="4.96432">
        <ele>296.11251831055</ele>
        <time>2020-01-23T09:58:13 0100</time>
      </trkpt>
      <trkpt lat="47.22723" lon="4.9643">
        <ele>296.16925048828</ele>
        <time>2020-01-23T09:58:17 0100</time>
      </trkpt>
      <trkpt lat="47.2272" lon="4.96432">
        <ele>296.59796142578</ele>
        <time>2020-01-23T09:58:21 0100</time>
      </trkpt>
      <trkpt lat="47.22719" lon="4.96434">
        <ele>296.99975585938</ele>
        <time>2020-01-23T09:58:25 0100</time>
      </trkpt>
      <trkpt lat="47.22717" lon="4.96435">
        <ele>297.58020019531</ele>
        <time>2020-01-23T09:58:29 0100</time>
      </trkpt>
      <trkpt lat="47.22716" lon="4.96439">
        <ele>298.26516723633</ele>
        <time>2020-01-23T09:58:33 0100</time>
      </trkpt>
      <trkpt lat="47.22716" lon="4.96447">
        <ele>298.79312133789</ele>
        <time>2020-01-23T09:58:37 0100</time>
      </trkpt>
      <trkpt lat="47.22716" lon="4.96449">
        <ele>298.89093017578</ele>
        <time>2020-01-23T09:58:41 0100</time>
      </trkpt>
      <trkpt lat="47.22716" lon="4.96449">
        <ele>298.87939453125</ele>
        <time>2020-01-23T09:58:45 0100</time>
      </trkpt>
      <trkpt lat="47.22716" lon="4.96449">
        <ele>298.8591003418</ele>
        <time>2020-01-23T09:58:49 0100</time>
      </trkpt>
      <trkpt lat="47.22715" lon="4.9645">
        <ele>298.82635498047</ele>
        <time>2020-01-23T09:58:53 0100</time>
      </trkpt>
      <trkpt lat="47.22714" lon="4.96451">
        <ele>298.78305053711</ele>
        <time>2020-01-23T09:58:57 0100</time>
      </trkpt>
      <trkpt lat="47.22711" lon="4.96452">
        <ele>298.74911499023</ele>
        <time>2020-01-23T09:59:01 0100</time>
      </trkpt>
      <trkpt lat="47.2271" lon="4.96453">
        <ele>298.73489379883</ele>
        <time>2020-01-23T09:59:05 0100</time>
      </trkpt>
      <trkpt lat="47.2271" lon="4.96453">
        <ele>298.69946289062</ele>
        <time>2020-01-23T09:59:09 0100</time>
      </trkpt>
      <trkpt lat="47.2271" lon="4.96453">
        <ele>298.62005615234</ele>
        <time>2020-01-23T09:59:13 0100</time>
      </trkpt>
      <trkpt lat="47.2271" lon="4.96454">
        <ele>298.50424194336</ele>
        <time>2020-01-23T09:59:17 0100</time>
      </trkpt>
      <trkpt lat="47.2271" lon="4.96454">
        <ele>298.38513183594</ele>
        <time>2020-01-23T09:59:21 0100</time>
      </trkpt>
      <trkpt lat="47.2271" lon="4.96455">
        <ele>298.29058837891</ele>
        <time>2020-01-23T09:59:25 0100</time>
      </trkpt>
      <trkpt lat="47.22709" lon="4.96455">
        <ele>298.22183227539</ele>
        <time>2020-01-23T09:59:29 0100</time>
      </trkpt>
      <trkpt lat="47.22708" lon="4.96455">
        <ele>298.17098999023</ele>
        <time>2020-01-23T09:59:33 0100</time>
      </trkpt>
      <trkpt lat="47.22707" lon="4.96456">
        <ele>298.13565063477</ele>
        <time>2020-01-23T09:59:37 0100</time>
      </trkpt>
      <trkpt lat="47.22706" lon="4.96457">
        <ele>298.10189819336</ele>
        <time>2020-01-23T09:59:41 0100</time>
      </trkpt>
      <trkpt lat="47.22705" lon="4.96457">
        <ele>298.06619262695</ele>
        <time>2020-01-23T09:59:45 0100</time>
      </trkpt>
      <trkpt lat="47.22705" lon="4.96458">
        <ele>298.03735351562</ele>
        <time>2020-01-23T09:59:49 0100</time>
      </trkpt>
      <trkpt lat="47.22706" lon="4.96458">
        <ele>298.02297973633</ele>
        <time>2020-01-23T09:59:53 0100</time>
      </trkpt>
      <trkpt lat="47.22705" lon="4.96459">
        <ele>298.02096557617</ele>
        <time>2020-01-23T09:59:57 0100</time>
      </trkpt>
      <trkpt lat="47.22705" lon="4.9646">
        <ele>298.02011108398</ele>
        <time>2020-01-23T10:00:01 0100</time>
      </trkpt>
      <trkpt lat="47.22706" lon="4.9646">
        <ele>298.00009155273</ele>
        <time>2020-01-23T10:00:05 0100</time>
      </trkpt>
      <trkpt lat="47.22707" lon="4.96459">
        <ele>297.97860717773</ele>
        <time>2020-01-23T10:00:09 0100</time>
      </trkpt>
      <trkpt lat="47.22707" lon="4.96459">
        <ele>297.96200561523</ele>
        <time>2020-01-23T10:00:13 0100</time>
      </trkpt>
      <trkpt lat="47.22708" lon="4.96459">
        <ele>297.95510864258</ele>
        <time>2020-01-23T10:00:17 0100</time>
      </trkpt>
      <trkpt lat="47.22708" lon="4.96459">
        <ele>297.97012329102</ele>
        <time>2020-01-23T10:00:21 0100</time>
      </trkpt>
      <trkpt lat="47.22708" lon="4.96459">
        <ele>297.99835205078</ele>
        <time>2020-01-23T10:00:25 0100</time>
      </trkpt>
      <trkpt lat="47.22709" lon="4.96459">
        <ele>298.02206420898</ele>
        <time>2020-01-23T10:00:29 0100</time>
      </trkpt>
      <trkpt lat="47.2271" lon="4.96459">
        <ele>298.02325439453</ele>
        <time>2020-01-23T10:00:33 0100</time>
      </trkpt>
      <trkpt lat="47.22712" lon="4.96458">
        <ele>298.00045776367</ele>
        <time>2020-01-23T10:00:37 0100</time>
      </trkpt>
      <trkpt lat="47.22713" lon="4.96458">
        <ele>297.97186279297</ele>
        <time>2020-01-23T10:00:41 0100</time>
      </trkpt>
      <trkpt lat="47.22715" lon="4.96456">
        <ele>297.82183837891</ele>
        <time>2020-01-23T10:00:45 0100</time>
      </trkpt>
      <trkpt lat="47.22716" lon="4.96455">
        <ele>297.66333007812</ele>
        <time>2020-01-23T10:00:49 0100</time>
      </trkpt>
      <trkpt lat="47.22716" lon="4.96459">
        <ele>297.62951660156</ele>
        <time>2020-01-23T10:00:53 0100</time>
      </trkpt>
      <trkpt lat="47.22714" lon="4.96462">
        <ele>297.54162597656</ele>
        <time>2020-01-23T10:00:57 0100</time>
      </trkpt>
      <trkpt lat="47.22713" lon="4.96465">
        <ele>297.41909790039</ele>
        <time>2020-01-23T10:01:01 0100</time>
      </trkpt>
      <trkpt lat="47.22713" lon="4.96468">
        <ele>297.42611694336</ele>
        <time>2020-01-23T10:01:04 0100</time>
      </trkpt>
      <trkpt lat="47.22712" lon="4.96472">
        <ele>297.49765014648</ele>
        <time>2020-01-23T10:01:08 0100</time>
      </trkpt>
      <trkpt lat="47.22711" lon="4.96475">
        <ele>297.59219360352</ele>
        <time>2020-01-23T10:01:12 0100</time>
      </trkpt>
      <trkpt lat="47.22708" lon="4.96478">
        <ele>297.6745300293</ele>
        <time>2020-01-23T10:01:16 0100</time>
      </trkpt>
      <trkpt lat="47.22705" lon="4.96481">
        <ele>297.68811035156</ele>
        <time>2020-01-23T10:01:20 0100</time>
      </trkpt>
      <trkpt lat="47.22702" lon="4.96483">
        <ele>297.69033813477</ele>
        <time>2020-01-23T10:01:24 0100</time>
      </trkpt>
      <trkpt lat="47.22701" lon="4.96487">
        <ele>297.73754882812</ele>
        <time>2020-01-23T10:01:28 0100</time>
      </trkpt>
      <trkpt lat="47.22699" lon="4.9649">
        <ele>297.8879699707</ele>
        <time>2020-01-23T10:01:32 0100</time>
      </trkpt>
      <trkpt lat="47.22699" lon="4.9649">
        <ele>297.91241455078</ele>
        <time>2020-01-23T10:01:36 0100</time>
      </trkpt>
      <trkpt lat="47.22699" lon="4.96491">
        <ele>297.98706054688</ele>
        <time>2020-01-23T10:01:40 0100</time>
      </trkpt>
      <trkpt lat="47.22698" lon="4.96492">
        <ele>298.25546264648</ele>
        <time>2020-01-23T10:01:44 0100</time>
      </trkpt>
      <trkpt lat="47.22697" lon="4.96494">
        <ele>298.49954223633</ele>
        <time>2020-01-23T10:01:48 0100</time>
      </trkpt>
      <trkpt lat="47.22695" lon="4.96495">
        <ele>298.86254882812</ele>
        <time>2020-01-23T10:01:52 0100</time>
      </trkpt>
      <trkpt lat="47.22694" lon="4.96496">
        <ele>298.99188232422</ele>
        <time>2020-01-23T10:01:56 0100</time>
      </trkpt>
      <trkpt lat="47.22691" lon="4.96496">
        <ele>298.79229736328</ele>
        <time>2020-01-23T10:02:00 0100</time>
      </trkpt>
      <trkpt lat="47.2269" lon="4.96495">
        <ele>298.61822509766</ele>
        <time>2020-01-23T10:02:04 0100</time>
      </trkpt>
      <trkpt lat="47.22689" lon="4.96495">
        <ele>298.40618896484</ele>
        <time>2020-01-23T10:02:08 0100</time>
      </trkpt>
      <trkpt lat="47.22686" lon="4.96496">
        <ele>297.84149169922</ele>
        <time>2020-01-23T10:02:12 0100</time>
      </trkpt>
      <trkpt lat="47.22684" lon="4.96497">
        <ele>297.46997070312</ele>
        <time>2020-01-23T10:02:16 0100</time>
      </trkpt>
      <trkpt lat="47.22682" lon="4.96498">
        <ele>297.02770996094</ele>
        <time>2020-01-23T10:02:20 0100</time>
      </trkpt>
      <trkpt lat="47.22681" lon="4.965">
        <ele>296.541015625</ele>
        <time>2020-01-23T10:02:24 0100</time>
      </trkpt>
      <trkpt lat="47.22678" lon="4.96502">
        <ele>296.10150146484</ele>
        <time>2020-01-23T10:02:28 0100</time>
      </trkpt>
      <trkpt lat="47.22676" lon="4.96503">
        <ele>295.72409057617</ele>
        <time>2020-01-23T10:02:32 0100</time>
      </trkpt>
      <trkpt lat="47.22674" lon="4.96502">
        <ele>295.69033813477</ele>
        <time>2020-01-23T10:02:36 0100</time>
      </trkpt>
      <trkpt lat="47.22671" lon="4.96501">
        <ele>295.44284057617</ele>
        <time>2020-01-23T10:02:40 0100</time>
      </trkpt>
      <trkpt lat="47.2267" lon="4.96502">
        <ele>295.05154418945</ele>
        <time>2020-01-23T10:02:44 0100</time>
      </trkpt>
      <trkpt lat="47.22669" lon="4.96505">
        <ele>294.63217163086</ele>
        <time>2020-01-23T10:02:48 0100</time>
      </trkpt>
      <trkpt lat="47.22668" lon="4.96507">
        <ele>294.06369018555</ele>
        <time>2020-01-23T10:02:52 0100</time>
      </trkpt>
      <trkpt lat="47.22666" lon="4.96511">
        <ele>293.57574462891</ele>
        <time>2020-01-23T10:02:56 0100</time>
      </trkpt>
      <trkpt lat="47.22665" lon="4.96514">
        <ele>293.21368408203</ele>
        <time>2020-01-23T10:03:00 0100</time>
      </trkpt>
      <trkpt lat="47.22664" lon="4.96516">
        <ele>292.73550415039</ele>
        <time>2020-01-23T10:03:04 0100</time>
      </trkpt>
      <trkpt lat="47.22664" lon="4.96516">
        <ele>292.58624267578</ele>
        <time>2020-01-23T10:03:08 0100</time>
      </trkpt>
      <trkpt lat="47.22663" lon="4.96516">
        <ele>292.55032348633</ele>
        <time>2020-01-23T10:03:12 0100</time>
      </trkpt>
      <trkpt lat="47.22663" lon="4.96516">
        <ele>292.51541137695</ele>
        <time>2020-01-23T10:03:16 0100</time>
      </trkpt>
      <trkpt lat="47.22663" lon="4.96516">
        <ele>292.48397827148</ele>
        <time>2020-01-23T10:03:20 0100</time>
      </trkpt>
      <trkpt lat="47.22663" lon="4.96515">
        <ele>292.46643066406</ele>
        <time>2020-01-23T10:03:24 0100</time>
      </trkpt>
      <trkpt lat="47.22663" lon="4.96515">
        <ele>292.47033691406</ele>
        <time>2020-01-23T10:03:28 0100</time>
      </trkpt>
      <trkpt lat="47.22663" lon="4.96515">
        <ele>292.48413085938</ele>
        <time>2020-01-23T10:03:32 0100</time>
      </trkpt>
      <trkpt lat="47.22663" lon="4.96515">
        <ele>292.51126098633</ele>
        <time>2020-01-23T10:03:36 0100</time>
      </trkpt>
      <trkpt lat="47.22663" lon="4.96515">
        <ele>292.55322265625</ele>
        <time>2020-01-23T10:03:40 0100</time>
      </trkpt>
      <trkpt lat="47.22663" lon="4.96515">
        <ele>292.59393310547</ele>
        <time>2020-01-23T10:03:44 0100</time>
      </trkpt>
      <trkpt lat="47.22663" lon="4.96515">
        <ele>292.62347412109</ele>
        <time>2020-01-23T10:03:48 0100</time>
      </trkpt>
      <trkpt lat="47.22663" lon="4.96515">
        <ele>292.64260864258</ele>
        <time>2020-01-23T10:03:52 0100</time>
      </trkpt>
      <trkpt lat="47.22663" lon="4.96515">
        <ele>292.64111328125</ele>
        <time>2020-01-23T10:03:56 0100</time>
      </trkpt>
      <trkpt lat="47.22663" lon="4.96515">
        <ele>292.63079833984</ele>
        <time>2020-01-23T10:04:00 0100</time>
      </trkpt>
      <trkpt lat="47.22663" lon="4.96515">
        <ele>292.61865234375</ele>
        <time>2020-01-23T10:04:04 0100</time>
      </trkpt>
      <trkpt lat="47.22663" lon="4.96515">
        <ele>292.62460327148</ele>
        <time>2020-01-23T10:04:08 0100</time>
      </trkpt>
      <trkpt lat="47.22663" lon="4.96515">
        <ele>292.61608886719</ele>
        <time>2020-01-23T10:04:12 0100</time>
      </trkpt>
      <trkpt lat="47.22662" lon="4.96516">
        <ele>292.52185058594</ele>
        <time>2020-01-23T10:04:16 0100</time>
      </trkpt>
      <trkpt lat="47.22661" lon="4.96519">
        <ele>292.43978881836</ele>
        <time>2020-01-23T10:04:20 0100</time>
      </trkpt>
      <trkpt lat="47.22661" lon="4.96519">
        <ele>292.40408325195</ele>
        <time>2020-01-23T10:04:24 0100</time>
      </trkpt>
      <trkpt lat="47.22661" lon="4.96519">
        <ele>292.357421875</ele>
        <time>2020-01-23T10:04:28 0100</time>
      </trkpt>
      <trkpt lat="47.22661" lon="4.96519">
        <ele>292.30682373047</ele>
        <time>2020-01-23T10:04:32 0100</time>
      </trkpt>
      <trkpt lat="47.22661" lon="4.9652">
        <ele>292.2594909668</ele>
        <time>2020-01-23T10:04:36 0100</time>
      </trkpt>
      <trkpt lat="47.22661" lon="4.96518">
        <ele>292.142578125</ele>
        <time>2020-01-23T10:04:40 0100</time>
      </trkpt>
      <trkpt lat="47.22659" lon="4.96514">
        <ele>291.96786499023</ele>
        <time>2020-01-23T10:04:44 0100</time>
      </trkpt>
      <trkpt lat="47.22656" lon="4.96508">
        <ele>291.90060424805</ele>
        <time>2020-01-23T10:04:48 0100</time>
      </trkpt>
      <trkpt lat="47.22654" lon="4.96504">
        <ele>291.87091064453</ele>
        <time>2020-01-23T10:04:52 0100</time>
      </trkpt>
      <trkpt lat="47.22652" lon="4.96501">
        <ele>291.86883544922</ele>
        <time>2020-01-23T10:04:56 0100</time>
      </trkpt>
      <trkpt lat="47.2265" lon="4.965">
        <ele>291.99310302734</ele>
        <time>2020-01-23T10:05:00 0100</time>
      </trkpt>
      <trkpt lat="47.22649" lon="4.96499">
        <ele>292.19049072266</ele>
        <time>2020-01-23T10:05:04 0100</time>
      </trkpt>
      <trkpt lat="47.22647" lon="4.96499">
        <ele>292.46502685547</ele>
        <time>2020-01-23T10:05:08 0100</time>
      </trkpt>
      <trkpt lat="47.22646" lon="4.96498">
        <ele>292.62322998047</ele>
        <time>2020-01-23T10:05:12 0100</time>
      </trkpt>
      <trkpt lat="47.22646" lon="4.96498">
        <ele>292.66253662109</ele>
        <time>2020-01-23T10:05:16 0100</time>
      </trkpt>
      <trkpt lat="47.22646" lon="4.96497">
        <ele>292.71871948242</ele>
        <time>2020-01-23T10:05:20 0100</time>
      </trkpt>
      <trkpt lat="47.22646" lon="4.96496">
        <ele>292.85263061523</ele>
        <time>2020-01-23T10:05:24 0100</time>
      </trkpt>
      <trkpt lat="47.22646" lon="4.96496">
        <ele>292.88580322266</ele>
        <time>2020-01-23T10:05:28 0100</time>
      </trkpt>
      <trkpt lat="47.22646" lon="4.96496">
        <ele>292.91952514648</ele>
        <time>2020-01-23T10:05:32 0100</time>
      </trkpt>
      <trkpt lat="47.22646" lon="4.96496">
        <ele>292.93975830078</ele>
        <time>2020-01-23T10:05:36 0100</time>
      </trkpt>
      <trkpt lat="47.22646" lon="4.96495">
        <ele>292.96783447266</ele>
        <time>2020-01-23T10:05:40 0100</time>
      </trkpt>
      <trkpt lat="47.22645" lon="4.96498">
        <ele>292.96820068359</ele>
        <time>2020-01-23T10:05:44 0100</time>
      </trkpt>
      <trkpt lat="47.22644" lon="4.96497">
        <ele>292.86318969727</ele>
        <time>2020-01-23T10:05:48 0100</time>
      </trkpt>
      <trkpt lat="47.22641" lon="4.96494">
        <ele>292.67529296875</ele>
        <time>2020-01-23T10:05:52 0100</time>
      </trkpt>
      <trkpt lat="47.22638" lon="4.96491">
        <ele>292.48245239258</ele>
        <time>2020-01-23T10:05:56 0100</time>
      </trkpt>
      <trkpt lat="47.22635" lon="4.96488">
        <ele>292.33117675781</ele>
        <time>2020-01-23T10:06:00 0100</time>
      </trkpt>
      <trkpt lat="47.22632" lon="4.96486">
        <ele>292.10311889648</ele>
        <time>2020-01-23T10:06:04 0100</time>
      </trkpt>
      <trkpt lat="47.2263" lon="4.96483">
        <ele>291.80514526367</ele>
        <time>2020-01-23T10:06:08 0100</time>
      </trkpt>
      <trkpt lat="47.22631" lon="4.96484">
        <ele>291.75686645508</ele>
        <time>2020-01-23T10:06:12 0100</time>
      </trkpt>
      <trkpt lat="47.2263" lon="4.96482">
        <ele>291.42730712891</ele>
        <time>2020-01-23T10:06:16 0100</time>
      </trkpt>
      <trkpt lat="47.2263" lon="4.96482">
        <ele>291.24291992188</ele>
        <time>2020-01-23T10:06:20 0100</time>
      </trkpt>
      <trkpt lat="47.2263" lon="4.9648">
        <ele>290.90771484375</ele>
        <time>2020-01-23T10:06:24 0100</time>
      </trkpt>
      <trkpt lat="47.22629" lon="4.96476">
        <ele>290.59622192383</ele>
        <time>2020-01-23T10:06:28 0100</time>
      </trkpt>
      <trkpt lat="47.22629" lon="4.96472">
        <ele>290.39633178711</ele>
        <time>2020-01-23T10:06:32 0100</time>
      </trkpt>
      <trkpt lat="47.22625" lon="4.96469">
        <ele>290.30493164062</ele>
        <time>2020-01-23T10:06:36 0100</time>
      </trkpt>
      <trkpt lat="47.22624" lon="4.96467">
        <ele>290.29995727539</ele>
        <time>2020-01-23T10:06:40 0100</time>
      </trkpt>
      <trkpt lat="47.22623" lon="4.96462">
        <ele>290.20361328125</ele>
        <time>2020-01-23T10:06:44 0100</time>
      </trkpt>
      <trkpt lat="47.22623" lon="4.96458">
        <ele>290.06744384766</ele>
        <time>2020-01-23T10:06:48 0100</time>
      </trkpt>
      <trkpt lat="47.22623" lon="4.96456">
        <ele>289.8837890625</ele>
        <time>2020-01-23T10:06:52 0100</time>
      </trkpt>
      <trkpt lat="47.22623" lon="4.96454">
        <ele>289.72360229492</ele>
        <time>2020-01-23T10:06:56 0100</time>
      </trkpt>
      <trkpt lat="47.22622" lon="4.96452">
        <ele>289.68466186523</ele>
        <time>2020-01-23T10:07:00 0100</time>
      </trkpt>
      <trkpt lat="47.22622" lon="4.96452">
        <ele>289.66882324219</ele>
        <time>2020-01-23T10:07:04 0100</time>
      </trkpt>
      <trkpt lat="47.22622" lon="4.96452">
        <ele>289.64208984375</ele>
        <time>2020-01-23T10:07:08 0100</time>
      </trkpt>
      <trkpt lat="47.22622" lon="4.96452">
        <ele>289.603515625</ele>
        <time>2020-01-23T10:07:12 0100</time>
      </trkpt>
      <trkpt lat="47.22622" lon="4.96451">
        <ele>289.55471801758</ele>
        <time>2020-01-23T10:07:16 0100</time>
      </trkpt>
      <trkpt lat="47.22622" lon="4.96451">
        <ele>289.49499511719</ele>
        <time>2020-01-23T10:07:20 0100</time>
      </trkpt>
      <trkpt lat="47.22622" lon="4.96451">
        <ele>289.44522094727</ele>
        <time>2020-01-23T10:07:24 0100</time>
      </trkpt>
      <trkpt lat="47.22622" lon="4.9645">
        <ele>289.33377075195</ele>
        <time>2020-01-23T10:07:28 0100</time>
      </trkpt>
      <trkpt lat="47.22622" lon="4.96449">
        <ele>289.17636108398</ele>
        <time>2020-01-23T10:07:32 0100</time>
      </trkpt>
      <trkpt lat="47.22621" lon="4.96443">
        <ele>288.97174072266</ele>
        <time>2020-01-23T10:07:36 0100</time>
      </trkpt>
      <trkpt lat="47.22621" lon="4.96441">
        <ele>288.85903930664</ele>
        <time>2020-01-23T10:07:40 0100</time>
      </trkpt>
      <trkpt lat="47.22621" lon="4.96441">
        <ele>288.84851074219</ele>
        <time>2020-01-23T10:07:44 0100</time>
      </trkpt>
      <trkpt lat="47.22621" lon="4.96437">
        <ele>288.88513183594</ele>
        <time>2020-01-23T10:07:48 0100</time>
      </trkpt>
      <trkpt lat="47.22621" lon="4.96434">
        <ele>288.98455810547</ele>
        <time>2020-01-23T10:07:52 0100</time>
      </trkpt>
      <trkpt lat="47.22621" lon="4.9643">
        <ele>289.0383605957</ele>
        <time>2020-01-23T10:07:56 0100</time>
      </trkpt>
      <trkpt lat="47.2262" lon="4.96426">
        <ele>289.21057128906</ele>
        <time>2020-01-23T10:08:00 0100</time>
      </trkpt>
      <trkpt lat="47.2262" lon="4.96423">
        <ele>289.42822265625</ele>
        <time>2020-01-23T10:08:04 0100</time>
      </trkpt>
      <trkpt lat="47.2262" lon="4.9642">
        <ele>289.63003540039</ele>
        <time>2020-01-23T10:08:08 0100</time>
      </trkpt>
      <trkpt lat="47.2262" lon="4.96418">
        <ele>289.77780151367</ele>
        <time>2020-01-23T10:08:12 0100</time>
      </trkpt>
      <trkpt lat="47.2262" lon="4.96411">
        <ele>289.8469543457</ele>
        <time>2020-01-23T10:08:16 0100</time>
      </trkpt>
      <trkpt lat="47.2262" lon="4.96408">
        <ele>289.81500244141</ele>
        <time>2020-01-23T10:08:20 0100</time>
      </trkpt>
      <trkpt lat="47.22619" lon="4.96401">
        <ele>289.70529174805</ele>
        <time>2020-01-23T10:08:24 0100</time>
      </trkpt>
      <trkpt lat="47.22618" lon="4.96397">
        <ele>289.66598510742</ele>
        <time>2020-01-23T10:08:28 0100</time>
      </trkpt>
      <trkpt lat="47.22618" lon="4.96391">
        <ele>289.7223815918</ele>
        <time>2020-01-23T10:08:32 0100</time>
      </trkpt>
      <trkpt lat="47.22618" lon="4.96386">
        <ele>289.79254150391</ele>
        <time>2020-01-23T10:08:36 0100</time>
      </trkpt>
      <trkpt lat="47.2262" lon="4.96379">
        <ele>289.85186767578</ele>
        <time>2020-01-23T10:08:40 0100</time>
      </trkpt>
      <trkpt lat="47.2262" lon="4.96374">
        <ele>289.9729309082</ele>
        <time>2020-01-23T10:08:44 0100</time>
      </trkpt>
      <trkpt lat="47.22621" lon="4.96368">
        <ele>290.26141357422</ele>
        <time>2020-01-23T10:08:48 0100</time>
      </trkpt>
      <trkpt lat="47.22622" lon="4.96361">
        <ele>290.52163696289</ele>
        <time>2020-01-23T10:08:52 0100</time>
      </trkpt>
      <trkpt lat="47.22622" lon="4.96357">
        <ele>290.75817871094</ele>
        <time>2020-01-23T10:08:56 0100</time>
      </trkpt>
      <trkpt lat="47.22623" lon="4.96349">
        <ele>290.96600341797</ele>
        <time>2020-01-23T10:09:00 0100</time>
      </trkpt>
      <trkpt lat="47.22623" lon="4.96343">
        <ele>290.98812866211</ele>
        <time>2020-01-23T10:09:04 0100</time>
      </trkpt>
      <trkpt lat="47.22623" lon="4.96339">
        <ele>290.91458129883</ele>
        <time>2020-01-23T10:09:08 0100</time>
      </trkpt>
      <trkpt lat="47.22623" lon="4.96333">
        <ele>290.83551025391</ele>
        <time>2020-01-23T10:09:12 0100</time>
      </trkpt>
      <trkpt lat="47.22621" lon="4.96331">
        <ele>290.76498413086</ele>
        <time>2020-01-23T10:09:16 0100</time>
      </trkpt>
      <trkpt lat="47.2262" lon="4.9633">
        <ele>290.85656738281</ele>
        <time>2020-01-23T10:09:20 0100</time>
      </trkpt>
      <trkpt lat="47.22616" lon="4.96327">
        <ele>290.92715454102</ele>
        <time>2020-01-23T10:09:24 0100</time>
      </trkpt>
      <trkpt lat="47.22615" lon="4.96327">
        <ele>290.90573120117</ele>
        <time>2020-01-23T10:09:28 0100</time>
      </trkpt>
      <trkpt lat="47.22615" lon="4.96327">
        <ele>290.87307739258</ele>
        <time>2020-01-23T10:09:32 0100</time>
      </trkpt>
      <trkpt lat="47.22615" lon="4.96327">
        <ele>290.83258056641</ele>
        <time>2020-01-23T10:09:36 0100</time>
      </trkpt>
      <trkpt lat="47.22616" lon="4.96327">
        <ele>290.79205322266</ele>
        <time>2020-01-23T10:09:40 0100</time>
      </trkpt>
      <trkpt lat="47.22616" lon="4.96326">
        <ele>290.54006958008</ele>
        <time>2020-01-23T10:09:44 0100</time>
      </trkpt>
      <trkpt lat="47.22614" lon="4.96325">
        <ele>290.38412475586</ele>
        <time>2020-01-23T10:09:48 0100</time>
      </trkpt>
      <trkpt lat="47.22613" lon="4.96325">
        <ele>290.45025634766</ele>
        <time>2020-01-23T10:09:52 0100</time>
      </trkpt>
      <trkpt lat="47.22612" lon="4.96324">
        <ele>290.50344848633</ele>
        <time>2020-01-23T10:09:56 0100</time>
      </trkpt>
      <trkpt lat="47.22612" lon="4.96324">
        <ele>290.50350952148</ele>
        <time>2020-01-23T10:10:00 0100</time>
      </trkpt>
      <trkpt lat="47.22612" lon="4.96322">
        <ele>290.45062255859</ele>
        <time>2020-01-23T10:10:04 0100</time>
      </trkpt>
      <trkpt lat="47.22611" lon="4.96318">
        <ele>290.4411315918</ele>
        <time>2020-01-23T10:10:08 0100</time>
      </trkpt>
      <trkpt lat="47.22612" lon="4.96315">
        <ele>290.45053100586</ele>
        <time>2020-01-23T10:10:12 0100</time>
      </trkpt>
      <trkpt lat="47.22612" lon="4.96314">
        <ele>290.46865844727</ele>
        <time>2020-01-23T10:10:16 0100</time>
      </trkpt>
      <trkpt lat="47.22612" lon="4.96314">
        <ele>290.47900390625</ele>
        <time>2020-01-23T10:10:20 0100</time>
      </trkpt>
      <trkpt lat="47.22612" lon="4.96314">
        <ele>290.49499511719</ele>
        <time>2020-01-23T10:10:24 0100</time>
      </trkpt>
      <trkpt lat="47.22611" lon="4.96314">
        <ele>290.76135253906</ele>
        <time>2020-01-23T10:10:28 0100</time>
      </trkpt>
      <trkpt lat="47.2261" lon="4.96311">
        <ele>290.79995727539</ele>
        <time>2020-01-23T10:10:32 0100</time>
      </trkpt>
      <trkpt lat="47.2261" lon="4.96311">
        <ele>290.83746337891</ele>
        <time>2020-01-23T10:10:36 0100</time>
      </trkpt>
      <trkpt lat="47.2261" lon="4.9631">
        <ele>290.89154052734</ele>
        <time>2020-01-23T10:10:40 0100</time>
      </trkpt>
      <trkpt lat="47.22609" lon="4.96308">
        <ele>290.92520141602</ele>
        <time>2020-01-23T10:10:44 0100</time>
      </trkpt>
      <trkpt lat="47.22609" lon="4.96308">
        <ele>291.01443481445</ele>
        <time>2020-01-23T10:10:48 0100</time>
      </trkpt>
      <trkpt lat="47.22609" lon="4.96308">
        <ele>291.05236816406</ele>
        <time>2020-01-23T10:10:52 0100</time>
      </trkpt>
      <trkpt lat="47.22609" lon="4.96308">
        <ele>291.09048461914</ele>
        <time>2020-01-23T10:10:56 0100</time>
      </trkpt>
      <trkpt lat="47.22607" lon="4.9631">
        <ele>291.35345458984</ele>
        <time>2020-01-23T10:11:00 0100</time>
      </trkpt>
      <trkpt lat="47.22603" lon="4.96311">
        <ele>291.69888305664</ele>
        <time>2020-01-23T10:11:04 0100</time>
      </trkpt>
      <trkpt lat="47.22599" lon="4.96309">
        <ele>292.01440429688</ele>
        <time>2020-01-23T10:11:08 0100</time>
      </trkpt>
      <trkpt lat="47.22596" lon="4.96309">
        <ele>292.30249023438</ele>
        <time>2020-01-23T10:11:12 0100</time>
      </trkpt>
      <trkpt lat="47.22595" lon="4.96309">
        <ele>292.58163452148</ele>
        <time>2020-01-23T10:11:16 0100</time>
      </trkpt>
      <trkpt lat="47.22593" lon="4.96308">
        <ele>292.91342163086</ele>
        <time>2020-01-23T10:11:20 0100</time>
      </trkpt>
      <trkpt lat="47.22591" lon="4.96308">
        <ele>293.00790405273</ele>
        <time>2020-01-23T10:11:24 0100</time>
      </trkpt>
      <trkpt lat="47.22591" lon="4.96308">
        <ele>293.0068359375</ele>
        <time>2020-01-23T10:11:28 0100</time>
      </trkpt>
      <trkpt lat="47.2259" lon="4.96309">
        <ele>293.05249023438</ele>
        <time>2020-01-23T10:11:32 0100</time>
      </trkpt>
      <trkpt lat="47.22588" lon="4.96309">
        <ele>293.18832397461</ele>
        <time>2020-01-23T10:11:36 0100</time>
      </trkpt>
      <trkpt lat="47.22586" lon="4.96309">
        <ele>293.27828979492</ele>
        <time>2020-01-23T10:11:40 0100</time>
      </trkpt>
      <trkpt lat="47.22585" lon="4.96306">
        <ele>293.43887329102</ele>
        <time>2020-01-23T10:11:44 0100</time>
      </trkpt>
      <trkpt lat="47.22582" lon="4.96307">
        <ele>293.51715087891</ele>
        <time>2020-01-23T10:11:48 0100</time>
      </trkpt>
      <trkpt lat="47.22582" lon="4.96307">
        <ele>293.52624511719</ele>
        <time>2020-01-23T10:11:52 0100</time>
      </trkpt>
      <trkpt lat="47.2258" lon="4.96307">
        <ele>293.62969970703</ele>
        <time>2020-01-23T10:11:56 0100</time>
      </trkpt>
      <trkpt lat="47.22579" lon="4.96305">
        <ele>293.82849121094</ele>
        <time>2020-01-23T10:12:00 0100</time>
      </trkpt>
      <trkpt lat="47.22574" lon="4.96305">
        <ele>293.98513793945</ele>
        <time>2020-01-23T10:12:04 0100</time>
      </trkpt>
      <trkpt lat="47.22571" lon="4.96304">
        <ele>294.041015625</ele>
        <time>2020-01-23T10:12:08 0100</time>
      </trkpt>
      <trkpt lat="47.22567" lon="4.96303">
        <ele>293.97662353516</ele>
        <time>2020-01-23T10:12:12 0100</time>
      </trkpt>
      <trkpt lat="47.22564" lon="4.96302">
        <ele>293.92242431641</ele>
        <time>2020-01-23T10:12:16 0100</time>
      </trkpt>
      <trkpt lat="47.22561" lon="4.96302">
        <ele>293.86285400391</ele>
        <time>2020-01-23T10:12:20 0100</time>
      </trkpt>
      <trkpt lat="47.22557" lon="4.96301">
        <ele>293.84259033203</ele>
        <time>2020-01-23T10:12:24 0100</time>
      </trkpt>
      <trkpt lat="47.22554" lon="4.963">
        <ele>293.87924194336</ele>
        <time>2020-01-23T10:12:28 0100</time>
      </trkpt>
      <trkpt lat="47.2255" lon="4.96298">
        <ele>293.9094543457</ele>
        <time>2020-01-23T10:12:32 0100</time>
      </trkpt>
      <trkpt lat="47.22548" lon="4.96298">
        <ele>293.8889465332</ele>
        <time>2020-01-23T10:12:36 0100</time>
      </trkpt>
      <trkpt lat="47.22549" lon="4.96298">
        <ele>293.88589477539</ele>
        <time>2020-01-23T10:12:40 0100</time>
      </trkpt>
      <trkpt lat="47.22549" lon="4.96298">
        <ele>293.88250732422</ele>
        <time>2020-01-23T10:12:44 0100</time>
      </trkpt>
      <trkpt lat="47.22549" lon="4.96298">
        <ele>293.71395874023</ele>
        <time>2020-01-23T10:12:48 0100</time>
      </trkpt>
      <trkpt lat="47.22545" lon="4.96295">
        <ele>293.47772216797</ele>
        <time>2020-01-23T10:12:52 0100</time>
      </trkpt>
      <trkpt lat="47.22542" lon="4.96295">
        <ele>293.1799621582</ele>
        <time>2020-01-23T10:12:56 0100</time>
      </trkpt>
      <trkpt lat="47.22539" lon="4.96293">
        <ele>292.82287597656</ele>
        <time>2020-01-23T10:13:00 0100</time>
      </trkpt>
      <trkpt lat="47.22536" lon="4.96294">
        <ele>292.46569824219</ele>
        <time>2020-01-23T10:13:04 0100</time>
      </trkpt>
      <trkpt lat="47.22535" lon="4.96293">
        <ele>292.24081420898</ele>
        <time>2020-01-23T10:13:08 0100</time>
      </trkpt>
      <trkpt lat="47.22535" lon="4.96293">
        <ele>292.22058105469</ele>
        <time>2020-01-23T10:13:12 0100</time>
      </trkpt>
      <trkpt lat="47.22535" lon="4.96293">
        <ele>292.19058227539</ele>
        <time>2020-01-23T10:13:16 0100</time>
      </trkpt>
      <trkpt lat="47.22535" lon="4.96293">
        <ele>292.12954711914</ele>
        <time>2020-01-23T10:13:20 0100</time>
      </trkpt>
      <trkpt lat="47.22535" lon="4.96292">
        <ele>292.05517578125</ele>
        <time>2020-01-23T10:13:24 0100</time>
      </trkpt>
      <trkpt lat="47.22533" lon="4.96293">
        <ele>291.77182006836</ele>
        <time>2020-01-23T10:13:28 0100</time>
      </trkpt>
      <trkpt lat="47.22534" lon="4.96293">
        <ele>291.74264526367</ele>
        <time>2020-01-23T10:13:32 0100</time>
      </trkpt>
      <trkpt lat="47.22533" lon="4.96292">
        <ele>291.47525024414</ele>
        <time>2020-01-23T10:13:36 0100</time>
      </trkpt>
      <trkpt lat="47.22533" lon="4.96292">
        <ele>291.18997192383</ele>
        <time>2020-01-23T10:13:40 0100</time>
      </trkpt>
      <trkpt lat="47.22533" lon="4.96292">
        <ele>291.16784667969</ele>
        <time>2020-01-23T10:13:44 0100</time>
      </trkpt>
      <trkpt lat="47.22533" lon="4.96292">
        <ele>291.14080810547</ele>
        <time>2020-01-23T10:13:48 0100</time>
      </trkpt>
      <trkpt lat="47.22534" lon="4.96293">
        <ele>290.95751953125</ele>
        <time>2020-01-23T10:13:52 0100</time>
      </trkpt>
      <trkpt lat="47.2253" lon="4.96292">
        <ele>290.74642944336</ele>
        <time>2020-01-23T10:13:56 0100</time>
      </trkpt>
      <trkpt lat="47.22527" lon="4.96292">
        <ele>290.57260131836</ele>
        <time>2020-01-23T10:14:00 0100</time>
      </trkpt>
      <trkpt lat="47.22523" lon="4.9629">
        <ele>290.41720581055</ele>
        <time>2020-01-23T10:14:04 0100</time>
      </trkpt>
      <trkpt lat="47.22519" lon="4.9629">
        <ele>290.21948242188</ele>
        <time>2020-01-23T10:14:08 0100</time>
      </trkpt>
      <trkpt lat="47.22516" lon="4.96288">
        <ele>290.06781005859</ele>
        <time>2020-01-23T10:14:12 0100</time>
      </trkpt>
      <trkpt lat="47.22514" lon="4.96287">
        <ele>289.95327758789</ele>
        <time>2020-01-23T10:14:16 0100</time>
      </trkpt>
      <trkpt lat="47.22511" lon="4.96286">
        <ele>289.85751342773</ele>
        <time>2020-01-23T10:14:20 0100</time>
      </trkpt>
      <trkpt lat="47.22508" lon="4.96285">
        <ele>289.72171020508</ele>
        <time>2020-01-23T10:14:24 0100</time>
      </trkpt>
      <trkpt lat="47.22506" lon="4.96283">
        <ele>289.61801147461</ele>
        <time>2020-01-23T10:14:29 0100</time>
      </trkpt>
      <trkpt lat="47.22503" lon="4.9628">
        <ele>289.62442016602</ele>
        <time>2020-01-23T10:14:33 0100</time>
      </trkpt>
      <trkpt lat="47.22498" lon="4.96278">
        <ele>289.70034790039</ele>
        <time>2020-01-23T10:14:37 0100</time>
      </trkpt>
      <trkpt lat="47.22492" lon="4.96278">
        <ele>289.81607055664</ele>
        <time>2020-01-23T10:14:41 0100</time>
      </trkpt>
      <trkpt lat="47.22489" lon="4.96276">
        <ele>289.93447875977</ele>
        <time>2020-01-23T10:14:45 0100</time>
      </trkpt>
      <trkpt lat="47.22486" lon="4.96275">
        <ele>290.01470947266</ele>
        <time>2020-01-23T10:14:49 0100</time>
      </trkpt>
      <trkpt lat="47.22482" lon="4.96274">
        <ele>290.11499023438</ele>
        <time>2020-01-23T10:14:53 0100</time>
      </trkpt>
      <trkpt lat="47.22479" lon="4.96272">
        <ele>290.24612426758</ele>
        <time>2020-01-23T10:14:57 0100</time>
      </trkpt>
      <trkpt lat="47.22474" lon="4.9627">
        <ele>290.337890625</ele>
        <time>2020-01-23T10:15:01 0100</time>
      </trkpt>
      <trkpt lat="47.22472" lon="4.96269">
        <ele>290.49896240234</ele>
        <time>2020-01-23T10:15:05 0100</time>
      </trkpt>
      <trkpt lat="47.22468" lon="4.96266">
        <ele>290.64199829102</ele>
        <time>2020-01-23T10:15:09 0100</time>
      </trkpt>
      <trkpt lat="47.22465" lon="4.96265">
        <ele>290.7024230957</ele>
        <time>2020-01-23T10:15:13 0100</time>
      </trkpt>
      <trkpt lat="47.22462" lon="4.96265">
        <ele>290.71203613281</ele>
        <time>2020-01-23T10:15:17 0100</time>
      </trkpt>
      <trkpt lat="47.2246" lon="4.96264">
        <ele>290.71896362305</ele>
        <time>2020-01-23T10:15:21 0100</time>
      </trkpt>
      <trkpt lat="47.22456" lon="4.96263">
        <ele>290.77688598633</ele>
        <time>2020-01-23T10:15:25 0100</time>
      </trkpt>
      <trkpt lat="47.22453" lon="4.96262">
        <ele>290.8606262207</ele>
        <time>2020-01-23T10:15:29 0100</time>
      </trkpt>
      <trkpt lat="47.22449" lon="4.96261">
        <ele>290.9573059082</ele>
        <time>2020-01-23T10:15:33 0100</time>
      </trkpt>
      <trkpt lat="47.22446" lon="4.96259">
        <ele>291.08337402344</ele>
        <time>2020-01-23T10:15:37 0100</time>
      </trkpt>
      <trkpt lat="47.22443" lon="4.96259">
        <ele>291.1813659668</ele>
        <time>2020-01-23T10:15:41 0100</time>
      </trkpt>
      <trkpt lat="47.2244" lon="4.96259">
        <ele>291.29162597656</ele>
        <time>2020-01-23T10:15:45 0100</time>
      </trkpt>
      <trkpt lat="47.22434" lon="4.96258">
        <ele>291.37789916992</ele>
        <time>2020-01-23T10:15:49 0100</time>
      </trkpt>
      <trkpt lat="47.22429" lon="4.96257">
        <ele>291.46173095703</ele>
        <time>2020-01-23T10:15:53 0100</time>
      </trkpt>
      <trkpt lat="47.22425" lon="4.96256">
        <ele>291.57354736328</ele>
        <time>2020-01-23T10:15:57 0100</time>
      </trkpt>
      <trkpt lat="47.22421" lon="4.96255">
        <ele>291.69250488281</ele>
        <time>2020-01-23T10:16:01 0100</time>
      </trkpt>
      <trkpt lat="47.22419" lon="4.96255">
        <ele>291.8483581543</ele>
        <time>2020-01-23T10:16:05 0100</time>
      </trkpt>
      <trkpt lat="47.22414" lon="4.96255">
        <ele>291.97946166992</ele>
        <time>2020-01-23T10:16:09 0100</time>
      </trkpt>
      <trkpt lat="47.2241" lon="4.96255">
        <ele>292.11148071289</ele>
        <time>2020-01-23T10:16:13 0100</time>
      </trkpt>
      <trkpt lat="47.22405" lon="4.96256">
        <ele>292.24688720703</ele>
        <time>2020-01-23T10:16:17 0100</time>
      </trkpt>
      <trkpt lat="47.224" lon="4.96257">
        <ele>292.39712524414</ele>
        <time>2020-01-23T10:16:21 0100</time>
      </trkpt>
      <trkpt lat="47.22397" lon="4.96257">
        <ele>292.48690795898</ele>
        <time>2020-01-23T10:16:25 0100</time>
      </trkpt>
      <trkpt lat="47.22393" lon="4.96258">
        <ele>292.50524902344</ele>
        <time>2020-01-23T10:16:29 0100</time>
      </trkpt>
      <trkpt lat="47.22389" lon="4.96259">
        <ele>292.46047973633</ele>
        <time>2020-01-23T10:16:33 0100</time>
      </trkpt>
      <trkpt lat="47.22384" lon="4.9626">
        <ele>292.3503112793</ele>
        <time>2020-01-23T10:16:37 0100</time>
      </trkpt>
      <trkpt lat="47.2238" lon="4.96261">
        <ele>292.24508666992</ele>
        <time>2020-01-23T10:16:41 0100</time>
      </trkpt>
      <trkpt lat="47.22376" lon="4.96261">
        <ele>292.17547607422</ele>
        <time>2020-01-23T10:16:45 0100</time>
      </trkpt>
      <trkpt lat="47.22372" lon="4.96261">
        <ele>292.13345336914</ele>
        <time>2020-01-23T10:16:49 0100</time>
      </trkpt>
      <trkpt lat="47.2237" lon="4.96261">
        <ele>292.13201904297</ele>
        <time>2020-01-23T10:16:53 0100</time>
      </trkpt>
      <trkpt lat="47.22365" lon="4.9626">
        <ele>292.07092285156</ele>
        <time>2020-01-23T10:16:57 0100</time>
      </trkpt>
      <trkpt lat="47.22361" lon="4.96261">
        <ele>292.01965332031</ele>
        <time>2020-01-23T10:17:01 0100</time>
      </trkpt>
      <trkpt lat="47.22358" lon="4.96262">
        <ele>292.0251159668</ele>
        <time>2020-01-23T10:17:05 0100</time>
      </trkpt>
      <trkpt lat="47.22355" lon="4.96262">
        <ele>292.05633544922</ele>
        <time>2020-01-23T10:17:09 0100</time>
      </trkpt>
      <trkpt lat="47.22354" lon="4.96263">
        <ele>292.19046020508</ele>
        <time>2020-01-23T10:17:13 0100</time>
      </trkpt>
      <trkpt lat="47.22352" lon="4.96266">
        <ele>292.40310668945</ele>
        <time>2020-01-23T10:17:17 0100</time>
      </trkpt>
      <trkpt lat="47.22348" lon="4.9627">
        <ele>292.60464477539</ele>
        <time>2020-01-23T10:17:21 0100</time>
      </trkpt>
      <trkpt lat="47.22345" lon="4.96275">
        <ele>292.82196044922</ele>
        <time>2020-01-23T10:17:25 0100</time>
      </trkpt>
      <trkpt lat="47.22342" lon="4.96277">
        <ele>293.10488891602</ele>
        <time>2020-01-23T10:17:29 0100</time>
      </trkpt>
      <trkpt lat="47.2234" lon="4.9628">
        <ele>293.47402954102</ele>
        <time>2020-01-23T10:17:33 0100</time>
      </trkpt>
      <trkpt lat="47.22338" lon="4.96285">
        <ele>293.88290405273</ele>
        <time>2020-01-23T10:17:37 0100</time>
      </trkpt>
      <trkpt lat="47.22334" lon="4.96289">
        <ele>294.25329589844</ele>
        <time>2020-01-23T10:17:41 0100</time>
      </trkpt>
      <trkpt lat="47.22332" lon="4.96295">
        <ele>294.59716796875</ele>
        <time>2020-01-23T10:17:45 0100</time>
      </trkpt>
      <trkpt lat="47.2233" lon="4.963">
        <ele>294.82830810547</ele>
        <time>2020-01-23T10:17:49 0100</time>
      </trkpt>
      <trkpt lat="47.22327" lon="4.96304">
        <ele>295.00323486328</ele>
        <time>2020-01-23T10:17:53 0100</time>
      </trkpt>
      <trkpt lat="47.22325" lon="4.9631">
        <ele>295.1130065918</ele>
        <time>2020-01-23T10:17:57 0100</time>
      </trkpt>
      <trkpt lat="47.22322" lon="4.96314">
        <ele>295.26135253906</ele>
        <time>2020-01-23T10:18:01 0100</time>
      </trkpt>
      <trkpt lat="47.22319" lon="4.96318">
        <ele>295.35845947266</ele>
        <time>2020-01-23T10:18:05 0100</time>
      </trkpt>
      <trkpt lat="47.22317" lon="4.96322">
        <ele>295.44885253906</ele>
        <time>2020-01-23T10:18:09 0100</time>
      </trkpt>
      <trkpt lat="47.22315" lon="4.96327">
        <ele>295.55020141602</ele>
        <time>2020-01-23T10:18:13 0100</time>
      </trkpt>
      <trkpt lat="47.22313" lon="4.9633">
        <ele>295.77310180664</ele>
        <time>2020-01-23T10:18:17 0100</time>
      </trkpt>
      <trkpt lat="47.22312" lon="4.96334">
        <ele>296.00527954102</ele>
        <time>2020-01-23T10:18:21 0100</time>
      </trkpt>
      <trkpt lat="47.2231" lon="4.96335">
        <ele>296.20434570312</ele>
        <time>2020-01-23T10:18:25 0100</time>
      </trkpt>
      <trkpt lat="47.22311" lon="4.96334">
        <ele>296.46829223633</ele>
        <time>2020-01-23T10:18:29 0100</time>
      </trkpt>
      <trkpt lat="47.22312" lon="4.96336">
        <ele>296.94216918945</ele>
        <time>2020-01-23T10:18:33 0100</time>
      </trkpt>
      <trkpt lat="47.22315" lon="4.96339">
        <ele>297.30728149414</ele>
        <time>2020-01-23T10:18:37 0100</time>
      </trkpt>
      <trkpt lat="47.22317" lon="4.9634">
        <ele>297.63488769531</ele>
        <time>2020-01-23T10:18:41 0100</time>
      </trkpt>
      <trkpt lat="47.22317" lon="4.96341">
        <ele>297.66915893555</ele>
        <time>2020-01-23T10:18:45 0100</time>
      </trkpt>
      <trkpt lat="47.22317" lon="4.96341">
        <ele>297.87103271484</ele>
        <time>2020-01-23T10:18:49 0100</time>
      </trkpt>
      <trkpt lat="47.22318" lon="4.96342">
        <ele>297.98272705078</ele>
        <time>2020-01-23T10:18:53 0100</time>
      </trkpt>
      <trkpt lat="47.22318" lon="4.96342">
        <ele>298.01699829102</ele>
        <time>2020-01-23T10:18:57 0100</time>
      </trkpt>
      <trkpt lat="47.22318" lon="4.96343">
        <ele>298.20516967773</ele>
        <time>2020-01-23T10:19:01 0100</time>
      </trkpt>
      <trkpt lat="47.22319" lon="4.96345">
        <ele>298.30477905273</ele>
        <time>2020-01-23T10:19:05 0100</time>
      </trkpt>
      <trkpt lat="47.22319" lon="4.96345">
        <ele>298.3200378418</ele>
        <time>2020-01-23T10:19:09 0100</time>
      </trkpt>
      <trkpt lat="47.22319" lon="4.96345">
        <ele>298.35202026367</ele>
        <time>2020-01-23T10:19:13 0100</time>
      </trkpt>
      <trkpt lat="47.22319" lon="4.96345">
        <ele>298.37976074219</ele>
        <time>2020-01-23T10:19:17 0100</time>
      </trkpt>
      <trkpt lat="47.22319" lon="4.96345">
        <ele>298.404296875</ele>
        <time>2020-01-23T10:19:21 0100</time>
      </trkpt>
      <trkpt lat="47.22319" lon="4.96345">
        <ele>298.40942382812</ele>
        <time>2020-01-23T10:19:25 0100</time>
      </trkpt>
      <trkpt lat="47.22319" lon="4.96345">
        <ele>298.40893554688</ele>
        <time>2020-01-23T10:19:29 0100</time>
      </trkpt>
      <trkpt lat="47.22319" lon="4.96345">
        <ele>298.41091918945</ele>
        <time>2020-01-23T10:19:33 0100</time>
      </trkpt>
      <trkpt lat="47.22319" lon="4.96345">
        <ele>298.41128540039</ele>
        <time>2020-01-23T10:19:37 0100</time>
      </trkpt>
      <trkpt lat="47.22319" lon="4.96345">
        <ele>298.41882324219</ele>
        <time>2020-01-23T10:19:41 0100</time>
      </trkpt>
      <trkpt lat="47.22319" lon="4.96345">
        <ele>298.42953491211</ele>
        <time>2020-01-23T10:19:45 0100</time>
      </trkpt>
      <trkpt lat="47.22319" lon="4.96345">
        <ele>298.44659423828</ele>
        <time>2020-01-23T10:19:49 0100</time>
      </trkpt>
      <trkpt lat="47.22318" lon="4.96345">
        <ele>298.47607421875</ele>
        <time>2020-01-23T10:19:53 0100</time>
      </trkpt>
      <trkpt lat="47.22318" lon="4.96345">
        <ele>298.50592041016</ele>
        <time>2020-01-23T10:19:57 0100</time>
      </trkpt>
      <trkpt lat="47.22319" lon="4.96345">
        <ele>298.52783203125</ele>
        <time>2020-01-23T10:20:01 0100</time>
      </trkpt>
      <trkpt lat="47.22319" lon="4.96345">
        <ele>298.54132080078</ele>
        <time>2020-01-23T10:20:05 0100</time>
      </trkpt>
      <trkpt lat="47.22319" lon="4.96345">
        <ele>298.55123901367</ele>
        <time>2020-01-23T10:20:09 0100</time>
      </trkpt>
      <trkpt lat="47.22319" lon="4.96345">
        <ele>298.56369018555</ele>
        <time>2020-01-23T10:20:13 0100</time>
      </trkpt>
      <trkpt lat="47.22319" lon="4.96345">
        <ele>298.57409667969</ele>
        <time>2020-01-23T10:20:17 0100</time>
      </trkpt>
      <trkpt lat="47.22319" lon="4.96345">
        <ele>298.58486938477</ele>
        <time>2020-01-23T10:20:21 0100</time>
      </trkpt>
      <trkpt lat="47.22319" lon="4.96345">
        <ele>298.59719848633</ele>
        <time>2020-01-23T10:20:25 0100</time>
      </trkpt>
      <trkpt lat="47.22319" lon="4.96345">
        <ele>298.61233520508</ele>
        <time>2020-01-23T10:20:29 0100</time>
      </trkpt>
      <trkpt lat="47.22319" lon="4.96345">
        <ele>298.62927246094</ele>
        <time>2020-01-23T10:20:33 0100</time>
      </trkpt>
      <trkpt lat="47.22319" lon="4.96346">
        <ele>298.64486694336</ele>
        <time>2020-01-23T10:20:37 0100</time>
      </trkpt>
      <trkpt lat="47.2232" lon="4.96346">
        <ele>298.65762329102</ele>
        <time>2020-01-23T10:20:41 0100</time>
      </trkpt>
      <trkpt lat="47.2232" lon="4.96346">
        <ele>298.66918945312</ele>
        <time>2020-01-23T10:20:45 0100</time>
      </trkpt>
      <trkpt lat="47.2232" lon="4.96346">
        <ele>298.68075561523</ele>
        <time>2020-01-23T10:20:49 0100</time>
      </trkpt>
      <trkpt lat="47.2232" lon="4.96346">
        <ele>298.69329833984</ele>
        <time>2020-01-23T10:20:53 0100</time>
      </trkpt>
      <trkpt lat="47.2232" lon="4.96346">
        <ele>298.701171875</ele>
        <time>2020-01-23T10:20:57 0100</time>
      </trkpt>
      <trkpt lat="47.2232" lon="4.96346">
        <ele>298.70455932617</ele>
        <time>2020-01-23T10:21:01 0100</time>
      </trkpt>
      <trkpt lat="47.2232" lon="4.96346">
        <ele>298.70407104492</ele>
        <time>2020-01-23T10:21:05 0100</time>
      </trkpt>
      <trkpt lat="47.2232" lon="4.96346">
        <ele>298.7060546875</ele>
        <time>2020-01-23T10:21:09 0100</time>
      </trkpt>
      <trkpt lat="47.2232" lon="4.96346">
        <ele>298.70257568359</ele>
        <time>2020-01-23T10:21:13 0100</time>
      </trkpt>
      <trkpt lat="47.22319" lon="4.96347">
        <ele>298.69818115234</ele>
        <time>2020-01-23T10:21:17 0100</time>
      </trkpt>
      <trkpt lat="47.2232" lon="4.96347">
        <ele>298.69573974609</ele>
        <time>2020-01-23T10:21:21 0100</time>
      </trkpt>
      <trkpt lat="47.2232" lon="4.96347">
        <ele>298.69500732422</ele>
        <time>2020-01-23T10:21:25 0100</time>
      </trkpt>
      <trkpt lat="47.2232" lon="4.96347">
        <ele>298.69183349609</ele>
        <time>2020-01-23T10:21:29 0100</time>
      </trkpt>
      <trkpt lat="47.2232" lon="4.96347">
        <ele>298.68774414062</ele>
        <time>2020-01-23T10:21:33 0100</time>
      </trkpt>
      <trkpt lat="47.2232" lon="4.96347">
        <ele>298.68243408203</ele>
        <time>2020-01-23T10:21:37 0100</time>
      </trkpt>
      <trkpt lat="47.2232" lon="4.96347">
        <ele>298.67581176758</ele>
        <time>2020-01-23T10:21:41 0100</time>
      </trkpt>
      <trkpt lat="47.2232" lon="4.96347">
        <ele>298.66217041016</ele>
        <time>2020-01-23T10:21:45 0100</time>
      </trkpt>
      <trkpt lat="47.2232" lon="4.96347">
        <ele>298.64947509766</ele>
        <time>2020-01-23T10:21:49 0100</time>
      </trkpt>
      <trkpt lat="47.2232" lon="4.96347">
        <ele>298.6408996582</ele>
        <time>2020-01-23T10:21:53 0100</time>
      </trkpt>
      <trkpt lat="47.22319" lon="4.96347">
        <ele>298.5993347168</ele>
        <time>2020-01-23T10:21:57 0100</time>
      </trkpt>
      <trkpt lat="47.2232" lon="4.96347">
        <ele>298.58074951172</ele>
        <time>2020-01-23T10:22:01 0100</time>
      </trkpt>
      <trkpt lat="47.2232" lon="4.96347">
        <ele>298.56475830078</ele>
        <time>2020-01-23T10:22:05 0100</time>
      </trkpt>
      <trkpt lat="47.2232" lon="4.96347">
        <ele>298.54223632812</ele>
        <time>2020-01-23T10:22:09 0100</time>
      </trkpt>
      <trkpt lat="47.2232" lon="4.96348">
        <ele>298.52194213867</ele>
        <time>2020-01-23T10:22:13 0100</time>
      </trkpt>
      <trkpt lat="47.2232" lon="4.96348">
        <ele>298.50637817383</ele>
        <time>2020-01-23T10:22:17 0100</time>
      </trkpt>
      <trkpt lat="47.2232" lon="4.96348">
        <ele>298.49508666992</ele>
        <time>2020-01-23T10:22:21 0100</time>
      </trkpt>
      <trkpt lat="47.2232" lon="4.96348">
        <ele>298.49172973633</ele>
        <time>2020-01-23T10:22:25 0100</time>
      </trkpt>
      <trkpt lat="47.2232" lon="4.96348">
        <ele>298.49185180664</ele>
        <time>2020-01-23T10:22:29 0100</time>
      </trkpt>
      <trkpt lat="47.2232" lon="4.96348">
        <ele>298.49655151367</ele>
        <time>2020-01-23T10:22:33 0100</time>
      </trkpt>
      <trkpt lat="47.2232" lon="4.96348">
        <ele>298.50384521484</ele>
        <time>2020-01-23T10:22:37 0100</time>
      </trkpt>
      <trkpt lat="47.2232" lon="4.96348">
        <ele>298.49658203125</ele>
        <time>2020-01-23T10:22:41 0100</time>
      </trkpt>
      <trkpt lat="47.2232" lon="4.96348">
        <ele>298.47518920898</ele>
        <time>2020-01-23T10:22:45 0100</time>
      </trkpt>
      <trkpt lat="47.22321" lon="4.96348">
        <ele>298.45428466797</ele>
        <time>2020-01-23T10:22:49 0100</time>
      </trkpt>
      <trkpt lat="47.22321" lon="4.96348">
        <ele>298.41497802734</ele>
        <time>2020-01-23T10:22:53 0100</time>
      </trkpt>
      <trkpt lat="47.22321" lon="4.96349">
        <ele>298.37088012695</ele>
        <time>2020-01-23T10:22:57 0100</time>
      </trkpt>
      <trkpt lat="47.22321" lon="4.9635">
        <ele>298.32531738281</ele>
        <time>2020-01-23T10:23:01 0100</time>
      </trkpt>
      <trkpt lat="47.22322" lon="4.9635">
        <ele>298.30825805664</ele>
        <time>2020-01-23T10:23:05 0100</time>
      </trkpt>
      <trkpt lat="47.22322" lon="4.9635">
        <ele>298.31256103516</ele>
        <time>2020-01-23T10:23:09 0100</time>
      </trkpt>
      <trkpt lat="47.22322" lon="4.9635">
        <ele>298.31741333008</ele>
        <time>2020-01-23T10:23:13 0100</time>
      </trkpt>
      <trkpt lat="47.22321" lon="4.9635">
        <ele>298.29766845703</ele>
        <time>2020-01-23T10:23:17 0100</time>
      </trkpt>
      <trkpt lat="47.22321" lon="4.9635">
        <ele>298.27258300781</ele>
        <time>2020-01-23T10:23:21 0100</time>
      </trkpt>
      <trkpt lat="47.22321" lon="4.9635">
        <ele>298.25518798828</ele>
        <time>2020-01-23T10:23:25 0100</time>
      </trkpt>
      <trkpt lat="47.22321" lon="4.9635">
        <ele>298.23355102539</ele>
        <time>2020-01-23T10:23:29 0100</time>
      </trkpt>
      <trkpt lat="47.22321" lon="4.9635">
        <ele>298.20611572266</ele>
        <time>2020-01-23T10:23:33 0100</time>
      </trkpt>
      <trkpt lat="47.2232" lon="4.9635">
        <ele>298.18115234375</ele>
        <time>2020-01-23T10:23:37 0100</time>
      </trkpt>
      <trkpt lat="47.2232" lon="4.9635">
        <ele>298.16418457031</ele>
        <time>2020-01-23T10:23:41 0100</time>
      </trkpt>
      <trkpt lat="47.2232" lon="4.9635">
        <ele>298.13961791992</ele>
        <time>2020-01-23T10:23:45 0100</time>
      </trkpt>
      <trkpt lat="47.22321" lon="4.9635">
        <ele>298.11730957031</ele>
        <time>2020-01-23T10:23:49 0100</time>
      </trkpt>
      <trkpt lat="47.22321" lon="4.9635">
        <ele>298.0908203125</ele>
        <time>2020-01-23T10:23:53 0100</time>
      </trkpt>
      <trkpt lat="47.22321" lon="4.9635">
        <ele>298.06591796875</ele>
        <time>2020-01-23T10:23:57 0100</time>
      </trkpt>
      <trkpt lat="47.2232" lon="4.9635">
        <ele>298.04724121094</ele>
        <time>2020-01-23T10:24:01 0100</time>
      </trkpt>
      <trkpt lat="47.22321" lon="4.96349">
        <ele>298.01565551758</ele>
        <time>2020-01-23T10:24:05 0100</time>
      </trkpt>
      <trkpt lat="47.22321" lon="4.96348">
        <ele>298.01617431641</ele>
        <time>2020-01-23T10:24:09 0100</time>
      </trkpt>
      <trkpt lat="47.22321" lon="4.96347">
        <ele>298.0774230957</ele>
        <time>2020-01-23T10:24:13 0100</time>
      </trkpt>
      <trkpt lat="47.22321" lon="4.96346">
        <ele>298.10778808594</ele>
        <time>2020-01-23T10:24:17 0100</time>
      </trkpt>
      <trkpt lat="47.22321" lon="4.96345">
        <ele>298.1096496582</ele>
        <time>2020-01-23T10:24:21 0100</time>
      </trkpt>
      <trkpt lat="47.22321" lon="4.96345">
        <ele>298.08135986328</ele>
        <time>2020-01-23T10:24:25 0100</time>
      </trkpt>
      <trkpt lat="47.22321" lon="4.96345">
        <ele>298.01010131836</ele>
        <time>2020-01-23T10:24:29 0100</time>
      </trkpt>
      <trkpt lat="47.22321" lon="4.96345">
        <ele>297.94079589844</ele>
        <time>2020-01-23T10:24:33 0100</time>
      </trkpt>
      <trkpt lat="47.2232" lon="4.96345">
        <ele>297.763671875</ele>
        <time>2020-01-23T10:24:37 0100</time>
      </trkpt>
      <trkpt lat="47.22318" lon="4.96342">
        <ele>297.72369384766</ele>
        <time>2020-01-23T10:24:41 0100</time>
      </trkpt>
      <trkpt lat="47.22318" lon="4.96343">
        <ele>297.67236328125</ele>
        <time>2020-01-23T10:24:45 0100</time>
      </trkpt>
      <trkpt lat="47.22318" lon="4.96343">
        <ele>297.58587646484</ele>
        <time>2020-01-23T10:24:49 0100</time>
      </trkpt>
      <trkpt lat="47.22318" lon="4.96344">
        <ele>297.50875854492</ele>
        <time>2020-01-23T10:24:53 0100</time>
      </trkpt>
      <trkpt lat="47.22318" lon="4.96344">
        <ele>297.4423828125</ele>
        <time>2020-01-23T10:24:57 0100</time>
      </trkpt>
      <trkpt lat="47.22318" lon="4.96345">
        <ele>297.35977172852</ele>
        <time>2020-01-23T10:25:01 0100</time>
      </trkpt>
      <trkpt lat="47.22318" lon="4.9635">
        <ele>296.65985107422</ele>
        <time>2020-01-23T10:25:05 0100</time>
      </trkpt>
      <trkpt lat="47.22318" lon="4.9635">
        <ele>296.23440551758</ele>
        <time>2020-01-23T10:25:09 0100</time>
      </trkpt>
      <trkpt lat="47.22318" lon="4.9635">
        <ele>296.19662475586</ele>
        <time>2020-01-23T10:25:13 0100</time>
      </trkpt>
      <trkpt lat="47.22318" lon="4.9635">
        <ele>296.18811035156</ele>
        <time>2020-01-23T10:25:17 0100</time>
      </trkpt>
      <trkpt lat="47.22317" lon="4.9635">
        <ele>296.17126464844</ele>
        <time>2020-01-23T10:25:21 0100</time>
      </trkpt>
      <trkpt lat="47.22317" lon="4.9635">
        <ele>296.16152954102</ele>
        <time>2020-01-23T10:25:25 0100</time>
      </trkpt>
      <trkpt lat="47.22317" lon="4.9635">
        <ele>296.17614746094</ele>
        <time>2020-01-23T10:25:29 0100</time>
      </trkpt>
      <trkpt lat="47.22318" lon="4.9635">
        <ele>296.18804931641</ele>
        <time>2020-01-23T10:25:33 0100</time>
      </trkpt>
      <trkpt lat="47.22318" lon="4.9635">
        <ele>296.19418334961</ele>
        <time>2020-01-23T10:25:37 0100</time>
      </trkpt>
      <trkpt lat="47.22317" lon="4.9635">
        <ele>296.19158935547</ele>
        <time>2020-01-23T10:25:41 0100</time>
      </trkpt>
      <trkpt lat="47.22317" lon="4.9635">
        <ele>296.19058227539</ele>
        <time>2020-01-23T10:25:45 0100</time>
      </trkpt>
      <trkpt lat="47.22317" lon="4.9635">
        <ele>296.18618774414</ele>
        <time>2020-01-23T10:25:49 0100</time>
      </trkpt>
      <trkpt lat="47.22318" lon="4.9635">
        <ele>296.18099975586</ele>
        <time>2020-01-23T10:25:53 0100</time>
      </trkpt>
      <trkpt lat="47.22318" lon="4.9635">
        <ele>296.1838684082</ele>
        <time>2020-01-23T10:25:57 0100</time>
      </trkpt>
      <trkpt lat="47.22318" lon="4.9635">
        <ele>296.18716430664</ele>
        <time>2020-01-23T10:26:01 0100</time>
      </trkpt>
      <trkpt lat="47.22318" lon="4.9635">
        <ele>296.20391845703</ele>
        <time>2020-01-23T10:26:05 0100</time>
      </trkpt>
      <trkpt lat="47.22318" lon="4.96349">
        <ele>296.234375</ele>
        <time>2020-01-23T10:26:09 0100</time>
      </trkpt>
      <trkpt lat="47.22318" lon="4.96348">
        <ele>296.29721069336</ele>
        <time>2020-01-23T10:26:13 0100</time>
      </trkpt>
      <trkpt lat="47.22318" lon="4.96348">
        <ele>296.36260986328</ele>
        <time>2020-01-23T10:26:17 0100</time>
      </trkpt>
      <trkpt lat="47.22318" lon="4.96347">
        <ele>296.42663574219</ele>
        <time>2020-01-23T10:26:21 0100</time>
      </trkpt>
      <trkpt lat="47.22318" lon="4.96347">
        <ele>296.4958190918</ele>
        <time>2020-01-23T10:26:25 0100</time>
      </trkpt>
      <trkpt lat="47.22318" lon="4.96347">
        <ele>296.57479858398</ele>
        <time>2020-01-23T10:26:29 0100</time>
      </trkpt>
      <trkpt lat="47.22318" lon="4.96346">
        <ele>296.66772460938</ele>
        <time>2020-01-23T10:26:33 0100</time>
      </trkpt>
      <trkpt lat="47.22318" lon="4.96345">
        <ele>296.77157592773</ele>
        <time>2020-01-23T10:26:37 0100</time>
      </trkpt>
      <trkpt lat="47.22318" lon="4.96344">
        <ele>296.87197875977</ele>
        <time>2020-01-23T10:26:41 0100</time>
      </trkpt>
      <trkpt lat="47.22318" lon="4.96344">
        <ele>296.95245361328</ele>
        <time>2020-01-23T10:26:45 0100</time>
      </trkpt>
      <trkpt lat="47.22318" lon="4.96343">
        <ele>297.05014038086</ele>
        <time>2020-01-23T10:26:49 0100</time>
      </trkpt>
      <trkpt lat="47.22318" lon="4.96343">
        <ele>297.15249633789</ele>
        <time>2020-01-23T10:26:53 0100</time>
      </trkpt>
      <trkpt lat="47.22319" lon="4.96342">
        <ele>297.25469970703</ele>
        <time>2020-01-23T10:26:57 0100</time>
      </trkpt>
      <trkpt lat="47.22319" lon="4.96342">
        <ele>297.35516357422</ele>
        <time>2020-01-23T10:27:01 0100</time>
      </trkpt>
      <trkpt lat="47.22319" lon="4.96341">
        <ele>297.45474243164</ele>
        <time>2020-01-23T10:27:05 0100</time>
      </trkpt>
      <trkpt lat="47.22319" lon="4.96341">
        <ele>297.55130004883</ele>
        <time>2020-01-23T10:27:09 0100</time>
      </trkpt>
      <trkpt lat="47.22319" lon="4.96341">
        <ele>297.63812255859</ele>
        <time>2020-01-23T10:27:13 0100</time>
      </trkpt>
      <trkpt lat="47.22319" lon="4.96341">
        <ele>297.71383666992</ele>
        <time>2020-01-23T10:27:17 0100</time>
      </trkpt>
      <trkpt lat="47.22319" lon="4.96341">
        <ele>297.77401733398</ele>
        <time>2020-01-23T10:27:21 0100</time>
      </trkpt>
      <trkpt lat="47.22319" lon="4.96341">
        <ele>297.82431030273</ele>
        <time>2020-01-23T10:27:25 0100</time>
      </trkpt>
      <trkpt lat="47.2232" lon="4.96342">
        <ele>297.85473632812</ele>
        <time>2020-01-23T10:27:29 0100</time>
      </trkpt>
      <trkpt lat="47.2232" lon="4.96342">
        <ele>297.86196899414</ele>
        <time>2020-01-23T10:27:33 0100</time>
      </trkpt>
      <trkpt lat="47.2232" lon="4.96343">
        <ele>297.85046386719</ele>
        <time>2020-01-23T10:27:37 0100</time>
      </trkpt>
      <trkpt lat="47.2232" lon="4.96344">
        <ele>297.81622314453</ele>
        <time>2020-01-23T10:27:41 0100</time>
      </trkpt>
      <trkpt lat="47.2232" lon="4.96345">
        <ele>297.7590637207</ele>
        <time>2020-01-23T10:27:45 0100</time>
      </trkpt>
      <trkpt lat="47.2232" lon="4.96346">
        <ele>297.70532226562</ele>
        <time>2020-01-23T10:27:49 0100</time>
      </trkpt>
      <trkpt lat="47.2232" lon="4.96346">
        <ele>297.65713500977</ele>
        <time>2020-01-23T10:27:53 0100</time>
      </trkpt>
      <trkpt lat="47.2232" lon="4.96346">
        <ele>297.6178894043</ele>
        <time>2020-01-23T10:27:57 0100</time>
      </trkpt>
      <trkpt lat="47.2232" lon="4.96347">
        <ele>297.59088134766</ele>
        <time>2020-01-23T10:28:01 0100</time>
      </trkpt>
      <trkpt lat="47.2232" lon="4.96347">
        <ele>297.56051635742</ele>
        <time>2020-01-23T10:28:05 0100</time>
      </trkpt>
      <trkpt lat="47.22321" lon="4.96347">
        <ele>297.53244018555</ele>
        <time>2020-01-23T10:28:09 0100</time>
      </trkpt>
      <trkpt lat="47.22321" lon="4.96347">
        <ele>297.50473022461</ele>
        <time>2020-01-23T10:28:12 0100</time>
      </trkpt>
      <trkpt lat="47.22321" lon="4.96347">
        <ele>297.48944091797</ele>
        <time>2020-01-23T10:28:16 0100</time>
      </trkpt>
      <trkpt lat="47.22321" lon="4.96347">
        <ele>297.48779296875</ele>
        <time>2020-01-23T10:28:20 0100</time>
      </trkpt>
      <trkpt lat="47.22321" lon="4.96346">
        <ele>297.49990844727</ele>
        <time>2020-01-23T10:28:24 0100</time>
      </trkpt>
      <trkpt lat="47.22321" lon="4.96346">
        <ele>297.51412963867</ele>
        <time>2020-01-23T10:28:28 0100</time>
      </trkpt>
      <trkpt lat="47.22321" lon="4.96346">
        <ele>297.5244140625</ele>
        <time>2020-01-23T10:28:32 0100</time>
      </trkpt>
      <trkpt lat="47.22321" lon="4.96346">
        <ele>297.53692626953</ele>
        <time>2020-01-23T10:28:36 0100</time>
      </trkpt>
      <trkpt lat="47.22321" lon="4.96346">
        <ele>297.55612182617</ele>
        <time>2020-01-23T10:28:40 0100</time>
      </trkpt>
      <trkpt lat="47.22321" lon="4.96346">
        <ele>297.58413696289</ele>
        <time>2020-01-23T10:28:44 0100</time>
      </trkpt>
      <trkpt lat="47.22321" lon="4.96346">
        <ele>297.615234375</ele>
        <time>2020-01-23T10:28:48 0100</time>
      </trkpt>
      <trkpt lat="47.22321" lon="4.96345">
        <ele>297.65270996094</ele>
        <time>2020-01-23T10:28:52 0100</time>
      </trkpt>
      <trkpt lat="47.22321" lon="4.96345">
        <ele>297.70278930664</ele>
        <time>2020-01-23T10:28:56 0100</time>
      </trkpt>
      <trkpt lat="47.22321" lon="4.96345">
        <ele>297.76129150391</ele>
        <time>2020-01-23T10:29:00 0100</time>
      </trkpt>
      <trkpt lat="47.22321" lon="4.96345">
        <ele>297.82159423828</ele>
        <time>2020-01-23T10:29:04 0100</time>
      </trkpt>
      <trkpt lat="47.22321" lon="4.96344">
        <ele>297.87881469727</ele>
        <time>2020-01-23T10:29:08 0100</time>
      </trkpt>
      <trkpt lat="47.22321" lon="4.96344">
        <ele>297.95135498047</ele>
        <time>2020-01-23T10:29:12 0100</time>
      </trkpt>
      <trkpt lat="47.2232" lon="4.96344">
        <ele>298.04885864258</ele>
        <time>2020-01-23T10:29:16 0100</time>
      </trkpt>
      <trkpt lat="47.2232" lon="4.96343">
        <ele>298.15704345703</ele>
        <time>2020-01-23T10:29:20 0100</time>
      </trkpt>
      <trkpt lat="47.2232" lon="4.96343">
        <ele>298.25021362305</ele>
        <time>2020-01-23T10:29:24 0100</time>
      </trkpt>
      <trkpt lat="47.2232" lon="4.96342">
        <ele>298.3229675293</ele>
        <time>2020-01-23T10:29:28 0100</time>
      </trkpt>
      <trkpt lat="47.2232" lon="4.96342">
        <ele>298.39022827148</ele>
        <time>2020-01-23T10:29:32 0100</time>
      </trkpt>
      <trkpt lat="47.2232" lon="4.96343">
        <ele>298.46133422852</ele>
        <time>2020-01-23T10:29:36 0100</time>
      </trkpt>
      <trkpt lat="47.2232" lon="4.96343">
        <ele>298.70263671875</ele>
        <time>2020-01-23T10:29:40 0100</time>
      </trkpt>
      <trkpt lat="47.22321" lon="4.96345">
        <ele>298.77239990234</ele>
        <time>2020-01-23T10:29:44 0100</time>
      </trkpt>
      <trkpt lat="47.2232" lon="4.96345">
        <ele>298.83306884766</ele>
        <time>2020-01-23T10:29:48 0100</time>
      </trkpt>
      <trkpt lat="47.22321" lon="4.96346">
        <ele>298.83642578125</ele>
        <time>2020-01-23T10:29:52 0100</time>
      </trkpt>
      <trkpt lat="47.2232" lon="4.9635">
        <ele>298.76315307617</ele>
        <time>2020-01-23T10:29:56 0100</time>
      </trkpt>
      <trkpt lat="47.22319" lon="4.9635">
        <ele>298.70251464844</ele>
        <time>2020-01-23T10:30:00 0100</time>
      </trkpt>
      <trkpt lat="47.2232" lon="4.9635">
        <ele>298.69091796875</ele>
        <time>2020-01-23T10:30:04 0100</time>
      </trkpt>
      <trkpt lat="47.22318" lon="4.96346">
        <ele>298.67205810547</ele>
        <time>2020-01-23T10:30:08 0100</time>
      </trkpt>
      <trkpt lat="47.22318" lon="4.96346">
        <ele>298.64010620117</ele>
        <time>2020-01-23T10:30:12 0100</time>
      </trkpt>
      <trkpt lat="47.22318" lon="4.96346">
        <ele>298.61126708984</ele>
        <time>2020-01-23T10:30:16 0100</time>
      </trkpt>
      <trkpt lat="47.22318" lon="4.96346">
        <ele>298.57440185547</ele>
        <time>2020-01-23T10:30:20 0100</time>
      </trkpt>
      <trkpt lat="47.22318" lon="4.96346">
        <ele>298.52838134766</ele>
        <time>2020-01-23T10:30:24 0100</time>
      </trkpt>
      <trkpt lat="47.22317" lon="4.96346">
        <ele>298.47155761719</ele>
        <time>2020-01-23T10:30:28 0100</time>
      </trkpt>
      <trkpt lat="47.22317" lon="4.96346">
        <ele>298.40634155273</ele>
        <time>2020-01-23T10:30:32 0100</time>
      </trkpt>
      <trkpt lat="47.22317" lon="4.96346">
        <ele>298.34429931641</ele>
        <time>2020-01-23T10:30:36 0100</time>
      </trkpt>
      <trkpt lat="47.22317" lon="4.96344">
        <ele>298.17819213867</ele>
        <time>2020-01-23T10:30:40 0100</time>
      </trkpt>
      <trkpt lat="47.22317" lon="4.96343">
        <ele>297.91247558594</ele>
        <time>2020-01-23T10:30:44 0100</time>
      </trkpt>
      <trkpt lat="47.22317" lon="4.96342">
        <ele>297.69424438477</ele>
        <time>2020-01-23T10:30:48 0100</time>
      </trkpt>
      <trkpt lat="47.22315" lon="4.96343">
        <ele>297.36807250977</ele>
        <time>2020-01-23T10:30:52 0100</time>
      </trkpt>
      <trkpt lat="47.22314" lon="4.96345">
        <ele>297.12857055664</ele>
        <time>2020-01-23T10:30:56 0100</time>
      </trkpt>
      <trkpt lat="47.2231" lon="4.96348">
        <ele>296.94396972656</ele>
        <time>2020-01-23T10:31:00 0100</time>
      </trkpt>
      <trkpt lat="47.22306" lon="4.96353">
        <ele>296.68939208984</ele>
        <time>2020-01-23T10:31:04 0100</time>
      </trkpt>
      <trkpt lat="47.22303" lon="4.96358">
        <ele>296.42077636719</ele>
        <time>2020-01-23T10:31:08 0100</time>
      </trkpt>
      <trkpt lat="47.22301" lon="4.96361">
        <ele>296.25579833984</ele>
        <time>2020-01-23T10:31:12 0100</time>
      </trkpt>
      <trkpt lat="47.22298" lon="4.96364">
        <ele>296.11901855469</ele>
        <time>2020-01-23T10:31:16 0100</time>
      </trkpt>
      <trkpt lat="47.22295" lon="4.96368">
        <ele>296.01220703125</ele>
        <time>2020-01-23T10:31:20 0100</time>
      </trkpt>
      <trkpt lat="47.22292" lon="4.96371">
        <ele>295.96765136719</ele>
        <time>2020-01-23T10:31:24 0100</time>
      </trkpt>
      <trkpt lat="47.22288" lon="4.96374">
        <ele>295.91229248047</ele>
        <time>2020-01-23T10:31:28 0100</time>
      </trkpt>
      <trkpt lat="47.22285" lon="4.96376">
        <ele>295.79846191406</ele>
        <time>2020-01-23T10:31:32 0100</time>
      </trkpt>
      <trkpt lat="47.22282" lon="4.96379">
        <ele>295.66055297852</ele>
        <time>2020-01-23T10:31:36 0100</time>
      </trkpt>
      <trkpt lat="47.22278" lon="4.96383">
        <ele>295.55630493164</ele>
        <time>2020-01-23T10:31:40 0100</time>
      </trkpt>
      <trkpt lat="47.22274" lon="4.96388">
        <ele>295.47131347656</ele>
        <time>2020-01-23T10:31:44 0100</time>
      </trkpt>
      <trkpt lat="47.22271" lon="4.96392">
        <ele>295.44219970703</ele>
        <time>2020-01-23T10:31:48 0100</time>
      </trkpt>
      <trkpt lat="47.22269" lon="4.96395">
        <ele>295.51092529297</ele>
        <time>2020-01-23T10:31:52 0100</time>
      </trkpt>
      <trkpt lat="47.22264" lon="4.96399">
        <ele>295.57818603516</ele>
        <time>2020-01-23T10:31:56 0100</time>
      </trkpt>
      <trkpt lat="47.2226" lon="4.96403">
        <ele>295.64630126953</ele>
        <time>2020-01-23T10:32:00 0100</time>
      </trkpt>
      <trkpt lat="47.22256" lon="4.96407">
        <ele>295.69500732422</ele>
        <time>2020-01-23T10:32:04 0100</time>
      </trkpt>
      <trkpt lat="47.22253" lon="4.9641">
        <ele>295.72302246094</ele>
        <time>2020-01-23T10:32:08 0100</time>
      </trkpt>
      <trkpt lat="47.2225" lon="4.96413">
        <ele>295.7548828125</ele>
        <time>2020-01-23T10:32:12 0100</time>
      </trkpt>
      <trkpt lat="47.22246" lon="4.96416">
        <ele>295.78662109375</ele>
        <time>2020-01-23T10:32:16 0100</time>
      </trkpt>
      <trkpt lat="47.22243" lon="4.96419">
        <ele>295.84094238281</ele>
        <time>2020-01-23T10:32:20 0100</time>
      </trkpt>
      <trkpt lat="47.22239" lon="4.96421">
        <ele>295.92297363281</ele>
        <time>2020-01-23T10:32:24 0100</time>
      </trkpt>
      <trkpt lat="47.22236" lon="4.96424">
        <ele>296.01733398438</ele>
        <time>2020-01-23T10:32:28 0100</time>
      </trkpt>
      <trkpt lat="47.22232" lon="4.96426">
        <ele>296.13137817383</ele>
        <time>2020-01-23T10:32:32 0100</time>
      </trkpt>
      <trkpt lat="47.2223" lon="4.96428">
        <ele>296.25546264648</ele>
        <time>2020-01-23T10:32:36 0100</time>
      </trkpt>
      <trkpt lat="47.22227" lon="4.96431">
        <ele>296.38882446289</ele>
        <time>2020-01-23T10:32:40 0100</time>
      </trkpt>
      <trkpt lat="47.22224" lon="4.96433">
        <ele>296.5339050293</ele>
        <time>2020-01-23T10:32:44 0100</time>
      </trkpt>
      <trkpt lat="47.22222" lon="4.96435">
        <ele>296.69696044922</ele>
        <time>2020-01-23T10:32:48 0100</time>
      </trkpt>
      <trkpt lat="47.22219" lon="4.96436">
        <ele>296.83917236328</ele>
        <time>2020-01-23T10:32:52 0100</time>
      </trkpt>
      <trkpt lat="47.22216" lon="4.96437">
        <ele>296.96008300781</ele>
        <time>2020-01-23T10:32:56 0100</time>
      </trkpt>
      <trkpt lat="47.22213" lon="4.96439">
        <ele>297.15121459961</ele>
        <time>2020-01-23T10:33:00 0100</time>
      </trkpt>
      <trkpt lat="47.22209" lon="4.96441">
        <ele>297.37789916992</ele>
        <time>2020-01-23T10:33:04 0100</time>
      </trkpt>
      <trkpt lat="47.22205" lon="4.96442">
        <ele>297.60736083984</ele>
        <time>2020-01-23T10:33:08 0100</time>
      </trkpt>
      <trkpt lat="47.22202" lon="4.96443">
        <ele>297.8466796875</ele>
        <time>2020-01-23T10:33:12 0100</time>
      </trkpt>
      <trkpt lat="47.22198" lon="4.96444">
        <ele>298.08276367188</ele>
        <time>2020-01-23T10:33:16 0100</time>
      </trkpt>
      <trkpt lat="47.22194" lon="4.96445">
        <ele>298.29830932617</ele>
        <time>2020-01-23T10:33:20 0100</time>
      </trkpt>
      <trkpt lat="47.22191" lon="4.96446">
        <ele>298.50241088867</ele>
        <time>2020-01-23T10:33:24 0100</time>
      </trkpt>
      <trkpt lat="47.22187" lon="4.96448">
        <ele>298.68914794922</ele>
        <time>2020-01-23T10:33:28 0100</time>
      </trkpt>
      <trkpt lat="47.22184" lon="4.96449">
        <ele>298.82760620117</ele>
        <time>2020-01-23T10:33:32 0100</time>
      </trkpt>
      <trkpt lat="47.22184" lon="4.96448">
        <ele>298.83483886719</ele>
        <time>2020-01-23T10:33:36 0100</time>
      </trkpt>
      <trkpt lat="47.22184" lon="4.96448">
        <ele>298.84744262695</ele>
        <time>2020-01-23T10:33:40 0100</time>
      </trkpt>
      <trkpt lat="47.22184" lon="4.96448">
        <ele>298.87603759766</ele>
        <time>2020-01-23T10:33:44 0100</time>
      </trkpt>
      <trkpt lat="47.22181" lon="4.96449">
        <ele>299.28219604492</ele>
        <time>2020-01-23T10:33:48 0100</time>
      </trkpt>
      <trkpt lat="47.22177" lon="4.96452">
        <ele>299.65744018555</ele>
        <time>2020-01-23T10:33:52 0100</time>
      </trkpt>
      <trkpt lat="47.22173" lon="4.96455">
        <ele>299.96206665039</ele>
        <time>2020-01-23T10:33:56 0100</time>
      </trkpt>
      <trkpt lat="47.2217" lon="4.96457">
        <ele>300.26156616211</ele>
        <time>2020-01-23T10:34:00 0100</time>
      </trkpt>
      <trkpt lat="47.22167" lon="4.9646">
        <ele>300.5364074707</ele>
        <time>2020-01-23T10:34:04 0100</time>
      </trkpt>
      <trkpt lat="47.22164" lon="4.96462">
        <ele>300.73379516602</ele>
        <time>2020-01-23T10:34:08 0100</time>
      </trkpt>
      <trkpt lat="47.2216" lon="4.96464">
        <ele>300.86889648438</ele>
        <time>2020-01-23T10:34:12 0100</time>
      </trkpt>
      <trkpt lat="47.22157" lon="4.96466">
        <ele>300.94946289062</ele>
        <time>2020-01-23T10:34:16 0100</time>
      </trkpt>
      <trkpt lat="47.22156" lon="4.96468">
        <ele>301.0207824707</ele>
        <time>2020-01-23T10:34:20 0100</time>
      </trkpt>
      <trkpt lat="47.22155" lon="4.9647">
        <ele>301.09530639648</ele>
        <time>2020-01-23T10:34:24 0100</time>
      </trkpt>
      <trkpt lat="47.22154" lon="4.96472">
        <ele>301.14279174805</ele>
        <time>2020-01-23T10:34:28 0100</time>
      </trkpt>
      <trkpt lat="47.22154" lon="4.96472">
        <ele>301.15255737305</ele>
        <time>2020-01-23T10:34:32 0100</time>
      </trkpt>
      <trkpt lat="47.22155" lon="4.96472">
        <ele>301.1608581543</ele>
        <time>2020-01-23T10:34:36 0100</time>
      </trkpt>
      <trkpt lat="47.22155" lon="4.96473">
        <ele>301.21798706055</ele>
        <time>2020-01-23T10:34:40 0100</time>
      </trkpt>
      <trkpt lat="47.22156" lon="4.96477">
        <ele>301.30960083008</ele>
        <time>2020-01-23T10:34:44 0100</time>
      </trkpt>
      <trkpt lat="47.22157" lon="4.96482">
        <ele>301.39883422852</ele>
        <time>2020-01-23T10:34:48 0100</time>
      </trkpt>
      <trkpt lat="47.22159" lon="4.96486">
        <ele>301.5173034668</ele>
        <time>2020-01-23T10:34:52 0100</time>
      </trkpt>
      <trkpt lat="47.22161" lon="4.9649">
        <ele>301.59478759766</ele>
        <time>2020-01-23T10:34:56 0100</time>
      </trkpt>
      <trkpt lat="47.22163" lon="4.96494">
        <ele>301.67074584961</ele>
        <time>2020-01-23T10:35:00 0100</time>
      </trkpt>
      <trkpt lat="47.22164" lon="4.96498">
        <ele>301.74114990234</ele>
        <time>2020-01-23T10:35:04 0100</time>
      </trkpt>
      <trkpt lat="47.22165" lon="4.96503">
        <ele>301.78775024414</ele>
        <time>2020-01-23T10:35:08 0100</time>
      </trkpt>
      <trkpt lat="47.22167" lon="4.96508">
        <ele>301.81494140625</ele>
        <time>2020-01-23T10:35:12 0100</time>
      </trkpt>
      <trkpt lat="47.22168" lon="4.96512">
        <ele>301.85107421875</ele>
        <time>2020-01-23T10:35:16 0100</time>
      </trkpt>
      <trkpt lat="47.2217" lon="4.96517">
        <ele>301.86657714844</ele>
        <time>2020-01-23T10:35:20 0100</time>
      </trkpt>
      <trkpt lat="47.22171" lon="4.96524">
        <ele>301.86529541016</ele>
        <time>2020-01-23T10:35:24 0100</time>
      </trkpt>
      <trkpt lat="47.22173" lon="4.96529">
        <ele>301.83056640625</ele>
        <time>2020-01-23T10:35:28 0100</time>
      </trkpt>
      <trkpt lat="47.22174" lon="4.96535">
        <ele>301.75378417969</ele>
        <time>2020-01-23T10:35:32 0100</time>
      </trkpt>
      <trkpt lat="47.22176" lon="4.9654">
        <ele>301.6169128418</ele>
        <time>2020-01-23T10:35:36 0100</time>
      </trkpt>
      <trkpt lat="47.22177" lon="4.96546">
        <ele>301.44436645508</ele>
        <time>2020-01-23T10:35:40 0100</time>
      </trkpt>
      <trkpt lat="47.22179" lon="4.96552">
        <ele>301.22348022461</ele>
        <time>2020-01-23T10:35:44 0100</time>
      </trkpt>
      <trkpt lat="47.2218" lon="4.96558">
        <ele>300.97134399414</ele>
        <time>2020-01-23T10:35:48 0100</time>
      </trkpt>
      <trkpt lat="47.2218" lon="4.96563">
        <ele>300.70645141602</ele>
        <time>2020-01-23T10:35:52 0100</time>
      </trkpt>
      <trkpt lat="47.22181" lon="4.96569">
        <ele>300.45922851562</ele>
        <time>2020-01-23T10:35:56 0100</time>
      </trkpt>
      <trkpt lat="47.22183" lon="4.96574">
        <ele>300.21493530273</ele>
        <time>2020-01-23T10:36:00 0100</time>
      </trkpt>
      <trkpt lat="47.22185" lon="4.96581">
        <ele>299.89730834961</ele>
        <time>2020-01-23T10:36:04 0100</time>
      </trkpt>
      <trkpt lat="47.22186" lon="4.96587">
        <ele>299.54064941406</ele>
        <time>2020-01-23T10:36:08 0100</time>
      </trkpt>
      <trkpt lat="47.22188" lon="4.96592">
        <ele>299.23092651367</ele>
        <time>2020-01-23T10:36:12 0100</time>
      </trkpt>
      <trkpt lat="47.2219" lon="4.96597">
        <ele>298.92660522461</ele>
        <time>2020-01-23T10:36:16 0100</time>
      </trkpt>
      <trkpt lat="47.22191" lon="4.96602">
        <ele>298.81344604492</ele>
        <time>2020-01-23T10:36:20 0100</time>
      </trkpt>
      <trkpt lat="47.22192" lon="4.96603">
        <ele>298.34561157227</ele>
        <time>2020-01-23T10:36:24 0100</time>
      </trkpt>
      <trkpt lat="47.22195" lon="4.96606">
        <ele>297.88793945312</ele>
        <time>2020-01-23T10:36:28 0100</time>
      </trkpt>
      <trkpt lat="47.22198" lon="4.96608">
        <ele>297.4494934082</ele>
        <time>2020-01-23T10:36:32 0100</time>
      </trkpt>
      <trkpt lat="47.22201" lon="4.96612">
        <ele>297.00640869141</ele>
        <time>2020-01-23T10:36:36 0100</time>
      </trkpt>
      <trkpt lat="47.22205" lon="4.96615">
        <ele>296.55111694336</ele>
        <time>2020-01-23T10:36:40 0100</time>
      </trkpt>
      <trkpt lat="47.22209" lon="4.96618">
        <ele>296.20202636719</ele>
        <time>2020-01-23T10:36:44 0100</time>
      </trkpt>
      <trkpt lat="47.22212" lon="4.9662">
        <ele>295.93710327148</ele>
        <time>2020-01-23T10:36:48 0100</time>
      </trkpt>
      <trkpt lat="47.22215" lon="4.96622">
        <ele>295.76806640625</ele>
        <time>2020-01-23T10:36:52 0100</time>
      </trkpt>
      <trkpt lat="47.22217" lon="4.96626">
        <ele>295.73086547852</ele>
        <time>2020-01-23T10:36:56 0100</time>
      </trkpt>
      <trkpt lat="47.22221" lon="4.96629">
        <ele>295.69598388672</ele>
        <time>2020-01-23T10:37:00 0100</time>
      </trkpt>
      <trkpt lat="47.22227" lon="4.96633">
        <ele>295.42169189453</ele>
        <time>2020-01-23T10:37:04 0100</time>
      </trkpt>
      <trkpt lat="47.22231" lon="4.96636">
        <ele>294.99621582031</ele>
        <time>2020-01-23T10:37:08 0100</time>
      </trkpt>
      <trkpt lat="47.22235" lon="4.96641">
        <ele>294.46224975586</ele>
        <time>2020-01-23T10:37:12 0100</time>
      </trkpt>
      <trkpt lat="47.22238" lon="4.96645">
        <ele>293.89361572266</ele>
        <time>2020-01-23T10:37:16 0100</time>
      </trkpt>
      <trkpt lat="47.22242" lon="4.96649">
        <ele>293.27011108398</ele>
        <time>2020-01-23T10:37:20 0100</time>
      </trkpt>
      <trkpt lat="47.22246" lon="4.96653">
        <ele>292.69616699219</ele>
        <time>2020-01-23T10:37:24 0100</time>
      </trkpt>
      <trkpt lat="47.2225" lon="4.96658">
        <ele>292.14306640625</ele>
        <time>2020-01-23T10:37:28 0100</time>
      </trkpt>
      <trkpt lat="47.22253" lon="4.96662">
        <ele>291.54763793945</ele>
        <time>2020-01-23T10:37:32 0100</time>
      </trkpt>
      <trkpt lat="47.22256" lon="4.96665">
        <ele>291.00555419922</ele>
        <time>2020-01-23T10:37:36 0100</time>
      </trkpt>
      <trkpt lat="47.22261" lon="4.96667">
        <ele>290.60751342773</ele>
        <time>2020-01-23T10:37:40 0100</time>
      </trkpt>
      <trkpt lat="47.22263" lon="4.9667">
        <ele>290.24645996094</ele>
        <time>2020-01-23T10:37:44 0100</time>
      </trkpt>
      <trkpt lat="47.22267" lon="4.96673">
        <ele>289.86508178711</ele>
        <time>2020-01-23T10:37:48 0100</time>
      </trkpt>
      <trkpt lat="47.2227" lon="4.96675">
        <ele>289.5163269043</ele>
        <time>2020-01-23T10:37:52 0100</time>
      </trkpt>
      <trkpt lat="47.22274" lon="4.96679">
        <ele>289.11065673828</ele>
        <time>2020-01-23T10:37:56 0100</time>
      </trkpt>
      <trkpt lat="47.22278" lon="4.96682">
        <ele>288.73257446289</ele>
        <time>2020-01-23T10:38:00 0100</time>
      </trkpt>
      <trkpt lat="47.22282" lon="4.96685">
        <ele>288.39318847656</ele>
        <time>2020-01-23T10:38:04 0100</time>
      </trkpt>
      <trkpt lat="47.22284" lon="4.96687">
        <ele>288.06594848633</ele>
        <time>2020-01-23T10:38:08 0100</time>
      </trkpt>
      <trkpt lat="47.22286" lon="4.9669">
        <ele>287.92575073242</ele>
        <time>2020-01-23T10:38:12 0100</time>
      </trkpt>
      <trkpt lat="47.22289" lon="4.96691">
        <ele>287.86364746094</ele>
        <time>2020-01-23T10:38:16 0100</time>
      </trkpt>
      <trkpt lat="47.22292" lon="4.96692">
        <ele>287.77960205078</ele>
        <time>2020-01-23T10:38:20 0100</time>
      </trkpt>
      <trkpt lat="47.22293" lon="4.96694">
        <ele>287.4560546875</ele>
        <time>2020-01-23T10:38:24 0100</time>
      </trkpt>
      <trkpt lat="47.22295" lon="4.96696">
        <ele>287.22421264648</ele>
        <time>2020-01-23T10:38:28 0100</time>
      </trkpt>
      <trkpt lat="47.22299" lon="4.96698">
        <ele>286.95852661133</ele>
        <time>2020-01-23T10:38:32 0100</time>
      </trkpt>
      <trkpt lat="47.22302" lon="4.967">
        <ele>286.71939086914</ele>
        <time>2020-01-23T10:38:36 0100</time>
      </trkpt>
      <trkpt lat="47.22304" lon="4.96703">
        <ele>286.45751953125</ele>
        <time>2020-01-23T10:38:40 0100</time>
      </trkpt>
      <trkpt lat="47.22308" lon="4.96706">
        <ele>286.20910644531</ele>
        <time>2020-01-23T10:38:44 0100</time>
      </trkpt>
      <trkpt lat="47.2231" lon="4.96708">
        <ele>285.97564697266</ele>
        <time>2020-01-23T10:38:48 0100</time>
      </trkpt>
      <trkpt lat="47.22313" lon="4.96711">
        <ele>285.73974609375</ele>
        <time>2020-01-23T10:38:52 0100</time>
      </trkpt>
      <trkpt lat="47.22317" lon="4.96714">
        <ele>285.47024536133</ele>
        <time>2020-01-23T10:38:56 0100</time>
      </trkpt>
      <trkpt lat="47.2232" lon="4.96717">
        <ele>285.17080688477</ele>
        <time>2020-01-23T10:39:00 0100</time>
      </trkpt>
      <trkpt lat="47.22325" lon="4.96721">
        <ele>284.77041625977</ele>
        <time>2020-01-23T10:39:04 0100</time>
      </trkpt>
      <trkpt lat="47.22327" lon="4.96723">
        <ele>284.36834716797</ele>
        <time>2020-01-23T10:39:08 0100</time>
      </trkpt>
      <trkpt lat="47.22331" lon="4.96724">
        <ele>284.09265136719</ele>
        <time>2020-01-23T10:39:12 0100</time>
      </trkpt>
      <trkpt lat="47.22334" lon="4.96725">
        <ele>283.96539306641</ele>
        <time>2020-01-23T10:39:16 0100</time>
      </trkpt>
      <trkpt lat="47.22335" lon="4.96725">
        <ele>284.03341674805</ele>
        <time>2020-01-23T10:39:20 0100</time>
      </trkpt>
      <trkpt lat="47.22337" lon="4.96727">
        <ele>284.27172851562</ele>
        <time>2020-01-23T10:39:24 0100</time>
      </trkpt>
      <trkpt lat="47.22339" lon="4.96729">
        <ele>284.32437133789</ele>
        <time>2020-01-23T10:39:28 0100</time>
      </trkpt>
      <trkpt lat="47.22341" lon="4.96731">
        <ele>284.41757202148</ele>
        <time>2020-01-23T10:39:32 0100</time>
      </trkpt>
      <trkpt lat="47.22344" lon="4.96735">
        <ele>284.48327636719</ele>
        <time>2020-01-23T10:39:36 0100</time>
      </trkpt>
      <trkpt lat="47.22345" lon="4.96736">
        <ele>284.51739501953</ele>
        <time>2020-01-23T10:39:40 0100</time>
      </trkpt>
      <trkpt lat="47.22346" lon="4.96737">
        <ele>284.68597412109</ele>
        <time>2020-01-23T10:39:44 0100</time>
      </trkpt>
      <trkpt lat="47.22349" lon="4.96741">
        <ele>284.87814331055</ele>
        <time>2020-01-23T10:39:48 0100</time>
      </trkpt>
      <trkpt lat="47.22352" lon="4.96744">
        <ele>284.97494506836</ele>
        <time>2020-01-23T10:39:52 0100</time>
      </trkpt>
      <trkpt lat="47.22354" lon="4.96746">
        <ele>285.02444458008</ele>
        <time>2020-01-23T10:39:56 0100</time>
      </trkpt>
      <trkpt lat="47.22356" lon="4.96748">
        <ele>285.29418945312</ele>
        <time>2020-01-23T10:40:00 0100</time>
      </trkpt>
      <trkpt lat="47.22357" lon="4.96749">
        <ele>285.74942016602</ele>
        <time>2020-01-23T10:40:04 0100</time>
      </trkpt>
      <trkpt lat="47.2236" lon="4.96754">
        <ele>286.40194702148</ele>
        <time>2020-01-23T10:40:08 0100</time>
      </trkpt>
      <trkpt lat="47.22365" lon="4.9676">
        <ele>286.80062866211</ele>
        <time>2020-01-23T10:40:12 0100</time>
      </trkpt>
      <trkpt lat="47.22369" lon="4.96766">
        <ele>286.59381103516</ele>
        <time>2020-01-23T10:40:16 0100</time>
      </trkpt>
      <trkpt lat="47.22374" lon="4.96768">
        <ele>286.21017456055</ele>
        <time>2020-01-23T10:40:20 0100</time>
      </trkpt>
      <trkpt lat="47.22376" lon="4.96769">
        <ele>285.77780151367</ele>
        <time>2020-01-23T10:40:24 0100</time>
      </trkpt>
      <trkpt lat="47.22379" lon="4.9677">
        <ele>285.44897460938</ele>
        <time>2020-01-23T10:40:28 0100</time>
      </trkpt>
      <trkpt lat="47.22383" lon="4.96772">
        <ele>285.25860595703</ele>
        <time>2020-01-23T10:40:32 0100</time>
      </trkpt>
      <trkpt lat="47.22386" lon="4.96774">
        <ele>285.11367797852</ele>
        <time>2020-01-23T10:40:36 0100</time>
      </trkpt>
      <trkpt lat="47.2239" lon="4.96775">
        <ele>285.03274536133</ele>
        <time>2020-01-23T10:40:40 0100</time>
      </trkpt>
      <trkpt lat="47.22392" lon="4.96778">
        <ele>285.02349853516</ele>
        <time>2020-01-23T10:40:44 0100</time>
      </trkpt>
      <trkpt lat="47.22394" lon="4.96779">
        <ele>285.08276367188</ele>
        <time>2020-01-23T10:40:48 0100</time>
      </trkpt>
      <trkpt lat="47.22394" lon="4.96779">
        <ele>285.09042358398</ele>
        <time>2020-01-23T10:40:52 0100</time>
      </trkpt>
      <trkpt lat="47.22395" lon="4.96779">
        <ele>285.15454101562</ele>
        <time>2020-01-23T10:40:56 0100</time>
      </trkpt>
      <trkpt lat="47.22394" lon="4.96781">
        <ele>285.32397460938</ele>
        <time>2020-01-23T10:41:00 0100</time>
      </trkpt>
      <trkpt lat="47.22396" lon="4.96787">
        <ele>285.51058959961</ele>
        <time>2020-01-23T10:41:04 0100</time>
      </trkpt>
      <trkpt lat="47.22397" lon="4.96787">
        <ele>285.57913208008</ele>
        <time>2020-01-23T10:41:08 0100</time>
      </trkpt>
      <trkpt lat="47.22397" lon="4.96788">
        <ele>285.64758300781</ele>
        <time>2020-01-23T10:41:12 0100</time>
      </trkpt>
      <trkpt lat="47.22396" lon="4.96789">
        <ele>286.03668212891</ele>
        <time>2020-01-23T10:41:16 0100</time>
      </trkpt>
      <trkpt lat="47.22395" lon="4.96789">
        <ele>286.14144897461</ele>
        <time>2020-01-23T10:41:20 0100</time>
      </trkpt>
      <trkpt lat="47.22395" lon="4.9679">
        <ele>286.14263916016</ele>
        <time>2020-01-23T10:41:24 0100</time>
      </trkpt>
      <trkpt lat="47.22394" lon="4.96792">
        <ele>286.16909790039</ele>
        <time>2020-01-23T10:41:28 0100</time>
      </trkpt>
      <trkpt lat="47.22394" lon="4.96792">
        <ele>286.16146850586</ele>
        <time>2020-01-23T10:41:32 0100</time>
      </trkpt>
      <trkpt lat="47.22394" lon="4.96793">
        <ele>286.15856933594</ele>
        <time>2020-01-23T10:41:36 0100</time>
      </trkpt>
      <trkpt lat="47.22394" lon="4.96793">
        <ele>286.15594482422</ele>
        <time>2020-01-23T10:41:40 0100</time>
      </trkpt>
      <trkpt lat="47.22393" lon="4.96793">
        <ele>286.18252563477</ele>
        <time>2020-01-23T10:41:44 0100</time>
      </trkpt>
      <trkpt lat="47.22396" lon="4.96794">
        <ele>286.22357177734</ele>
        <time>2020-01-23T10:41:48 0100</time>
      </trkpt>
      <trkpt lat="47.22397" lon="4.96796">
        <ele>286.20956420898</ele>
        <time>2020-01-23T10:41:52 0100</time>
      </trkpt>
      <trkpt lat="47.22397" lon="4.96796">
        <ele>286.15582275391</ele>
        <time>2020-01-23T10:41:56 0100</time>
      </trkpt>
      <trkpt lat="47.22397" lon="4.96797">
        <ele>286.08248901367</ele>
        <time>2020-01-23T10:42:00 0100</time>
      </trkpt>
      <trkpt lat="47.22398" lon="4.96797">
        <ele>285.82836914062</ele>
        <time>2020-01-23T10:42:04 0100</time>
      </trkpt>
      <trkpt lat="47.22398" lon="4.96797">
        <ele>285.76080322266</ele>
        <time>2020-01-23T10:42:08 0100</time>
      </trkpt>
      <trkpt lat="47.22398" lon="4.96797">
        <ele>285.70062255859</ele>
        <time>2020-01-23T10:42:12 0100</time>
      </trkpt>
      <trkpt lat="47.22398" lon="4.96795">
        <ele>285.64068603516</ele>
        <time>2020-01-23T10:42:17 0100</time>
      </trkpt>
      <trkpt lat="47.22398" lon="4.96795">
        <ele>285.50567626953</ele>
        <time>2020-01-23T10:42:21 0100</time>
      </trkpt>
      <trkpt lat="47.22398" lon="4.96795">
        <ele>285.48135375977</ele>
        <time>2020-01-23T10:42:25 0100</time>
      </trkpt>
      <trkpt lat="47.22398" lon="4.96795">
        <ele>285.45654296875</ele>
        <time>2020-01-23T10:42:29 0100</time>
      </trkpt>
      <trkpt lat="47.22398" lon="4.96795">
        <ele>285.37356567383</ele>
        <time>2020-01-23T10:42:33 0100</time>
      </trkpt>
      <trkpt lat="47.22398" lon="4.96795">
        <ele>285.34100341797</ele>
        <time>2020-01-23T10:42:37 0100</time>
      </trkpt>
      <trkpt lat="47.22398" lon="4.96795">
        <ele>285.30752563477</ele>
        <time>2020-01-23T10:42:41 0100</time>
      </trkpt>
      <trkpt lat="47.22398" lon="4.96795">
        <ele>285.27166748047</ele>
        <time>2020-01-23T10:42:45 0100</time>
      </trkpt>
      <trkpt lat="47.22398" lon="4.96795">
        <ele>285.23455810547</ele>
        <time>2020-01-23T10:42:49 0100</time>
      </trkpt>
      <trkpt lat="47.22397" lon="4.96796">
        <ele>285.10354614258</ele>
        <time>2020-01-23T10:42:53 0100</time>
      </trkpt>
      <trkpt lat="47.22396" lon="4.96798">
        <ele>284.81323242188</ele>
        <time>2020-01-23T10:42:57 0100</time>
      </trkpt>
      <trkpt lat="47.22394" lon="4.96803">
        <ele>284.58569335938</ele>
        <time>2020-01-23T10:43:01 0100</time>
      </trkpt>
      <trkpt lat="47.22392" lon="4.96809">
        <ele>284.50653076172</ele>
        <time>2020-01-23T10:43:05 0100</time>
      </trkpt>
      <trkpt lat="47.22391" lon="4.96813">
        <ele>284.63812255859</ele>
        <time>2020-01-23T10:43:09 0100</time>
      </trkpt>
      <trkpt lat="47.2239" lon="4.96819">
        <ele>284.80795288086</ele>
        <time>2020-01-23T10:43:13 0100</time>
      </trkpt>
      <trkpt lat="47.22389" lon="4.96822">
        <ele>285.17272949219</ele>
        <time>2020-01-23T10:43:17 0100</time>
      </trkpt>
      <trkpt lat="47.22389" lon="4.96832">
        <ele>285.19094848633</ele>
        <time>2020-01-23T10:43:21 0100</time>
      </trkpt>
      <trkpt lat="47.22391" lon="4.96833">
        <ele>284.94277954102</ele>
        <time>2020-01-23T10:43:25 0100</time>
      </trkpt>
      <trkpt lat="47.22391" lon="4.96834">
        <ele>284.82531738281</ele>
        <time>2020-01-23T10:43:29 0100</time>
      </trkpt>
      <trkpt lat="47.22391" lon="4.96837">
        <ele>284.60827636719</ele>
        <time>2020-01-23T10:43:33 0100</time>
      </trkpt>
      <trkpt lat="47.22391" lon="4.96843">
        <ele>284.36065673828</ele>
        <time>2020-01-23T10:43:37 0100</time>
      </trkpt>
      <trkpt lat="47.2239" lon="4.96847">
        <ele>284.32977294922</ele>
        <time>2020-01-23T10:43:41 0100</time>
      </trkpt>
      <trkpt lat="47.22389" lon="4.96853">
        <ele>284.49401855469</ele>
        <time>2020-01-23T10:43:45 0100</time>
      </trkpt>
      <trkpt lat="47.22389" lon="4.96859">
        <ele>284.60827636719</ele>
        <time>2020-01-23T10:43:49 0100</time>
      </trkpt>
      <trkpt lat="47.22389" lon="4.96865">
        <ele>284.54840087891</ele>
        <time>2020-01-23T10:43:53 0100</time>
      </trkpt>
      <trkpt lat="47.22389" lon="4.96872">
        <ele>284.4192199707</ele>
        <time>2020-01-23T10:43:57 0100</time>
      </trkpt>
      <trkpt lat="47.22389" lon="4.96877">
        <ele>284.30258178711</ele>
        <time>2020-01-23T10:44:01 0100</time>
      </trkpt>
      <trkpt lat="47.22388" lon="4.96881">
        <ele>284.21920776367</ele>
        <time>2020-01-23T10:44:05 0100</time>
      </trkpt>
      <trkpt lat="47.22387" lon="4.96886">
        <ele>284.1565246582</ele>
        <time>2020-01-23T10:44:09 0100</time>
      </trkpt>
      <trkpt lat="47.22385" lon="4.96892">
        <ele>284.26306152344</ele>
        <time>2020-01-23T10:44:13 0100</time>
      </trkpt>
      <trkpt lat="47.22385" lon="4.96897">
        <ele>284.20904541016</ele>
        <time>2020-01-23T10:44:17 0100</time>
      </trkpt>
      <trkpt lat="47.22384" lon="4.96901">
        <ele>283.91891479492</ele>
        <time>2020-01-23T10:44:21 0100</time>
      </trkpt>
      <trkpt lat="47.22383" lon="4.96904">
        <ele>283.66952514648</ele>
        <time>2020-01-23T10:44:25 0100</time>
      </trkpt>
      <trkpt lat="47.22383" lon="4.96907">
        <ele>283.45114135742</ele>
        <time>2020-01-23T10:44:29 0100</time>
      </trkpt>
      <trkpt lat="47.22385" lon="4.96912">
        <ele>283.42758178711</ele>
        <time>2020-01-23T10:44:33 0100</time>
      </trkpt>
      <trkpt lat="47.22387" lon="4.96919">
        <ele>283.17816162109</ele>
        <time>2020-01-23T10:44:37 0100</time>
      </trkpt>
      <trkpt lat="47.22389" lon="4.96921">
        <ele>282.80297851562</ele>
        <time>2020-01-23T10:44:41 0100</time>
      </trkpt>
      <trkpt lat="47.22389" lon="4.96924">
        <ele>282.23638916016</ele>
        <time>2020-01-23T10:44:45 0100</time>
      </trkpt>
      <trkpt lat="47.22388" lon="4.96927">
        <ele>282.1305847168</ele>
        <time>2020-01-23T10:44:49 0100</time>
      </trkpt>
      <trkpt lat="47.22388" lon="4.96932">
        <ele>282.73147583008</ele>
        <time>2020-01-23T10:44:53 0100</time>
      </trkpt>
      <trkpt lat="47.22387" lon="4.96938">
        <ele>283.33706665039</ele>
        <time>2020-01-23T10:44:57 0100</time>
      </trkpt>
      <trkpt lat="47.22388" lon="4.96943">
        <ele>283.65200805664</ele>
        <time>2020-01-23T10:45:01 0100</time>
      </trkpt>
      <trkpt lat="47.22389" lon="4.96947">
        <ele>283.64688110352</ele>
        <time>2020-01-23T10:45:05 0100</time>
      </trkpt>
      <trkpt lat="47.2239" lon="4.9695">
        <ele>283.43209838867</ele>
        <time>2020-01-23T10:45:09 0100</time>
      </trkpt>
      <trkpt lat="47.22391" lon="4.96951">
        <ele>283.34912109375</ele>
        <time>2020-01-23T10:45:13 0100</time>
      </trkpt>
      <trkpt lat="47.22391" lon="4.96952">
        <ele>283.24865722656</ele>
        <time>2020-01-23T10:45:17 0100</time>
      </trkpt>
      <trkpt lat="47.22391" lon="4.96952">
        <ele>283.20642089844</ele>
        <time>2020-01-23T10:45:21 0100</time>
      </trkpt>
      <trkpt lat="47.22391" lon="4.96953">
        <ele>283.16354370117</ele>
        <time>2020-01-23T10:45:25 0100</time>
      </trkpt>
      <trkpt lat="47.22391" lon="4.96953">
        <ele>283.11199951172</ele>
        <time>2020-01-23T10:45:29 0100</time>
      </trkpt>
      <trkpt lat="47.22391" lon="4.96953">
        <ele>283.05670166016</ele>
        <time>2020-01-23T10:45:33 0100</time>
      </trkpt>
      <trkpt lat="47.22392" lon="4.96956">
        <ele>282.66729736328</ele>
        <time>2020-01-23T10:45:37 0100</time>
      </trkpt>
      <trkpt lat="47.22393" lon="4.96961">
        <ele>282.23516845703</ele>
        <time>2020-01-23T10:45:41 0100</time>
      </trkpt>
      <trkpt lat="47.22393" lon="4.96961">
        <ele>282.2004699707</ele>
        <time>2020-01-23T10:45:45 0100</time>
      </trkpt>
      <trkpt lat="47.22393" lon="4.96962">
        <ele>282.04437255859</ele>
        <time>2020-01-23T10:45:49 0100</time>
      </trkpt>
      <trkpt lat="47.22394" lon="4.96962">
        <ele>281.91448974609</ele>
        <time>2020-01-23T10:45:53 0100</time>
      </trkpt>
      <trkpt lat="47.22394" lon="4.96962">
        <ele>281.89099121094</ele>
        <time>2020-01-23T10:45:57 0100</time>
      </trkpt>
      <trkpt lat="47.22394" lon="4.96962">
        <ele>281.86642456055</ele>
        <time>2020-01-23T10:46:01 0100</time>
      </trkpt>
      <trkpt lat="47.22394" lon="4.96962">
        <ele>281.84295654297</ele>
        <time>2020-01-23T10:46:05 0100</time>
      </trkpt>
      <trkpt lat="47.22394" lon="4.96963">
        <ele>281.82562255859</ele>
        <time>2020-01-23T10:46:09 0100</time>
      </trkpt>
      <trkpt lat="47.22394" lon="4.96963">
        <ele>281.80877685547</ele>
        <time>2020-01-23T10:46:13 0100</time>
      </trkpt>
      <trkpt lat="47.22395" lon="4.96965">
        <ele>281.72412109375</ele>
        <time>2020-01-23T10:46:17 0100</time>
      </trkpt>
      <trkpt lat="47.22396" lon="4.96969">
        <ele>281.68817138672</ele>
        <time>2020-01-23T10:46:21 0100</time>
      </trkpt>
      <trkpt lat="47.22397" lon="4.96972">
        <ele>281.625</ele>
        <time>2020-01-23T10:46:25 0100</time>
      </trkpt>
      <trkpt lat="47.22397" lon="4.96972">
        <ele>281.61059570312</ele>
        <time>2020-01-23T10:46:29 0100</time>
      </trkpt>
      <trkpt lat="47.22397" lon="4.96973">
        <ele>281.59390258789</ele>
        <time>2020-01-23T10:46:33 0100</time>
      </trkpt>
      <trkpt lat="47.22398" lon="4.96973">
        <ele>281.58331298828</ele>
        <time>2020-01-23T10:46:37 0100</time>
      </trkpt>
      <trkpt lat="47.22398" lon="4.96974">
        <ele>281.5666809082</ele>
        <time>2020-01-23T10:46:41 0100</time>
      </trkpt>
      <trkpt lat="47.22398" lon="4.96975">
        <ele>281.55380249023</ele>
        <time>2020-01-23T10:46:45 0100</time>
      </trkpt>
      <trkpt lat="47.224" lon="4.9698">
        <ele>281.54913330078</ele>
        <time>2020-01-23T10:46:49 0100</time>
      </trkpt>
      <trkpt lat="47.224" lon="4.9698">
        <ele>281.55450439453</ele>
        <time>2020-01-23T10:46:53 0100</time>
      </trkpt>
      <trkpt lat="47.22402" lon="4.96983">
        <ele>281.65472412109</ele>
        <time>2020-01-23T10:46:57 0100</time>
      </trkpt>
      <trkpt lat="47.22404" lon="4.96987">
        <ele>281.80996704102</ele>
        <time>2020-01-23T10:47:01 0100</time>
      </trkpt>
      <trkpt lat="47.22407" lon="4.96989">
        <ele>281.98162841797</ele>
        <time>2020-01-23T10:47:05 0100</time>
      </trkpt>
      <trkpt lat="47.22409" lon="4.96989">
        <ele>282.10305786133</ele>
        <time>2020-01-23T10:47:09 0100</time>
      </trkpt>
      <trkpt lat="47.22409" lon="4.96989">
        <ele>282.1549987793</ele>
        <time>2020-01-23T10:47:13 0100</time>
      </trkpt>
      <trkpt lat="47.22409" lon="4.96989">
        <ele>282.21459960938</ele>
        <time>2020-01-23T10:47:17 0100</time>
      </trkpt>
      <trkpt lat="47.22409" lon="4.96988">
        <ele>282.28897094727</ele>
        <time>2020-01-23T10:47:21 0100</time>
      </trkpt>
      <trkpt lat="47.22409" lon="4.96988">
        <ele>282.37631225586</ele>
        <time>2020-01-23T10:47:25 0100</time>
      </trkpt>
      <trkpt lat="47.22409" lon="4.96989">
        <ele>282.94436645508</ele>
        <time>2020-01-23T10:47:29 0100</time>
      </trkpt>
      <trkpt lat="47.22409" lon="4.96989">
        <ele>283.00042724609</ele>
        <time>2020-01-23T10:47:33 0100</time>
      </trkpt>
      <trkpt lat="47.22409" lon="4.96989">
        <ele>283.05465698242</ele>
        <time>2020-01-23T10:47:37 0100</time>
      </trkpt>
      <trkpt lat="47.22409" lon="4.96987">
        <ele>283.69967651367</ele>
        <time>2020-01-23T10:47:41 0100</time>
      </trkpt>
      <trkpt lat="47.22411" lon="4.96988">
        <ele>284.38818359375</ele>
        <time>2020-01-23T10:47:45 0100</time>
      </trkpt>
      <trkpt lat="47.22413" lon="4.96988">
        <ele>285.02993774414</ele>
        <time>2020-01-23T10:47:49 0100</time>
      </trkpt>
      <trkpt lat="47.22414" lon="4.96988">
        <ele>285.53982543945</ele>
        <time>2020-01-23T10:47:53 0100</time>
      </trkpt>
      <trkpt lat="47.22416" lon="4.9699">
        <ele>285.9235534668</ele>
        <time>2020-01-23T10:47:57 0100</time>
      </trkpt>
      <trkpt lat="47.22418" lon="4.96992">
        <ele>286.28869628906</ele>
        <time>2020-01-23T10:48:01 0100</time>
      </trkpt>
      <trkpt lat="47.22419" lon="4.96993">
        <ele>286.48904418945</ele>
        <time>2020-01-23T10:48:05 0100</time>
      </trkpt>
      <trkpt lat="47.2242" lon="4.96993">
        <ele>286.5251159668</ele>
        <time>2020-01-23T10:48:09 0100</time>
      </trkpt>
      <trkpt lat="47.22421" lon="4.96994">
        <ele>286.64584350586</ele>
        <time>2020-01-23T10:48:13 0100</time>
      </trkpt>
      <trkpt lat="47.22421" lon="4.96994">
        <ele>286.75369262695</ele>
        <time>2020-01-23T10:48:17 0100</time>
      </trkpt>
      <trkpt lat="47.22424" lon="4.96997">
        <ele>286.99911499023</ele>
        <time>2020-01-23T10:48:21 0100</time>
      </trkpt>
      <trkpt lat="47.22428" lon="4.97001">
        <ele>287.17776489258</ele>
        <time>2020-01-23T10:48:25 0100</time>
      </trkpt>
      <trkpt lat="47.22431" lon="4.97006">
        <ele>287.34524536133</ele>
        <time>2020-01-23T10:48:29 0100</time>
      </trkpt>
      <trkpt lat="47.22435" lon="4.97011">
        <ele>287.48724365234</ele>
        <time>2020-01-23T10:48:33 0100</time>
      </trkpt>
      <trkpt lat="47.22438" lon="4.97015">
        <ele>287.58721923828</ele>
        <time>2020-01-23T10:48:37 0100</time>
      </trkpt>
      <trkpt lat="47.22441" lon="4.9702">
        <ele>287.65151977539</ele>
        <time>2020-01-23T10:48:41 0100</time>
      </trkpt>
      <trkpt lat="47.22443" lon="4.97024">
        <ele>287.70660400391</ele>
        <time>2020-01-23T10:48:45 0100</time>
      </trkpt>
      <trkpt lat="47.22445" lon="4.97029">
        <ele>287.75</ele>
        <time>2020-01-23T10:48:49 0100</time>
      </trkpt>
      <trkpt lat="47.22447" lon="4.97033">
        <ele>287.77432250977</ele>
        <time>2020-01-23T10:48:53 0100</time>
      </trkpt>
      <trkpt lat="47.22449" lon="4.97037">
        <ele>287.77655029297</ele>
        <time>2020-01-23T10:48:57 0100</time>
      </trkpt>
      <trkpt lat="47.22451" lon="4.97042">
        <ele>287.71151733398</ele>
        <time>2020-01-23T10:49:01 0100</time>
      </trkpt>
      <trkpt lat="47.22453" lon="4.97045">
        <ele>287.60232543945</ele>
        <time>2020-01-23T10:49:05 0100</time>
      </trkpt>
      <trkpt lat="47.22455" lon="4.97049">
        <ele>287.4792175293</ele>
        <time>2020-01-23T10:49:09 0100</time>
      </trkpt>
      <trkpt lat="47.22457" lon="4.97052">
        <ele>287.32342529297</ele>
        <time>2020-01-23T10:49:13 0100</time>
      </trkpt>
      <trkpt lat="47.22459" lon="4.97055">
        <ele>287.17541503906</ele>
        <time>2020-01-23T10:49:17 0100</time>
      </trkpt>
      <trkpt lat="47.22459" lon="4.97055">
        <ele>287.11108398438</ele>
        <time>2020-01-23T10:49:21 0100</time>
      </trkpt>
      <trkpt lat="47.22461" lon="4.97058">
        <ele>286.93231201172</ele>
        <time>2020-01-23T10:49:25 0100</time>
      </trkpt>
      <trkpt lat="47.22462" lon="4.9706">
        <ele>286.77420043945</ele>
        <time>2020-01-23T10:49:29 0100</time>
      </trkpt>
      <trkpt lat="47.22465" lon="4.97061">
        <ele>286.62033081055</ele>
        <time>2020-01-23T10:49:33 0100</time>
      </trkpt>
      <trkpt lat="47.22466" lon="4.97061">
        <ele>286.53176879883</ele>
        <time>2020-01-23T10:49:37 0100</time>
      </trkpt>
      <trkpt lat="47.22469" lon="4.97064">
        <ele>286.43243408203</ele>
        <time>2020-01-23T10:49:41 0100</time>
      </trkpt>
      <trkpt lat="47.22472" lon="4.97067">
        <ele>286.39736938477</ele>
        <time>2020-01-23T10:49:45 0100</time>
      </trkpt>
      <trkpt lat="47.22472" lon="4.97067">
        <ele>286.39724731445</ele>
        <time>2020-01-23T10:49:49 0100</time>
      </trkpt>
      <trkpt lat="47.22472" lon="4.97067">
        <ele>286.39691162109</ele>
        <time>2020-01-23T10:49:53 0100</time>
      </trkpt>
      <trkpt lat="47.22475" lon="4.9707">
        <ele>286.39288330078</ele>
        <time>2020-01-23T10:49:57 0100</time>
      </trkpt>
      <trkpt lat="47.22478" lon="4.97074">
        <ele>286.4216003418</ele>
        <time>2020-01-23T10:50:01 0100</time>
      </trkpt>
      <trkpt lat="47.22479" lon="4.97074">
        <ele>286.49612426758</ele>
        <time>2020-01-23T10:50:05 0100</time>
      </trkpt>
      <trkpt lat="47.2248" lon="4.97076">
        <ele>286.45886230469</ele>
        <time>2020-01-23T10:50:09 0100</time>
      </trkpt>
      <trkpt lat="47.22481" lon="4.97077">
        <ele>286.44390869141</ele>
        <time>2020-01-23T10:50:13 0100</time>
      </trkpt>
      <trkpt lat="47.22481" lon="4.97077">
        <ele>286.44641113281</ele>
        <time>2020-01-23T10:50:17 0100</time>
      </trkpt>
      <trkpt lat="47.22482" lon="4.97077">
        <ele>286.45303344727</ele>
        <time>2020-01-23T10:50:21 0100</time>
      </trkpt>
      <trkpt lat="47.22483" lon="4.97077">
        <ele>286.49719238281</ele>
        <time>2020-01-23T10:50:25 0100</time>
      </trkpt>
      <trkpt lat="47.22487" lon="4.97076">
        <ele>286.62411499023</ele>
        <time>2020-01-23T10:50:29 0100</time>
      </trkpt>
      <trkpt lat="47.2249" lon="4.97073">
        <ele>286.76345825195</ele>
        <time>2020-01-23T10:50:33 0100</time>
      </trkpt>
      <trkpt lat="47.22493" lon="4.97072">
        <ele>286.92520141602</ele>
        <time>2020-01-23T10:50:37 0100</time>
      </trkpt>
      <trkpt lat="47.22501" lon="4.97068">
        <ele>287.01443481445</ele>
        <time>2020-01-23T10:50:41 0100</time>
      </trkpt>
      <trkpt lat="47.22506" lon="4.97065">
        <ele>286.95715332031</ele>
        <time>2020-01-23T10:50:45 0100</time>
      </trkpt>
      <trkpt lat="47.2251" lon="4.97063">
        <ele>286.84915161133</ele>
        <time>2020-01-23T10:50:49 0100</time>
      </trkpt>
      <trkpt lat="47.22515" lon="4.9706">
        <ele>286.78909301758</ele>
        <time>2020-01-23T10:50:53 0100</time>
      </trkpt>
      <trkpt lat="47.22517" lon="4.97057">
        <ele>286.73645019531</ele>
        <time>2020-01-23T10:50:57 0100</time>
      </trkpt>
      <trkpt lat="47.22517" lon="4.97057">
        <ele>286.73477172852</ele>
        <time>2020-01-23T10:51:01 0100</time>
      </trkpt>
      <trkpt lat="47.22517" lon="4.97057">
        <ele>286.74081420898</ele>
        <time>2020-01-23T10:51:05 0100</time>
      </trkpt>
      <trkpt lat="47.22517" lon="4.97057">
        <ele>286.74850463867</ele>
        <time>2020-01-23T10:51:09 0100</time>
      </trkpt>
      <trkpt lat="47.22517" lon="4.97057">
        <ele>286.7555847168</ele>
        <time>2020-01-23T10:51:13 0100</time>
      </trkpt>
      <trkpt lat="47.22517" lon="4.97057">
        <ele>286.75833129883</ele>
        <time>2020-01-23T10:51:17 0100</time>
      </trkpt>
      <trkpt lat="47.22517" lon="4.97057">
        <ele>286.75750732422</ele>
        <time>2020-01-23T10:51:21 0100</time>
      </trkpt>
      <trkpt lat="47.22517" lon="4.97056">
        <ele>286.75485229492</ele>
        <time>2020-01-23T10:51:25 0100</time>
      </trkpt>
      <trkpt lat="47.22516" lon="4.97054">
        <ele>286.65582275391</ele>
        <time>2020-01-23T10:51:29 0100</time>
      </trkpt>
      <trkpt lat="47.22515" lon="4.97052">
        <ele>286.60382080078</ele>
        <time>2020-01-23T10:51:33 0100</time>
      </trkpt>
      <trkpt lat="47.22515" lon="4.97052">
        <ele>286.57720947266</ele>
        <time>2020-01-23T10:51:37 0100</time>
      </trkpt>
      <trkpt lat="47.22517" lon="4.97051">
        <ele>286.35427856445</ele>
        <time>2020-01-23T10:51:41 0100</time>
      </trkpt>
      <trkpt lat="47.2252" lon="4.97048">
        <ele>286.11117553711</ele>
        <time>2020-01-23T10:51:45 0100</time>
      </trkpt>
      <trkpt lat="47.22523" lon="4.97046">
        <ele>285.86090087891</ele>
        <time>2020-01-23T10:51:49 0100</time>
      </trkpt>
      <trkpt lat="47.22524" lon="4.97045">
        <ele>285.83508300781</ele>
        <time>2020-01-23T10:51:53 0100</time>
      </trkpt>
      <trkpt lat="47.22524" lon="4.97045">
        <ele>285.80966186523</ele>
        <time>2020-01-23T10:51:57 0100</time>
      </trkpt>
      <trkpt lat="47.22524" lon="4.97045">
        <ele>285.77951049805</ele>
        <time>2020-01-23T10:52:01 0100</time>
      </trkpt>
      <trkpt lat="47.22524" lon="4.97044">
        <ele>285.60452270508</ele>
        <time>2020-01-23T10:52:05 0100</time>
      </trkpt>
      <trkpt lat="47.22524" lon="4.97043">
        <ele>285.44561767578</ele>
        <time>2020-01-23T10:52:09 0100</time>
      </trkpt>
      <trkpt lat="47.22525" lon="4.97042">
        <ele>285.35916137695</ele>
        <time>2020-01-23T10:52:13 0100</time>
      </trkpt>
      <trkpt lat="47.22527" lon="4.9704">
        <ele>285.13021850586</ele>
        <time>2020-01-23T10:52:17 0100</time>
      </trkpt>
      <trkpt lat="47.22529" lon="4.97038">
        <ele>284.93286132812</ele>
        <time>2020-01-23T10:52:21 0100</time>
      </trkpt>
      <trkpt lat="47.22534" lon="4.97035">
        <ele>284.87564086914</ele>
        <time>2020-01-23T10:52:25 0100</time>
      </trkpt>
      <trkpt lat="47.22535" lon="4.97033">
        <ele>284.89337158203</ele>
        <time>2020-01-23T10:52:29 0100</time>
      </trkpt>
      <trkpt lat="47.22535" lon="4.97032">
        <ele>284.90328979492</ele>
        <time>2020-01-23T10:52:33 0100</time>
      </trkpt>
      <trkpt lat="47.22536" lon="4.97032">
        <ele>284.95236206055</ele>
        <time>2020-01-23T10:52:37 0100</time>
      </trkpt>
      <trkpt lat="47.22538" lon="4.97031">
        <ele>285.11553955078</ele>
        <time>2020-01-23T10:52:41 0100</time>
      </trkpt>
      <trkpt lat="47.22541" lon="4.97028">
        <ele>285.30169677734</ele>
        <time>2020-01-23T10:52:45 0100</time>
      </trkpt>
      <trkpt lat="47.22543" lon="4.97027">
        <ele>285.47119140625</ele>
        <time>2020-01-23T10:52:49 0100</time>
      </trkpt>
      <trkpt lat="47.22546" lon="4.97026">
        <ele>285.66073608398</ele>
        <time>2020-01-23T10:52:53 0100</time>
      </trkpt>
      <trkpt lat="47.22548" lon="4.97025">
        <ele>285.68957519531</ele>
        <time>2020-01-23T10:52:57 0100</time>
      </trkpt>
      <trkpt lat="47.22548" lon="4.97025">
        <ele>285.71743774414</ele>
        <time>2020-01-23T10:53:01 0100</time>
      </trkpt>
      <trkpt lat="47.22549" lon="4.97025">
        <ele>285.7421875</ele>
        <time>2020-01-23T10:53:05 0100</time>
      </trkpt>
      <trkpt lat="47.22549" lon="4.97025">
        <ele>285.76190185547</ele>
        <time>2020-01-23T10:53:09 0100</time>
      </trkpt>
      <trkpt lat="47.2255" lon="4.97024">
        <ele>285.84661865234</ele>
        <time>2020-01-23T10:53:13 0100</time>
      </trkpt>
      <trkpt lat="47.2255" lon="4.97024">
        <ele>285.88214111328</ele>
        <time>2020-01-23T10:53:17 0100</time>
      </trkpt>
      <trkpt lat="47.22553" lon="4.97022">
        <ele>285.96859741211</ele>
        <time>2020-01-23T10:53:21 0100</time>
      </trkpt>
      <trkpt lat="47.22555" lon="4.9702">
        <ele>285.99188232422</ele>
        <time>2020-01-23T10:53:25 0100</time>
      </trkpt>
      <trkpt lat="47.22555" lon="4.97019">
        <ele>285.97546386719</ele>
        <time>2020-01-23T10:53:29 0100</time>
      </trkpt>
      <trkpt lat="47.22555" lon="4.97019">
        <ele>285.96444702148</ele>
        <time>2020-01-23T10:53:33 0100</time>
      </trkpt>
      <trkpt lat="47.22555" lon="4.97019">
        <ele>285.94857788086</ele>
        <time>2020-01-23T10:53:37 0100</time>
      </trkpt>
      <trkpt lat="47.22555" lon="4.97019">
        <ele>285.93124389648</ele>
        <time>2020-01-23T10:53:41 0100</time>
      </trkpt>
      <trkpt lat="47.22555" lon="4.97019">
        <ele>285.92422485352</ele>
        <time>2020-01-23T10:53:45 0100</time>
      </trkpt>
      <trkpt lat="47.22555" lon="4.97018">
        <ele>285.93280029297</ele>
        <time>2020-01-23T10:53:49 0100</time>
      </trkpt>
      <trkpt lat="47.22557" lon="4.97017">
        <ele>286.01058959961</ele>
        <time>2020-01-23T10:53:53 0100</time>
      </trkpt>
      <trkpt lat="47.22559" lon="4.97016">
        <ele>286.15167236328</ele>
        <time>2020-01-23T10:53:57 0100</time>
      </trkpt>
      <trkpt lat="47.2256" lon="4.97015">
        <ele>286.38516235352</ele>
        <time>2020-01-23T10:54:01 0100</time>
      </trkpt>
      <trkpt lat="47.22563" lon="4.97013">
        <ele>286.78271484375</ele>
        <time>2020-01-23T10:54:05 0100</time>
      </trkpt>
      <trkpt lat="47.22565" lon="4.97011">
        <ele>287.1242980957</ele>
        <time>2020-01-23T10:54:09 0100</time>
      </trkpt>
      <trkpt lat="47.22566" lon="4.97009">
        <ele>287.2890625</ele>
        <time>2020-01-23T10:54:13 0100</time>
      </trkpt>
      <trkpt lat="47.22567" lon="4.97008">
        <ele>287.34393310547</ele>
        <time>2020-01-23T10:54:17 0100</time>
      </trkpt>
      <trkpt lat="47.22567" lon="4.97008">
        <ele>287.40209960938</ele>
        <time>2020-01-23T10:54:21 0100</time>
      </trkpt>
      <trkpt lat="47.22568" lon="4.97008">
        <ele>287.46166992188</ele>
        <time>2020-01-23T10:54:25 0100</time>
      </trkpt>
      <trkpt lat="47.22571" lon="4.97005">
        <ele>287.87164306641</ele>
        <time>2020-01-23T10:54:29 0100</time>
      </trkpt>
      <trkpt lat="47.22574" lon="4.97007">
        <ele>288.23101806641</ele>
        <time>2020-01-23T10:54:33 0100</time>
      </trkpt>
      <trkpt lat="47.22574" lon="4.97008">
        <ele>288.26876831055</ele>
        <time>2020-01-23T10:54:37 0100</time>
      </trkpt>
      <trkpt lat="47.22574" lon="4.9701">
        <ele>288.3489074707</ele>
        <time>2020-01-23T10:54:41 0100</time>
      </trkpt>
      <trkpt lat="47.22573" lon="4.97013">
        <ele>288.3528137207</ele>
        <time>2020-01-23T10:54:45 0100</time>
      </trkpt>
      <trkpt lat="47.22573" lon="4.97014">
        <ele>288.34228515625</ele>
        <time>2020-01-23T10:54:49 0100</time>
      </trkpt>
      <trkpt lat="47.22572" lon="4.97015">
        <ele>288.32119750977</ele>
        <time>2020-01-23T10:54:53 0100</time>
      </trkpt>
      <trkpt lat="47.22571" lon="4.97017">
        <ele>288.29385375977</ele>
        <time>2020-01-23T10:54:57 0100</time>
      </trkpt>
      <trkpt lat="47.2257" lon="4.97017">
        <ele>288.1764831543</ele>
        <time>2020-01-23T10:55:01 0100</time>
      </trkpt>
      <trkpt lat="47.22571" lon="4.97018">
        <ele>287.92242431641</ele>
        <time>2020-01-23T10:55:05 0100</time>
      </trkpt>
      <trkpt lat="47.22577" lon="4.9702">
        <ele>287.47555541992</ele>
        <time>2020-01-23T10:55:09 0100</time>
      </trkpt>
      <trkpt lat="47.22583" lon="4.97024">
        <ele>286.85501098633</ele>
        <time>2020-01-23T10:55:13 0100</time>
      </trkpt>
      <trkpt lat="47.22585" lon="4.9703">
        <ele>286.29113769531</ele>
        <time>2020-01-23T10:55:17 0100</time>
      </trkpt>
      <trkpt lat="47.22586" lon="4.97035">
        <ele>285.79495239258</ele>
        <time>2020-01-23T10:55:21 0100</time>
      </trkpt>
      <trkpt lat="47.22587" lon="4.9704">
        <ele>285.27420043945</ele>
        <time>2020-01-23T10:55:25 0100</time>
      </trkpt>
      <trkpt lat="47.22586" lon="4.97046">
        <ele>284.88397216797</ele>
        <time>2020-01-23T10:55:29 0100</time>
      </trkpt>
      <trkpt lat="47.22585" lon="4.97048">
        <ele>284.55715942383</ele>
        <time>2020-01-23T10:55:33 0100</time>
      </trkpt>
      <trkpt lat="47.22584" lon="4.97049">
        <ele>284.46453857422</ele>
        <time>2020-01-23T10:55:37 0100</time>
      </trkpt>
      <trkpt lat="47.22584" lon="4.97053">
        <ele>284.31704711914</ele>
        <time>2020-01-23T10:55:41 0100</time>
      </trkpt>
      <trkpt lat="47.22584" lon="4.97053">
        <ele>284.2405090332</ele>
        <time>2020-01-23T10:55:45 0100</time>
      </trkpt>
      <trkpt lat="47.22584" lon="4.97054">
        <ele>283.95391845703</ele>
        <time>2020-01-23T10:55:48 0100</time>
      </trkpt>
      <trkpt lat="47.22583" lon="4.97058">
        <ele>283.16979980469</ele>
        <time>2020-01-23T10:55:52 0100</time>
      </trkpt>
      <trkpt lat="47.22583" lon="4.97059">
        <ele>282.67327880859</ele>
        <time>2020-01-23T10:55:56 0100</time>
      </trkpt>
      <trkpt lat="47.22583" lon="4.97062">
        <ele>282.26678466797</ele>
        <time>2020-01-23T10:56:00 0100</time>
      </trkpt>
      <trkpt lat="47.22584" lon="4.97064">
        <ele>282.14553833008</ele>
        <time>2020-01-23T10:56:04 0100</time>
      </trkpt>
      <trkpt lat="47.22584" lon="4.97071">
        <ele>281.78338623047</ele>
        <time>2020-01-23T10:56:08 0100</time>
      </trkpt>
      <trkpt lat="47.22584" lon="4.97076">
        <ele>281.60522460938</ele>
        <time>2020-01-23T10:56:12 0100</time>
      </trkpt>
      <trkpt lat="47.22583" lon="4.97082">
        <ele>281.56069946289</ele>
        <time>2020-01-23T10:56:16 0100</time>
      </trkpt>
      <trkpt lat="47.22582" lon="4.97083">
        <ele>281.5009765625</ele>
        <time>2020-01-23T10:56:20 0100</time>
      </trkpt>
      <trkpt lat="47.22582" lon="4.97087">
        <ele>281.46868896484</ele>
        <time>2020-01-23T10:56:24 0100</time>
      </trkpt>
      <trkpt lat="47.22583" lon="4.97091">
        <ele>281.50946044922</ele>
        <time>2020-01-23T10:56:28 0100</time>
      </trkpt>
      <trkpt lat="47.22584" lon="4.97097">
        <ele>281.63717651367</ele>
        <time>2020-01-23T10:56:32 0100</time>
      </trkpt>
      <trkpt lat="47.22584" lon="4.97102">
        <ele>281.81246948242</ele>
        <time>2020-01-23T10:56:36 0100</time>
      </trkpt>
      <trkpt lat="47.22585" lon="4.97106">
        <ele>281.99761962891</ele>
        <time>2020-01-23T10:56:40 0100</time>
      </trkpt>
      <trkpt lat="47.22586" lon="4.97109">
        <ele>282.11514282227</ele>
        <time>2020-01-23T10:56:44 0100</time>
      </trkpt>
      <trkpt lat="47.22586" lon="4.97113">
        <ele>282.26245117188</ele>
        <time>2020-01-23T10:56:48 0100</time>
      </trkpt>
      <trkpt lat="47.22587" lon="4.97114">
        <ele>282.30615234375</ele>
        <time>2020-01-23T10:56:52 0100</time>
      </trkpt>
      <trkpt lat="47.22588" lon="4.97116">
        <ele>282.35958862305</ele>
        <time>2020-01-23T10:56:56 0100</time>
      </trkpt>
      <trkpt lat="47.22588" lon="4.97116">
        <ele>282.41317749023</ele>
        <time>2020-01-23T10:57:00 0100</time>
      </trkpt>
      <trkpt lat="47.22588" lon="4.97116">
        <ele>282.46868896484</ele>
        <time>2020-01-23T10:57:04 0100</time>
      </trkpt>
      <trkpt lat="47.22588" lon="4.97116">
        <ele>282.52716064453</ele>
        <time>2020-01-23T10:57:08 0100</time>
      </trkpt>
      <trkpt lat="47.22588" lon="4.97115">
        <ele>282.5810546875</ele>
        <time>2020-01-23T10:57:12 0100</time>
      </trkpt>
      <trkpt lat="47.22588" lon="4.97116">
        <ele>282.62896728516</ele>
        <time>2020-01-23T10:57:16 0100</time>
      </trkpt>
      <trkpt lat="47.22589" lon="4.97116">
        <ele>282.78237915039</ele>
        <time>2020-01-23T10:57:20 0100</time>
      </trkpt>
      <trkpt lat="47.2259" lon="4.9712">
        <ele>283.23678588867</ele>
        <time>2020-01-23T10:57:24 0100</time>
      </trkpt>
      <trkpt lat="47.2259" lon="4.9712">
        <ele>283.28930664062</ele>
        <time>2020-01-23T10:57:28 0100</time>
      </trkpt>
      <trkpt lat="47.22591" lon="4.97122">
        <ele>283.67523193359</ele>
        <time>2020-01-23T10:57:32 0100</time>
      </trkpt>
      <trkpt lat="47.22592" lon="4.97128">
        <ele>283.90664672852</ele>
        <time>2020-01-23T10:57:36 0100</time>
      </trkpt>
      <trkpt lat="47.22593" lon="4.97135">
        <ele>284.11166381836</ele>
        <time>2020-01-23T10:57:40 0100</time>
      </trkpt>
      <trkpt lat="47.22594" lon="4.97135">
        <ele>284.52676391602</ele>
        <time>2020-01-23T10:57:44 0100</time>
      </trkpt>
      <trkpt lat="47.22594" lon="4.97127">
        <ele>284.85223388672</ele>
        <time>2020-01-23T10:57:48 0100</time>
      </trkpt>
      <trkpt lat="47.22593" lon="4.97122">
        <ele>285.13388061523</ele>
        <time>2020-01-23T10:57:52 0100</time>
      </trkpt>
      <trkpt lat="47.22593" lon="4.97122">
        <ele>285.3698425293</ele>
        <time>2020-01-23T10:57:56 0100</time>
      </trkpt>
      <trkpt lat="47.22593" lon="4.97121">
        <ele>285.39678955078</ele>
        <time>2020-01-23T10:58:00 0100</time>
      </trkpt>
      <trkpt lat="47.22593" lon="4.97121">
        <ele>285.41244506836</ele>
        <time>2020-01-23T10:58:04 0100</time>
      </trkpt>
      <trkpt lat="47.22593" lon="4.97121">
        <ele>285.41979980469</ele>
        <time>2020-01-23T10:58:08 0100</time>
      </trkpt>
      <trkpt lat="47.22593" lon="4.97121">
        <ele>285.41879272461</ele>
        <time>2020-01-23T10:58:12 0100</time>
      </trkpt>
      <trkpt lat="47.22592" lon="4.97121">
        <ele>285.40643310547</ele>
        <time>2020-01-23T10:58:16 0100</time>
      </trkpt>
      <trkpt lat="47.22592" lon="4.97121">
        <ele>285.37673950195</ele>
        <time>2020-01-23T10:58:20 0100</time>
      </trkpt>
      <trkpt lat="47.22592" lon="4.97121">
        <ele>285.33828735352</ele>
        <time>2020-01-23T10:58:24 0100</time>
      </trkpt>
      <trkpt lat="47.22592" lon="4.97122">
        <ele>285.29867553711</ele>
        <time>2020-01-23T10:58:28 0100</time>
      </trkpt>
      <trkpt lat="47.22592" lon="4.97122">
        <ele>285.25350952148</ele>
        <time>2020-01-23T10:58:32 0100</time>
      </trkpt>
      <trkpt lat="47.22592" lon="4.97122">
        <ele>285.20526123047</ele>
        <time>2020-01-23T10:58:36 0100</time>
      </trkpt>
      <trkpt lat="47.22592" lon="4.97124">
        <ele>285.04641723633</ele>
        <time>2020-01-23T10:58:40 0100</time>
      </trkpt>
      <trkpt lat="47.22592" lon="4.97125">
        <ele>284.89312744141</ele>
        <time>2020-01-23T10:58:44 0100</time>
      </trkpt>
      <trkpt lat="47.22592" lon="4.97125">
        <ele>284.84786987305</ele>
        <time>2020-01-23T10:58:48 0100</time>
      </trkpt>
      <trkpt lat="47.22591" lon="4.97125">
        <ele>284.80279541016</ele>
        <time>2020-01-23T10:58:52 0100</time>
      </trkpt>
      <trkpt lat="47.22591" lon="4.97125">
        <ele>284.75881958008</ele>
        <time>2020-01-23T10:58:56 0100</time>
      </trkpt>
      <trkpt lat="47.22591" lon="4.97125">
        <ele>284.71676635742</ele>
        <time>2020-01-23T10:59:00 0100</time>
      </trkpt>
      <trkpt lat="47.22591" lon="4.97126">
        <ele>284.68014526367</ele>
        <time>2020-01-23T10:59:04 0100</time>
      </trkpt>
      <trkpt lat="47.22591" lon="4.97125">
        <ele>284.64501953125</ele>
        <time>2020-01-23T10:59:08 0100</time>
      </trkpt>
      <trkpt lat="47.22591" lon="4.97125">
        <ele>284.61428833008</ele>
        <time>2020-01-23T10:59:12 0100</time>
      </trkpt>
      <trkpt lat="47.22591" lon="4.97125">
        <ele>284.57736206055</ele>
        <time>2020-01-23T10:59:16 0100</time>
      </trkpt>
      <trkpt lat="47.22591" lon="4.97125">
        <ele>284.53598022461</ele>
        <time>2020-01-23T10:59:20 0100</time>
      </trkpt>
      <trkpt lat="47.22591" lon="4.97125">
        <ele>284.49505615234</ele>
        <time>2020-01-23T10:59:24 0100</time>
      </trkpt>
      <trkpt lat="47.22591" lon="4.97125">
        <ele>284.45278930664</ele>
        <time>2020-01-23T10:59:28 0100</time>
      </trkpt>
      <trkpt lat="47.22591" lon="4.97125">
        <ele>284.12411499023</ele>
        <time>2020-01-23T10:59:32 0100</time>
      </trkpt>
      <trkpt lat="47.2259" lon="4.97126">
        <ele>283.99295043945</ele>
        <time>2020-01-23T10:59:36 0100</time>
      </trkpt>
      <trkpt lat="47.22591" lon="4.97129">
        <ele>283.62353515625</ele>
        <time>2020-01-23T10:59:40 0100</time>
      </trkpt>
      <trkpt lat="47.22592" lon="4.97132">
        <ele>283.27853393555</ele>
        <time>2020-01-23T10:59:44 0100</time>
      </trkpt>
      <trkpt lat="47.22594" lon="4.97136">
        <ele>283.00143432617</ele>
        <time>2020-01-23T10:59:48 0100</time>
      </trkpt>
      <trkpt lat="47.22597" lon="4.97139">
        <ele>282.76327514648</ele>
        <time>2020-01-23T10:59:52 0100</time>
      </trkpt>
      <trkpt lat="47.22598" lon="4.9714">
        <ele>282.59939575195</ele>
        <time>2020-01-23T10:59:56 0100</time>
      </trkpt>
      <trkpt lat="47.22603" lon="4.97145">
        <ele>282.41665649414</ele>
        <time>2020-01-23T11:00:00 0100</time>
      </trkpt>
      <trkpt lat="47.22606" lon="4.97149">
        <ele>282.2815246582</ele>
        <time>2020-01-23T11:00:04 0100</time>
      </trkpt>
      <trkpt lat="47.22609" lon="4.97152">
        <ele>282.12515258789</ele>
        <time>2020-01-23T11:00:08 0100</time>
      </trkpt>
      <trkpt lat="47.2261" lon="4.97153">
        <ele>282.01461791992</ele>
        <time>2020-01-23T11:00:12 0100</time>
      </trkpt>
      <trkpt lat="47.2261" lon="4.97153">
        <ele>281.99533081055</ele>
        <time>2020-01-23T11:00:16 0100</time>
      </trkpt>
      <trkpt lat="47.2261" lon="4.97153">
        <ele>281.97601318359</ele>
        <time>2020-01-23T11:00:20 0100</time>
      </trkpt>
      <trkpt lat="47.22612" lon="4.97155">
        <ele>281.82656860352</ele>
        <time>2020-01-23T11:00:24 0100</time>
      </trkpt>
      <trkpt lat="47.22614" lon="4.97157">
        <ele>281.63955688477</ele>
        <time>2020-01-23T11:00:28 0100</time>
      </trkpt>
      <trkpt lat="47.22616" lon="4.9716">
        <ele>281.46487426758</ele>
        <time>2020-01-23T11:00:32 0100</time>
      </trkpt>
      <trkpt lat="47.22618" lon="4.97162">
        <ele>281.14468383789</ele>
        <time>2020-01-23T11:00:36 0100</time>
      </trkpt>
      <trkpt lat="47.2262" lon="4.97165">
        <ele>280.92013549805</ele>
        <time>2020-01-23T11:00:40 0100</time>
      </trkpt>
      <trkpt lat="47.22621" lon="4.9717">
        <ele>280.64575195312</ele>
        <time>2020-01-23T11:00:44 0100</time>
      </trkpt>
      <trkpt lat="47.22622" lon="4.9717">
        <ele>280.42120361328</ele>
        <time>2020-01-23T11:00:48 0100</time>
      </trkpt>
      <trkpt lat="47.22622" lon="4.9717">
        <ele>280.39944458008</ele>
        <time>2020-01-23T11:00:52 0100</time>
      </trkpt>
      <trkpt lat="47.22623" lon="4.97171">
        <ele>280.20645141602</ele>
        <time>2020-01-23T11:00:56 0100</time>
      </trkpt>
      <trkpt lat="47.22624" lon="4.97172">
        <ele>280.0973815918</ele>
        <time>2020-01-23T11:01:00 0100</time>
      </trkpt>
      <trkpt lat="47.22624" lon="4.97172">
        <ele>280.02728271484</ele>
        <time>2020-01-23T11:01:04 0100</time>
      </trkpt>
      <trkpt lat="47.22624" lon="4.97173">
        <ele>279.99981689453</ele>
        <time>2020-01-23T11:01:08 0100</time>
      </trkpt>
      <trkpt lat="47.22625" lon="4.97176">
        <ele>279.94271850586</ele>
        <time>2020-01-23T11:01:12 0100</time>
      </trkpt>
      <trkpt lat="47.22625" lon="4.97178">
        <ele>279.93237304688</ele>
        <time>2020-01-23T11:01:16 0100</time>
      </trkpt>
      <trkpt lat="47.22625" lon="4.97178">
        <ele>279.93475341797</ele>
        <time>2020-01-23T11:01:20 0100</time>
      </trkpt>
      <trkpt lat="47.22626" lon="4.9718">
        <ele>279.96011352539</ele>
        <time>2020-01-23T11:01:24 0100</time>
      </trkpt>
      <trkpt lat="47.22628" lon="4.97185">
        <ele>279.99774169922</ele>
        <time>2020-01-23T11:01:28 0100</time>
      </trkpt>
      <trkpt lat="47.22629" lon="4.97187">
        <ele>280.01327514648</ele>
        <time>2020-01-23T11:01:32 0100</time>
      </trkpt>
      <trkpt lat="47.2263" lon="4.97188">
        <ele>280.01522827148</ele>
        <time>2020-01-23T11:01:36 0100</time>
      </trkpt>
      <trkpt lat="47.22631" lon="4.9719">
        <ele>279.98950195312</ele>
        <time>2020-01-23T11:01:40 0100</time>
      </trkpt>
      <trkpt lat="47.22634" lon="4.97195">
        <ele>279.94961547852</ele>
        <time>2020-01-23T11:01:44 0100</time>
      </trkpt>
      <trkpt lat="47.22636" lon="4.97199">
        <ele>279.89312744141</ele>
        <time>2020-01-23T11:01:48 0100</time>
      </trkpt>
      <trkpt lat="47.22637" lon="4.972">
        <ele>279.88494873047</ele>
        <time>2020-01-23T11:01:52 0100</time>
      </trkpt>
      <trkpt lat="47.2264" lon="4.97207">
        <ele>279.86471557617</ele>
        <time>2020-01-23T11:01:56 0100</time>
      </trkpt>
      <trkpt lat="47.22642" lon="4.97209">
        <ele>279.86004638672</ele>
        <time>2020-01-23T11:02:00 0100</time>
      </trkpt>
      <trkpt lat="47.22642" lon="4.97209">
        <ele>279.85580444336</ele>
        <time>2020-01-23T11:02:04 0100</time>
      </trkpt>
      <trkpt lat="47.22643" lon="4.9721">
        <ele>279.85595703125</ele>
        <time>2020-01-23T11:02:08 0100</time>
      </trkpt>
      <trkpt lat="47.22644" lon="4.9721">
        <ele>279.85949707031</ele>
        <time>2020-01-23T11:02:12 0100</time>
      </trkpt>
      <trkpt lat="47.22644" lon="4.97209">
        <ele>279.86596679688</ele>
        <time>2020-01-23T11:02:16 0100</time>
      </trkpt>
      <trkpt lat="47.22645" lon="4.97208">
        <ele>279.96423339844</ele>
        <time>2020-01-23T11:02:20 0100</time>
      </trkpt>
      <trkpt lat="47.22645" lon="4.97209">
        <ele>279.99761962891</ele>
        <time>2020-01-23T11:02:24 0100</time>
      </trkpt>
      <trkpt lat="47.22645" lon="4.9721">
        <ele>280.01803588867</ele>
        <time>2020-01-23T11:02:28 0100</time>
      </trkpt>
      <trkpt lat="47.22645" lon="4.9721">
        <ele>280.04498291016</ele>
        <time>2020-01-23T11:02:32 0100</time>
      </trkpt>
      <trkpt lat="47.22645" lon="4.9721">
        <ele>280.07104492188</ele>
        <time>2020-01-23T11:02:36 0100</time>
      </trkpt>
      <trkpt lat="47.22645" lon="4.9721">
        <ele>280.10125732422</ele>
        <time>2020-01-23T11:02:40 0100</time>
      </trkpt>
      <trkpt lat="47.22645" lon="4.9721">
        <ele>280.21493530273</ele>
        <time>2020-01-23T11:02:44 0100</time>
      </trkpt>
      <trkpt lat="47.22645" lon="4.9721">
        <ele>280.24908447266</ele>
        <time>2020-01-23T11:02:48 0100</time>
      </trkpt>
      <trkpt lat="47.22645" lon="4.9721">
        <ele>280.28228759766</ele>
        <time>2020-01-23T11:02:52 0100</time>
      </trkpt>
      <trkpt lat="47.22645" lon="4.97209">
        <ele>280.30795288086</ele>
        <time>2020-01-23T11:02:56 0100</time>
      </trkpt>
      <trkpt lat="47.22645" lon="4.97209">
        <ele>280.31204223633</ele>
        <time>2020-01-23T11:03:00 0100</time>
      </trkpt>
      <trkpt lat="47.22645" lon="4.97209">
        <ele>280.30905151367</ele>
        <time>2020-01-23T11:03:04 0100</time>
      </trkpt>
      <trkpt lat="47.22645" lon="4.97208">
        <ele>280.31356811523</ele>
        <time>2020-01-23T11:03:08 0100</time>
      </trkpt>
      <trkpt lat="47.22644" lon="4.97205">
        <ele>280.32424926758</ele>
        <time>2020-01-23T11:03:12 0100</time>
      </trkpt>
      <trkpt lat="47.22644" lon="4.97204">
        <ele>280.33569335938</ele>
        <time>2020-01-23T11:03:16 0100</time>
      </trkpt>
      <trkpt lat="47.22643" lon="4.97202">
        <ele>280.37606811523</ele>
        <time>2020-01-23T11:03:20 0100</time>
      </trkpt>
      <trkpt lat="47.22642" lon="4.972">
        <ele>280.41793823242</ele>
        <time>2020-01-23T11:03:24 0100</time>
      </trkpt>
      <trkpt lat="47.22642" lon="4.972">
        <ele>280.43008422852</ele>
        <time>2020-01-23T11:03:28 0100</time>
      </trkpt>
      <trkpt lat="47.22642" lon="4.972">
        <ele>280.44268798828</ele>
        <time>2020-01-23T11:03:32 0100</time>
      </trkpt>
      <trkpt lat="47.22642" lon="4.972">
        <ele>280.45962524414</ele>
        <time>2020-01-23T11:03:36 0100</time>
      </trkpt>
      <trkpt lat="47.22642" lon="4.972">
        <ele>280.48141479492</ele>
        <time>2020-01-23T11:03:40 0100</time>
      </trkpt>
      <trkpt lat="47.22642" lon="4.972">
        <ele>280.5087890625</ele>
        <time>2020-01-23T11:03:44 0100</time>
      </trkpt>
      <trkpt lat="47.22642" lon="4.97199">
        <ele>280.53854370117</ele>
        <time>2020-01-23T11:03:48 0100</time>
      </trkpt>
      <trkpt lat="47.22642" lon="4.97199">
        <ele>280.56634521484</ele>
        <time>2020-01-23T11:03:52 0100</time>
      </trkpt>
      <trkpt lat="47.22642" lon="4.972">
        <ele>280.59732055664</ele>
        <time>2020-01-23T11:03:56 0100</time>
      </trkpt>
      <trkpt lat="47.22642" lon="4.972">
        <ele>280.63049316406</ele>
        <time>2020-01-23T11:04:00 0100</time>
      </trkpt>
      <trkpt lat="47.22642" lon="4.97199">
        <ele>280.66177368164</ele>
        <time>2020-01-23T11:04:04 0100</time>
      </trkpt>
      <trkpt lat="47.22642" lon="4.97197">
        <ele>280.76525878906</ele>
        <time>2020-01-23T11:04:08 0100</time>
      </trkpt>
      <trkpt lat="47.22642" lon="4.97197">
        <ele>280.79473876953</ele>
        <time>2020-01-23T11:04:12 0100</time>
      </trkpt>
      <trkpt lat="47.22642" lon="4.97196">
        <ele>280.93957519531</ele>
        <time>2020-01-23T11:04:16 0100</time>
      </trkpt>
      <trkpt lat="47.22642" lon="4.97196">
        <ele>280.95956420898</ele>
        <time>2020-01-23T11:04:20 0100</time>
      </trkpt>
      <trkpt lat="47.22642" lon="4.97196">
        <ele>280.96356201172</ele>
        <time>2020-01-23T11:04:24 0100</time>
      </trkpt>
      <trkpt lat="47.22644" lon="4.97198">
        <ele>280.96350097656</ele>
        <time>2020-01-23T11:04:28 0100</time>
      </trkpt>
      <trkpt lat="47.22645" lon="4.972">
        <ele>281.01177978516</ele>
        <time>2020-01-23T11:04:32 0100</time>
      </trkpt>
      <trkpt lat="47.22645" lon="4.97202">
        <ele>281.04086303711</ele>
        <time>2020-01-23T11:04:36 0100</time>
      </trkpt>
      <trkpt lat="47.22646" lon="4.97205">
        <ele>281.05548095703</ele>
        <time>2020-01-23T11:04:40 0100</time>
      </trkpt>
      <trkpt lat="47.22647" lon="4.97208">
        <ele>281.03448486328</ele>
        <time>2020-01-23T11:04:44 0100</time>
      </trkpt>
      <trkpt lat="47.22647" lon="4.9721">
        <ele>280.95788574219</ele>
        <time>2020-01-23T11:04:48 0100</time>
      </trkpt>
      <trkpt lat="47.22647" lon="4.97213">
        <ele>280.88827514648</ele>
        <time>2020-01-23T11:04:52 0100</time>
      </trkpt>
      <trkpt lat="47.22647" lon="4.97217">
        <ele>280.83813476562</ele>
        <time>2020-01-23T11:04:56 0100</time>
      </trkpt>
      <trkpt lat="47.22646" lon="4.9722">
        <ele>280.77252197266</ele>
        <time>2020-01-23T11:05:00 0100</time>
      </trkpt>
      <trkpt lat="47.22646" lon="4.97225">
        <ele>280.74282836914</ele>
        <time>2020-01-23T11:05:04 0100</time>
      </trkpt>
      <trkpt lat="47.22646" lon="4.97228">
        <ele>280.73614501953</ele>
        <time>2020-01-23T11:05:08 0100</time>
      </trkpt>
      <trkpt lat="47.22647" lon="4.9723">
        <ele>280.64239501953</ele>
        <time>2020-01-23T11:05:12 0100</time>
      </trkpt>
      <trkpt lat="47.22647" lon="4.97235">
        <ele>280.53637695312</ele>
        <time>2020-01-23T11:05:16 0100</time>
      </trkpt>
      <trkpt lat="47.22648" lon="4.97239">
        <ele>280.46411132812</ele>
        <time>2020-01-23T11:05:20 0100</time>
      </trkpt>
      <trkpt lat="47.22649" lon="4.97242">
        <ele>280.35879516602</ele>
        <time>2020-01-23T11:05:24 0100</time>
      </trkpt>
      <trkpt lat="47.2265" lon="4.97245">
        <ele>280.28042602539</ele>
        <time>2020-01-23T11:05:28 0100</time>
      </trkpt>
      <trkpt lat="47.2265" lon="4.97248">
        <ele>280.23382568359</ele>
        <time>2020-01-23T11:05:32 0100</time>
      </trkpt>
      <trkpt lat="47.22651" lon="4.9725">
        <ele>280.19400024414</ele>
        <time>2020-01-23T11:05:36 0100</time>
      </trkpt>
      <trkpt lat="47.22651" lon="4.97251">
        <ele>280.19274902344</ele>
        <time>2020-01-23T11:05:40 0100</time>
      </trkpt>
      <trkpt lat="47.22651" lon="4.97251">
        <ele>280.19717407227</ele>
        <time>2020-01-23T11:05:44 0100</time>
      </trkpt>
      <trkpt lat="47.22652" lon="4.97253">
        <ele>280.25430297852</ele>
        <time>2020-01-23T11:05:48 0100</time>
      </trkpt>
      <trkpt lat="47.22653" lon="4.97259">
        <ele>280.32315063477</ele>
        <time>2020-01-23T11:05:52 0100</time>
      </trkpt>
      <trkpt lat="47.22655" lon="4.97265">
        <ele>280.37243652344</ele>
        <time>2020-01-23T11:05:56 0100</time>
      </trkpt>
      <trkpt lat="47.22657" lon="4.97269">
        <ele>280.48809814453</ele>
        <time>2020-01-23T11:06:00 0100</time>
      </trkpt>
      <trkpt lat="47.22658" lon="4.97272">
        <ele>280.61846923828</ele>
        <time>2020-01-23T11:06:04 0100</time>
      </trkpt>
      <trkpt lat="47.22661" lon="4.97277">
        <ele>280.74227905273</ele>
        <time>2020-01-23T11:06:08 0100</time>
      </trkpt>
      <trkpt lat="47.22664" lon="4.97283">
        <ele>280.86291503906</ele>
        <time>2020-01-23T11:06:12 0100</time>
      </trkpt>
      <trkpt lat="47.22667" lon="4.9729">
        <ele>280.9697265625</ele>
        <time>2020-01-23T11:06:16 0100</time>
      </trkpt>
      <trkpt lat="47.2267" lon="4.97295">
        <ele>281.0654296875</ele>
        <time>2020-01-23T11:06:20 0100</time>
      </trkpt>
      <trkpt lat="47.22673" lon="4.973">
        <ele>281.15658569336</ele>
        <time>2020-01-23T11:06:24 0100</time>
      </trkpt>
      <trkpt lat="47.22675" lon="4.97302">
        <ele>281.2607421875</ele>
        <time>2020-01-23T11:06:28 0100</time>
      </trkpt>
      <trkpt lat="47.22678" lon="4.97307">
        <ele>281.34701538086</ele>
        <time>2020-01-23T11:06:32 0100</time>
      </trkpt>
      <trkpt lat="47.22682" lon="4.97312">
        <ele>281.39584350586</ele>
        <time>2020-01-23T11:06:36 0100</time>
      </trkpt>
      <trkpt lat="47.22685" lon="4.97317">
        <ele>281.44583129883</ele>
        <time>2020-01-23T11:06:40 0100</time>
      </trkpt>
      <trkpt lat="47.22689" lon="4.9732">
        <ele>281.48126220703</ele>
        <time>2020-01-23T11:06:44 0100</time>
      </trkpt>
      <trkpt lat="47.22692" lon="4.97321">
        <ele>281.44512939453</ele>
        <time>2020-01-23T11:06:48 0100</time>
      </trkpt>
      <trkpt lat="47.22695" lon="4.97325">
        <ele>281.34255981445</ele>
        <time>2020-01-23T11:06:52 0100</time>
      </trkpt>
      <trkpt lat="47.22697" lon="4.97326">
        <ele>281.11001586914</ele>
        <time>2020-01-23T11:06:56 0100</time>
      </trkpt>
      <trkpt lat="47.22701" lon="4.97328">
        <ele>280.85403442383</ele>
        <time>2020-01-23T11:07:00 0100</time>
      </trkpt>
      <trkpt lat="47.22705" lon="4.9733">
        <ele>280.60452270508</ele>
        <time>2020-01-23T11:07:04 0100</time>
      </trkpt>
      <trkpt lat="47.22708" lon="4.97333">
        <ele>280.35720825195</ele>
        <time>2020-01-23T11:07:08 0100</time>
      </trkpt>
      <trkpt lat="47.22711" lon="4.97335">
        <ele>280.14587402344</ele>
        <time>2020-01-23T11:07:12 0100</time>
      </trkpt>
      <trkpt lat="47.22712" lon="4.97334">
        <ele>280.06701660156</ele>
        <time>2020-01-23T11:07:16 0100</time>
      </trkpt>
      <trkpt lat="47.22712" lon="4.97335">
        <ele>280.03149414062</ele>
        <time>2020-01-23T11:07:20 0100</time>
      </trkpt>
      <trkpt lat="47.22712" lon="4.97334">
        <ele>280.01327514648</ele>
        <time>2020-01-23T11:07:24 0100</time>
      </trkpt>
      <trkpt lat="47.22712" lon="4.97334">
        <ele>279.99560546875</ele>
        <time>2020-01-23T11:07:28 0100</time>
      </trkpt>
      <trkpt lat="47.22713" lon="4.97337">
        <ele>279.9743347168</ele>
        <time>2020-01-23T11:07:32 0100</time>
      </trkpt>
      <trkpt lat="47.22714" lon="4.97338">
        <ele>279.94232177734</ele>
        <time>2020-01-23T11:07:36 0100</time>
      </trkpt>
      <trkpt lat="47.22715" lon="4.97343">
        <ele>279.60900878906</ele>
        <time>2020-01-23T11:07:40 0100</time>
      </trkpt>
      <trkpt lat="47.22717" lon="4.97347">
        <ele>279.36599731445</ele>
        <time>2020-01-23T11:07:44 0100</time>
      </trkpt>
      <trkpt lat="47.22716" lon="4.97347">
        <ele>279.3430480957</ele>
        <time>2020-01-23T11:07:48 0100</time>
      </trkpt>
      <trkpt lat="47.22716" lon="4.97347">
        <ele>279.32339477539</ele>
        <time>2020-01-23T11:07:52 0100</time>
      </trkpt>
      <trkpt lat="47.22716" lon="4.97347">
        <ele>279.30014038086</ele>
        <time>2020-01-23T11:07:56 0100</time>
      </trkpt>
      <trkpt lat="47.22716" lon="4.97347">
        <ele>279.27270507812</ele>
        <time>2020-01-23T11:08:00 0100</time>
      </trkpt>
      <trkpt lat="47.22716" lon="4.97347">
        <ele>279.24105834961</ele>
        <time>2020-01-23T11:08:04 0100</time>
      </trkpt>
      <trkpt lat="47.22717" lon="4.97348">
        <ele>279.05807495117</ele>
        <time>2020-01-23T11:08:08 0100</time>
      </trkpt>
      <trkpt lat="47.22717" lon="4.97348">
        <ele>279.02484130859</ele>
        <time>2020-01-23T11:08:12 0100</time>
      </trkpt>
      <trkpt lat="47.22717" lon="4.97348">
        <ele>278.99130249023</ele>
        <time>2020-01-23T11:08:16 0100</time>
      </trkpt>
      <trkpt lat="47.22717" lon="4.97348">
        <ele>278.95642089844</ele>
        <time>2020-01-23T11:08:20 0100</time>
      </trkpt>
      <trkpt lat="47.22719" lon="4.9735">
        <ele>278.66339111328</ele>
        <time>2020-01-23T11:08:24 0100</time>
      </trkpt>
      <trkpt lat="47.22722" lon="4.97354">
        <ele>278.44219970703</ele>
        <time>2020-01-23T11:08:28 0100</time>
      </trkpt>
      <trkpt lat="47.22723" lon="4.97356">
        <ele>278.32739257812</ele>
        <time>2020-01-23T11:08:32 0100</time>
      </trkpt>
      <trkpt lat="47.22724" lon="4.97357">
        <ele>278.3180847168</ele>
        <time>2020-01-23T11:08:36 0100</time>
      </trkpt>
      <trkpt lat="47.22724" lon="4.97357">
        <ele>278.31774902344</ele>
        <time>2020-01-23T11:08:40 0100</time>
      </trkpt>
      <trkpt lat="47.22723" lon="4.97356">
        <ele>278.32736206055</ele>
        <time>2020-01-23T11:08:44 0100</time>
      </trkpt>
      <trkpt lat="47.22724" lon="4.97357">
        <ele>278.36465454102</ele>
        <time>2020-01-23T11:08:48 0100</time>
      </trkpt>
      <trkpt lat="47.22724" lon="4.97357">
        <ele>278.40298461914</ele>
        <time>2020-01-23T11:08:52 0100</time>
      </trkpt>
      <trkpt lat="47.22724" lon="4.97357">
        <ele>278.40911865234</ele>
        <time>2020-01-23T11:08:56 0100</time>
      </trkpt>
      <trkpt lat="47.22724" lon="4.9736">
        <ele>278.43444824219</ele>
        <time>2020-01-23T11:09:00 0100</time>
      </trkpt>
      <trkpt lat="47.22725" lon="4.97365">
        <ele>278.41284179688</ele>
        <time>2020-01-23T11:09:05 0100</time>
      </trkpt>
      <trkpt lat="47.22726" lon="4.97372">
        <ele>278.36975097656</ele>
        <time>2020-01-23T11:09:09 0100</time>
      </trkpt>
      <trkpt lat="47.22726" lon="4.97375">
        <ele>278.32009887695</ele>
        <time>2020-01-23T11:09:13 0100</time>
      </trkpt>
      <trkpt lat="47.22726" lon="4.9738">
        <ele>278.30651855469</ele>
        <time>2020-01-23T11:09:17 0100</time>
      </trkpt>
      <trkpt lat="47.22726" lon="4.97386">
        <ele>278.32312011719</ele>
        <time>2020-01-23T11:09:21 0100</time>
      </trkpt>
      <trkpt lat="47.22725" lon="4.97391">
        <ele>278.4010925293</ele>
        <time>2020-01-23T11:09:25 0100</time>
      </trkpt>
      <trkpt lat="47.22725" lon="4.974">
        <ele>278.5576171875</ele>
        <time>2020-01-23T11:09:29 0100</time>
      </trkpt>
      <trkpt lat="47.22725" lon="4.97407">
        <ele>278.75527954102</ele>
        <time>2020-01-23T11:09:33 0100</time>
      </trkpt>
      <trkpt lat="47.22725" lon="4.97413">
        <ele>278.9612121582</ele>
        <time>2020-01-23T11:09:37 0100</time>
      </trkpt>
      <trkpt lat="47.22725" lon="4.9742">
        <ele>279.20419311523</ele>
        <time>2020-01-23T11:09:41 0100</time>
      </trkpt>
      <trkpt lat="47.22725" lon="4.97425">
        <ele>279.4697265625</ele>
        <time>2020-01-23T11:09:45 0100</time>
      </trkpt>
      <trkpt lat="47.22725" lon="4.97431">
        <ele>279.79733276367</ele>
        <time>2020-01-23T11:09:49 0100</time>
      </trkpt>
      <trkpt lat="47.22726" lon="4.97439">
        <ele>280.14541625977</ele>
        <time>2020-01-23T11:09:53 0100</time>
      </trkpt>
      <trkpt lat="47.22725" lon="4.97445">
        <ele>280.42193603516</ele>
        <time>2020-01-23T11:09:57 0100</time>
      </trkpt>
      <trkpt lat="47.22725" lon="4.97453">
        <ele>280.67132568359</ele>
        <time>2020-01-23T11:10:01 0100</time>
      </trkpt>
      <trkpt lat="47.22725" lon="4.97459">
        <ele>280.90539550781</ele>
        <time>2020-01-23T11:10:05 0100</time>
      </trkpt>
      <trkpt lat="47.22726" lon="4.97465">
        <ele>281.14639282227</ele>
        <time>2020-01-23T11:10:09 0100</time>
      </trkpt>
      <trkpt lat="47.22726" lon="4.97471">
        <ele>281.3352355957</ele>
        <time>2020-01-23T11:10:13 0100</time>
      </trkpt>
      <trkpt lat="47.22729" lon="4.97477">
        <ele>281.57901000977</ele>
        <time>2020-01-23T11:10:17 0100</time>
      </trkpt>
      <trkpt lat="47.22732" lon="4.97484">
        <ele>281.869140625</ele>
        <time>2020-01-23T11:10:21 0100</time>
      </trkpt>
      <trkpt lat="47.22732" lon="4.9749">
        <ele>282.17367553711</ele>
        <time>2020-01-23T11:10:25 0100</time>
      </trkpt>
      <trkpt lat="47.22732" lon="4.97497">
        <ele>282.33871459961</ele>
        <time>2020-01-23T11:10:29 0100</time>
      </trkpt>
      <trkpt lat="47.22732" lon="4.97505">
        <ele>282.29916381836</ele>
        <time>2020-01-23T11:10:33 0100</time>
      </trkpt>
      <trkpt lat="47.22733" lon="4.97512">
        <ele>282.11224365234</ele>
        <time>2020-01-23T11:10:37 0100</time>
      </trkpt>
      <trkpt lat="47.22734" lon="4.97518">
        <ele>281.87313842773</ele>
        <time>2020-01-23T11:10:41 0100</time>
      </trkpt>
      <trkpt lat="47.22736" lon="4.97525">
        <ele>281.56408691406</ele>
        <time>2020-01-23T11:10:45 0100</time>
      </trkpt>
      <trkpt lat="47.22737" lon="4.97532">
        <ele>281.20831298828</ele>
        <time>2020-01-23T11:10:49 0100</time>
      </trkpt>
      <trkpt lat="47.2274" lon="4.97538">
        <ele>281.01681518555</ele>
        <time>2020-01-23T11:10:53 0100</time>
      </trkpt>
      <trkpt lat="47.2274" lon="4.9754">
        <ele>281.05508422852</ele>
        <time>2020-01-23T11:10:57 0100</time>
      </trkpt>
      <trkpt lat="47.22742" lon="4.97552">
        <ele>281.19448852539</ele>
        <time>2020-01-23T11:11:01 0100</time>
      </trkpt>
      <trkpt lat="47.22744" lon="4.9756">
        <ele>281.25570678711</ele>
        <time>2020-01-23T11:11:05 0100</time>
      </trkpt>
      <trkpt lat="47.22745" lon="4.97562">
        <ele>281.30712890625</ele>
        <time>2020-01-23T11:11:09 0100</time>
      </trkpt>
      <trkpt lat="47.22746" lon="4.97567">
        <ele>281.19360351562</ele>
        <time>2020-01-23T11:11:13 0100</time>
      </trkpt>
      <trkpt lat="47.22744" lon="4.97572">
        <ele>280.97702026367</ele>
        <time>2020-01-23T11:11:17 0100</time>
      </trkpt>
      <trkpt lat="47.22743" lon="4.97572">
        <ele>280.92251586914</ele>
        <time>2020-01-23T11:11:21 0100</time>
      </trkpt>
      <trkpt lat="47.22743" lon="4.97573">
        <ele>280.88909912109</ele>
        <time>2020-01-23T11:11:25 0100</time>
      </trkpt>
      <trkpt lat="47.22742" lon="4.97577">
        <ele>280.74185180664</ele>
        <time>2020-01-23T11:11:29 0100</time>
      </trkpt>
      <trkpt lat="47.22744" lon="4.97583">
        <ele>280.63394165039</ele>
        <time>2020-01-23T11:11:33 0100</time>
      </trkpt>
      <trkpt lat="47.22747" lon="4.97588">
        <ele>280.48989868164</ele>
        <time>2020-01-23T11:11:37 0100</time>
      </trkpt>
      <trkpt lat="47.22749" lon="4.9759">
        <ele>280.48068237305</ele>
        <time>2020-01-23T11:11:41 0100</time>
      </trkpt>
      <trkpt lat="47.22753" lon="4.97599">
        <ele>280.35717773438</ele>
        <time>2020-01-23T11:11:45 0100</time>
      </trkpt>
      <trkpt lat="47.22753" lon="4.97609">
        <ele>280.02996826172</ele>
        <time>2020-01-23T11:11:49 0100</time>
      </trkpt>
      <trkpt lat="47.22756" lon="4.97613">
        <ele>279.56649780273</ele>
        <time>2020-01-23T11:11:53 0100</time>
      </trkpt>
      <trkpt lat="47.22759" lon="4.97616">
        <ele>278.91540527344</ele>
        <time>2020-01-23T11:11:57 0100</time>
      </trkpt>
      <trkpt lat="47.22761" lon="4.97619">
        <ele>278.27868652344</ele>
        <time>2020-01-23T11:12:01 0100</time>
      </trkpt>
      <trkpt lat="47.22762" lon="4.97623">
        <ele>277.77429199219</ele>
        <time>2020-01-23T11:12:05 0100</time>
      </trkpt>
      <trkpt lat="47.22763" lon="4.97625">
        <ele>277.2546081543</ele>
        <time>2020-01-23T11:12:09 0100</time>
      </trkpt>
      <trkpt lat="47.22766" lon="4.97628">
        <ele>276.75723266602</ele>
        <time>2020-01-23T11:12:13 0100</time>
      </trkpt>
      <trkpt lat="47.22765" lon="4.97627">
        <ele>276.58126831055</ele>
        <time>2020-01-23T11:12:17 0100</time>
      </trkpt>
      <trkpt lat="47.22765" lon="4.97627">
        <ele>276.52233886719</ele>
        <time>2020-01-23T11:12:21 0100</time>
      </trkpt>
      <trkpt lat="47.22765" lon="4.97627">
        <ele>276.47100830078</ele>
        <time>2020-01-23T11:12:25 0100</time>
      </trkpt>
      <trkpt lat="47.22765" lon="4.97627">
        <ele>276.34927368164</ele>
        <time>2020-01-23T11:12:29 0100</time>
      </trkpt>
      <trkpt lat="47.22766" lon="4.97627">
        <ele>276.09521484375</ele>
        <time>2020-01-23T11:12:33 0100</time>
      </trkpt>
      <trkpt lat="47.22769" lon="4.97624">
        <ele>275.88259887695</ele>
        <time>2020-01-23T11:12:37 0100</time>
      </trkpt>
      <trkpt lat="47.22772" lon="4.97627">
        <ele>275.86352539062</ele>
        <time>2020-01-23T11:12:41 0100</time>
      </trkpt>
      <trkpt lat="47.22771" lon="4.97627">
        <ele>275.87237548828</ele>
        <time>2020-01-23T11:12:45 0100</time>
      </trkpt>
      <trkpt lat="47.22771" lon="4.97624">
        <ele>276.04730224609</ele>
        <time>2020-01-23T11:12:49 0100</time>
      </trkpt>
      <trkpt lat="47.22774" lon="4.97626">
        <ele>276.22915649414</ele>
        <time>2020-01-23T11:12:53 0100</time>
      </trkpt>
      <trkpt lat="47.22774" lon="4.97627">
        <ele>276.25967407227</ele>
        <time>2020-01-23T11:12:57 0100</time>
      </trkpt>
      <trkpt lat="47.22774" lon="4.97627">
        <ele>276.23675537109</ele>
        <time>2020-01-23T11:13:01 0100</time>
      </trkpt>
      <trkpt lat="47.22777" lon="4.97635">
        <ele>276.05758666992</ele>
        <time>2020-01-23T11:13:05 0100</time>
      </trkpt>
      <trkpt lat="47.22779" lon="4.97638">
        <ele>275.78524780273</ele>
        <time>2020-01-23T11:13:09 0100</time>
      </trkpt>
      <trkpt lat="47.22781" lon="4.97642">
        <ele>275.43463134766</ele>
        <time>2020-01-23T11:13:13 0100</time>
      </trkpt>
      <trkpt lat="47.22783" lon="4.97646">
        <ele>275.06088256836</ele>
        <time>2020-01-23T11:13:17 0100</time>
      </trkpt>
      <trkpt lat="47.22783" lon="4.97647">
        <ele>274.693359375</ele>
        <time>2020-01-23T11:13:21 0100</time>
      </trkpt>
      <trkpt lat="47.22784" lon="4.97649">
        <ele>274.19134521484</ele>
        <time>2020-01-23T11:13:25 0100</time>
      </trkpt>
      <trkpt lat="47.22784" lon="4.97651">
        <ele>273.71994018555</ele>
        <time>2020-01-23T11:13:29 0100</time>
      </trkpt>
      <trkpt lat="47.22785" lon="4.97652">
        <ele>273.68267822266</ele>
        <time>2020-01-23T11:13:33 0100</time>
      </trkpt>
      <trkpt lat="47.22785" lon="4.97652">
        <ele>273.65469360352</ele>
        <time>2020-01-23T11:13:37 0100</time>
      </trkpt>
      <trkpt lat="47.22787" lon="4.97652">
        <ele>273.50869750977</ele>
        <time>2020-01-23T11:13:41 0100</time>
      </trkpt>
      <trkpt lat="47.22789" lon="4.97655">
        <ele>273.48779296875</ele>
        <time>2020-01-23T11:13:45 0100</time>
      </trkpt>
      <trkpt lat="47.22789" lon="4.97655">
        <ele>273.46124267578</ele>
        <time>2020-01-23T11:13:49 0100</time>
      </trkpt>
      <trkpt lat="47.22791" lon="4.97657">
        <ele>273.1123046875</ele>
        <time>2020-01-23T11:13:53 0100</time>
      </trkpt>
      <trkpt lat="47.22792" lon="4.97657">
        <ele>272.84677124023</ele>
        <time>2020-01-23T11:13:57 0100</time>
      </trkpt>
      <trkpt lat="47.22791" lon="4.97653">
        <ele>272.82821655273</ele>
        <time>2020-01-23T11:14:01 0100</time>
      </trkpt>
      <trkpt lat="47.2279" lon="4.9765">
        <ele>273.11599731445</ele>
        <time>2020-01-23T11:14:05 0100</time>
      </trkpt>
      <trkpt lat="47.2279" lon="4.9765">
        <ele>273.15347290039</ele>
        <time>2020-01-23T11:14:09 0100</time>
      </trkpt>
      <trkpt lat="47.22791" lon="4.97651">
        <ele>273.1936340332</ele>
        <time>2020-01-23T11:14:13 0100</time>
      </trkpt>
      <trkpt lat="47.22795" lon="4.97659">
        <ele>273.25143432617</ele>
        <time>2020-01-23T11:14:17 0100</time>
      </trkpt>
      <trkpt lat="47.22797" lon="4.97662">
        <ele>273.28964233398</ele>
        <time>2020-01-23T11:14:21 0100</time>
      </trkpt>
      <trkpt lat="47.22798" lon="4.97663">
        <ele>273.3212890625</ele>
        <time>2020-01-23T11:14:25 0100</time>
      </trkpt>
      <trkpt lat="47.22799" lon="4.97665">
        <ele>273.34902954102</ele>
        <time>2020-01-23T11:14:29 0100</time>
      </trkpt>
      <trkpt lat="47.22799" lon="4.97668">
        <ele>273.38143920898</ele>
        <time>2020-01-23T11:14:33 0100</time>
      </trkpt>
      <trkpt lat="47.22801" lon="4.97672">
        <ele>273.39273071289</ele>
        <time>2020-01-23T11:14:37 0100</time>
      </trkpt>
      <trkpt lat="47.22802" lon="4.97675">
        <ele>273.39727783203</ele>
        <time>2020-01-23T11:14:41 0100</time>
      </trkpt>
      <trkpt lat="47.22802" lon="4.97675">
        <ele>273.38568115234</ele>
        <time>2020-01-23T11:14:45 0100</time>
      </trkpt>
      <trkpt lat="47.22803" lon="4.97676">
        <ele>273.34387207031</ele>
        <time>2020-01-23T11:14:49 0100</time>
      </trkpt>
      <trkpt lat="47.22803" lon="4.97676">
        <ele>273.30523681641</ele>
        <time>2020-01-23T11:14:53 0100</time>
      </trkpt>
      <trkpt lat="47.22804" lon="4.97678">
        <ele>273.27606201172</ele>
        <time>2020-01-23T11:14:57 0100</time>
      </trkpt>
      <trkpt lat="47.22805" lon="4.9768">
        <ele>273.11605834961</ele>
        <time>2020-01-23T11:15:01 0100</time>
      </trkpt>
      <trkpt lat="47.2281" lon="4.97681">
        <ele>272.90084838867</ele>
        <time>2020-01-23T11:15:05 0100</time>
      </trkpt>
      <trkpt lat="47.22811" lon="4.97681">
        <ele>272.77169799805</ele>
        <time>2020-01-23T11:15:09 0100</time>
      </trkpt>
      <trkpt lat="47.22812" lon="4.9768">
        <ele>272.66525268555</ele>
        <time>2020-01-23T11:15:13 0100</time>
      </trkpt>
      <trkpt lat="47.22814" lon="4.97678">
        <ele>272.58779907227</ele>
        <time>2020-01-23T11:15:17 0100</time>
      </trkpt>
      <trkpt lat="47.22813" lon="4.97673">
        <ele>272.52676391602</ele>
        <time>2020-01-23T11:15:21 0100</time>
      </trkpt>
      <trkpt lat="47.22812" lon="4.97672">
        <ele>272.48468017578</ele>
        <time>2020-01-23T11:15:25 0100</time>
      </trkpt>
      <trkpt lat="47.22808" lon="4.97669">
        <ele>272.31323242188</ele>
        <time>2020-01-23T11:15:29 0100</time>
      </trkpt>
      <trkpt lat="47.22808" lon="4.97669">
        <ele>272.177734375</ele>
        <time>2020-01-23T11:15:33 0100</time>
      </trkpt>
      <trkpt lat="47.22801" lon="4.97661">
        <ele>272.23977661133</ele>
        <time>2020-01-23T11:15:37 0100</time>
      </trkpt>
      <trkpt lat="47.228" lon="4.97662">
        <ele>272.24810791016</ele>
        <time>2020-01-23T11:15:41 0100</time>
      </trkpt>
      <trkpt lat="47.228" lon="4.97662">
        <ele>272.2287902832</ele>
        <time>2020-01-23T11:15:45 0100</time>
      </trkpt>
      <trkpt lat="47.228" lon="4.97663">
        <ele>272.20083618164</ele>
        <time>2020-01-23T11:15:49 0100</time>
      </trkpt>
      <trkpt lat="47.228" lon="4.97663">
        <ele>272.16787719727</ele>
        <time>2020-01-23T11:15:53 0100</time>
      </trkpt>
      <trkpt lat="47.228" lon="4.97664">
        <ele>272.13720703125</ele>
        <time>2020-01-23T11:15:57 0100</time>
      </trkpt>
      <trkpt lat="47.228" lon="4.97663">
        <ele>272.10815429688</ele>
        <time>2020-01-23T11:16:01 0100</time>
      </trkpt>
      <trkpt lat="47.22799" lon="4.97663">
        <ele>272.08557128906</ele>
        <time>2020-01-23T11:16:05 0100</time>
      </trkpt>
      <trkpt lat="47.22799" lon="4.97663">
        <ele>272.05880737305</ele>
        <time>2020-01-23T11:16:09 0100</time>
      </trkpt>
      <trkpt lat="47.22799" lon="4.97663">
        <ele>272.0241394043</ele>
        <time>2020-01-23T11:16:13 0100</time>
      </trkpt>
      <trkpt lat="47.228" lon="4.97664">
        <ele>272.00415039062</ele>
        <time>2020-01-23T11:16:17 0100</time>
      </trkpt>
      <trkpt lat="47.228" lon="4.97664">
        <ele>271.99737548828</ele>
        <time>2020-01-23T11:16:21 0100</time>
      </trkpt>
      <trkpt lat="47.228" lon="4.97665">
        <ele>271.9739074707</ele>
        <time>2020-01-23T11:16:25 0100</time>
      </trkpt>
      <trkpt lat="47.228" lon="4.97665">
        <ele>271.95129394531</ele>
        <time>2020-01-23T11:16:29 0100</time>
      </trkpt>
      <trkpt lat="47.228" lon="4.97665">
        <ele>271.94354248047</ele>
        <time>2020-01-23T11:16:33 0100</time>
      </trkpt>
      <trkpt lat="47.22799" lon="4.97665">
        <ele>271.95281982422</ele>
        <time>2020-01-23T11:16:37 0100</time>
      </trkpt>
      <trkpt lat="47.22799" lon="4.97665">
        <ele>271.96798706055</ele>
        <time>2020-01-23T11:16:41 0100</time>
      </trkpt>
      <trkpt lat="47.22799" lon="4.97665">
        <ele>271.98666381836</ele>
        <time>2020-01-23T11:16:45 0100</time>
      </trkpt>
      <trkpt lat="47.22799" lon="4.97665">
        <ele>272.00207519531</ele>
        <time>2020-01-23T11:16:49 0100</time>
      </trkpt>
      <trkpt lat="47.228" lon="4.97665">
        <ele>272.02209472656</ele>
        <time>2020-01-23T11:16:53 0100</time>
      </trkpt>
      <trkpt lat="47.228" lon="4.97665">
        <ele>272.04803466797</ele>
        <time>2020-01-23T11:16:57 0100</time>
      </trkpt>
      <trkpt lat="47.22801" lon="4.97666">
        <ele>272.06704711914</ele>
        <time>2020-01-23T11:17:01 0100</time>
      </trkpt>
      <trkpt lat="47.22801" lon="4.97667">
        <ele>272.08380126953</ele>
        <time>2020-01-23T11:17:05 0100</time>
      </trkpt>
      <trkpt lat="47.22802" lon="4.97667">
        <ele>272.0881652832</ele>
        <time>2020-01-23T11:17:09 0100</time>
      </trkpt>
      <trkpt lat="47.22802" lon="4.97667">
        <ele>272.08026123047</ele>
        <time>2020-01-23T11:17:13 0100</time>
      </trkpt>
      <trkpt lat="47.22801" lon="4.97667">
        <ele>272.06402587891</ele>
        <time>2020-01-23T11:17:17 0100</time>
      </trkpt>
      <trkpt lat="47.22798" lon="4.97662">
        <ele>271.95065307617</ele>
        <time>2020-01-23T11:17:21 0100</time>
      </trkpt>
      <trkpt lat="47.22798" lon="4.97662">
        <ele>271.9313659668</ele>
        <time>2020-01-23T11:17:25 0100</time>
      </trkpt>
      <trkpt lat="47.22798" lon="4.97662">
        <ele>271.9157409668</ele>
        <time>2020-01-23T11:17:29 0100</time>
      </trkpt>
      <trkpt lat="47.22798" lon="4.97662">
        <ele>271.90310668945</ele>
        <time>2020-01-23T11:17:33 0100</time>
      </trkpt>
      <trkpt lat="47.22798" lon="4.97662">
        <ele>271.86730957031</ele>
        <time>2020-01-23T11:17:37 0100</time>
      </trkpt>
      <trkpt lat="47.22798" lon="4.97663">
        <ele>271.83477783203</ele>
        <time>2020-01-23T11:17:41 0100</time>
      </trkpt>
      <trkpt lat="47.22799" lon="4.97662">
        <ele>271.83267211914</ele>
        <time>2020-01-23T11:17:45 0100</time>
      </trkpt>
      <trkpt lat="47.22799" lon="4.97662">
        <ele>271.86245727539</ele>
        <time>2020-01-23T11:17:49 0100</time>
      </trkpt>
      <trkpt lat="47.22802" lon="4.97666">
        <ele>271.97839355469</ele>
        <time>2020-01-23T11:17:53 0100</time>
      </trkpt>
      <trkpt lat="47.22801" lon="4.97668">
        <ele>271.99005126953</ele>
        <time>2020-01-23T11:17:57 0100</time>
      </trkpt>
      <trkpt lat="47.22801" lon="4.97668">
        <ele>271.97216796875</ele>
        <time>2020-01-23T11:18:01 0100</time>
      </trkpt>
      <trkpt lat="47.22801" lon="4.97668">
        <ele>271.95498657227</ele>
        <time>2020-01-23T11:18:05 0100</time>
      </trkpt>
      <trkpt lat="47.22801" lon="4.97669">
        <ele>271.94589233398</ele>
        <time>2020-01-23T11:18:09 0100</time>
      </trkpt>
      <trkpt lat="47.22801" lon="4.97669">
        <ele>271.92590332031</ele>
        <time>2020-01-23T11:18:13 0100</time>
      </trkpt>
      <trkpt lat="47.22801" lon="4.9767">
        <ele>271.90237426758</ele>
        <time>2020-01-23T11:18:17 0100</time>
      </trkpt>
      <trkpt lat="47.22801" lon="4.9767">
        <ele>271.87356567383</ele>
        <time>2020-01-23T11:18:21 0100</time>
      </trkpt>
      <trkpt lat="47.22801" lon="4.9767">
        <ele>271.84262084961</ele>
        <time>2020-01-23T11:18:25 0100</time>
      </trkpt>
      <trkpt lat="47.22801" lon="4.97671">
        <ele>271.82174682617</ele>
        <time>2020-01-23T11:18:29 0100</time>
      </trkpt>
      <trkpt lat="47.22801" lon="4.97671">
        <ele>271.81329345703</ele>
        <time>2020-01-23T11:18:33 0100</time>
      </trkpt>
      <trkpt lat="47.22801" lon="4.97672">
        <ele>271.80981445312</ele>
        <time>2020-01-23T11:18:37 0100</time>
      </trkpt>
      <trkpt lat="47.22801" lon="4.97672">
        <ele>271.79412841797</ele>
        <time>2020-01-23T11:18:41 0100</time>
      </trkpt>
      <trkpt lat="47.22801" lon="4.97673">
        <ele>271.78399658203</ele>
        <time>2020-01-23T11:18:45 0100</time>
      </trkpt>
      <trkpt lat="47.22802" lon="4.97673">
        <ele>271.73968505859</ele>
        <time>2020-01-23T11:18:49 0100</time>
      </trkpt>
      <trkpt lat="47.22802" lon="4.97674">
        <ele>271.67135620117</ele>
        <time>2020-01-23T11:18:53 0100</time>
      </trkpt>
      <trkpt lat="47.22803" lon="4.97674">
        <ele>271.58630371094</ele>
        <time>2020-01-23T11:18:57 0100</time>
      </trkpt>
      <trkpt lat="47.22803" lon="4.97675">
        <ele>271.49234008789</ele>
        <time>2020-01-23T11:19:01 0100</time>
      </trkpt>
      <trkpt lat="47.22803" lon="4.97675">
        <ele>271.40399169922</ele>
        <time>2020-01-23T11:19:05 0100</time>
      </trkpt>
      <trkpt lat="47.22804" lon="4.97675">
        <ele>271.30120849609</ele>
        <time>2020-01-23T11:19:09 0100</time>
      </trkpt>
      <trkpt lat="47.22804" lon="4.97676">
        <ele>271.18887329102</ele>
        <time>2020-01-23T11:19:13 0100</time>
      </trkpt>
      <trkpt lat="47.22805" lon="4.97676">
        <ele>271.09127807617</ele>
        <time>2020-01-23T11:19:17 0100</time>
      </trkpt>
      <trkpt lat="47.22805" lon="4.97677">
        <ele>270.99658203125</ele>
        <time>2020-01-23T11:19:21 0100</time>
      </trkpt>
      <trkpt lat="47.22806" lon="4.97678">
        <ele>270.9045715332</ele>
        <time>2020-01-23T11:19:25 0100</time>
      </trkpt>
      <trkpt lat="47.22806" lon="4.97679">
        <ele>270.84481811523</ele>
        <time>2020-01-23T11:19:29 0100</time>
      </trkpt>
      <trkpt lat="47.22806" lon="4.9768">
        <ele>270.81597900391</ele>
        <time>2020-01-23T11:19:33 0100</time>
      </trkpt>
      <trkpt lat="47.22806" lon="4.97681">
        <ele>270.79867553711</ele>
        <time>2020-01-23T11:19:37 0100</time>
      </trkpt>
      <trkpt lat="47.22806" lon="4.97682">
        <ele>270.77780151367</ele>
        <time>2020-01-23T11:19:41 0100</time>
      </trkpt>
      <trkpt lat="47.22806" lon="4.97683">
        <ele>270.74139404297</ele>
        <time>2020-01-23T11:19:45 0100</time>
      </trkpt>
      <trkpt lat="47.22806" lon="4.97683">
        <ele>270.69967651367</ele>
        <time>2020-01-23T11:19:49 0100</time>
      </trkpt>
      <trkpt lat="47.22806" lon="4.97684">
        <ele>270.6494140625</ele>
        <time>2020-01-23T11:19:53 0100</time>
      </trkpt>
      <trkpt lat="47.22806" lon="4.97685">
        <ele>270.59893798828</ele>
        <time>2020-01-23T11:19:57 0100</time>
      </trkpt>
      <trkpt lat="47.22807" lon="4.97685">
        <ele>270.56921386719</ele>
        <time>2020-01-23T11:20:01 0100</time>
      </trkpt>
      <trkpt lat="47.22803" lon="4.97679">
        <ele>270.47711181641</ele>
        <time>2020-01-23T11:20:05 0100</time>
      </trkpt>
      <trkpt lat="47.22807" lon="4.97678">
        <ele>270.75720214844</ele>
        <time>2020-01-23T11:20:09 0100</time>
      </trkpt>
      <trkpt lat="47.22809" lon="4.97676">
        <ele>271.22766113281</ele>
        <time>2020-01-23T11:20:13 0100</time>
      </trkpt>
      <trkpt lat="47.2281" lon="4.97673">
        <ele>271.75448608398</ele>
        <time>2020-01-23T11:20:17 0100</time>
      </trkpt>
      <trkpt lat="47.22813" lon="4.97673">
        <ele>272.12048339844</ele>
        <time>2020-01-23T11:20:21 0100</time>
      </trkpt>
      <trkpt lat="47.22816" lon="4.97672">
        <ele>272.58868408203</ele>
        <time>2020-01-23T11:20:25 0100</time>
      </trkpt>
      <trkpt lat="47.22818" lon="4.9767">
        <ele>272.85934448242</ele>
        <time>2020-01-23T11:20:29 0100</time>
      </trkpt>
      <trkpt lat="47.22822" lon="4.97667">
        <ele>273.42028808594</ele>
        <time>2020-01-23T11:20:33 0100</time>
      </trkpt>
      <trkpt lat="47.22826" lon="4.97663">
        <ele>273.86154174805</ele>
        <time>2020-01-23T11:20:37 0100</time>
      </trkpt>
      <trkpt lat="47.22828" lon="4.97658">
        <ele>274.24005126953</ele>
        <time>2020-01-23T11:20:41 0100</time>
      </trkpt>
      <trkpt lat="47.2283" lon="4.97656">
        <ele>274.4245300293</ele>
        <time>2020-01-23T11:20:45 0100</time>
      </trkpt>
      <trkpt lat="47.22834" lon="4.97653">
        <ele>274.71197509766</ele>
        <time>2020-01-23T11:20:49 0100</time>
      </trkpt>
      <trkpt lat="47.22838" lon="4.97646">
        <ele>274.87927246094</ele>
        <time>2020-01-23T11:20:53 0100</time>
      </trkpt>
      <trkpt lat="47.22842" lon="4.97638">
        <ele>274.80810546875</ele>
        <time>2020-01-23T11:20:57 0100</time>
      </trkpt>
      <trkpt lat="47.22844" lon="4.9763">
        <ele>274.26956176758</ele>
        <time>2020-01-23T11:21:01 0100</time>
      </trkpt>
      <trkpt lat="47.22847" lon="4.97631">
        <ele>273.66864013672</ele>
        <time>2020-01-23T11:21:05 0100</time>
      </trkpt>
      <trkpt lat="47.2285" lon="4.97627">
        <ele>273.51440429688</ele>
        <time>2020-01-23T11:21:09 0100</time>
      </trkpt>
      <trkpt lat="47.22851" lon="4.97619">
        <ele>273.31805419922</ele>
        <time>2020-01-23T11:21:13 0100</time>
      </trkpt>
      <trkpt lat="47.22851" lon="4.97618">
        <ele>273.14276123047</ele>
        <time>2020-01-23T11:21:17 0100</time>
      </trkpt>
      <trkpt lat="47.22854" lon="4.97613">
        <ele>272.93478393555</ele>
        <time>2020-01-23T11:21:21 0100</time>
      </trkpt>
      <trkpt lat="47.22856" lon="4.97608">
        <ele>272.76782226562</ele>
        <time>2020-01-23T11:21:25 0100</time>
      </trkpt>
      <trkpt lat="47.22858" lon="4.97604">
        <ele>272.53012084961</ele>
        <time>2020-01-23T11:21:29 0100</time>
      </trkpt>
      <trkpt lat="47.22859" lon="4.97599">
        <ele>272.31488037109</ele>
        <time>2020-01-23T11:21:33 0100</time>
      </trkpt>
      <trkpt lat="47.22859" lon="4.97598">
        <ele>272.22219848633</ele>
        <time>2020-01-23T11:21:37 0100</time>
      </trkpt>
      <trkpt lat="47.2286" lon="4.97594">
        <ele>272.2858581543</ele>
        <time>2020-01-23T11:21:41 0100</time>
      </trkpt>
      <trkpt lat="47.22861" lon="4.97586">
        <ele>272.40783691406</ele>
        <time>2020-01-23T11:21:45 0100</time>
      </trkpt>
      <trkpt lat="47.22863" lon="4.9758">
        <ele>272.54708862305</ele>
        <time>2020-01-23T11:21:49 0100</time>
      </trkpt>
      <trkpt lat="47.22865" lon="4.97574">
        <ele>272.69750976562</ele>
        <time>2020-01-23T11:21:53 0100</time>
      </trkpt>
      <trkpt lat="47.22866" lon="4.97567">
        <ele>272.81634521484</ele>
        <time>2020-01-23T11:21:57 0100</time>
      </trkpt>
      <trkpt lat="47.22868" lon="4.9756">
        <ele>272.80200195312</ele>
        <time>2020-01-23T11:22:01 0100</time>
      </trkpt>
      <trkpt lat="47.22869" lon="4.97555">
        <ele>272.70724487305</ele>
        <time>2020-01-23T11:22:04 0100</time>
      </trkpt>
      <trkpt lat="47.22872" lon="4.97548">
        <ele>272.49157714844</ele>
        <time>2020-01-23T11:22:08 0100</time>
      </trkpt>
      <trkpt lat="47.22874" lon="4.9754">
        <ele>272.1364440918</ele>
        <time>2020-01-23T11:22:12 0100</time>
      </trkpt>
      <trkpt lat="47.22875" lon="4.97533">
        <ele>271.64993286133</ele>
        <time>2020-01-23T11:22:16 0100</time>
      </trkpt>
      <trkpt lat="47.22877" lon="4.97528">
        <ele>271.12857055664</ele>
        <time>2020-01-23T11:22:20 0100</time>
      </trkpt>
      <trkpt lat="47.22877" lon="4.97523">
        <ele>270.74594116211</ele>
        <time>2020-01-23T11:22:24 0100</time>
      </trkpt>
      <trkpt lat="47.22879" lon="4.97517">
        <ele>270.57229614258</ele>
        <time>2020-01-23T11:22:28 0100</time>
      </trkpt>
      <trkpt lat="47.22881" lon="4.9751">
        <ele>270.50546264648</ele>
        <time>2020-01-23T11:22:32 0100</time>
      </trkpt>
      <trkpt lat="47.22882" lon="4.97504">
        <ele>270.49252319336</ele>
        <time>2020-01-23T11:22:36 0100</time>
      </trkpt>
      <trkpt lat="47.22883" lon="4.97498">
        <ele>270.53503417969</ele>
        <time>2020-01-23T11:22:40 0100</time>
      </trkpt>
      <trkpt lat="47.22884" lon="4.97492">
        <ele>270.60882568359</ele>
        <time>2020-01-23T11:22:44 0100</time>
      </trkpt>
      <trkpt lat="47.22886" lon="4.97485">
        <ele>270.70346069336</ele>
        <time>2020-01-23T11:22:48 0100</time>
      </trkpt>
      <trkpt lat="47.22888" lon="4.9748">
        <ele>270.8258972168</ele>
        <time>2020-01-23T11:22:52 0100</time>
      </trkpt>
      <trkpt lat="47.22889" lon="4.97474">
        <ele>271.01901245117</ele>
        <time>2020-01-23T11:22:56 0100</time>
      </trkpt>
      <trkpt lat="47.2289" lon="4.97467">
        <ele>271.26156616211</ele>
        <time>2020-01-23T11:23:00 0100</time>
      </trkpt>
      <trkpt lat="47.22892" lon="4.97461">
        <ele>271.49014282227</ele>
        <time>2020-01-23T11:23:04 0100</time>
      </trkpt>
      <trkpt lat="47.22894" lon="4.97455">
        <ele>271.62380981445</ele>
        <time>2020-01-23T11:23:08 0100</time>
      </trkpt>
      <trkpt lat="47.22895" lon="4.97447">
        <ele>271.72842407227</ele>
        <time>2020-01-23T11:23:12 0100</time>
      </trkpt>
      <trkpt lat="47.22896" lon="4.97439">
        <ele>271.70370483398</ele>
        <time>2020-01-23T11:23:16 0100</time>
      </trkpt>
      <trkpt lat="47.22898" lon="4.97435">
        <ele>271.58908081055</ele>
        <time>2020-01-23T11:23:20 0100</time>
      </trkpt>
      <trkpt lat="47.229" lon="4.97429">
        <ele>271.55114746094</ele>
        <time>2020-01-23T11:23:24 0100</time>
      </trkpt>
      <trkpt lat="47.22901" lon="4.97422">
        <ele>271.57907104492</ele>
        <time>2020-01-23T11:23:28 0100</time>
      </trkpt>
      <trkpt lat="47.22902" lon="4.97417">
        <ele>271.66687011719</ele>
        <time>2020-01-23T11:23:32 0100</time>
      </trkpt>
      <trkpt lat="47.22903" lon="4.97411">
        <ele>271.74896240234</ele>
        <time>2020-01-23T11:23:36 0100</time>
      </trkpt>
      <trkpt lat="47.22904" lon="4.97404">
        <ele>271.78869628906</ele>
        <time>2020-01-23T11:23:40 0100</time>
      </trkpt>
      <trkpt lat="47.22905" lon="4.97399">
        <ele>271.80609130859</ele>
        <time>2020-01-23T11:23:44 0100</time>
      </trkpt>
      <trkpt lat="47.22907" lon="4.97394">
        <ele>271.84475708008</ele>
        <time>2020-01-23T11:23:48 0100</time>
      </trkpt>
      <trkpt lat="47.22908" lon="4.97389">
        <ele>271.8955078125</ele>
        <time>2020-01-23T11:23:52 0100</time>
      </trkpt>
      <trkpt lat="47.22908" lon="4.97383">
        <ele>271.88943481445</ele>
        <time>2020-01-23T11:23:56 0100</time>
      </trkpt>
      <trkpt lat="47.22909" lon="4.97381">
        <ele>271.73052978516</ele>
        <time>2020-01-23T11:24:00 0100</time>
      </trkpt>
      <trkpt lat="47.22911" lon="4.97376">
        <ele>271.60784912109</ele>
        <time>2020-01-23T11:24:04 0100</time>
      </trkpt>
      <trkpt lat="47.22911" lon="4.97377">
        <ele>271.59164428711</ele>
        <time>2020-01-23T11:24:08 0100</time>
      </trkpt>
      <trkpt lat="47.22911" lon="4.97375">
        <ele>271.64617919922</ele>
        <time>2020-01-23T11:24:12 0100</time>
      </trkpt>
      <trkpt lat="47.22911" lon="4.97368">
        <ele>271.65017700195</ele>
        <time>2020-01-23T11:24:16 0100</time>
      </trkpt>
      <trkpt lat="47.22913" lon="4.97365">
        <ele>271.30773925781</ele>
        <time>2020-01-23T11:24:20 0100</time>
      </trkpt>
      <trkpt lat="47.22914" lon="4.97361">
        <ele>270.96237182617</ele>
        <time>2020-01-23T11:24:24 0100</time>
      </trkpt>
      <trkpt lat="47.22914" lon="4.97357">
        <ele>270.7451171875</ele>
        <time>2020-01-23T11:24:28 0100</time>
      </trkpt>
      <trkpt lat="47.22915" lon="4.97353">
        <ele>270.63830566406</ele>
        <time>2020-01-23T11:24:32 0100</time>
      </trkpt>
      <trkpt lat="47.22915" lon="4.97353">
        <ele>270.63571166992</ele>
        <time>2020-01-23T11:24:36 0100</time>
      </trkpt>
      <trkpt lat="47.22916" lon="4.97349">
        <ele>270.57144165039</ele>
        <time>2020-01-23T11:24:40 0100</time>
      </trkpt>
      <trkpt lat="47.22916" lon="4.97349">
        <ele>270.54241943359</ele>
        <time>2020-01-23T11:24:44 0100</time>
      </trkpt>
      <trkpt lat="47.22916" lon="4.97349">
        <ele>270.52960205078</ele>
        <time>2020-01-23T11:24:48 0100</time>
      </trkpt>
      <trkpt lat="47.22916" lon="4.97349">
        <ele>270.52627563477</ele>
        <time>2020-01-23T11:24:52 0100</time>
      </trkpt>
      <trkpt lat="47.22916" lon="4.97349">
        <ele>270.52798461914</ele>
        <time>2020-01-23T11:24:56 0100</time>
      </trkpt>
      <trkpt lat="47.22916" lon="4.97349">
        <ele>270.53381347656</ele>
        <time>2020-01-23T11:25:00 0100</time>
      </trkpt>
      <trkpt lat="47.22916" lon="4.9735">
        <ele>270.53765869141</ele>
        <time>2020-01-23T11:25:04 0100</time>
      </trkpt>
      <trkpt lat="47.22916" lon="4.9735">
        <ele>270.5510559082</ele>
        <time>2020-01-23T11:25:08 0100</time>
      </trkpt>
      <trkpt lat="47.22916" lon="4.9735">
        <ele>270.58239746094</ele>
        <time>2020-01-23T11:25:12 0100</time>
      </trkpt>
      <trkpt lat="47.22916" lon="4.9735">
        <ele>270.61590576172</ele>
        <time>2020-01-23T11:25:16 0100</time>
      </trkpt>
      <trkpt lat="47.22916" lon="4.9735">
        <ele>270.70843505859</ele>
        <time>2020-01-23T11:25:20 0100</time>
      </trkpt>
      <trkpt lat="47.22915" lon="4.97348">
        <ele>270.97177124023</ele>
        <time>2020-01-23T11:25:24 0100</time>
      </trkpt>
      <trkpt lat="47.22912" lon="4.97346">
        <ele>271.1149597168</ele>
        <time>2020-01-23T11:25:28 0100</time>
      </trkpt>
      <trkpt lat="47.22909" lon="4.9735">
        <ele>271.28265380859</ele>
        <time>2020-01-23T11:25:32 0100</time>
      </trkpt>
      <trkpt lat="47.22901" lon="4.97353">
        <ele>271.51321411133</ele>
        <time>2020-01-23T11:25:36 0100</time>
      </trkpt>
      <trkpt lat="47.22901" lon="4.97354">
        <ele>271.57278442383</ele>
        <time>2020-01-23T11:25:40 0100</time>
      </trkpt>
      <trkpt lat="47.22904" lon="4.97355">
        <ele>271.69537353516</ele>
        <time>2020-01-23T11:25:44 0100</time>
      </trkpt>
      <trkpt lat="47.22906" lon="4.97352">
        <ele>271.77536010742</ele>
        <time>2020-01-23T11:25:48 0100</time>
      </trkpt>
      <trkpt lat="47.22906" lon="4.97352">
        <ele>271.75360107422</ele>
        <time>2020-01-23T11:25:52 0100</time>
      </trkpt>
      <trkpt lat="47.22906" lon="4.97351">
        <ele>271.73129272461</ele>
        <time>2020-01-23T11:25:56 0100</time>
      </trkpt>
      <trkpt lat="47.22906" lon="4.97351">
        <ele>271.73416137695</ele>
        <time>2020-01-23T11:26:00 0100</time>
      </trkpt>
      <trkpt lat="47.22907" lon="4.97351">
        <ele>271.78295898438</ele>
        <time>2020-01-23T11:26:04 0100</time>
      </trkpt>
      <trkpt lat="47.22905" lon="4.97351">
        <ele>272.28192138672</ele>
        <time>2020-01-23T11:26:08 0100</time>
      </trkpt>
      <trkpt lat="47.22903" lon="4.97351">
        <ele>272.53881835938</ele>
        <time>2020-01-23T11:26:12 0100</time>
      </trkpt>
      <trkpt lat="47.22903" lon="4.97351">
        <ele>272.55972290039</ele>
        <time>2020-01-23T11:26:16 0100</time>
      </trkpt>
      <trkpt lat="47.22903" lon="4.97351">
        <ele>272.57141113281</ele>
        <time>2020-01-23T11:26:20 0100</time>
      </trkpt>
      <trkpt lat="47.22903" lon="4.97352">
        <ele>272.59310913086</ele>
        <time>2020-01-23T11:26:24 0100</time>
      </trkpt>
      <trkpt lat="47.22904" lon="4.97353">
        <ele>272.65798950195</ele>
        <time>2020-01-23T11:26:28 0100</time>
      </trkpt>
      <trkpt lat="47.22903" lon="4.97353">
        <ele>272.68203735352</ele>
        <time>2020-01-23T11:26:32 0100</time>
      </trkpt>
      <trkpt lat="47.22904" lon="4.97358">
        <ele>272.81210327148</ele>
        <time>2020-01-23T11:26:36 0100</time>
      </trkpt>
      <trkpt lat="47.22908" lon="4.97354">
        <ele>272.95553588867</ele>
        <time>2020-01-23T11:26:40 0100</time>
      </trkpt>
      <trkpt lat="47.22908" lon="4.97349">
        <ele>273.05923461914</ele>
        <time>2020-01-23T11:26:44 0100</time>
      </trkpt>
      <trkpt lat="47.2291" lon="4.97341">
        <ele>273.31881713867</ele>
        <time>2020-01-23T11:26:48 0100</time>
      </trkpt>
      <trkpt lat="47.22916" lon="4.97336">
        <ele>273.28015136719</ele>
        <time>2020-01-23T11:26:52 0100</time>
      </trkpt>
      <trkpt lat="47.2292" lon="4.97332">
        <ele>273.17486572266</ele>
        <time>2020-01-23T11:26:56 0100</time>
      </trkpt>
      <trkpt lat="47.22921" lon="4.97326">
        <ele>273.03384399414</ele>
        <time>2020-01-23T11:27:00 0100</time>
      </trkpt>
      <trkpt lat="47.22921" lon="4.97323">
        <ele>273.03134155273</ele>
        <time>2020-01-23T11:27:04 0100</time>
      </trkpt>
      <trkpt lat="47.22921" lon="4.97319">
        <ele>273.25161743164</ele>
        <time>2020-01-23T11:27:08 0100</time>
      </trkpt>
      <trkpt lat="47.22922" lon="4.97314">
        <ele>273.61761474609</ele>
        <time>2020-01-23T11:27:12 0100</time>
      </trkpt>
      <trkpt lat="47.22922" lon="4.97309">
        <ele>274.02182006836</ele>
        <time>2020-01-23T11:27:16 0100</time>
      </trkpt>
      <trkpt lat="47.22923" lon="4.97302">
        <ele>274.27334594727</ele>
        <time>2020-01-23T11:27:20 0100</time>
      </trkpt>
      <trkpt lat="47.22924" lon="4.97296">
        <ele>274.42977905273</ele>
        <time>2020-01-23T11:27:24 0100</time>
      </trkpt>
      <trkpt lat="47.22926" lon="4.9729">
        <ele>274.57122802734</ele>
        <time>2020-01-23T11:27:28 0100</time>
      </trkpt>
      <trkpt lat="47.22927" lon="4.97283">
        <ele>274.58786010742</ele>
        <time>2020-01-23T11:27:32 0100</time>
      </trkpt>
      <trkpt lat="47.22927" lon="4.97278">
        <ele>274.50018310547</ele>
        <time>2020-01-23T11:27:36 0100</time>
      </trkpt>
      <trkpt lat="47.22929" lon="4.9727">
        <ele>274.42120361328</ele>
        <time>2020-01-23T11:27:40 0100</time>
      </trkpt>
      <trkpt lat="47.22932" lon="4.97262">
        <ele>274.18713378906</ele>
        <time>2020-01-23T11:27:44 0100</time>
      </trkpt>
      <trkpt lat="47.22933" lon="4.97258">
        <ele>273.96136474609</ele>
        <time>2020-01-23T11:27:48 0100</time>
      </trkpt>
      <trkpt lat="47.22933" lon="4.97255">
        <ele>273.89791870117</ele>
        <time>2020-01-23T11:27:52 0100</time>
      </trkpt>
      <trkpt lat="47.22933" lon="4.97254">
        <ele>273.88891601562</ele>
        <time>2020-01-23T11:27:56 0100</time>
      </trkpt>
      <trkpt lat="47.22933" lon="4.97254">
        <ele>273.88650512695</ele>
        <time>2020-01-23T11:28:00 0100</time>
      </trkpt>
      <trkpt lat="47.22933" lon="4.97252">
        <ele>273.84619140625</ele>
        <time>2020-01-23T11:28:04 0100</time>
      </trkpt>
      <trkpt lat="47.22933" lon="4.97246">
        <ele>273.78109741211</ele>
        <time>2020-01-23T11:28:08 0100</time>
      </trkpt>
      <trkpt lat="47.22934" lon="4.97242">
        <ele>273.7197265625</ele>
        <time>2020-01-23T11:28:12 0100</time>
      </trkpt>
      <trkpt lat="47.22935" lon="4.97236">
        <ele>273.72381591797</ele>
        <time>2020-01-23T11:28:16 0100</time>
      </trkpt>
      <trkpt lat="47.22936" lon="4.97232">
        <ele>273.7985534668</ele>
        <time>2020-01-23T11:28:20 0100</time>
      </trkpt>
      <trkpt lat="47.22937" lon="4.97228">
        <ele>273.89785766602</ele>
        <time>2020-01-23T11:28:24 0100</time>
      </trkpt>
      <trkpt lat="47.22938" lon="4.97223">
        <ele>274.0625</ele>
        <time>2020-01-23T11:28:28 0100</time>
      </trkpt>
      <trkpt lat="47.22939" lon="4.97217">
        <ele>274.17721557617</ele>
        <time>2020-01-23T11:28:32 0100</time>
      </trkpt>
      <trkpt lat="47.22941" lon="4.97211">
        <ele>274.16213989258</ele>
        <time>2020-01-23T11:28:36 0100</time>
      </trkpt>
      <trkpt lat="47.22943" lon="4.97205">
        <ele>274.05862426758</ele>
        <time>2020-01-23T11:28:40 0100</time>
      </trkpt>
      <trkpt lat="47.22945" lon="4.972">
        <ele>273.87973022461</ele>
        <time>2020-01-23T11:28:44 0100</time>
      </trkpt>
      <trkpt lat="47.22946" lon="4.97195">
        <ele>273.69964599609</ele>
        <time>2020-01-23T11:28:48 0100</time>
      </trkpt>
      <trkpt lat="47.22947" lon="4.97188">
        <ele>273.51519775391</ele>
        <time>2020-01-23T11:28:52 0100</time>
      </trkpt>
      <trkpt lat="47.22949" lon="4.97182">
        <ele>273.31051635742</ele>
        <time>2020-01-23T11:28:56 0100</time>
      </trkpt>
      <trkpt lat="47.2295" lon="4.97177">
        <ele>273.18145751953</ele>
        <time>2020-01-23T11:29:00 0100</time>
      </trkpt>
      <trkpt lat="47.22951" lon="4.97172">
        <ele>273.15710449219</ele>
        <time>2020-01-23T11:29:04 0100</time>
      </trkpt>
      <trkpt lat="47.22952" lon="4.97167">
        <ele>273.20809936523</ele>
        <time>2020-01-23T11:29:08 0100</time>
      </trkpt>
      <trkpt lat="47.22953" lon="4.97162">
        <ele>273.32275390625</ele>
        <time>2020-01-23T11:29:12 0100</time>
      </trkpt>
      <trkpt lat="47.22953" lon="4.97156">
        <ele>273.44055175781</ele>
        <time>2020-01-23T11:29:16 0100</time>
      </trkpt>
      <trkpt lat="47.22953" lon="4.97152">
        <ele>273.55407714844</ele>
        <time>2020-01-23T11:29:20 0100</time>
      </trkpt>
      <trkpt lat="47.22952" lon="4.9715">
        <ele>273.73779296875</ele>
        <time>2020-01-23T11:29:24 0100</time>
      </trkpt>
      <trkpt lat="47.22951" lon="4.97144">
        <ele>273.84240722656</ele>
        <time>2020-01-23T11:29:28 0100</time>
      </trkpt>
      <trkpt lat="47.22949" lon="4.9714">
        <ele>273.9079284668</ele>
        <time>2020-01-23T11:29:32 0100</time>
      </trkpt>
      <trkpt lat="47.22946" lon="4.97135">
        <ele>274.06237792969</ele>
        <time>2020-01-23T11:29:36 0100</time>
      </trkpt>
      <trkpt lat="47.22943" lon="4.97134">
        <ele>274.28695678711</ele>
        <time>2020-01-23T11:29:40 0100</time>
      </trkpt>
      <trkpt lat="47.22944" lon="4.97134">
        <ele>274.34906005859</ele>
        <time>2020-01-23T11:29:44 0100</time>
      </trkpt>
      <trkpt lat="47.22943" lon="4.97133">
        <ele>274.47406005859</ele>
        <time>2020-01-23T11:29:48 0100</time>
      </trkpt>
      <trkpt lat="47.2294" lon="4.97133">
        <ele>274.63946533203</ele>
        <time>2020-01-23T11:29:52 0100</time>
      </trkpt>
      <trkpt lat="47.22941" lon="4.97133">
        <ele>274.67886352539</ele>
        <time>2020-01-23T11:29:56 0100</time>
      </trkpt>
      <trkpt lat="47.22941" lon="4.97133">
        <ele>274.68145751953</ele>
        <time>2020-01-23T11:30:00 0100</time>
      </trkpt>
      <trkpt lat="47.22941" lon="4.97132">
        <ele>274.68246459961</ele>
        <time>2020-01-23T11:30:04 0100</time>
      </trkpt>
      <trkpt lat="47.22941" lon="4.97132">
        <ele>274.67102050781</ele>
        <time>2020-01-23T11:30:08 0100</time>
      </trkpt>
      <trkpt lat="47.22942" lon="4.97132">
        <ele>274.64212036133</ele>
        <time>2020-01-23T11:30:12 0100</time>
      </trkpt>
      <trkpt lat="47.22942" lon="4.97131">
        <ele>274.62115478516</ele>
        <time>2020-01-23T11:30:16 0100</time>
      </trkpt>
      <trkpt lat="47.22942" lon="4.97131">
        <ele>274.60140991211</ele>
        <time>2020-01-23T11:30:20 0100</time>
      </trkpt>
      <trkpt lat="47.22942" lon="4.97131">
        <ele>274.52545166016</ele>
        <time>2020-01-23T11:30:24 0100</time>
      </trkpt>
      <trkpt lat="47.22943" lon="4.97131">
        <ele>274.50335693359</ele>
        <time>2020-01-23T11:30:28 0100</time>
      </trkpt>
      <trkpt lat="47.22943" lon="4.9713">
        <ele>274.48220825195</ele>
        <time>2020-01-23T11:30:32 0100</time>
      </trkpt>
      <trkpt lat="47.22943" lon="4.97131">
        <ele>274.46478271484</ele>
        <time>2020-01-23T11:30:36 0100</time>
      </trkpt>
      <trkpt lat="47.22943" lon="4.97131">
        <ele>274.44903564453</ele>
        <time>2020-01-23T11:30:40 0100</time>
      </trkpt>
      <trkpt lat="47.22943" lon="4.97131">
        <ele>274.44277954102</ele>
        <time>2020-01-23T11:30:44 0100</time>
      </trkpt>
      <trkpt lat="47.22943" lon="4.97131">
        <ele>274.43646240234</ele>
        <time>2020-01-23T11:30:48 0100</time>
      </trkpt>
      <trkpt lat="47.22944" lon="4.97131">
        <ele>274.42523193359</ele>
        <time>2020-01-23T11:30:52 0100</time>
      </trkpt>
      <trkpt lat="47.22944" lon="4.97131">
        <ele>274.40798950195</ele>
        <time>2020-01-23T11:30:56 0100</time>
      </trkpt>
      <trkpt lat="47.22944" lon="4.97131">
        <ele>274.39398193359</ele>
        <time>2020-01-23T11:31:00 0100</time>
      </trkpt>
      <trkpt lat="47.22944" lon="4.97131">
        <ele>274.38439941406</ele>
        <time>2020-01-23T11:31:04 0100</time>
      </trkpt>
      <trkpt lat="47.22943" lon="4.9713">
        <ele>274.37521362305</ele>
        <time>2020-01-23T11:31:08 0100</time>
      </trkpt>
      <trkpt lat="47.22943" lon="4.9713">
        <ele>274.37005615234</ele>
        <time>2020-01-23T11:31:12 0100</time>
      </trkpt>
      <trkpt lat="47.22943" lon="4.9713">
        <ele>274.3684387207</ele>
        <time>2020-01-23T11:31:16 0100</time>
      </trkpt>
      <trkpt lat="47.22943" lon="4.9713">
        <ele>274.36791992188</ele>
        <time>2020-01-23T11:31:20 0100</time>
      </trkpt>
      <trkpt lat="47.22943" lon="4.9713">
        <ele>274.36682128906</ele>
        <time>2020-01-23T11:31:24 0100</time>
      </trkpt>
      <trkpt lat="47.22943" lon="4.9713">
        <ele>274.3639831543</ele>
        <time>2020-01-23T11:31:28 0100</time>
      </trkpt>
      <trkpt lat="47.22943" lon="4.9713">
        <ele>274.36514282227</ele>
        <time>2020-01-23T11:31:32 0100</time>
      </trkpt>
      <trkpt lat="47.22943" lon="4.97129">
        <ele>274.36926269531</ele>
        <time>2020-01-23T11:31:36 0100</time>
      </trkpt>
      <trkpt lat="47.22942" lon="4.97129">
        <ele>274.37512207031</ele>
        <time>2020-01-23T11:31:40 0100</time>
      </trkpt>
      <trkpt lat="47.22944" lon="4.97128">
        <ele>274.40347290039</ele>
        <time>2020-01-23T11:31:44 0100</time>
      </trkpt>
      <trkpt lat="47.22945" lon="4.97126">
        <ele>274.35104370117</ele>
        <time>2020-01-23T11:31:48 0100</time>
      </trkpt>
      <trkpt lat="47.22948" lon="4.97128">
        <ele>274.29260253906</ele>
        <time>2020-01-23T11:31:52 0100</time>
      </trkpt>
      <trkpt lat="47.2295" lon="4.97127">
        <ele>274.35830688477</ele>
        <time>2020-01-23T11:31:56 0100</time>
      </trkpt>
      <trkpt lat="47.22953" lon="4.97122">
        <ele>274.53408813477</ele>
        <time>2020-01-23T11:32:00 0100</time>
      </trkpt>
      <trkpt lat="47.22955" lon="4.97117">
        <ele>274.60003662109</ele>
        <time>2020-01-23T11:32:04 0100</time>
      </trkpt>
      <trkpt lat="47.22955" lon="4.97113">
        <ele>274.56149291992</ele>
        <time>2020-01-23T11:32:08 0100</time>
      </trkpt>
      <trkpt lat="47.22954" lon="4.97112">
        <ele>274.63668823242</ele>
        <time>2020-01-23T11:32:12 0100</time>
      </trkpt>
      <trkpt lat="47.22952" lon="4.97111">
        <ele>274.72485351562</ele>
        <time>2020-01-23T11:32:16 0100</time>
      </trkpt>
      <trkpt lat="47.2295" lon="4.9711">
        <ele>274.80038452148</ele>
        <time>2020-01-23T11:32:20 0100</time>
      </trkpt>
      <trkpt lat="47.22946" lon="4.97106">
        <ele>274.9172668457</ele>
        <time>2020-01-23T11:32:24 0100</time>
      </trkpt>
      <trkpt lat="47.22946" lon="4.97106">
        <ele>274.94494628906</ele>
        <time>2020-01-23T11:32:28 0100</time>
      </trkpt>
      <trkpt lat="47.22945" lon="4.97106">
        <ele>274.95422363281</ele>
        <time>2020-01-23T11:32:32 0100</time>
      </trkpt>
      <trkpt lat="47.22943" lon="4.97107">
        <ele>274.93099975586</ele>
        <time>2020-01-23T11:32:36 0100</time>
      </trkpt>
      <trkpt lat="47.22942" lon="4.97106">
        <ele>274.92486572266</ele>
        <time>2020-01-23T11:32:40 0100</time>
      </trkpt>
      <trkpt lat="47.22942" lon="4.97106">
        <ele>274.92102050781</ele>
        <time>2020-01-23T11:32:44 0100</time>
      </trkpt>
      <trkpt lat="47.22941" lon="4.97106">
        <ele>274.91680908203</ele>
        <time>2020-01-23T11:32:48 0100</time>
      </trkpt>
      <trkpt lat="47.2294" lon="4.97106">
        <ele>274.92041015625</ele>
        <time>2020-01-23T11:32:52 0100</time>
      </trkpt>
      <trkpt lat="47.22939" lon="4.97106">
        <ele>274.9352722168</ele>
        <time>2020-01-23T11:32:56 0100</time>
      </trkpt>
      <trkpt lat="47.22939" lon="4.97106">
        <ele>274.96969604492</ele>
        <time>2020-01-23T11:33:00 0100</time>
      </trkpt>
      <trkpt lat="47.2294" lon="4.97106">
        <ele>275.04754638672</ele>
        <time>2020-01-23T11:33:04 0100</time>
      </trkpt>
      <trkpt lat="47.2294" lon="4.97106">
        <ele>275.11477661133</ele>
        <time>2020-01-23T11:33:08 0100</time>
      </trkpt>
      <trkpt lat="47.2294" lon="4.97106">
        <ele>275.16854858398</ele>
        <time>2020-01-23T11:33:12 0100</time>
      </trkpt>
      <trkpt lat="47.2294" lon="4.97106">
        <ele>275.22268676758</ele>
        <time>2020-01-23T11:33:16 0100</time>
      </trkpt>
      <trkpt lat="47.22941" lon="4.97106">
        <ele>275.26351928711</ele>
        <time>2020-01-23T11:33:20 0100</time>
      </trkpt>
      <trkpt lat="47.22941" lon="4.97106">
        <ele>275.29455566406</ele>
        <time>2020-01-23T11:33:24 0100</time>
      </trkpt>
      <trkpt lat="47.22941" lon="4.97106">
        <ele>275.31457519531</ele>
        <time>2020-01-23T11:33:28 0100</time>
      </trkpt>
      <trkpt lat="47.22942" lon="4.97106">
        <ele>275.33856201172</ele>
        <time>2020-01-23T11:33:32 0100</time>
      </trkpt>
      <trkpt lat="47.22942" lon="4.97106">
        <ele>275.34991455078</ele>
        <time>2020-01-23T11:33:36 0100</time>
      </trkpt>
      <trkpt lat="47.22944" lon="4.97112">
        <ele>275.30276489258</ele>
        <time>2020-01-23T11:33:40 0100</time>
      </trkpt>
      <trkpt lat="47.22947" lon="4.97114">
        <ele>275.18765258789</ele>
        <time>2020-01-23T11:33:44 0100</time>
      </trkpt>
      <trkpt lat="47.22947" lon="4.97115">
        <ele>275.18487548828</ele>
        <time>2020-01-23T11:33:48 0100</time>
      </trkpt>
      <trkpt lat="47.2295" lon="4.97115">
        <ele>275.44006347656</ele>
        <time>2020-01-23T11:33:52 0100</time>
      </trkpt>
      <trkpt lat="47.22954" lon="4.97114">
        <ele>275.45916748047</ele>
        <time>2020-01-23T11:33:56 0100</time>
      </trkpt>
      <trkpt lat="47.22956" lon="4.97112">
        <ele>275.3225402832</ele>
        <time>2020-01-23T11:34:00 0100</time>
      </trkpt>
      <trkpt lat="47.22959" lon="4.9711">
        <ele>275.16882324219</ele>
        <time>2020-01-23T11:34:04 0100</time>
      </trkpt>
      <trkpt lat="47.22962" lon="4.97102">
        <ele>274.98416137695</ele>
        <time>2020-01-23T11:34:08 0100</time>
      </trkpt>
      <trkpt lat="47.22963" lon="4.97096">
        <ele>274.73937988281</ele>
        <time>2020-01-23T11:34:12 0100</time>
      </trkpt>
      <trkpt lat="47.22963" lon="4.97092">
        <ele>274.59844970703</ele>
        <time>2020-01-23T11:34:16 0100</time>
      </trkpt>
      <trkpt lat="47.22963" lon="4.97091">
        <ele>274.57357788086</ele>
        <time>2020-01-23T11:34:20 0100</time>
      </trkpt>
      <trkpt lat="47.22963" lon="4.97091">
        <ele>274.55429077148</ele>
        <time>2020-01-23T11:34:24 0100</time>
      </trkpt>
      <trkpt lat="47.22962" lon="4.9709">
        <ele>274.54067993164</ele>
        <time>2020-01-23T11:34:28 0100</time>
      </trkpt>
      <trkpt lat="47.22963" lon="4.9709">
        <ele>274.53350830078</ele>
        <time>2020-01-23T11:34:32 0100</time>
      </trkpt>
      <trkpt lat="47.22963" lon="4.9709">
        <ele>274.51770019531</ele>
        <time>2020-01-23T11:34:36 0100</time>
      </trkpt>
      <trkpt lat="47.22962" lon="4.9709">
        <ele>274.48797607422</ele>
        <time>2020-01-23T11:34:40 0100</time>
      </trkpt>
      <trkpt lat="47.22962" lon="4.9709">
        <ele>274.44140625</ele>
        <time>2020-01-23T11:34:44 0100</time>
      </trkpt>
      <trkpt lat="47.22962" lon="4.9709">
        <ele>274.40679931641</ele>
        <time>2020-01-23T11:34:48 0100</time>
      </trkpt>
      <trkpt lat="47.22962" lon="4.9709">
        <ele>274.38418579102</ele>
        <time>2020-01-23T11:34:53 0100</time>
      </trkpt>
      <trkpt lat="47.22962" lon="4.9709">
        <ele>274.35894775391</ele>
        <time>2020-01-23T11:34:57 0100</time>
      </trkpt>
      <trkpt lat="47.22962" lon="4.97091">
        <ele>274.35198974609</ele>
        <time>2020-01-23T11:35:01 0100</time>
      </trkpt>
      <trkpt lat="47.22962" lon="4.97091">
        <ele>274.34619140625</ele>
        <time>2020-01-23T11:35:05 0100</time>
      </trkpt>
      <trkpt lat="47.22962" lon="4.97091">
        <ele>274.34814453125</ele>
        <time>2020-01-23T11:35:09 0100</time>
      </trkpt>
      <trkpt lat="47.22962" lon="4.97092">
        <ele>274.3717956543</ele>
        <time>2020-01-23T11:35:13 0100</time>
      </trkpt>
      <trkpt lat="47.22962" lon="4.97093">
        <ele>274.40393066406</ele>
        <time>2020-01-23T11:35:17 0100</time>
      </trkpt>
      <trkpt lat="47.22962" lon="4.97093">
        <ele>274.41650390625</ele>
        <time>2020-01-23T11:35:21 0100</time>
      </trkpt>
      <trkpt lat="47.22962" lon="4.97093">
        <ele>274.42098999023</ele>
        <time>2020-01-23T11:35:25 0100</time>
      </trkpt>
      <trkpt lat="47.22962" lon="4.97093">
        <ele>274.43563842773</ele>
        <time>2020-01-23T11:35:29 0100</time>
      </trkpt>
      <trkpt lat="47.22961" lon="4.97096">
        <ele>274.44647216797</ele>
        <time>2020-01-23T11:35:33 0100</time>
      </trkpt>
      <trkpt lat="47.22961" lon="4.97095">
        <ele>274.47412109375</ele>
        <time>2020-01-23T11:35:37 0100</time>
      </trkpt>
      <trkpt lat="47.22962" lon="4.97094">
        <ele>274.5783996582</ele>
        <time>2020-01-23T11:35:41 0100</time>
      </trkpt>
      <trkpt lat="47.22964" lon="4.97087">
        <ele>274.60906982422</ele>
        <time>2020-01-23T11:35:45 0100</time>
      </trkpt>
      <trkpt lat="47.22966" lon="4.97081">
        <ele>274.60101318359</ele>
        <time>2020-01-23T11:35:49 0100</time>
      </trkpt>
      <trkpt lat="47.22967" lon="4.97077">
        <ele>274.50064086914</ele>
        <time>2020-01-23T11:35:53 0100</time>
      </trkpt>
      <trkpt lat="47.22967" lon="4.97074">
        <ele>274.515625</ele>
        <time>2020-01-23T11:35:57 0100</time>
      </trkpt>
      <trkpt lat="47.22967" lon="4.97072">
        <ele>274.78045654297</ele>
        <time>2020-01-23T11:36:01 0100</time>
      </trkpt>
      <trkpt lat="47.22968" lon="4.97065">
        <ele>275.09747314453</ele>
        <time>2020-01-23T11:36:05 0100</time>
      </trkpt>
      <trkpt lat="47.22968" lon="4.97062">
        <ele>275.15689086914</ele>
        <time>2020-01-23T11:36:09 0100</time>
      </trkpt>
      <trkpt lat="47.22969" lon="4.97058">
        <ele>275.43103027344</ele>
        <time>2020-01-23T11:36:13 0100</time>
      </trkpt>
      <trkpt lat="47.22971" lon="4.97054">
        <ele>275.89025878906</ele>
        <time>2020-01-23T11:36:17 0100</time>
      </trkpt>
      <trkpt lat="47.22973" lon="4.97049">
        <ele>276.42358398438</ele>
        <time>2020-01-23T11:36:21 0100</time>
      </trkpt>
      <trkpt lat="47.22975" lon="4.97043">
        <ele>276.88830566406</ele>
        <time>2020-01-23T11:36:25 0100</time>
      </trkpt>
      <trkpt lat="47.22977" lon="4.97038">
        <ele>277.29534912109</ele>
        <time>2020-01-23T11:36:29 0100</time>
      </trkpt>
      <trkpt lat="47.22979" lon="4.97032">
        <ele>277.64318847656</ele>
        <time>2020-01-23T11:36:33 0100</time>
      </trkpt>
      <trkpt lat="47.2298" lon="4.97027">
        <ele>277.91635131836</ele>
        <time>2020-01-23T11:36:37 0100</time>
      </trkpt>
      <trkpt lat="47.22982" lon="4.9702">
        <ele>278.18170166016</ele>
        <time>2020-01-23T11:36:41 0100</time>
      </trkpt>
      <trkpt lat="47.22983" lon="4.97014">
        <ele>278.40780639648</ele>
        <time>2020-01-23T11:36:45 0100</time>
      </trkpt>
      <trkpt lat="47.22985" lon="4.97008">
        <ele>278.53463745117</ele>
        <time>2020-01-23T11:36:49 0100</time>
      </trkpt>
      <trkpt lat="47.22987" lon="4.97001">
        <ele>278.63836669922</ele>
        <time>2020-01-23T11:36:53 0100</time>
      </trkpt>
      <trkpt lat="47.22989" lon="4.96995">
        <ele>278.69735717773</ele>
        <time>2020-01-23T11:36:57 0100</time>
      </trkpt>
      <trkpt lat="47.22991" lon="4.96989">
        <ele>278.716796875</ele>
        <time>2020-01-23T11:37:01 0100</time>
      </trkpt>
      <trkpt lat="47.22992" lon="4.96984">
        <ele>278.76141357422</ele>
        <time>2020-01-23T11:37:05 0100</time>
      </trkpt>
      <trkpt lat="47.22994" lon="4.96977">
        <ele>278.82705688477</ele>
        <time>2020-01-23T11:37:09 0100</time>
      </trkpt>
      <trkpt lat="47.22995" lon="4.96972">
        <ele>278.92010498047</ele>
        <time>2020-01-23T11:37:13 0100</time>
      </trkpt>
      <trkpt lat="47.22997" lon="4.96967">
        <ele>279.02645874023</ele>
        <time>2020-01-23T11:37:17 0100</time>
      </trkpt>
      <trkpt lat="47.22999" lon="4.96962">
        <ele>279.20263671875</ele>
        <time>2020-01-23T11:37:21 0100</time>
      </trkpt>
      <trkpt lat="47.23" lon="4.96955">
        <ele>279.41760253906</ele>
        <time>2020-01-23T11:37:25 0100</time>
      </trkpt>
      <trkpt lat="47.23002" lon="4.9695">
        <ele>279.73626708984</ele>
        <time>2020-01-23T11:37:29 0100</time>
      </trkpt>
      <trkpt lat="47.23003" lon="4.96945">
        <ele>280.03866577148</ele>
        <time>2020-01-23T11:37:33 0100</time>
      </trkpt>
      <trkpt lat="47.23005" lon="4.96939">
        <ele>280.34820556641</ele>
        <time>2020-01-23T11:37:37 0100</time>
      </trkpt>
      <trkpt lat="47.23006" lon="4.96934">
        <ele>280.74945068359</ele>
        <time>2020-01-23T11:37:41 0100</time>
      </trkpt>
      <trkpt lat="47.23006" lon="4.96931">
        <ele>281.22296142578</ele>
        <time>2020-01-23T11:37:45 0100</time>
      </trkpt>
      <trkpt lat="47.23008" lon="4.96922">
        <ele>281.71362304688</ele>
        <time>2020-01-23T11:37:49 0100</time>
      </trkpt>
      <trkpt lat="47.2301" lon="4.96915">
        <ele>282.0163269043</ele>
        <time>2020-01-23T11:37:53 0100</time>
      </trkpt>
      <trkpt lat="47.23012" lon="4.96909">
        <ele>282.18121337891</ele>
        <time>2020-01-23T11:37:57 0100</time>
      </trkpt>
      <trkpt lat="47.23014" lon="4.96902">
        <ele>282.34213256836</ele>
        <time>2020-01-23T11:38:01 0100</time>
      </trkpt>
      <trkpt lat="47.23014" lon="4.96897">
        <ele>282.54138183594</ele>
        <time>2020-01-23T11:38:05 0100</time>
      </trkpt>
      <trkpt lat="47.23015" lon="4.96892">
        <ele>282.72946166992</ele>
        <time>2020-01-23T11:38:09 0100</time>
      </trkpt>
      <trkpt lat="47.23016" lon="4.9689">
        <ele>282.98620605469</ele>
        <time>2020-01-23T11:38:13 0100</time>
      </trkpt>
      <trkpt lat="47.23017" lon="4.96885">
        <ele>283.42086791992</ele>
        <time>2020-01-23T11:38:17 0100</time>
      </trkpt>
      <trkpt lat="47.23018" lon="4.96879">
        <ele>283.7731628418</ele>
        <time>2020-01-23T11:38:21 0100</time>
      </trkpt>
      <trkpt lat="47.2302" lon="4.96872">
        <ele>284.03912353516</ele>
        <time>2020-01-23T11:38:25 0100</time>
      </trkpt>
      <trkpt lat="47.23022" lon="4.96866">
        <ele>284.20455932617</ele>
        <time>2020-01-23T11:38:29 0100</time>
      </trkpt>
      <trkpt lat="47.23024" lon="4.9686">
        <ele>284.31945800781</ele>
        <time>2020-01-23T11:38:33 0100</time>
      </trkpt>
      <trkpt lat="47.23026" lon="4.96854">
        <ele>284.40106201172</ele>
        <time>2020-01-23T11:38:37 0100</time>
      </trkpt>
      <trkpt lat="47.23027" lon="4.96848">
        <ele>284.46304321289</ele>
        <time>2020-01-23T11:38:41 0100</time>
      </trkpt>
      <trkpt lat="47.23029" lon="4.96843">
        <ele>284.52682495117</ele>
        <time>2020-01-23T11:38:45 0100</time>
      </trkpt>
      <trkpt lat="47.2303" lon="4.96838">
        <ele>284.61337280273</ele>
        <time>2020-01-23T11:38:49 0100</time>
      </trkpt>
      <trkpt lat="47.23031" lon="4.96832">
        <ele>284.71865844727</ele>
        <time>2020-01-23T11:38:53 0100</time>
      </trkpt>
      <trkpt lat="47.23033" lon="4.96826">
        <ele>284.83117675781</ele>
        <time>2020-01-23T11:38:57 0100</time>
      </trkpt>
      <trkpt lat="47.23035" lon="4.9682">
        <ele>284.94000244141</ele>
        <time>2020-01-23T11:39:01 0100</time>
      </trkpt>
      <trkpt lat="47.23036" lon="4.96815">
        <ele>285.04309082031</ele>
        <time>2020-01-23T11:39:05 0100</time>
      </trkpt>
      <trkpt lat="47.23037" lon="4.96811">
        <ele>285.15280151367</ele>
        <time>2020-01-23T11:39:09 0100</time>
      </trkpt>
      <trkpt lat="47.23038" lon="4.96807">
        <ele>285.28936767578</ele>
        <time>2020-01-23T11:39:13 0100</time>
      </trkpt>
      <trkpt lat="47.23039" lon="4.96801">
        <ele>285.43585205078</ele>
        <time>2020-01-23T11:39:17 0100</time>
      </trkpt>
      <trkpt lat="47.2304" lon="4.96795">
        <ele>285.58889770508</ele>
        <time>2020-01-23T11:39:21 0100</time>
      </trkpt>
      <trkpt lat="47.23042" lon="4.96789">
        <ele>285.75842285156</ele>
        <time>2020-01-23T11:39:25 0100</time>
      </trkpt>
      <trkpt lat="47.23043" lon="4.96783">
        <ele>285.94186401367</ele>
        <time>2020-01-23T11:39:29 0100</time>
      </trkpt>
      <trkpt lat="47.23044" lon="4.96778">
        <ele>286.13928222656</ele>
        <time>2020-01-23T11:39:33 0100</time>
      </trkpt>
      <trkpt lat="47.23046" lon="4.96772">
        <ele>286.34130859375</ele>
        <time>2020-01-23T11:39:37 0100</time>
      </trkpt>
      <trkpt lat="47.23047" lon="4.96768">
        <ele>286.54745483398</ele>
        <time>2020-01-23T11:39:41 0100</time>
      </trkpt>
      <trkpt lat="47.23048" lon="4.96764">
        <ele>286.76062011719</ele>
        <time>2020-01-23T11:39:45 0100</time>
      </trkpt>
      <trkpt lat="47.23048" lon="4.96761">
        <ele>286.87005615234</ele>
        <time>2020-01-23T11:39:49 0100</time>
      </trkpt>
      <trkpt lat="47.23048" lon="4.96762">
        <ele>286.9270324707</ele>
        <time>2020-01-23T11:39:53 0100</time>
      </trkpt>
      <trkpt lat="47.23048" lon="4.96762">
        <ele>286.98950195312</ele>
        <time>2020-01-23T11:39:57 0100</time>
      </trkpt>
      <trkpt lat="47.23049" lon="4.96758">
        <ele>287.11206054688</ele>
        <time>2020-01-23T11:40:01 0100</time>
      </trkpt>
      <trkpt lat="47.2305" lon="4.96752">
        <ele>287.27951049805</ele>
        <time>2020-01-23T11:40:05 0100</time>
      </trkpt>
      <trkpt lat="47.23052" lon="4.96746">
        <ele>287.44619750977</ele>
        <time>2020-01-23T11:40:09 0100</time>
      </trkpt>
      <trkpt lat="47.23054" lon="4.96741">
        <ele>287.61087036133</ele>
        <time>2020-01-23T11:40:13 0100</time>
      </trkpt>
      <trkpt lat="47.23056" lon="4.96735">
        <ele>287.75952148438</ele>
        <time>2020-01-23T11:40:17 0100</time>
      </trkpt>
      <trkpt lat="47.23058" lon="4.9673">
        <ele>287.90615844727</ele>
        <time>2020-01-23T11:40:21 0100</time>
      </trkpt>
      <trkpt lat="47.23059" lon="4.96725">
        <ele>288.06210327148</ele>
        <time>2020-01-23T11:40:25 0100</time>
      </trkpt>
      <trkpt lat="47.23061" lon="4.96721">
        <ele>288.22674560547</ele>
        <time>2020-01-23T11:40:29 0100</time>
      </trkpt>
      <trkpt lat="47.23062" lon="4.96715">
        <ele>288.40475463867</ele>
        <time>2020-01-23T11:40:33 0100</time>
      </trkpt>
      <trkpt lat="47.23064" lon="4.9671">
        <ele>288.59164428711</ele>
        <time>2020-01-23T11:40:37 0100</time>
      </trkpt>
      <trkpt lat="47.23066" lon="4.96705">
        <ele>288.77182006836</ele>
        <time>2020-01-23T11:40:41 0100</time>
      </trkpt>
      <trkpt lat="47.23067" lon="4.967">
        <ele>288.95681762695</ele>
        <time>2020-01-23T11:40:45 0100</time>
      </trkpt>
      <trkpt lat="47.23068" lon="4.96696">
        <ele>289.17660522461</ele>
        <time>2020-01-23T11:40:49 0100</time>
      </trkpt>
      <trkpt lat="47.2307" lon="4.96691">
        <ele>289.41696166992</ele>
        <time>2020-01-23T11:40:53 0100</time>
      </trkpt>
      <trkpt lat="47.23072" lon="4.96687">
        <ele>289.6833190918</ele>
        <time>2020-01-23T11:40:57 0100</time>
      </trkpt>
      <trkpt lat="47.23074" lon="4.96681">
        <ele>289.96035766602</ele>
        <time>2020-01-23T11:41:01 0100</time>
      </trkpt>
      <trkpt lat="47.23076" lon="4.96677">
        <ele>290.23748779297</ele>
        <time>2020-01-23T11:41:05 0100</time>
      </trkpt>
      <trkpt lat="47.23077" lon="4.96672">
        <ele>290.52359008789</ele>
        <time>2020-01-23T11:41:09 0100</time>
      </trkpt>
      <trkpt lat="47.23078" lon="4.96668">
        <ele>290.80545043945</ele>
        <time>2020-01-23T11:41:13 0100</time>
      </trkpt>
      <trkpt lat="47.23079" lon="4.96664">
        <ele>291.08569335938</ele>
        <time>2020-01-23T11:41:17 0100</time>
      </trkpt>
      <trkpt lat="47.23081" lon="4.9666">
        <ele>291.365234375</ele>
        <time>2020-01-23T11:41:21 0100</time>
      </trkpt>
      <trkpt lat="47.23082" lon="4.96654">
        <ele>291.64984130859</ele>
        <time>2020-01-23T11:41:25 0100</time>
      </trkpt>
      <trkpt lat="47.23084" lon="4.96648">
        <ele>291.93057250977</ele>
        <time>2020-01-23T11:41:29 0100</time>
      </trkpt>
      <trkpt lat="47.23086" lon="4.96643">
        <ele>292.20742797852</ele>
        <time>2020-01-23T11:41:33 0100</time>
      </trkpt>
      <trkpt lat="47.23087" lon="4.96637">
        <ele>292.47866821289</ele>
        <time>2020-01-23T11:41:37 0100</time>
      </trkpt>
      <trkpt lat="47.23089" lon="4.96633">
        <ele>292.73947143555</ele>
        <time>2020-01-23T11:41:41 0100</time>
      </trkpt>
      <trkpt lat="47.2309" lon="4.96632">
        <ele>292.88314819336</ele>
        <time>2020-01-23T11:41:45 0100</time>
      </trkpt>
      <trkpt lat="47.23091" lon="4.96629">
        <ele>293.14138793945</ele>
        <time>2020-01-23T11:41:49 0100</time>
      </trkpt>
      <trkpt lat="47.23092" lon="4.96624">
        <ele>293.38787841797</ele>
        <time>2020-01-23T11:41:53 0100</time>
      </trkpt>
      <trkpt lat="47.23093" lon="4.96619">
        <ele>293.60598754883</ele>
        <time>2020-01-23T11:41:57 0100</time>
      </trkpt>
      <trkpt lat="47.23095" lon="4.96614">
        <ele>293.80364990234</ele>
        <time>2020-01-23T11:42:01 0100</time>
      </trkpt>
      <trkpt lat="47.23096" lon="4.96608">
        <ele>293.98770141602</ele>
        <time>2020-01-23T11:42:05 0100</time>
      </trkpt>
      <trkpt lat="47.23096" lon="4.96603">
        <ele>294.15277099609</ele>
        <time>2020-01-23T11:42:09 0100</time>
      </trkpt>
      <trkpt lat="47.23096" lon="4.966">
        <ele>294.31155395508</ele>
        <time>2020-01-23T11:42:13 0100</time>
      </trkpt>
      <trkpt lat="47.23097" lon="4.96594">
        <ele>294.46228027344</ele>
        <time>2020-01-23T11:42:17 0100</time>
      </trkpt>
      <trkpt lat="47.23098" lon="4.9659">
        <ele>294.59655761719</ele>
        <time>2020-01-23T11:42:21 0100</time>
      </trkpt>
      <trkpt lat="47.23096" lon="4.96588">
        <ele>294.79989624023</ele>
        <time>2020-01-23T11:42:25 0100</time>
      </trkpt>
      <trkpt lat="47.23092" lon="4.96582">
        <ele>295.08764648438</ele>
        <time>2020-01-23T11:42:29 0100</time>
      </trkpt>
      <trkpt lat="47.23088" lon="4.96576">
        <ele>295.37149047852</ele>
        <time>2020-01-23T11:42:33 0100</time>
      </trkpt>
      <trkpt lat="47.23086" lon="4.96574">
        <ele>295.6628112793</ele>
        <time>2020-01-23T11:42:37 0100</time>
      </trkpt>
      <trkpt lat="47.23082" lon="4.9657">
        <ele>296.00769042969</ele>
        <time>2020-01-23T11:42:41 0100</time>
      </trkpt>
      <trkpt lat="47.23078" lon="4.96565">
        <ele>296.29690551758</ele>
        <time>2020-01-23T11:42:45 0100</time>
      </trkpt>
      <trkpt lat="47.23074" lon="4.96561">
        <ele>296.52233886719</ele>
        <time>2020-01-23T11:42:49 0100</time>
      </trkpt>
      <trkpt lat="47.23071" lon="4.96557">
        <ele>296.70370483398</ele>
        <time>2020-01-23T11:42:53 0100</time>
      </trkpt>
      <trkpt lat="47.23069" lon="4.96553">
        <ele>296.88470458984</ele>
        <time>2020-01-23T11:42:57 0100</time>
      </trkpt>
      <trkpt lat="47.23067" lon="4.96548">
        <ele>297.08450317383</ele>
        <time>2020-01-23T11:43:01 0100</time>
      </trkpt>
      <trkpt lat="47.23066" lon="4.96542">
        <ele>297.31018066406</ele>
        <time>2020-01-23T11:43:05 0100</time>
      </trkpt>
      <trkpt lat="47.23067" lon="4.96538">
        <ele>297.59527587891</ele>
        <time>2020-01-23T11:43:09 0100</time>
      </trkpt>
      <trkpt lat="47.23068" lon="4.96533">
        <ele>297.93487548828</ele>
        <time>2020-01-23T11:43:13 0100</time>
      </trkpt>
      <trkpt lat="47.2307" lon="4.9653">
        <ele>298.35238647461</ele>
        <time>2020-01-23T11:43:17 0100</time>
      </trkpt>
      <trkpt lat="47.23075" lon="4.96522">
        <ele>298.85632324219</ele>
        <time>2020-01-23T11:43:21 0100</time>
      </trkpt>
      <trkpt lat="47.23078" lon="4.96515">
        <ele>299.42169189453</ele>
        <time>2020-01-23T11:43:25 0100</time>
      </trkpt>
      <trkpt lat="47.2308" lon="4.96511">
        <ele>300.05563354492</ele>
        <time>2020-01-23T11:43:29 0100</time>
      </trkpt>
      <trkpt lat="47.23083" lon="4.9651">
        <ele>300.62078857422</ele>
        <time>2020-01-23T11:43:33 0100</time>
      </trkpt>
      <trkpt lat="47.23089" lon="4.96508">
        <ele>301.08502197266</ele>
        <time>2020-01-23T11:43:37 0100</time>
      </trkpt>
      <trkpt lat="47.23094" lon="4.96507">
        <ele>301.5026550293</ele>
        <time>2020-01-23T11:43:41 0100</time>
      </trkpt>
      <trkpt lat="47.23099" lon="4.96504">
        <ele>301.90020751953</ele>
        <time>2020-01-23T11:43:45 0100</time>
      </trkpt>
      <trkpt lat="47.23103" lon="4.96501">
        <ele>302.28530883789</ele>
        <time>2020-01-23T11:43:49 0100</time>
      </trkpt>
      <trkpt lat="47.23107" lon="4.96499">
        <ele>302.57540893555</ele>
        <time>2020-01-23T11:43:53 0100</time>
      </trkpt>
      <trkpt lat="47.23111" lon="4.96495">
        <ele>302.80694580078</ele>
        <time>2020-01-23T11:43:57 0100</time>
      </trkpt>
      <trkpt lat="47.23114" lon="4.9649">
        <ele>303.02047729492</ele>
        <time>2020-01-23T11:44:01 0100</time>
      </trkpt>
      <trkpt lat="47.23116" lon="4.96486">
        <ele>303.22317504883</ele>
        <time>2020-01-23T11:44:05 0100</time>
      </trkpt>
      <trkpt lat="47.23119" lon="4.9648">
        <ele>303.43362426758</ele>
        <time>2020-01-23T11:44:09 0100</time>
      </trkpt>
      <trkpt lat="47.23121" lon="4.96475">
        <ele>303.67202758789</ele>
        <time>2020-01-23T11:44:13 0100</time>
      </trkpt>
      <trkpt lat="47.23123" lon="4.9647">
        <ele>303.93786621094</ele>
        <time>2020-01-23T11:44:17 0100</time>
      </trkpt>
      <trkpt lat="47.23124" lon="4.96465">
        <ele>304.2197265625</ele>
        <time>2020-01-23T11:44:21 0100</time>
      </trkpt>
      <trkpt lat="47.23126" lon="4.9646">
        <ele>304.49877929688</ele>
        <time>2020-01-23T11:44:25 0100</time>
      </trkpt>
      <trkpt lat="47.23128" lon="4.96454">
        <ele>304.77883911133</ele>
        <time>2020-01-23T11:44:29 0100</time>
      </trkpt>
      <trkpt lat="47.2313" lon="4.9645">
        <ele>305.04077148438</ele>
        <time>2020-01-23T11:44:33 0100</time>
      </trkpt>
      <trkpt lat="47.23132" lon="4.96446">
        <ele>305.30053710938</ele>
        <time>2020-01-23T11:44:37 0100</time>
      </trkpt>
      <trkpt lat="47.23133" lon="4.96443">
        <ele>305.56115722656</ele>
        <time>2020-01-23T11:44:41 0100</time>
      </trkpt>
      <trkpt lat="47.23136" lon="4.96439">
        <ele>305.76135253906</ele>
        <time>2020-01-23T11:44:45 0100</time>
      </trkpt>
      <trkpt lat="47.23138" lon="4.96438">
        <ele>305.93310546875</ele>
        <time>2020-01-23T11:44:49 0100</time>
      </trkpt>
      <trkpt lat="47.23141" lon="4.96437">
        <ele>306.13668823242</ele>
        <time>2020-01-23T11:44:53 0100</time>
      </trkpt>
      <trkpt lat="47.23143" lon="4.96436">
        <ele>306.39022827148</ele>
        <time>2020-01-23T11:44:57 0100</time>
      </trkpt>
      <trkpt lat="47.23145" lon="4.96436">
        <ele>306.67208862305</ele>
        <time>2020-01-23T11:45:01 0100</time>
      </trkpt>
      <trkpt lat="47.23148" lon="4.96436">
        <ele>306.94970703125</ele>
        <time>2020-01-23T11:45:05 0100</time>
      </trkpt>
      <trkpt lat="47.23153" lon="4.96438">
        <ele>307.21820068359</ele>
        <time>2020-01-23T11:45:09 0100</time>
      </trkpt>
      <trkpt lat="47.23157" lon="4.96441">
        <ele>307.50582885742</ele>
        <time>2020-01-23T11:45:13 0100</time>
      </trkpt>
      <trkpt lat="47.23162" lon="4.96444">
        <ele>307.81982421875</ele>
        <time>2020-01-23T11:45:17 0100</time>
      </trkpt>
      <trkpt lat="47.23166" lon="4.96446">
        <ele>308.15338134766</ele>
        <time>2020-01-23T11:45:21 0100</time>
      </trkpt>
      <trkpt lat="47.23169" lon="4.96448">
        <ele>308.48043823242</ele>
        <time>2020-01-23T11:45:25 0100</time>
      </trkpt>
      <trkpt lat="47.23172" lon="4.9645">
        <ele>308.75137329102</ele>
        <time>2020-01-23T11:45:29 0100</time>
      </trkpt>
      <trkpt lat="47.23176" lon="4.96452">
        <ele>309.1337890625</ele>
        <time>2020-01-23T11:45:33 0100</time>
      </trkpt>
      <trkpt lat="47.23178" lon="4.96454">
        <ele>309.52252197266</ele>
        <time>2020-01-23T11:45:37 0100</time>
      </trkpt>
      <trkpt lat="47.23182" lon="4.96454">
        <ele>309.88528442383</ele>
        <time>2020-01-23T11:45:41 0100</time>
      </trkpt>
      <trkpt lat="47.23186" lon="4.96455">
        <ele>310.14364624023</ele>
        <time>2020-01-23T11:45:45 0100</time>
      </trkpt>
      <trkpt lat="47.2319" lon="4.96457">
        <ele>310.44143676758</ele>
        <time>2020-01-23T11:45:49 0100</time>
      </trkpt>
      <trkpt lat="47.23193" lon="4.96459">
        <ele>310.68225097656</ele>
        <time>2020-01-23T11:45:53 0100</time>
      </trkpt>
      <trkpt lat="47.23198" lon="4.9646">
        <ele>310.88116455078</ele>
        <time>2020-01-23T11:45:57 0100</time>
      </trkpt>
      <trkpt lat="47.23202" lon="4.9646">
        <ele>311.04769897461</ele>
        <time>2020-01-23T11:46:01 0100</time>
      </trkpt>
      <trkpt lat="47.23207" lon="4.96461">
        <ele>311.18045043945</ele>
        <time>2020-01-23T11:46:05 0100</time>
      </trkpt>
      <trkpt lat="47.2321" lon="4.96463">
        <ele>311.29067993164</ele>
        <time>2020-01-23T11:46:09 0100</time>
      </trkpt>
      <trkpt lat="47.23214" lon="4.96465">
        <ele>311.38488769531</ele>
        <time>2020-01-23T11:46:13 0100</time>
      </trkpt>
      <trkpt lat="47.23219" lon="4.96466">
        <ele>311.49801635742</ele>
        <time>2020-01-23T11:46:17 0100</time>
      </trkpt>
      <trkpt lat="47.23224" lon="4.96468">
        <ele>311.71835327148</ele>
        <time>2020-01-23T11:46:21 0100</time>
      </trkpt>
      <trkpt lat="47.2323" lon="4.9647">
        <ele>311.9294128418</ele>
        <time>2020-01-23T11:46:25 0100</time>
      </trkpt>
      <trkpt lat="47.23235" lon="4.96472">
        <ele>312.1907043457</ele>
        <time>2020-01-23T11:46:29 0100</time>
      </trkpt>
      <trkpt lat="47.23239" lon="4.96474">
        <ele>312.46176147461</ele>
        <time>2020-01-23T11:46:33 0100</time>
      </trkpt>
      <trkpt lat="47.23243" lon="4.96475">
        <ele>312.74523925781</ele>
        <time>2020-01-23T11:46:37 0100</time>
      </trkpt>
      <trkpt lat="47.23248" lon="4.96477">
        <ele>312.98611450195</ele>
        <time>2020-01-23T11:46:41 0100</time>
      </trkpt>
      <trkpt lat="47.23253" lon="4.96479">
        <ele>313.19058227539</ele>
        <time>2020-01-23T11:46:45 0100</time>
      </trkpt>
      <trkpt lat="47.23257" lon="4.96481">
        <ele>313.33306884766</ele>
        <time>2020-01-23T11:46:49 0100</time>
      </trkpt>
      <trkpt lat="47.23263" lon="4.96484">
        <ele>313.4421081543</ele>
        <time>2020-01-23T11:46:53 0100</time>
      </trkpt>
      <trkpt lat="47.23267" lon="4.96487">
        <ele>313.546875</ele>
        <time>2020-01-23T11:46:57 0100</time>
      </trkpt>
      <trkpt lat="47.23271" lon="4.9649">
        <ele>313.67584228516</ele>
        <time>2020-01-23T11:47:01 0100</time>
      </trkpt>
      <trkpt lat="47.23272" lon="4.96491">
        <ele>313.74542236328</ele>
        <time>2020-01-23T11:47:05 0100</time>
      </trkpt>
      <trkpt lat="47.23272" lon="4.96491">
        <ele>313.75506591797</ele>
        <time>2020-01-23T11:47:09 0100</time>
      </trkpt>
      <trkpt lat="47.23274" lon="4.96492">
        <ele>313.81539916992</ele>
        <time>2020-01-23T11:47:13 0100</time>
      </trkpt>
      <trkpt lat="47.23277" lon="4.96495">
        <ele>313.83123779297</ele>
        <time>2020-01-23T11:47:17 0100</time>
      </trkpt>
      <trkpt lat="47.2328" lon="4.96497">
        <ele>313.83212280273</ele>
        <time>2020-01-23T11:47:20 0100</time>
      </trkpt>
      <trkpt lat="47.23285" lon="4.965">
        <ele>313.78958129883</ele>
        <time>2020-01-23T11:47:24 0100</time>
      </trkpt>
      <trkpt lat="47.23287" lon="4.96501">
        <ele>313.74462890625</ele>
        <time>2020-01-23T11:47:28 0100</time>
      </trkpt>
      <trkpt lat="47.2329" lon="4.96502">
        <ele>313.72924804688</ele>
        <time>2020-01-23T11:47:32 0100</time>
      </trkpt>
      <trkpt lat="47.23292" lon="4.96503">
        <ele>313.78573608398</ele>
        <time>2020-01-23T11:47:36 0100</time>
      </trkpt>
      <trkpt lat="47.23295" lon="4.96503">
        <ele>313.93676757812</ele>
        <time>2020-01-23T11:47:40 0100</time>
      </trkpt>
      <trkpt lat="47.23299" lon="4.96506">
        <ele>314.06799316406</ele>
        <time>2020-01-23T11:47:44 0100</time>
      </trkpt>
      <trkpt lat="47.23303" lon="4.96509">
        <ele>314.16363525391</ele>
        <time>2020-01-23T11:47:48 0100</time>
      </trkpt>
      <trkpt lat="47.23307" lon="4.96511">
        <ele>314.23883056641</ele>
        <time>2020-01-23T11:47:52 0100</time>
      </trkpt>
      <trkpt lat="47.23311" lon="4.96512">
        <ele>314.29241943359</ele>
        <time>2020-01-23T11:47:56 0100</time>
      </trkpt>
      <trkpt lat="47.23316" lon="4.96514">
        <ele>314.32073974609</ele>
        <time>2020-01-23T11:48:00 0100</time>
      </trkpt>
      <trkpt lat="47.2332" lon="4.96516">
        <ele>314.32247924805</ele>
        <time>2020-01-23T11:48:04 0100</time>
      </trkpt>
      <trkpt lat="47.23324" lon="4.96518">
        <ele>314.30380249023</ele>
        <time>2020-01-23T11:48:08 0100</time>
      </trkpt>
      <trkpt lat="47.23329" lon="4.96523">
        <ele>314.2578125</ele>
        <time>2020-01-23T11:48:12 0100</time>
      </trkpt>
      <trkpt lat="47.23334" lon="4.96525">
        <ele>314.19509887695</ele>
        <time>2020-01-23T11:48:16 0100</time>
      </trkpt>
      <trkpt lat="47.23338" lon="4.96526">
        <ele>314.12338256836</ele>
        <time>2020-01-23T11:48:20 0100</time>
      </trkpt>
      <trkpt lat="47.23341" lon="4.96528">
        <ele>314.01187133789</ele>
        <time>2020-01-23T11:48:24 0100</time>
      </trkpt>
      <trkpt lat="47.23343" lon="4.9653">
        <ele>313.86566162109</ele>
        <time>2020-01-23T11:48:28 0100</time>
      </trkpt>
      <trkpt lat="47.23348" lon="4.96531">
        <ele>313.70202636719</ele>
        <time>2020-01-23T11:48:32 0100</time>
      </trkpt>
      <trkpt lat="47.23352" lon="4.96531">
        <ele>313.5390625</ele>
        <time>2020-01-23T11:48:36 0100</time>
      </trkpt>
      <trkpt lat="47.23356" lon="4.96532">
        <ele>313.39862060547</ele>
        <time>2020-01-23T11:48:40 0100</time>
      </trkpt>
      <trkpt lat="47.23357" lon="4.96533">
        <ele>313.3005065918</ele>
        <time>2020-01-23T11:48:44 0100</time>
      </trkpt>
      <trkpt lat="47.2336" lon="4.96535">
        <ele>313.27297973633</ele>
        <time>2020-01-23T11:48:48 0100</time>
      </trkpt>
      <trkpt lat="47.23364" lon="4.96535">
        <ele>313.2585144043</ele>
        <time>2020-01-23T11:48:52 0100</time>
      </trkpt>
      <trkpt lat="47.23368" lon="4.96536">
        <ele>313.21405029297</ele>
        <time>2020-01-23T11:48:56 0100</time>
      </trkpt>
      <trkpt lat="47.23373" lon="4.96536">
        <ele>313.16784667969</ele>
        <time>2020-01-23T11:49:00 0100</time>
      </trkpt>
      <trkpt lat="47.23376" lon="4.96537">
        <ele>313.09997558594</ele>
        <time>2020-01-23T11:49:04 0100</time>
      </trkpt>
      <trkpt lat="47.2338" lon="4.96538">
        <ele>313.05047607422</ele>
        <time>2020-01-23T11:49:08 0100</time>
      </trkpt>
      <trkpt lat="47.23386" lon="4.96539">
        <ele>313.02838134766</ele>
        <time>2020-01-23T11:49:12 0100</time>
      </trkpt>
      <trkpt lat="47.2339" lon="4.96541">
        <ele>312.99392700195</ele>
        <time>2020-01-23T11:49:16 0100</time>
      </trkpt>
      <trkpt lat="47.23396" lon="4.96543">
        <ele>312.94415283203</ele>
        <time>2020-01-23T11:49:20 0100</time>
      </trkpt>
      <trkpt lat="47.23399" lon="4.96544">
        <ele>312.92852783203</ele>
        <time>2020-01-23T11:49:24 0100</time>
      </trkpt>
      <trkpt lat="47.23401" lon="4.96545">
        <ele>312.9797668457</ele>
        <time>2020-01-23T11:49:28 0100</time>
      </trkpt>
      <trkpt lat="47.23406" lon="4.96546">
        <ele>313.07504272461</ele>
        <time>2020-01-23T11:49:32 0100</time>
      </trkpt>
      <trkpt lat="47.23409" lon="4.96546">
        <ele>313.23773193359</ele>
        <time>2020-01-23T11:49:36 0100</time>
      </trkpt>
      <trkpt lat="47.23413" lon="4.96547">
        <ele>313.42202758789</ele>
        <time>2020-01-23T11:49:40 0100</time>
      </trkpt>
      <trkpt lat="47.23418" lon="4.96548">
        <ele>313.52618408203</ele>
        <time>2020-01-23T11:49:44 0100</time>
      </trkpt>
      <trkpt lat="47.23423" lon="4.96549">
        <ele>313.56155395508</ele>
        <time>2020-01-23T11:49:48 0100</time>
      </trkpt>
      <trkpt lat="47.23428" lon="4.9655">
        <ele>313.57278442383</ele>
        <time>2020-01-23T11:49:52 0100</time>
      </trkpt>
      <trkpt lat="47.23433" lon="4.96551">
        <ele>313.59881591797</ele>
        <time>2020-01-23T11:49:56 0100</time>
      </trkpt>
      <trkpt lat="47.23439" lon="4.96552">
        <ele>313.64340209961</ele>
        <time>2020-01-23T11:50:00 0100</time>
      </trkpt>
      <trkpt lat="47.23445" lon="4.96554">
        <ele>313.71630859375</ele>
        <time>2020-01-23T11:50:04 0100</time>
      </trkpt>
      <trkpt lat="47.2345" lon="4.96553">
        <ele>313.86236572266</ele>
        <time>2020-01-23T11:50:08 0100</time>
      </trkpt>
      <trkpt lat="47.23453" lon="4.96552">
        <ele>314.0426940918</ele>
        <time>2020-01-23T11:50:12 0100</time>
      </trkpt>
      <trkpt lat="47.23458" lon="4.96552">
        <ele>314.2626953125</ele>
        <time>2020-01-23T11:50:16 0100</time>
      </trkpt>
      <trkpt lat="47.23463" lon="4.96552">
        <ele>314.44808959961</ele>
        <time>2020-01-23T11:50:20 0100</time>
      </trkpt>
      <trkpt lat="47.23468" lon="4.96552">
        <ele>314.61074829102</ele>
        <time>2020-01-23T11:50:24 0100</time>
      </trkpt>
      <trkpt lat="47.23472" lon="4.96552">
        <ele>314.76556396484</ele>
        <time>2020-01-23T11:50:28 0100</time>
      </trkpt>
      <trkpt lat="47.23475" lon="4.96552">
        <ele>314.93591308594</ele>
        <time>2020-01-23T11:50:32 0100</time>
      </trkpt>
      <trkpt lat="47.23479" lon="4.9655">
        <ele>315.10549926758</ele>
        <time>2020-01-23T11:50:36 0100</time>
      </trkpt>
      <trkpt lat="47.23483" lon="4.96551">
        <ele>315.24169921875</ele>
        <time>2020-01-23T11:50:40 0100</time>
      </trkpt>
      <trkpt lat="47.23487" lon="4.9655">
        <ele>315.36206054688</ele>
        <time>2020-01-23T11:50:44 0100</time>
      </trkpt>
      <trkpt lat="47.2349" lon="4.96551">
        <ele>315.42428588867</ele>
        <time>2020-01-23T11:50:48 0100</time>
      </trkpt>
      <trkpt lat="47.23493" lon="4.96551">
        <ele>315.42230224609</ele>
        <time>2020-01-23T11:50:52 0100</time>
      </trkpt>
      <trkpt lat="47.23499" lon="4.96553">
        <ele>315.38943481445</ele>
        <time>2020-01-23T11:50:56 0100</time>
      </trkpt>
      <trkpt lat="47.23505" lon="4.96556">
        <ele>315.3205871582</ele>
        <time>2020-01-23T11:51:00 0100</time>
      </trkpt>
      <trkpt lat="47.2351" lon="4.96559">
        <ele>315.14465332031</ele>
        <time>2020-01-23T11:51:04 0100</time>
      </trkpt>
      <trkpt lat="47.23515" lon="4.96561">
        <ele>315.01867675781</ele>
        <time>2020-01-23T11:51:08 0100</time>
      </trkpt>
      <trkpt lat="47.23517" lon="4.96559">
        <ele>315.10342407227</ele>
        <time>2020-01-23T11:51:12 0100</time>
      </trkpt>
      <trkpt lat="47.23521" lon="4.96558">
        <ele>315.28866577148</ele>
        <time>2020-01-23T11:51:16 0100</time>
      </trkpt>
      <trkpt lat="47.23525" lon="4.96558">
        <ele>315.50704956055</ele>
        <time>2020-01-23T11:51:20 0100</time>
      </trkpt>
      <trkpt lat="47.2353" lon="4.9656">
        <ele>315.68865966797</ele>
        <time>2020-01-23T11:51:24 0100</time>
      </trkpt>
      <trkpt lat="47.23534" lon="4.96559">
        <ele>315.76177978516</ele>
        <time>2020-01-23T11:51:28 0100</time>
      </trkpt>
      <trkpt lat="47.23537" lon="4.96561">
        <ele>315.77673339844</ele>
        <time>2020-01-23T11:51:32 0100</time>
      </trkpt>
      <trkpt lat="47.23539" lon="4.96563">
        <ele>315.85272216797</ele>
        <time>2020-01-23T11:51:36 0100</time>
      </trkpt>
      <trkpt lat="47.23543" lon="4.96568">
        <ele>315.92120361328</ele>
        <time>2020-01-23T11:51:40 0100</time>
      </trkpt>
      <trkpt lat="47.23546" lon="4.9657">
        <ele>315.96591186523</ele>
        <time>2020-01-23T11:51:44 0100</time>
      </trkpt>
      <trkpt lat="47.2355" lon="4.96571">
        <ele>316.00100708008</ele>
        <time>2020-01-23T11:51:48 0100</time>
      </trkpt>
      <trkpt lat="47.23552" lon="4.96572">
        <ele>316.10723876953</ele>
        <time>2020-01-23T11:51:52 0100</time>
      </trkpt>
      <trkpt lat="47.23556" lon="4.96575">
        <ele>316.29971313477</ele>
        <time>2020-01-23T11:51:56 0100</time>
      </trkpt>
      <trkpt lat="47.2356" lon="4.96577">
        <ele>316.53399658203</ele>
        <time>2020-01-23T11:52:00 0100</time>
      </trkpt>
      <trkpt lat="47.23565" lon="4.96577">
        <ele>316.70135498047</ele>
        <time>2020-01-23T11:52:04 0100</time>
      </trkpt>
      <trkpt lat="47.2357" lon="4.96581">
        <ele>316.81246948242</ele>
        <time>2020-01-23T11:52:08 0100</time>
      </trkpt>
      <trkpt lat="47.23573" lon="4.96583">
        <ele>316.89276123047</ele>
        <time>2020-01-23T11:52:12 0100</time>
      </trkpt>
      <trkpt lat="47.23575" lon="4.96584">
        <ele>316.9690246582</ele>
        <time>2020-01-23T11:52:16 0100</time>
      </trkpt>
      <trkpt lat="47.23581" lon="4.96586">
        <ele>317.01086425781</ele>
        <time>2020-01-23T11:52:20 0100</time>
      </trkpt>
      <trkpt lat="47.23585" lon="4.96588">
        <ele>316.97958374023</ele>
        <time>2020-01-23T11:52:24 0100</time>
      </trkpt>
      <trkpt lat="47.2359" lon="4.96591">
        <ele>316.90380859375</ele>
        <time>2020-01-23T11:52:28 0100</time>
      </trkpt>
      <trkpt lat="47.23593" lon="4.96595">
        <ele>316.77563476562</ele>
        <time>2020-01-23T11:52:32 0100</time>
      </trkpt>
      <trkpt lat="47.23598" lon="4.96598">
        <ele>316.63958740234</ele>
        <time>2020-01-23T11:52:36 0100</time>
      </trkpt>
      <trkpt lat="47.23602" lon="4.96601">
        <ele>316.63027954102</ele>
        <time>2020-01-23T11:52:40 0100</time>
      </trkpt>
      <trkpt lat="47.23606" lon="4.96604">
        <ele>316.62255859375</ele>
        <time>2020-01-23T11:52:44 0100</time>
      </trkpt>
      <trkpt lat="47.2361" lon="4.96607">
        <ele>316.59896850586</ele>
        <time>2020-01-23T11:52:48 0100</time>
      </trkpt>
      <trkpt lat="47.23614" lon="4.96609">
        <ele>316.62127685547</ele>
        <time>2020-01-23T11:52:52 0100</time>
      </trkpt>
      <trkpt lat="47.23616" lon="4.9661">
        <ele>316.68768310547</ele>
        <time>2020-01-23T11:52:56 0100</time>
      </trkpt>
      <trkpt lat="47.23619" lon="4.96614">
        <ele>316.73779296875</ele>
        <time>2020-01-23T11:53:00 0100</time>
      </trkpt>
      <trkpt lat="47.23618" lon="4.96612">
        <ele>316.73181152344</ele>
        <time>2020-01-23T11:53:04 0100</time>
      </trkpt>
      <trkpt lat="47.23622" lon="4.96614">
        <ele>316.68267822266</ele>
        <time>2020-01-23T11:53:08 0100</time>
      </trkpt>
      <trkpt lat="47.23627" lon="4.96615">
        <ele>316.45053100586</ele>
        <time>2020-01-23T11:53:12 0100</time>
      </trkpt>
      <trkpt lat="47.2363" lon="4.96615">
        <ele>316.25595092773</ele>
        <time>2020-01-23T11:53:16 0100</time>
      </trkpt>
      <trkpt lat="47.23635" lon="4.96618">
        <ele>316.13732910156</ele>
        <time>2020-01-23T11:53:20 0100</time>
      </trkpt>
      <trkpt lat="47.23638" lon="4.96619">
        <ele>315.88397216797</ele>
        <time>2020-01-23T11:53:24 0100</time>
      </trkpt>
      <trkpt lat="47.23642" lon="4.96619">
        <ele>315.70184326172</ele>
        <time>2020-01-23T11:53:28 0100</time>
      </trkpt>
      <trkpt lat="47.23646" lon="4.96621">
        <ele>315.54943847656</ele>
        <time>2020-01-23T11:53:32 0100</time>
      </trkpt>
      <trkpt lat="47.23651" lon="4.96622">
        <ele>315.43447875977</ele>
        <time>2020-01-23T11:53:36 0100</time>
      </trkpt>
      <trkpt lat="47.23655" lon="4.96623">
        <ele>315.31768798828</ele>
        <time>2020-01-23T11:53:40 0100</time>
      </trkpt>
      <trkpt lat="47.23658" lon="4.96625">
        <ele>315.17141723633</ele>
        <time>2020-01-23T11:53:44 0100</time>
      </trkpt>
      <trkpt lat="47.23663" lon="4.96627">
        <ele>315.0944519043</ele>
        <time>2020-01-23T11:53:48 0100</time>
      </trkpt>
      <trkpt lat="47.23666" lon="4.96628">
        <ele>315.05035400391</ele>
        <time>2020-01-23T11:53:52 0100</time>
      </trkpt>
      <trkpt lat="47.2367" lon="4.96629">
        <ele>315.02438354492</ele>
        <time>2020-01-23T11:53:56 0100</time>
      </trkpt>
      <trkpt lat="47.23674" lon="4.96631">
        <ele>315.00387573242</ele>
        <time>2020-01-23T11:54:00 0100</time>
      </trkpt>
      <trkpt lat="47.23679" lon="4.96633">
        <ele>314.96560668945</ele>
        <time>2020-01-23T11:54:04 0100</time>
      </trkpt>
      <trkpt lat="47.23683" lon="4.96634">
        <ele>314.94381713867</ele>
        <time>2020-01-23T11:54:08 0100</time>
      </trkpt>
      <trkpt lat="47.23686" lon="4.96636">
        <ele>314.9345703125</ele>
        <time>2020-01-23T11:54:12 0100</time>
      </trkpt>
      <trkpt lat="47.23692" lon="4.96639">
        <ele>314.93661499023</ele>
        <time>2020-01-23T11:54:16 0100</time>
      </trkpt>
      <trkpt lat="47.23696" lon="4.9664">
        <ele>314.92391967773</ele>
        <time>2020-01-23T11:54:20 0100</time>
      </trkpt>
      <trkpt lat="47.237" lon="4.96642">
        <ele>314.91076660156</ele>
        <time>2020-01-23T11:54:24 0100</time>
      </trkpt>
      <trkpt lat="47.23705" lon="4.96643">
        <ele>314.90939331055</ele>
        <time>2020-01-23T11:54:28 0100</time>
      </trkpt>
      <trkpt lat="47.23707" lon="4.96643">
        <ele>314.89093017578</ele>
        <time>2020-01-23T11:54:32 0100</time>
      </trkpt>
      <trkpt lat="47.23706" lon="4.96643">
        <ele>314.84191894531</ele>
        <time>2020-01-23T11:54:36 0100</time>
      </trkpt>
      <trkpt lat="47.23709" lon="4.96643">
        <ele>314.61346435547</ele>
        <time>2020-01-23T11:54:40 0100</time>
      </trkpt>
      <trkpt lat="47.23712" lon="4.96644">
        <ele>314.38021850586</ele>
        <time>2020-01-23T11:54:44 0100</time>
      </trkpt>
      <trkpt lat="47.23716" lon="4.96646">
        <ele>314.07406616211</ele>
        <time>2020-01-23T11:54:48 0100</time>
      </trkpt>
      <trkpt lat="47.2372" lon="4.96647">
        <ele>313.7236328125</ele>
        <time>2020-01-23T11:54:52 0100</time>
      </trkpt>
      <trkpt lat="47.23724" lon="4.96649">
        <ele>313.40115356445</ele>
        <time>2020-01-23T11:54:56 0100</time>
      </trkpt>
      <trkpt lat="47.23728" lon="4.96654">
        <ele>313.09881591797</ele>
        <time>2020-01-23T11:55:00 0100</time>
      </trkpt>
      <trkpt lat="47.23732" lon="4.96657">
        <ele>312.94277954102</ele>
        <time>2020-01-23T11:55:04 0100</time>
      </trkpt>
      <trkpt lat="47.23735" lon="4.9666">
        <ele>312.75009155273</ele>
        <time>2020-01-23T11:55:08 0100</time>
      </trkpt>
      <trkpt lat="47.23739" lon="4.96661">
        <ele>312.52548217773</ele>
        <time>2020-01-23T11:55:12 0100</time>
      </trkpt>
      <trkpt lat="47.23743" lon="4.96663">
        <ele>312.21032714844</ele>
        <time>2020-01-23T11:55:16 0100</time>
      </trkpt>
      <trkpt lat="47.23745" lon="4.96665">
        <ele>311.89312744141</ele>
        <time>2020-01-23T11:55:20 0100</time>
      </trkpt>
      <trkpt lat="47.23747" lon="4.96666">
        <ele>311.7067565918</ele>
        <time>2020-01-23T11:55:24 0100</time>
      </trkpt>
      <trkpt lat="47.23751" lon="4.96668">
        <ele>311.52828979492</ele>
        <time>2020-01-23T11:55:28 0100</time>
      </trkpt>
      <trkpt lat="47.23755" lon="4.96668">
        <ele>311.44964599609</ele>
        <time>2020-01-23T11:55:32 0100</time>
      </trkpt>
      <trkpt lat="47.2376" lon="4.96671">
        <ele>311.30590820312</ele>
        <time>2020-01-23T11:55:36 0100</time>
      </trkpt>
      <trkpt lat="47.23764" lon="4.96673">
        <ele>311.09329223633</ele>
        <time>2020-01-23T11:55:40 0100</time>
      </trkpt>
      <trkpt lat="47.23766" lon="4.96673">
        <ele>310.88998413086</ele>
        <time>2020-01-23T11:55:44 0100</time>
      </trkpt>
      <trkpt lat="47.23769" lon="4.96674">
        <ele>310.5986328125</ele>
        <time>2020-01-23T11:55:48 0100</time>
      </trkpt>
      <trkpt lat="47.23773" lon="4.96675">
        <ele>310.35543823242</ele>
        <time>2020-01-23T11:55:52 0100</time>
      </trkpt>
      <trkpt lat="47.23777" lon="4.96676">
        <ele>310.05392456055</ele>
        <time>2020-01-23T11:55:56 0100</time>
      </trkpt>
      <trkpt lat="47.23782" lon="4.96678">
        <ele>309.8014831543</ele>
        <time>2020-01-23T11:56:00 0100</time>
      </trkpt>
      <trkpt lat="47.23787" lon="4.96678">
        <ele>309.56982421875</ele>
        <time>2020-01-23T11:56:04 0100</time>
      </trkpt>
      <trkpt lat="47.23791" lon="4.96679">
        <ele>309.36853027344</ele>
        <time>2020-01-23T11:56:08 0100</time>
      </trkpt>
      <trkpt lat="47.23795" lon="4.96677">
        <ele>309.21759033203</ele>
        <time>2020-01-23T11:56:12 0100</time>
      </trkpt>
      <trkpt lat="47.23798" lon="4.96674">
        <ele>309.1364440918</ele>
        <time>2020-01-23T11:56:16 0100</time>
      </trkpt>
      <trkpt lat="47.23801" lon="4.96667">
        <ele>309.01593017578</ele>
        <time>2020-01-23T11:56:20 0100</time>
      </trkpt>
      <trkpt lat="47.23804" lon="4.96661">
        <ele>308.85198974609</ele>
        <time>2020-01-23T11:56:24 0100</time>
      </trkpt>
      <trkpt lat="47.23807" lon="4.96656">
        <ele>308.73373413086</ele>
        <time>2020-01-23T11:56:28 0100</time>
      </trkpt>
      <trkpt lat="47.23809" lon="4.96653">
        <ele>308.72277832031</ele>
        <time>2020-01-23T11:56:32 0100</time>
      </trkpt>
      <trkpt lat="47.23814" lon="4.96651">
        <ele>308.72875976562</ele>
        <time>2020-01-23T11:56:36 0100</time>
      </trkpt>
      <trkpt lat="47.23816" lon="4.96647">
        <ele>308.83270263672</ele>
        <time>2020-01-23T11:56:40 0100</time>
      </trkpt>
      <trkpt lat="47.2382" lon="4.96647">
        <ele>309.02584838867</ele>
        <time>2020-01-23T11:56:44 0100</time>
      </trkpt>
      <trkpt lat="47.23825" lon="4.96645">
        <ele>309.19509887695</ele>
        <time>2020-01-23T11:56:48 0100</time>
      </trkpt>
      <trkpt lat="47.2383" lon="4.96643">
        <ele>309.26803588867</ele>
        <time>2020-01-23T11:56:52 0100</time>
      </trkpt>
      <trkpt lat="47.23834" lon="4.96645">
        <ele>309.19659423828</ele>
        <time>2020-01-23T11:56:56 0100</time>
      </trkpt>
      <trkpt lat="47.23839" lon="4.96643">
        <ele>309.12161254883</ele>
        <time>2020-01-23T11:57:00 0100</time>
      </trkpt>
      <trkpt lat="47.23844" lon="4.96638">
        <ele>308.99304199219</ele>
        <time>2020-01-23T11:57:04 0100</time>
      </trkpt>
      <trkpt lat="47.23847" lon="4.96632">
        <ele>308.71408081055</ele>
        <time>2020-01-23T11:57:08 0100</time>
      </trkpt>
      <trkpt lat="47.23848" lon="4.96629">
        <ele>308.37292480469</ele>
        <time>2020-01-23T11:57:12 0100</time>
      </trkpt>
      <trkpt lat="47.23848" lon="4.96625">
        <ele>308.07974243164</ele>
        <time>2020-01-23T11:57:16 0100</time>
      </trkpt>
      <trkpt lat="47.23848" lon="4.96624">
        <ele>307.95281982422</ele>
        <time>2020-01-23T11:57:20 0100</time>
      </trkpt>
      <trkpt lat="47.2385" lon="4.96621">
        <ele>308.00030517578</ele>
        <time>2020-01-23T11:57:24 0100</time>
      </trkpt>
      <trkpt lat="47.23851" lon="4.96618">
        <ele>308.2135925293</ele>
        <time>2020-01-23T11:57:28 0100</time>
      </trkpt>
      <trkpt lat="47.23853" lon="4.96617">
        <ele>308.46017456055</ele>
        <time>2020-01-23T11:57:32 0100</time>
      </trkpt>
      <trkpt lat="47.23854" lon="4.96616">
        <ele>308.7981262207</ele>
        <time>2020-01-23T11:57:36 0100</time>
      </trkpt>
      <trkpt lat="47.23859" lon="4.96613">
        <ele>309.39096069336</ele>
        <time>2020-01-23T11:57:40 0100</time>
      </trkpt>
      <trkpt lat="47.23862" lon="4.96612">
        <ele>309.93453979492</ele>
        <time>2020-01-23T11:57:44 0100</time>
      </trkpt>
      <trkpt lat="47.23865" lon="4.96608">
        <ele>310.42425537109</ele>
        <time>2020-01-23T11:57:48 0100</time>
      </trkpt>
      <trkpt lat="47.23869" lon="4.96604">
        <ele>310.69912719727</ele>
        <time>2020-01-23T11:57:52 0100</time>
      </trkpt>
      <trkpt lat="47.23872" lon="4.96602">
        <ele>310.91711425781</ele>
        <time>2020-01-23T11:57:56 0100</time>
      </trkpt>
      <trkpt lat="47.23873" lon="4.96599">
        <ele>311.06591796875</ele>
        <time>2020-01-23T11:58:00 0100</time>
      </trkpt>
      <trkpt lat="47.23875" lon="4.96595">
        <ele>311.18368530273</ele>
        <time>2020-01-23T11:58:04 0100</time>
      </trkpt>
      <trkpt lat="47.23877" lon="4.96594">
        <ele>311.40200805664</ele>
        <time>2020-01-23T11:58:08 0100</time>
      </trkpt>
      <trkpt lat="47.2388" lon="4.96592">
        <ele>311.64471435547</ele>
        <time>2020-01-23T11:58:12 0100</time>
      </trkpt>
      <trkpt lat="47.23881" lon="4.96591">
        <ele>311.66555786133</ele>
        <time>2020-01-23T11:58:16 0100</time>
      </trkpt>
      <trkpt lat="47.23881" lon="4.96591">
        <ele>311.68118286133</ele>
        <time>2020-01-23T11:58:20 0100</time>
      </trkpt>
      <trkpt lat="47.23881" lon="4.96592">
        <ele>311.69476318359</ele>
        <time>2020-01-23T11:58:24 0100</time>
      </trkpt>
      <trkpt lat="47.23881" lon="4.96591">
        <ele>311.70077514648</ele>
        <time>2020-01-23T11:58:28 0100</time>
      </trkpt>
      <trkpt lat="47.23882" lon="4.96591">
        <ele>311.74835205078</ele>
        <time>2020-01-23T11:58:32 0100</time>
      </trkpt>
      <trkpt lat="47.23885" lon="4.96589">
        <ele>311.78271484375</ele>
        <time>2020-01-23T11:58:36 0100</time>
      </trkpt>
      <trkpt lat="47.23886" lon="4.96591">
        <ele>311.87060546875</ele>
        <time>2020-01-23T11:58:40 0100</time>
      </trkpt>
      <trkpt lat="47.23888" lon="4.96597">
        <ele>312.03506469727</ele>
        <time>2020-01-23T11:58:44 0100</time>
      </trkpt>
      <trkpt lat="47.2389" lon="4.966">
        <ele>312.1083984375</ele>
        <time>2020-01-23T11:58:48 0100</time>
      </trkpt>
      <trkpt lat="47.23891" lon="4.96601">
        <ele>312.07727050781</ele>
        <time>2020-01-23T11:58:52 0100</time>
      </trkpt>
      <trkpt lat="47.23892" lon="4.96605">
        <ele>312.13967895508</ele>
        <time>2020-01-23T11:58:56 0100</time>
      </trkpt>
      <trkpt lat="47.23894" lon="4.9661">
        <ele>312.17736816406</ele>
        <time>2020-01-23T11:59:00 0100</time>
      </trkpt>
      <trkpt lat="47.23897" lon="4.96615">
        <ele>312.15472412109</ele>
        <time>2020-01-23T11:59:04 0100</time>
      </trkpt>
      <trkpt lat="47.23899" lon="4.96618">
        <ele>312.10348510742</ele>
        <time>2020-01-23T11:59:08 0100</time>
      </trkpt>
      <trkpt lat="47.23901" lon="4.96622">
        <ele>312.06927490234</ele>
        <time>2020-01-23T11:59:12 0100</time>
      </trkpt>
      <trkpt lat="47.23903" lon="4.96627">
        <ele>312.1650390625</ele>
        <time>2020-01-23T11:59:16 0100</time>
      </trkpt>
      <trkpt lat="47.23905" lon="4.96631">
        <ele>312.34451293945</ele>
        <time>2020-01-23T11:59:20 0100</time>
      </trkpt>
      <trkpt lat="47.23905" lon="4.96637">
        <ele>312.63162231445</ele>
        <time>2020-01-23T11:59:24 0100</time>
      </trkpt>
      <trkpt lat="47.23907" lon="4.9664">
        <ele>312.78701782227</ele>
        <time>2020-01-23T11:59:28 0100</time>
      </trkpt>
      <trkpt lat="47.23911" lon="4.96645">
        <ele>312.70651245117</ele>
        <time>2020-01-23T11:59:32 0100</time>
      </trkpt>
      <trkpt lat="47.23915" lon="4.96648">
        <ele>312.56826782227</ele>
        <time>2020-01-23T11:59:36 0100</time>
      </trkpt>
      <trkpt lat="47.23921" lon="4.96649">
        <ele>312.31622314453</ele>
        <time>2020-01-23T11:59:40 0100</time>
      </trkpt>
      <trkpt lat="47.23924" lon="4.9665">
        <ele>312.07952880859</ele>
        <time>2020-01-23T11:59:44 0100</time>
      </trkpt>
      <trkpt lat="47.23927" lon="4.96651">
        <ele>311.85543823242</ele>
        <time>2020-01-23T11:59:48 0100</time>
      </trkpt>
      <trkpt lat="47.23933" lon="4.96656">
        <ele>311.64077758789</ele>
        <time>2020-01-23T11:59:53 0100</time>
      </trkpt>
      <trkpt lat="47.23938" lon="4.96661">
        <ele>311.32077026367</ele>
        <time>2020-01-23T11:59:57 0100</time>
      </trkpt>
      <trkpt lat="47.23941" lon="4.96664">
        <ele>310.99978637695</ele>
        <time>2020-01-23T12:00:01 0100</time>
      </trkpt>
      <trkpt lat="47.23944" lon="4.96668">
        <ele>310.79541015625</ele>
        <time>2020-01-23T12:00:05 0100</time>
      </trkpt>
      <trkpt lat="47.23948" lon="4.96672">
        <ele>310.69900512695</ele>
        <time>2020-01-23T12:00:09 0100</time>
      </trkpt>
      <trkpt lat="47.2395" lon="4.96674">
        <ele>310.6716003418</ele>
        <time>2020-01-23T12:00:13 0100</time>
      </trkpt>
      <trkpt lat="47.23957" lon="4.96677">
        <ele>310.63952636719</ele>
        <time>2020-01-23T12:00:17 0100</time>
      </trkpt>
      <trkpt lat="47.23961" lon="4.96676">
        <ele>310.55059814453</ele>
        <time>2020-01-23T12:00:21 0100</time>
      </trkpt>
      <trkpt lat="47.23964" lon="4.96674">
        <ele>310.50946044922</ele>
        <time>2020-01-23T12:00:25 0100</time>
      </trkpt>
      <trkpt lat="47.23966" lon="4.9667">
        <ele>310.66021728516</ele>
        <time>2020-01-23T12:00:29 0100</time>
      </trkpt>
      <trkpt lat="47.2397" lon="4.96665">
        <ele>310.9660949707</ele>
        <time>2020-01-23T12:00:33 0100</time>
      </trkpt>
      <trkpt lat="47.23975" lon="4.96661">
        <ele>311.31890869141</ele>
        <time>2020-01-23T12:00:37 0100</time>
      </trkpt>
      <trkpt lat="47.23979" lon="4.96657">
        <ele>311.66015625</ele>
        <time>2020-01-23T12:00:41 0100</time>
      </trkpt>
      <trkpt lat="47.23983" lon="4.96653">
        <ele>312.01403808594</ele>
        <time>2020-01-23T12:00:45 0100</time>
      </trkpt>
      <trkpt lat="47.23987" lon="4.96649">
        <ele>312.43109130859</ele>
        <time>2020-01-23T12:00:49 0100</time>
      </trkpt>
      <trkpt lat="47.23992" lon="4.96645">
        <ele>312.88702392578</ele>
        <time>2020-01-23T12:00:53 0100</time>
      </trkpt>
      <trkpt lat="47.23995" lon="4.96643">
        <ele>313.31982421875</ele>
        <time>2020-01-23T12:00:57 0100</time>
      </trkpt>
      <trkpt lat="47.23998" lon="4.96639">
        <ele>313.74096679688</ele>
        <time>2020-01-23T12:01:01 0100</time>
      </trkpt>
      <trkpt lat="47.24002" lon="4.96636">
        <ele>314.14596557617</ele>
        <time>2020-01-23T12:01:05 0100</time>
      </trkpt>
      <trkpt lat="47.24007" lon="4.96632">
        <ele>314.54183959961</ele>
        <time>2020-01-23T12:01:09 0100</time>
      </trkpt>
      <trkpt lat="47.24011" lon="4.96628">
        <ele>314.91137695312</ele>
        <time>2020-01-23T12:01:13 0100</time>
      </trkpt>
      <trkpt lat="47.24015" lon="4.96624">
        <ele>315.23999023438</ele>
        <time>2020-01-23T12:01:17 0100</time>
      </trkpt>
      <trkpt lat="47.24019" lon="4.9662">
        <ele>315.52755737305</ele>
        <time>2020-01-23T12:01:21 0100</time>
      </trkpt>
      <trkpt lat="47.24022" lon="4.96615">
        <ele>315.78402709961</ele>
        <time>2020-01-23T12:01:25 0100</time>
      </trkpt>
      <trkpt lat="47.24025" lon="4.96612">
        <ele>316.02215576172</ele>
        <time>2020-01-23T12:01:29 0100</time>
      </trkpt>
      <trkpt lat="47.24029" lon="4.96608">
        <ele>316.2278137207</ele>
        <time>2020-01-23T12:01:33 0100</time>
      </trkpt>
      <trkpt lat="47.24033" lon="4.96604">
        <ele>316.34594726562</ele>
        <time>2020-01-23T12:01:37 0100</time>
      </trkpt>
      <trkpt lat="47.24038" lon="4.96601">
        <ele>316.4133605957</ele>
        <time>2020-01-23T12:01:41 0100</time>
      </trkpt>
      <trkpt lat="47.24042" lon="4.96597">
        <ele>316.37509155273</ele>
        <time>2020-01-23T12:01:45 0100</time>
      </trkpt>
      <trkpt lat="47.24045" lon="4.96593">
        <ele>316.20709228516</ele>
        <time>2020-01-23T12:01:49 0100</time>
      </trkpt>
      <trkpt lat="47.24048" lon="4.96591">
        <ele>316.05703735352</ele>
        <time>2020-01-23T12:01:53 0100</time>
      </trkpt>
      <trkpt lat="47.24051" lon="4.96588">
        <ele>315.97790527344</ele>
        <time>2020-01-23T12:01:57 0100</time>
      </trkpt>
      <trkpt lat="47.24053" lon="4.96589">
        <ele>315.78948974609</ele>
        <time>2020-01-23T12:02:01 0100</time>
      </trkpt>
      <trkpt lat="47.24054" lon="4.96588">
        <ele>315.76885986328</ele>
        <time>2020-01-23T12:02:05 0100</time>
      </trkpt>
      <trkpt lat="47.24054" lon="4.96588">
        <ele>315.61581420898</ele>
        <time>2020-01-23T12:02:09 0100</time>
      </trkpt>
      <trkpt lat="47.24061" lon="4.96593">
        <ele>315.35366821289</ele>
        <time>2020-01-23T12:02:13 0100</time>
      </trkpt>
      <trkpt lat="47.24066" lon="4.96594">
        <ele>315.00833129883</ele>
        <time>2020-01-23T12:02:17 0100</time>
      </trkpt>
      <trkpt lat="47.24069" lon="4.96593">
        <ele>314.68878173828</ele>
        <time>2020-01-23T12:02:21 0100</time>
      </trkpt>
      <trkpt lat="47.24071" lon="4.96589">
        <ele>314.42874145508</ele>
        <time>2020-01-23T12:02:25 0100</time>
      </trkpt>
      <trkpt lat="47.24073" lon="4.96585">
        <ele>314.26019287109</ele>
        <time>2020-01-23T12:02:29 0100</time>
      </trkpt>
      <trkpt lat="47.24072" lon="4.96579">
        <ele>314.19567871094</ele>
        <time>2020-01-23T12:02:33 0100</time>
      </trkpt>
      <trkpt lat="47.24071" lon="4.96572">
        <ele>314.20916748047</ele>
        <time>2020-01-23T12:02:37 0100</time>
      </trkpt>
      <trkpt lat="47.2407" lon="4.96567">
        <ele>314.35357666016</ele>
        <time>2020-01-23T12:02:41 0100</time>
      </trkpt>
      <trkpt lat="47.24068" lon="4.96564">
        <ele>314.53497314453</ele>
        <time>2020-01-23T12:02:45 0100</time>
      </trkpt>
      <trkpt lat="47.24067" lon="4.96562">
        <ele>314.67980957031</ele>
        <time>2020-01-23T12:02:49 0100</time>
      </trkpt>
      <trkpt lat="47.24066" lon="4.96558">
        <ele>314.84628295898</ele>
        <time>2020-01-23T12:02:53 0100</time>
      </trkpt>
      <trkpt lat="47.24065" lon="4.96556">
        <ele>314.8766784668</ele>
        <time>2020-01-23T12:02:57 0100</time>
      </trkpt>
      <trkpt lat="47.24065" lon="4.96556">
        <ele>314.88046264648</ele>
        <time>2020-01-23T12:03:01 0100</time>
      </trkpt>
      <trkpt lat="47.24066" lon="4.96556">
        <ele>314.87719726562</ele>
        <time>2020-01-23T12:03:05 0100</time>
      </trkpt>
      <trkpt lat="47.24066" lon="4.96555">
        <ele>314.88882446289</ele>
        <time>2020-01-23T12:03:09 0100</time>
      </trkpt>
      <trkpt lat="47.24066" lon="4.96555">
        <ele>315.06097412109</ele>
        <time>2020-01-23T12:03:13 0100</time>
      </trkpt>
      <trkpt lat="47.24065" lon="4.96556">
        <ele>315.21350097656</ele>
        <time>2020-01-23T12:03:17 0100</time>
      </trkpt>
    </trkseg>
  </trk>
</gpx>